<?xml version="1.0" encoding="UTF-8" standalone="no" ?>
<gpx xmlns="http://www.topografix.com/GPX/1/1" xmlns:xsi="http://www.w3.org/2001/XMLSchema-instance" xsi:schemaLocation="http://www.topografix.com/GPX/1/1 http://www.topografix.com/GPX/1/1/gpx.xsd" version="1.1" creator="VisuGPX - https://www.visugpx.com">
  <metadata>
    <name>Rando Téléthon La Trinité 2013</name>
    <desc><![CDATA[Rando Téléthon La Trinité 2013]]></desc>
  </metadata>
  <trk>
    <name><![CDATA[Rando Téléthon La Trinité]]></name>
    <desc><![CDATA[Avec Fabienne, Olivier, Fred, Jean-Michel, Fabrice.]]></desc>
    <trkseg>
      <trkpt lat="43.74229" lon="7.3149">
        <ele>79</ele>
        <time>2013-12-07T07:37:08.000Z</time>
      </trkpt>
      <trkpt lat="43.74235" lon="7.31486">
        <ele>79.199996948242</ele>
        <time>2013-12-07T07:37:14.000Z</time>
      </trkpt>
      <trkpt lat="43.7424" lon="7.31489">
        <ele>79.400001525879</ele>
        <time>2013-12-07T07:37:18.000Z</time>
      </trkpt>
      <trkpt lat="43.74242" lon="7.31491">
        <ele>79.599998474121</ele>
        <time>2013-12-07T07:37:20.000Z</time>
      </trkpt>
      <trkpt lat="43.74246" lon="7.315">
        <ele>79.800003051758</ele>
        <time>2013-12-07T07:37:27.000Z</time>
      </trkpt>
      <trkpt lat="43.74251" lon="7.31508">
        <ele>80.199996948242</ele>
        <time>2013-12-07T07:37:35.000Z</time>
      </trkpt>
      <trkpt lat="43.74257" lon="7.31518">
        <ele>81</ele>
        <time>2013-12-07T07:37:42.000Z</time>
      </trkpt>
      <trkpt lat="43.74264" lon="7.31537">
        <ele>82</ele>
        <time>2013-12-07T07:37:50.000Z</time>
      </trkpt>
      <trkpt lat="43.74275" lon="7.3155">
        <ele>83</ele>
        <time>2013-12-07T07:37:57.000Z</time>
      </trkpt>
      <trkpt lat="43.74284" lon="7.31564">
        <ele>84.199996948242</ele>
        <time>2013-12-07T07:38:03.000Z</time>
      </trkpt>
      <trkpt lat="43.74294" lon="7.31587">
        <ele>85.199996948242</ele>
        <time>2013-12-07T07:38:11.000Z</time>
      </trkpt>
      <trkpt lat="43.743" lon="7.31607">
        <ele>85.599998474121</ele>
        <time>2013-12-07T07:38:18.000Z</time>
      </trkpt>
      <trkpt lat="43.7431" lon="7.31632">
        <ele>86.400001525879</ele>
        <time>2013-12-07T07:38:26.000Z</time>
      </trkpt>
      <trkpt lat="43.74316" lon="7.31643">
        <ele>86.800003051758</ele>
        <time>2013-12-07T07:38:31.000Z</time>
      </trkpt>
      <trkpt lat="43.74317" lon="7.31647">
        <ele>86.800003051758</ele>
        <time>2013-12-07T07:38:32.000Z</time>
      </trkpt>
      <trkpt lat="43.74326" lon="7.31668">
        <ele>87.599998474121</ele>
        <time>2013-12-07T07:38:38.000Z</time>
      </trkpt>
      <trkpt lat="43.74339" lon="7.31698">
        <ele>89.800003051758</ele>
        <time>2013-12-07T07:38:46.000Z</time>
      </trkpt>
      <trkpt lat="43.7435" lon="7.31724">
        <ele>91.599998474121</ele>
        <time>2013-12-07T07:38:53.000Z</time>
      </trkpt>
      <trkpt lat="43.74364" lon="7.3175">
        <ele>92.800003051758</ele>
        <time>2013-12-07T07:39:01.000Z</time>
      </trkpt>
      <trkpt lat="43.74378" lon="7.31776">
        <ele>92.599998474121</ele>
        <time>2013-12-07T07:39:08.000Z</time>
      </trkpt>
      <trkpt lat="43.74383" lon="7.31796">
        <ele>91.800003051758</ele>
        <time>2013-12-07T07:39:13.000Z</time>
      </trkpt>
      <trkpt lat="43.74386" lon="7.31798">
        <ele>91.800003051758</ele>
        <time>2013-12-07T07:39:14.000Z</time>
      </trkpt>
      <trkpt lat="43.74393" lon="7.31795">
        <ele>92.199996948242</ele>
        <time>2013-12-07T07:39:16.000Z</time>
      </trkpt>
      <trkpt lat="43.744" lon="7.31783">
        <ele>93</ele>
        <time>2013-12-07T07:39:19.000Z</time>
      </trkpt>
      <trkpt lat="43.74402" lon="7.31778">
        <ele>93.400001525879</ele>
        <time>2013-12-07T07:39:20.000Z</time>
      </trkpt>
      <trkpt lat="43.74405" lon="7.31752">
        <ele>95.199996948242</ele>
        <time>2013-12-07T07:39:24.000Z</time>
      </trkpt>
      <trkpt lat="43.74403" lon="7.31737">
        <ele>95.599998474121</ele>
        <time>2013-12-07T07:39:27.000Z</time>
      </trkpt>
      <trkpt lat="43.74401" lon="7.31731">
        <ele>95.599998474121</ele>
        <time>2013-12-07T07:39:28.000Z</time>
      </trkpt>
      <trkpt lat="43.74396" lon="7.31719">
        <ele>95.599998474121</ele>
        <time>2013-12-07T07:39:32.000Z</time>
      </trkpt>
      <trkpt lat="43.74396" lon="7.31711">
        <ele>95.800003051758</ele>
        <time>2013-12-07T07:39:34.000Z</time>
      </trkpt>
      <trkpt lat="43.74392" lon="7.31696">
        <ele>95.800003051758</ele>
        <time>2013-12-07T07:39:37.000Z</time>
      </trkpt>
      <trkpt lat="43.74392" lon="7.31663">
        <ele>96.400001525879</ele>
        <time>2013-12-07T07:39:43.000Z</time>
      </trkpt>
      <trkpt lat="43.74392" lon="7.31637">
        <ele>95.800003051758</ele>
        <time>2013-12-07T07:39:49.000Z</time>
      </trkpt>
      <trkpt lat="43.74392" lon="7.31605">
        <ele>94.800003051758</ele>
        <time>2013-12-07T07:39:55.000Z</time>
      </trkpt>
      <trkpt lat="43.74396" lon="7.31576">
        <ele>94.199996948242</ele>
        <time>2013-12-07T07:40:01.000Z</time>
      </trkpt>
      <trkpt lat="43.74393" lon="7.31543">
        <ele>91.800003051758</ele>
        <time>2013-12-07T07:40:07.000Z</time>
      </trkpt>
      <trkpt lat="43.74386" lon="7.3149">
        <ele>88</ele>
        <time>2013-12-07T07:40:15.000Z</time>
      </trkpt>
      <trkpt lat="43.74387" lon="7.31473">
        <ele>86.199996948242</ele>
        <time>2013-12-07T07:40:17.000Z</time>
      </trkpt>
      <trkpt lat="43.74391" lon="7.31458">
        <ele>84.599998474121</ele>
        <time>2013-12-07T07:40:19.000Z</time>
      </trkpt>
      <trkpt lat="43.74403" lon="7.31432">
        <ele>82</ele>
        <time>2013-12-07T07:40:24.000Z</time>
      </trkpt>
      <trkpt lat="43.74419" lon="7.31435">
        <ele>82</ele>
        <time>2013-12-07T07:40:28.000Z</time>
      </trkpt>
      <trkpt lat="43.74427" lon="7.31445">
        <ele>82.599998474121</ele>
        <time>2013-12-07T07:40:30.000Z</time>
      </trkpt>
      <trkpt lat="43.74434" lon="7.31451">
        <ele>82.800003051758</ele>
        <time>2013-12-07T07:40:32.000Z</time>
      </trkpt>
      <trkpt lat="43.74438" lon="7.31459">
        <ele>83.400001525879</ele>
        <time>2013-12-07T07:40:34.000Z</time>
      </trkpt>
      <trkpt lat="43.74448" lon="7.31468">
        <ele>83.599998474121</ele>
        <time>2013-12-07T07:40:37.000Z</time>
      </trkpt>
      <trkpt lat="43.74455" lon="7.31481">
        <ele>84.400001525879</ele>
        <time>2013-12-07T07:40:40.000Z</time>
      </trkpt>
      <trkpt lat="43.74459" lon="7.31488">
        <ele>84.599998474121</ele>
        <time>2013-12-07T07:40:42.000Z</time>
      </trkpt>
      <trkpt lat="43.74469" lon="7.31503">
        <ele>85.400001525879</ele>
        <time>2013-12-07T07:40:48.000Z</time>
      </trkpt>
      <trkpt lat="43.74493" lon="7.31517">
        <ele>86</ele>
        <time>2013-12-07T07:40:56.000Z</time>
      </trkpt>
      <trkpt lat="43.74516" lon="7.31535">
        <ele>86.800003051758</ele>
        <time>2013-12-07T07:41:05.000Z</time>
      </trkpt>
      <trkpt lat="43.74533" lon="7.31553">
        <ele>87</ele>
        <time>2013-12-07T07:41:13.000Z</time>
      </trkpt>
      <trkpt lat="43.74546" lon="7.31583">
        <ele>88</ele>
        <time>2013-12-07T07:41:22.000Z</time>
      </trkpt>
      <trkpt lat="43.74544" lon="7.31612">
        <ele>90.400001525879</ele>
        <time>2013-12-07T07:41:30.000Z</time>
      </trkpt>
      <trkpt lat="43.74543" lon="7.31632">
        <ele>92.599998474121</ele>
        <time>2013-12-07T07:41:35.000Z</time>
      </trkpt>
      <trkpt lat="43.74542" lon="7.31654">
        <ele>94.400001525879</ele>
        <time>2013-12-07T07:41:40.000Z</time>
      </trkpt>
      <trkpt lat="43.74544" lon="7.31687">
        <ele>94</ele>
        <time>2013-12-07T07:41:47.000Z</time>
      </trkpt>
      <trkpt lat="43.74546" lon="7.31733">
        <ele>92</ele>
        <time>2013-12-07T07:41:55.000Z</time>
      </trkpt>
      <trkpt lat="43.74548" lon="7.31746">
        <ele>91.199996948242</ele>
        <time>2013-12-07T07:41:57.000Z</time>
      </trkpt>
      <trkpt lat="43.74558" lon="7.31767">
        <ele>89.199996948242</ele>
        <time>2013-12-07T07:42:01.000Z</time>
      </trkpt>
      <trkpt lat="43.74564" lon="7.31777">
        <ele>88.400001525879</ele>
        <time>2013-12-07T07:42:03.000Z</time>
      </trkpt>
      <trkpt lat="43.74575" lon="7.31798">
        <ele>87.800003051758</ele>
        <time>2013-12-07T07:42:07.000Z</time>
      </trkpt>
      <trkpt lat="43.74581" lon="7.31817">
        <ele>88.199996948242</ele>
        <time>2013-12-07T07:42:10.000Z</time>
      </trkpt>
      <trkpt lat="43.7458" lon="7.31829">
        <ele>89</ele>
        <time>2013-12-07T07:42:12.000Z</time>
      </trkpt>
      <trkpt lat="43.74579" lon="7.31841">
        <ele>90</ele>
        <time>2013-12-07T07:42:14.000Z</time>
      </trkpt>
      <trkpt lat="43.74579" lon="7.31858">
        <ele>91.400001525879</ele>
        <time>2013-12-07T07:42:17.000Z</time>
      </trkpt>
      <trkpt lat="43.7458" lon="7.31864">
        <ele>91.800003051758</ele>
        <time>2013-12-07T07:42:18.000Z</time>
      </trkpt>
      <trkpt lat="43.74591" lon="7.31911">
        <ele>94.199996948242</ele>
        <time>2013-12-07T07:42:26.000Z</time>
      </trkpt>
      <trkpt lat="43.74593" lon="7.31916">
        <ele>94</ele>
        <time>2013-12-07T07:42:27.000Z</time>
      </trkpt>
      <trkpt lat="43.74607" lon="7.31941">
        <ele>94.599998474121</ele>
        <time>2013-12-07T07:42:32.000Z</time>
      </trkpt>
      <trkpt lat="43.74626" lon="7.31967">
        <ele>94.800003051758</ele>
        <time>2013-12-07T07:42:38.000Z</time>
      </trkpt>
      <trkpt lat="43.74634" lon="7.31976">
        <ele>94.800003051758</ele>
        <time>2013-12-07T07:42:40.000Z</time>
      </trkpt>
      <trkpt lat="43.74647" lon="7.31987">
        <ele>94.599998474121</ele>
        <time>2013-12-07T07:42:43.000Z</time>
      </trkpt>
      <trkpt lat="43.74651" lon="7.31989">
        <ele>94.400001525879</ele>
        <time>2013-12-07T07:42:44.000Z</time>
      </trkpt>
      <trkpt lat="43.74679" lon="7.32004">
        <ele>93.599998474121</ele>
        <time>2013-12-07T07:42:50.000Z</time>
      </trkpt>
      <trkpt lat="43.74716" lon="7.32025">
        <ele>94.199996948242</ele>
        <time>2013-12-07T07:42:58.000Z</time>
      </trkpt>
      <trkpt lat="43.74725" lon="7.32031">
        <ele>94.199996948242</ele>
        <time>2013-12-07T07:43:00.000Z</time>
      </trkpt>
      <trkpt lat="43.74737" lon="7.32046">
        <ele>95.800003051758</ele>
        <time>2013-12-07T07:43:03.000Z</time>
      </trkpt>
      <trkpt lat="43.74744" lon="7.32056">
        <ele>96.599998474121</ele>
        <time>2013-12-07T07:43:05.000Z</time>
      </trkpt>
      <trkpt lat="43.74761" lon="7.32081">
        <ele>99.400001525879</ele>
        <time>2013-12-07T07:43:10.000Z</time>
      </trkpt>
      <trkpt lat="43.74773" lon="7.32093">
        <ele>100.80000305176</ele>
        <time>2013-12-07T07:43:13.000Z</time>
      </trkpt>
      <trkpt lat="43.74781" lon="7.32099">
        <ele>101</ele>
        <time>2013-12-07T07:43:15.000Z</time>
      </trkpt>
      <trkpt lat="43.74786" lon="7.32102">
        <ele>101.19999694824</ele>
        <time>2013-12-07T07:43:16.000Z</time>
      </trkpt>
      <trkpt lat="43.74795" lon="7.32107">
        <ele>101.19999694824</ele>
        <time>2013-12-07T07:43:18.000Z</time>
      </trkpt>
      <trkpt lat="43.7481" lon="7.32107">
        <ele>99.400001525879</ele>
        <time>2013-12-07T07:43:21.000Z</time>
      </trkpt>
      <trkpt lat="43.74836" lon="7.32094">
        <ele>94</ele>
        <time>2013-12-07T07:43:26.000Z</time>
      </trkpt>
      <trkpt lat="43.74873" lon="7.32067">
        <ele>92</ele>
        <time>2013-12-07T07:43:34.000Z</time>
      </trkpt>
      <trkpt lat="43.74901" lon="7.32047">
        <ele>90.400001525879</ele>
        <time>2013-12-07T07:43:40.000Z</time>
      </trkpt>
      <trkpt lat="43.7491" lon="7.32042">
        <ele>90.199996948242</ele>
        <time>2013-12-07T07:43:42.000Z</time>
      </trkpt>
      <trkpt lat="43.74929" lon="7.32033">
        <ele>89.400001525879</ele>
        <time>2013-12-07T07:43:46.000Z</time>
      </trkpt>
      <trkpt lat="43.74972" lon="7.32005">
        <ele>86.400001525879</ele>
        <time>2013-12-07T07:43:56.000Z</time>
      </trkpt>
      <trkpt lat="43.75016" lon="7.31985">
        <ele>85.800003051758</ele>
        <time>2013-12-07T07:44:05.000Z</time>
      </trkpt>
      <trkpt lat="43.75031" lon="7.31983">
        <ele>86.199996948242</ele>
        <time>2013-12-07T07:44:08.000Z</time>
      </trkpt>
      <trkpt lat="43.7504" lon="7.31983">
        <ele>86.599998474121</ele>
        <time>2013-12-07T07:44:10.000Z</time>
      </trkpt>
      <trkpt lat="43.75093" lon="7.31988">
        <ele>88</ele>
        <time>2013-12-07T07:44:21.000Z</time>
      </trkpt>
      <trkpt lat="43.75108" lon="7.31995">
        <ele>88</ele>
        <time>2013-12-07T07:44:24.000Z</time>
      </trkpt>
      <trkpt lat="43.75117" lon="7.32004">
        <ele>88</ele>
        <time>2013-12-07T07:44:26.000Z</time>
      </trkpt>
      <trkpt lat="43.75148" lon="7.32029">
        <ele>87.599998474121</ele>
        <time>2013-12-07T07:44:33.000Z</time>
      </trkpt>
      <trkpt lat="43.75179" lon="7.32048">
        <ele>86.599998474121</ele>
        <time>2013-12-07T07:44:40.000Z</time>
      </trkpt>
      <trkpt lat="43.75215" lon="7.32067">
        <ele>87</ele>
        <time>2013-12-07T07:44:48.000Z</time>
      </trkpt>
      <trkpt lat="43.75255" lon="7.32087">
        <ele>87.199996948242</ele>
        <time>2013-12-07T07:44:57.000Z</time>
      </trkpt>
      <trkpt lat="43.7526" lon="7.32088">
        <ele>87.199996948242</ele>
        <time>2013-12-07T07:44:58.000Z</time>
      </trkpt>
      <trkpt lat="43.75284" lon="7.32091">
        <ele>87.800003051758</ele>
        <time>2013-12-07T07:45:03.000Z</time>
      </trkpt>
      <trkpt lat="43.75319" lon="7.32089">
        <ele>88.599998474121</ele>
        <time>2013-12-07T07:45:10.000Z</time>
      </trkpt>
      <trkpt lat="43.75357" lon="7.32075">
        <ele>90.400001525879</ele>
        <time>2013-12-07T07:45:18.000Z</time>
      </trkpt>
      <trkpt lat="43.75374" lon="7.32065">
        <ele>91.199996948242</ele>
        <time>2013-12-07T07:45:22.000Z</time>
      </trkpt>
      <trkpt lat="43.75392" lon="7.32053">
        <ele>91.800003051758</ele>
        <time>2013-12-07T07:45:26.000Z</time>
      </trkpt>
      <trkpt lat="43.75421" lon="7.32035">
        <ele>92</ele>
        <time>2013-12-07T07:45:33.000Z</time>
      </trkpt>
      <trkpt lat="43.75434" lon="7.3203">
        <ele>91.800003051758</ele>
        <time>2013-12-07T07:45:36.000Z</time>
      </trkpt>
      <trkpt lat="43.75448" lon="7.32027">
        <ele>91.800003051758</ele>
        <time>2013-12-07T07:45:39.000Z</time>
      </trkpt>
      <trkpt lat="43.75464" lon="7.32025">
        <ele>91.800003051758</ele>
        <time>2013-12-07T07:45:43.000Z</time>
      </trkpt>
      <trkpt lat="43.75473" lon="7.32026">
        <ele>91.800003051758</ele>
        <time>2013-12-07T07:45:45.000Z</time>
      </trkpt>
      <trkpt lat="43.75484" lon="7.32031">
        <ele>92</ele>
        <time>2013-12-07T07:45:47.000Z</time>
      </trkpt>
      <trkpt lat="43.75503" lon="7.32037">
        <ele>92.199996948242</ele>
        <time>2013-12-07T07:45:51.000Z</time>
      </trkpt>
      <trkpt lat="43.75539" lon="7.32043">
        <ele>91.800003051758</ele>
        <time>2013-12-07T07:45:59.000Z</time>
      </trkpt>
      <trkpt lat="43.75577" lon="7.32048">
        <ele>91.199996948242</ele>
        <time>2013-12-07T07:46:07.000Z</time>
      </trkpt>
      <trkpt lat="43.7561" lon="7.32054">
        <ele>91.599998474121</ele>
        <time>2013-12-07T07:46:14.000Z</time>
      </trkpt>
      <trkpt lat="43.75662" lon="7.32059">
        <ele>92.400001525879</ele>
        <time>2013-12-07T07:46:25.000Z</time>
      </trkpt>
      <trkpt lat="43.75706" lon="7.32059">
        <ele>93</ele>
        <time>2013-12-07T07:46:34.000Z</time>
      </trkpt>
      <trkpt lat="43.75741" lon="7.32054">
        <ele>93.400001525879</ele>
        <time>2013-12-07T07:46:41.000Z</time>
      </trkpt>
      <trkpt lat="43.75786" lon="7.32049">
        <ele>95.199996948242</ele>
        <time>2013-12-07T07:46:50.000Z</time>
      </trkpt>
      <trkpt lat="43.7583" lon="7.32044">
        <ele>97</ele>
        <time>2013-12-07T07:46:59.000Z</time>
      </trkpt>
      <trkpt lat="43.75867" lon="7.32037">
        <ele>98.800003051758</ele>
        <time>2013-12-07T07:47:07.000Z</time>
      </trkpt>
      <trkpt lat="43.75906" lon="7.32023">
        <ele>99</ele>
        <time>2013-12-07T07:47:16.000Z</time>
      </trkpt>
      <trkpt lat="43.75934" lon="7.32011">
        <ele>98.599998474121</ele>
        <time>2013-12-07T07:47:22.000Z</time>
      </trkpt>
      <trkpt lat="43.75965" lon="7.31995">
        <ele>98.800003051758</ele>
        <time>2013-12-07T07:47:29.000Z</time>
      </trkpt>
      <trkpt lat="43.76004" lon="7.31977">
        <ele>100.19999694824</ele>
        <time>2013-12-07T07:47:38.000Z</time>
      </trkpt>
      <trkpt lat="43.76033" lon="7.31968">
        <ele>99</ele>
        <time>2013-12-07T07:47:45.000Z</time>
      </trkpt>
      <trkpt lat="43.76051" lon="7.31971">
        <ele>98.599998474121</ele>
        <time>2013-12-07T07:47:49.000Z</time>
      </trkpt>
      <trkpt lat="43.7606" lon="7.31976">
        <ele>98.800003051758</ele>
        <time>2013-12-07T07:47:51.000Z</time>
      </trkpt>
      <trkpt lat="43.76073" lon="7.31986">
        <ele>98.800003051758</ele>
        <time>2013-12-07T07:47:54.000Z</time>
      </trkpt>
      <trkpt lat="43.76084" lon="7.31997">
        <ele>99</ele>
        <time>2013-12-07T07:47:57.000Z</time>
      </trkpt>
      <trkpt lat="43.76109" lon="7.32025">
        <ele>103</ele>
        <time>2013-12-07T07:48:04.000Z</time>
      </trkpt>
      <trkpt lat="43.7614" lon="7.32058">
        <ele>106.40000152588</ele>
        <time>2013-12-07T07:48:13.000Z</time>
      </trkpt>
      <trkpt lat="43.76147" lon="7.32067">
        <ele>107</ele>
        <time>2013-12-07T07:48:15.000Z</time>
      </trkpt>
      <trkpt lat="43.76159" lon="7.32085">
        <ele>108.19999694824</ele>
        <time>2013-12-07T07:48:19.000Z</time>
      </trkpt>
      <trkpt lat="43.76185" lon="7.32115">
        <ele>115.19999694824</ele>
        <time>2013-12-07T07:48:27.000Z</time>
      </trkpt>
      <trkpt lat="43.76212" lon="7.32142">
        <ele>117.59999847412</ele>
        <time>2013-12-07T07:48:35.000Z</time>
      </trkpt>
      <trkpt lat="43.76229" lon="7.32153">
        <ele>115.59999847412</ele>
        <time>2013-12-07T07:48:40.000Z</time>
      </trkpt>
      <trkpt lat="43.76257" lon="7.32171">
        <ele>113.19999694824</ele>
        <time>2013-12-07T07:48:48.000Z</time>
      </trkpt>
      <trkpt lat="43.76284" lon="7.32186">
        <ele>115.80000305176</ele>
        <time>2013-12-07T07:48:55.000Z</time>
      </trkpt>
      <trkpt lat="43.76297" lon="7.32192">
        <ele>115.59999847412</ele>
        <time>2013-12-07T07:48:58.000Z</time>
      </trkpt>
      <trkpt lat="43.76312" lon="7.32196">
        <ele>114.40000152588</ele>
        <time>2013-12-07T07:49:01.000Z</time>
      </trkpt>
      <trkpt lat="43.76347" lon="7.32207">
        <ele>112.19999694824</ele>
        <time>2013-12-07T07:49:09.000Z</time>
      </trkpt>
      <trkpt lat="43.76377" lon="7.32215">
        <ele>110.40000152588</ele>
        <time>2013-12-07T07:49:15.000Z</time>
      </trkpt>
      <trkpt lat="43.764" lon="7.32224">
        <ele>108.19999694824</ele>
        <time>2013-12-07T07:49:20.000Z</time>
      </trkpt>
      <trkpt lat="43.76403" lon="7.32227">
        <ele>107.80000305176</ele>
        <time>2013-12-07T07:49:21.000Z</time>
      </trkpt>
      <trkpt lat="43.7641" lon="7.32233">
        <ele>107</ele>
        <time>2013-12-07T07:49:23.000Z</time>
      </trkpt>
      <trkpt lat="43.76423" lon="7.3225">
        <ele>105.80000305176</ele>
        <time>2013-12-07T07:49:27.000Z</time>
      </trkpt>
      <trkpt lat="43.76433" lon="7.32274">
        <ele>107.80000305176</ele>
        <time>2013-12-07T07:49:31.000Z</time>
      </trkpt>
      <trkpt lat="43.76435" lon="7.3228">
        <ele>108.19999694824</ele>
        <time>2013-12-07T07:49:32.000Z</time>
      </trkpt>
      <trkpt lat="43.76446" lon="7.32316">
        <ele>110.40000152588</ele>
        <time>2013-12-07T07:49:38.000Z</time>
      </trkpt>
      <trkpt lat="43.76452" lon="7.32355">
        <ele>111</ele>
        <time>2013-12-07T07:49:44.000Z</time>
      </trkpt>
      <trkpt lat="43.76452" lon="7.32362">
        <ele>110.80000305176</ele>
        <time>2013-12-07T07:49:45.000Z</time>
      </trkpt>
      <trkpt lat="43.76454" lon="7.32395">
        <ele>110.40000152588</ele>
        <time>2013-12-07T07:49:50.000Z</time>
      </trkpt>
      <trkpt lat="43.76453" lon="7.32447">
        <ele>110.59999847412</ele>
        <time>2013-12-07T07:49:58.000Z</time>
      </trkpt>
      <trkpt lat="43.76448" lon="7.32487">
        <ele>111.80000305176</ele>
        <time>2013-12-07T07:50:04.000Z</time>
      </trkpt>
      <trkpt lat="43.76444" lon="7.32498">
        <ele>112.59999847412</ele>
        <time>2013-12-07T07:50:06.000Z</time>
      </trkpt>
      <trkpt lat="43.76446" lon="7.32516">
        <ele>112.40000152588</ele>
        <time>2013-12-07T07:50:09.000Z</time>
      </trkpt>
      <trkpt lat="43.7645" lon="7.32547">
        <ele>112</ele>
        <time>2013-12-07T07:50:14.000Z</time>
      </trkpt>
      <trkpt lat="43.76449" lon="7.3256">
        <ele>112.19999694824</ele>
        <time>2013-12-07T07:50:16.000Z</time>
      </trkpt>
      <trkpt lat="43.76449" lon="7.32591">
        <ele>112.80000305176</ele>
        <time>2013-12-07T07:50:21.000Z</time>
      </trkpt>
      <trkpt lat="43.76449" lon="7.32629">
        <ele>114.19999694824</ele>
        <time>2013-12-07T07:50:27.000Z</time>
      </trkpt>
      <trkpt lat="43.76455" lon="7.32666">
        <ele>114.59999847412</ele>
        <time>2013-12-07T07:50:33.000Z</time>
      </trkpt>
      <trkpt lat="43.76463" lon="7.32712">
        <ele>115.59999847412</ele>
        <time>2013-12-07T07:50:41.000Z</time>
      </trkpt>
      <trkpt lat="43.76469" lon="7.32751">
        <ele>115.80000305176</ele>
        <time>2013-12-07T07:50:47.000Z</time>
      </trkpt>
      <trkpt lat="43.76472" lon="7.32763">
        <ele>115.59999847412</ele>
        <time>2013-12-07T07:50:49.000Z</time>
      </trkpt>
      <trkpt lat="43.76479" lon="7.32793">
        <ele>114.59999847412</ele>
        <time>2013-12-07T07:50:54.000Z</time>
      </trkpt>
      <trkpt lat="43.76494" lon="7.3284">
        <ele>111</ele>
        <time>2013-12-07T07:51:02.000Z</time>
      </trkpt>
      <trkpt lat="43.76508" lon="7.32876">
        <ele>110.59999847412</ele>
        <time>2013-12-07T07:51:09.000Z</time>
      </trkpt>
      <trkpt lat="43.76512" lon="7.32886">
        <ele>111</ele>
        <time>2013-12-07T07:51:11.000Z</time>
      </trkpt>
      <trkpt lat="43.76523" lon="7.32896">
        <ele>110.59999847412</ele>
        <time>2013-12-07T07:51:14.000Z</time>
      </trkpt>
      <trkpt lat="43.76549" lon="7.32921">
        <ele>109.59999847412</ele>
        <time>2013-12-07T07:51:20.000Z</time>
      </trkpt>
      <trkpt lat="43.76573" lon="7.32941">
        <ele>108</ele>
        <time>2013-12-07T07:51:26.000Z</time>
      </trkpt>
      <trkpt lat="43.76598" lon="7.3296">
        <ele>107.59999847412</ele>
        <time>2013-12-07T07:51:33.000Z</time>
      </trkpt>
      <trkpt lat="43.76628" lon="7.32985">
        <ele>108.19999694824</ele>
        <time>2013-12-07T07:51:42.000Z</time>
      </trkpt>
      <trkpt lat="43.76648" lon="7.33001">
        <ele>108.19999694824</ele>
        <time>2013-12-07T07:51:48.000Z</time>
      </trkpt>
      <trkpt lat="43.76676" lon="7.33023">
        <ele>108</ele>
        <time>2013-12-07T07:51:56.000Z</time>
      </trkpt>
      <trkpt lat="43.76712" lon="7.33051">
        <ele>108.40000152588</ele>
        <time>2013-12-07T07:52:06.000Z</time>
      </trkpt>
      <trkpt lat="43.76745" lon="7.33077">
        <ele>109.59999847412</ele>
        <time>2013-12-07T07:52:13.000Z</time>
      </trkpt>
      <trkpt lat="43.76791" lon="7.33114">
        <ele>111.80000305176</ele>
        <time>2013-12-07T07:52:22.000Z</time>
      </trkpt>
      <trkpt lat="43.76822" lon="7.33136">
        <ele>113.19999694824</ele>
        <time>2013-12-07T07:52:28.000Z</time>
      </trkpt>
      <trkpt lat="43.76836" lon="7.33146">
        <ele>114</ele>
        <time>2013-12-07T07:52:31.000Z</time>
      </trkpt>
      <trkpt lat="43.76843" lon="7.33157">
        <ele>114.40000152588</ele>
        <time>2013-12-07T07:52:33.000Z</time>
      </trkpt>
      <trkpt lat="43.76863" lon="7.33168">
        <ele>114.80000305176</ele>
        <time>2013-12-07T07:52:37.000Z</time>
      </trkpt>
      <trkpt lat="43.76867" lon="7.33171">
        <ele>115.19999694824</ele>
        <time>2013-12-07T07:52:38.000Z</time>
      </trkpt>
      <trkpt lat="43.76885" lon="7.33187">
        <ele>118</ele>
        <time>2013-12-07T07:52:42.000Z</time>
      </trkpt>
      <trkpt lat="43.76915" lon="7.33215">
        <ele>124.40000152588</ele>
        <time>2013-12-07T07:52:49.000Z</time>
      </trkpt>
      <trkpt lat="43.7693" lon="7.33224">
        <ele>125.59999847412</ele>
        <time>2013-12-07T07:52:52.000Z</time>
      </trkpt>
      <trkpt lat="43.7695" lon="7.33234">
        <ele>125.80000305176</ele>
        <time>2013-12-07T07:52:56.000Z</time>
      </trkpt>
      <trkpt lat="43.76984" lon="7.33248">
        <ele>125.40000152588</ele>
        <time>2013-12-07T07:53:03.000Z</time>
      </trkpt>
      <trkpt lat="43.77018" lon="7.33264">
        <ele>127.59999847412</ele>
        <time>2013-12-07T07:53:10.000Z</time>
      </trkpt>
      <trkpt lat="43.77048" lon="7.33278">
        <ele>130</ele>
        <time>2013-12-07T07:53:17.000Z</time>
      </trkpt>
      <trkpt lat="43.77084" lon="7.33298">
        <ele>133.60000610352</ele>
        <time>2013-12-07T07:53:24.000Z</time>
      </trkpt>
      <trkpt lat="43.77111" lon="7.33303">
        <ele>133.19999694824</ele>
        <time>2013-12-07T07:53:30.000Z</time>
      </trkpt>
      <trkpt lat="43.77135" lon="7.33307">
        <ele>132.19999694824</ele>
        <time>2013-12-07T07:53:35.000Z</time>
      </trkpt>
      <trkpt lat="43.7714" lon="7.33307">
        <ele>131.80000305176</ele>
        <time>2013-12-07T07:53:36.000Z</time>
      </trkpt>
      <trkpt lat="43.77155" lon="7.33308">
        <ele>130.60000610352</ele>
        <time>2013-12-07T07:53:39.000Z</time>
      </trkpt>
      <trkpt lat="43.7716" lon="7.33308">
        <ele>130</ele>
        <time>2013-12-07T07:53:40.000Z</time>
      </trkpt>
      <trkpt lat="43.77195" lon="7.33304">
        <ele>125.80000305176</ele>
        <time>2013-12-07T07:53:47.000Z</time>
      </trkpt>
      <trkpt lat="43.77205" lon="7.33306">
        <ele>125.40000152588</ele>
        <time>2013-12-07T07:53:49.000Z</time>
      </trkpt>
      <trkpt lat="43.77219" lon="7.33312">
        <ele>124.80000305176</ele>
        <time>2013-12-07T07:53:52.000Z</time>
      </trkpt>
      <trkpt lat="43.77256" lon="7.33331">
        <ele>122.40000152588</ele>
        <time>2013-12-07T07:54:00.000Z</time>
      </trkpt>
      <trkpt lat="43.77268" lon="7.3334">
        <ele>123.19999694824</ele>
        <time>2013-12-07T07:54:03.000Z</time>
      </trkpt>
      <trkpt lat="43.77278" lon="7.33354">
        <ele>124.80000305176</ele>
        <time>2013-12-07T07:54:06.000Z</time>
      </trkpt>
      <trkpt lat="43.77284" lon="7.33364">
        <ele>126</ele>
        <time>2013-12-07T07:54:08.000Z</time>
      </trkpt>
      <trkpt lat="43.77294" lon="7.33386">
        <ele>127.59999847412</ele>
        <time>2013-12-07T07:54:12.000Z</time>
      </trkpt>
      <trkpt lat="43.77313" lon="7.33428">
        <ele>129.60000610352</ele>
        <time>2013-12-07T07:54:20.000Z</time>
      </trkpt>
      <trkpt lat="43.77318" lon="7.33439">
        <ele>130.39999389648</ele>
        <time>2013-12-07T07:54:22.000Z</time>
      </trkpt>
      <trkpt lat="43.77327" lon="7.33461">
        <ele>131</ele>
        <time>2013-12-07T07:54:26.000Z</time>
      </trkpt>
      <trkpt lat="43.77348" lon="7.33496">
        <ele>131.80000305176</ele>
        <time>2013-12-07T07:54:33.000Z</time>
      </trkpt>
      <trkpt lat="43.77375" lon="7.33528">
        <ele>133</ele>
        <time>2013-12-07T07:54:40.000Z</time>
      </trkpt>
      <trkpt lat="43.77403" lon="7.33559">
        <ele>130</ele>
        <time>2013-12-07T07:54:47.000Z</time>
      </trkpt>
      <trkpt lat="43.7743" lon="7.33588">
        <ele>127.80000305176</ele>
        <time>2013-12-07T07:54:54.000Z</time>
      </trkpt>
      <trkpt lat="43.77449" lon="7.33608">
        <ele>130.39999389648</ele>
        <time>2013-12-07T07:55:00.000Z</time>
      </trkpt>
      <trkpt lat="43.77464" lon="7.33623">
        <ele>131.39999389648</ele>
        <time>2013-12-07T07:55:07.000Z</time>
      </trkpt>
      <trkpt lat="43.77469" lon="7.3363">
        <ele>131.80000305176</ele>
        <time>2013-12-07T07:55:13.000Z</time>
      </trkpt>
      <trkpt lat="43.77469" lon="7.3363">
        <ele>131.80000305176</ele>
        <time>2013-12-07T07:55:14.000Z</time>
      </trkpt>
      <trkpt lat="43.77469" lon="7.33631">
        <ele>132</ele>
        <time>2013-12-07T07:55:18.000Z</time>
      </trkpt>
      <trkpt lat="43.77468" lon="7.33639">
        <ele>133.60000610352</ele>
        <time>2013-12-07T07:55:44.000Z</time>
      </trkpt>
      <trkpt lat="43.77471" lon="7.33642">
        <ele>133.60000610352</ele>
        <time>2013-12-07T07:55:52.000Z</time>
      </trkpt>
      <trkpt lat="43.77474" lon="7.33645">
        <ele>133.60000610352</ele>
        <time>2013-12-07T07:55:58.000Z</time>
      </trkpt>
      <trkpt lat="43.77474" lon="7.33646">
        <ele>133.80000305176</ele>
        <time>2013-12-07T07:56:03.000Z</time>
      </trkpt>
      <trkpt lat="43.77471" lon="7.33649">
        <ele>134.80000305176</ele>
        <time>2013-12-07T07:56:08.000Z</time>
      </trkpt>
      <trkpt lat="43.77469" lon="7.33649">
        <ele>135.39999389648</ele>
        <time>2013-12-07T07:56:13.000Z</time>
      </trkpt>
      <trkpt lat="43.77468" lon="7.33651">
        <ele>135.80000305176</ele>
        <time>2013-12-07T07:56:18.000Z</time>
      </trkpt>
      <trkpt lat="43.77469" lon="7.33654">
        <ele>136</ele>
        <time>2013-12-07T07:56:23.000Z</time>
      </trkpt>
      <trkpt lat="43.7747" lon="7.33655">
        <ele>136.19999694824</ele>
        <time>2013-12-07T07:56:26.000Z</time>
      </trkpt>
      <trkpt lat="43.77476" lon="7.33661">
        <ele>136</ele>
        <time>2013-12-07T07:56:35.000Z</time>
      </trkpt>
      <trkpt lat="43.77475" lon="7.33665">
        <ele>136.80000305176</ele>
        <time>2013-12-07T07:56:39.000Z</time>
      </trkpt>
      <trkpt lat="43.77474" lon="7.33666">
        <ele>137.19999694824</ele>
        <time>2013-12-07T07:56:40.000Z</time>
      </trkpt>
      <trkpt lat="43.77472" lon="7.33669">
        <ele>138.60000610352</ele>
        <time>2013-12-07T07:56:44.000Z</time>
      </trkpt>
      <trkpt lat="43.77472" lon="7.33669">
        <ele>138.39999389648</ele>
        <time>2013-12-07T07:56:47.000Z</time>
      </trkpt>
      <trkpt lat="43.77477" lon="7.3367">
        <ele>137.80000305176</ele>
        <time>2013-12-07T07:56:53.000Z</time>
      </trkpt>
      <trkpt lat="43.77477" lon="7.33674">
        <ele>138.80000305176</ele>
        <time>2013-12-07T07:57:02.000Z</time>
      </trkpt>
      <trkpt lat="43.77475" lon="7.33677">
        <ele>140.39999389648</ele>
        <time>2013-12-07T07:57:08.000Z</time>
      </trkpt>
      <trkpt lat="43.77478" lon="7.33678">
        <ele>140.19999694824</ele>
        <time>2013-12-07T07:57:13.000Z</time>
      </trkpt>
      <trkpt lat="43.77482" lon="7.33682">
        <ele>140.39999389648</ele>
        <time>2013-12-07T07:57:20.000Z</time>
      </trkpt>
      <trkpt lat="43.77485" lon="7.33686">
        <ele>141.19999694824</ele>
        <time>2013-12-07T07:57:26.000Z</time>
      </trkpt>
      <trkpt lat="43.77485" lon="7.33686">
        <ele>141.39999389648</ele>
        <time>2013-12-07T07:57:28.000Z</time>
      </trkpt>
      <trkpt lat="43.77483" lon="7.3369">
        <ele>143</ele>
        <time>2013-12-07T07:57:35.000Z</time>
      </trkpt>
      <trkpt lat="43.77479" lon="7.33689">
        <ele>143.60000610352</ele>
        <time>2013-12-07T07:57:42.000Z</time>
      </trkpt>
      <trkpt lat="43.7748" lon="7.33693">
        <ele>144.39999389648</ele>
        <time>2013-12-07T07:57:47.000Z</time>
      </trkpt>
      <trkpt lat="43.77479" lon="7.33693">
        <ele>144.60000610352</ele>
        <time>2013-12-07T07:57:53.000Z</time>
      </trkpt>
      <trkpt lat="43.77478" lon="7.33692">
        <ele>144.39999389648</ele>
        <time>2013-12-07T07:57:54.000Z</time>
      </trkpt>
      <trkpt lat="43.77476" lon="7.33692">
        <ele>145</ele>
        <time>2013-12-07T07:57:59.000Z</time>
      </trkpt>
      <trkpt lat="43.77476" lon="7.33695">
        <ele>146</ele>
        <time>2013-12-07T07:58:06.000Z</time>
      </trkpt>
      <trkpt lat="43.7747" lon="7.33696">
        <ele>147.19999694824</ele>
        <time>2013-12-07T07:58:18.000Z</time>
      </trkpt>
      <trkpt lat="43.77469" lon="7.33699">
        <ele>148.39999389648</ele>
        <time>2013-12-07T07:58:23.000Z</time>
      </trkpt>
      <trkpt lat="43.7747" lon="7.33708">
        <ele>151</ele>
        <time>2013-12-07T07:58:33.000Z</time>
      </trkpt>
      <trkpt lat="43.77474" lon="7.33712">
        <ele>151.60000610352</ele>
        <time>2013-12-07T07:58:38.000Z</time>
      </trkpt>
      <trkpt lat="43.77476" lon="7.33716">
        <ele>152.39999389648</ele>
        <time>2013-12-07T07:58:44.000Z</time>
      </trkpt>
      <trkpt lat="43.77477" lon="7.33718">
        <ele>152.80000305176</ele>
        <time>2013-12-07T07:58:49.000Z</time>
      </trkpt>
      <trkpt lat="43.77475" lon="7.3372">
        <ele>153.80000305176</ele>
        <time>2013-12-07T07:58:53.000Z</time>
      </trkpt>
      <trkpt lat="43.77472" lon="7.33723">
        <ele>155.19999694824</ele>
        <time>2013-12-07T07:59:01.000Z</time>
      </trkpt>
      <trkpt lat="43.77468" lon="7.33725">
        <ele>156.60000610352</ele>
        <time>2013-12-07T07:59:07.000Z</time>
      </trkpt>
      <trkpt lat="43.77466" lon="7.33726">
        <ele>157.39999389648</ele>
        <time>2013-12-07T07:59:11.000Z</time>
      </trkpt>
      <trkpt lat="43.77464" lon="7.33727">
        <ele>158</ele>
        <time>2013-12-07T07:59:12.000Z</time>
      </trkpt>
      <trkpt lat="43.7746" lon="7.33728">
        <ele>159</ele>
        <time>2013-12-07T07:59:17.000Z</time>
      </trkpt>
      <trkpt lat="43.77454" lon="7.33731">
        <ele>160.80000305176</ele>
        <time>2013-12-07T07:59:24.000Z</time>
      </trkpt>
      <trkpt lat="43.77453" lon="7.33729">
        <ele>160.39999389648</ele>
        <time>2013-12-07T07:59:28.000Z</time>
      </trkpt>
      <trkpt lat="43.77453" lon="7.33728">
        <ele>160.19999694824</ele>
        <time>2013-12-07T07:59:29.000Z</time>
      </trkpt>
      <trkpt lat="43.77449" lon="7.33726">
        <ele>160.39999389648</ele>
        <time>2013-12-07T07:59:36.000Z</time>
      </trkpt>
      <trkpt lat="43.77447" lon="7.33726">
        <ele>160.80000305176</ele>
        <time>2013-12-07T07:59:37.000Z</time>
      </trkpt>
      <trkpt lat="43.7744" lon="7.33734">
        <ele>164.19999694824</ele>
        <time>2013-12-07T07:59:44.000Z</time>
      </trkpt>
      <trkpt lat="43.77438" lon="7.33738">
        <ele>165.80000305176</ele>
        <time>2013-12-07T07:59:48.000Z</time>
      </trkpt>
      <trkpt lat="43.7744" lon="7.33742">
        <ele>166.80000305176</ele>
        <time>2013-12-07T07:59:51.000Z</time>
      </trkpt>
      <trkpt lat="43.77437" lon="7.33743">
        <ele>167.60000610352</ele>
        <time>2013-12-07T07:59:57.000Z</time>
      </trkpt>
      <trkpt lat="43.77435" lon="7.33744">
        <ele>168</ele>
        <time>2013-12-07T08:00:01.000Z</time>
      </trkpt>
      <trkpt lat="43.77435" lon="7.33741">
        <ele>167.19999694824</ele>
        <time>2013-12-07T08:00:09.000Z</time>
      </trkpt>
      <trkpt lat="43.77431" lon="7.33739">
        <ele>167.19999694824</ele>
        <time>2013-12-07T08:00:19.000Z</time>
      </trkpt>
      <trkpt lat="43.77428" lon="7.33739">
        <ele>167.80000305176</ele>
        <time>2013-12-07T08:00:25.000Z</time>
      </trkpt>
      <trkpt lat="43.77425" lon="7.3374">
        <ele>168.80000305176</ele>
        <time>2013-12-07T08:00:27.000Z</time>
      </trkpt>
      <trkpt lat="43.77429" lon="7.3375">
        <ele>171.19999694824</ele>
        <time>2013-12-07T08:00:30.000Z</time>
      </trkpt>
      <trkpt lat="43.77431" lon="7.33756">
        <ele>172.19999694824</ele>
        <time>2013-12-07T08:00:34.000Z</time>
      </trkpt>
      <trkpt lat="43.77432" lon="7.33762">
        <ele>173.39999389648</ele>
        <time>2013-12-07T08:00:42.000Z</time>
      </trkpt>
      <trkpt lat="43.7743" lon="7.33764">
        <ele>174.39999389648</ele>
        <time>2013-12-07T08:00:51.000Z</time>
      </trkpt>
      <trkpt lat="43.77429" lon="7.33764">
        <ele>174.60000610352</ele>
        <time>2013-12-07T08:00:57.000Z</time>
      </trkpt>
      <trkpt lat="43.77424" lon="7.33771">
        <ele>177.39999389648</ele>
        <time>2013-12-07T08:01:01.000Z</time>
      </trkpt>
      <trkpt lat="43.77414" lon="7.33782">
        <ele>182.19999694824</ele>
        <time>2013-12-07T08:01:06.000Z</time>
      </trkpt>
      <trkpt lat="43.77413" lon="7.33781">
        <ele>182.60000610352</ele>
        <time>2013-12-07T08:01:07.000Z</time>
      </trkpt>
      <trkpt lat="43.77408" lon="7.33781">
        <ele>184.19999694824</ele>
        <time>2013-12-07T08:01:10.000Z</time>
      </trkpt>
      <trkpt lat="43.77401" lon="7.33779">
        <ele>186.39999389648</ele>
        <time>2013-12-07T08:01:14.000Z</time>
      </trkpt>
      <trkpt lat="43.77392" lon="7.33775">
        <ele>188.80000305176</ele>
        <time>2013-12-07T08:01:18.000Z</time>
      </trkpt>
      <trkpt lat="43.7738" lon="7.33772">
        <ele>192.80000305176</ele>
        <time>2013-12-07T08:01:24.000Z</time>
      </trkpt>
      <trkpt lat="43.77375" lon="7.3377">
        <ele>194.19999694824</ele>
        <time>2013-12-07T08:01:27.000Z</time>
      </trkpt>
      <trkpt lat="43.77373" lon="7.33769">
        <ele>195.19999694824</ele>
        <time>2013-12-07T08:01:30.000Z</time>
      </trkpt>
      <trkpt lat="43.7737" lon="7.33767">
        <ele>195.60000610352</ele>
        <time>2013-12-07T08:01:32.000Z</time>
      </trkpt>
      <trkpt lat="43.77372" lon="7.33762">
        <ele>194</ele>
        <time>2013-12-07T08:01:35.000Z</time>
      </trkpt>
      <trkpt lat="43.77374" lon="7.33755">
        <ele>191.60000610352</ele>
        <time>2013-12-07T08:01:39.000Z</time>
      </trkpt>
      <trkpt lat="43.77378" lon="7.33745">
        <ele>188.19999694824</ele>
        <time>2013-12-07T08:01:44.000Z</time>
      </trkpt>
      <trkpt lat="43.77379" lon="7.33729">
        <ele>182.80000305176</ele>
        <time>2013-12-07T08:01:50.000Z</time>
      </trkpt>
      <trkpt lat="43.77379" lon="7.33726">
        <ele>181.80000305176</ele>
        <time>2013-12-07T08:01:51.000Z</time>
      </trkpt>
      <trkpt lat="43.7738" lon="7.33713">
        <ele>177.80000305176</ele>
        <time>2013-12-07T08:01:56.000Z</time>
      </trkpt>
      <trkpt lat="43.7738" lon="7.33704">
        <ele>175.60000610352</ele>
        <time>2013-12-07T08:02:00.000Z</time>
      </trkpt>
      <trkpt lat="43.77379" lon="7.33703">
        <ele>175.19999694824</ele>
        <time>2013-12-07T08:02:01.000Z</time>
      </trkpt>
      <trkpt lat="43.77377" lon="7.33693">
        <ele>173.19999694824</ele>
        <time>2013-12-07T08:02:06.000Z</time>
      </trkpt>
      <trkpt lat="43.77372" lon="7.33689">
        <ele>174.80000305176</ele>
        <time>2013-12-07T08:02:10.000Z</time>
      </trkpt>
      <trkpt lat="43.7737" lon="7.33687">
        <ele>175</ele>
        <time>2013-12-07T08:02:11.000Z</time>
      </trkpt>
      <trkpt lat="43.77365" lon="7.33687">
        <ele>177</ele>
        <time>2013-12-07T08:02:15.000Z</time>
      </trkpt>
      <trkpt lat="43.77359" lon="7.33682">
        <ele>178.19999694824</ele>
        <time>2013-12-07T08:02:19.000Z</time>
      </trkpt>
      <trkpt lat="43.77356" lon="7.33681">
        <ele>179</ele>
        <time>2013-12-07T08:02:21.000Z</time>
      </trkpt>
      <trkpt lat="43.77351" lon="7.33679">
        <ele>180.80000305176</ele>
        <time>2013-12-07T08:02:25.000Z</time>
      </trkpt>
      <trkpt lat="43.77344" lon="7.33675">
        <ele>182.60000610352</ele>
        <time>2013-12-07T08:02:31.000Z</time>
      </trkpt>
      <trkpt lat="43.77334" lon="7.33669">
        <ele>185.39999389648</ele>
        <time>2013-12-07T08:02:38.000Z</time>
      </trkpt>
      <trkpt lat="43.7733" lon="7.33666">
        <ele>186.60000610352</ele>
        <time>2013-12-07T08:02:51.000Z</time>
      </trkpt>
      <trkpt lat="43.77328" lon="7.33667">
        <ele>188.19999694824</ele>
        <time>2013-12-07T08:02:58.000Z</time>
      </trkpt>
      <trkpt lat="43.77329" lon="7.33666">
        <ele>187</ele>
        <time>2013-12-07T08:03:05.000Z</time>
      </trkpt>
      <trkpt lat="43.77332" lon="7.33668">
        <ele>186.19999694824</ele>
        <time>2013-12-07T08:03:11.000Z</time>
      </trkpt>
      <trkpt lat="43.7734" lon="7.33676">
        <ele>184.60000610352</ele>
        <time>2013-12-07T08:03:16.000Z</time>
      </trkpt>
      <trkpt lat="43.77348" lon="7.33685">
        <ele>183.60000610352</ele>
        <time>2013-12-07T08:03:20.000Z</time>
      </trkpt>
      <trkpt lat="43.77359" lon="7.33702">
        <ele>183.80000305176</ele>
        <time>2013-12-07T08:03:26.000Z</time>
      </trkpt>
      <trkpt lat="43.77359" lon="7.33707">
        <ele>185.39999389648</ele>
        <time>2013-12-07T08:03:29.000Z</time>
      </trkpt>
      <trkpt lat="43.77358" lon="7.33711">
        <ele>186.60000610352</ele>
        <time>2013-12-07T08:03:31.000Z</time>
      </trkpt>
      <trkpt lat="43.77357" lon="7.33729">
        <ele>192</ele>
        <time>2013-12-07T08:03:39.000Z</time>
      </trkpt>
      <trkpt lat="43.77355" lon="7.33732">
        <ele>193.60000610352</ele>
        <time>2013-12-07T08:03:45.000Z</time>
      </trkpt>
      <trkpt lat="43.7735" lon="7.33736">
        <ele>197</ele>
        <time>2013-12-07T08:03:52.000Z</time>
      </trkpt>
      <trkpt lat="43.77349" lon="7.33737">
        <ele>197.80000305176</ele>
        <time>2013-12-07T08:03:54.000Z</time>
      </trkpt>
      <trkpt lat="43.77349" lon="7.3374">
        <ele>198.60000610352</ele>
        <time>2013-12-07T08:03:58.000Z</time>
      </trkpt>
      <trkpt lat="43.77347" lon="7.33753">
        <ele>202.60000610352</ele>
        <time>2013-12-07T08:04:05.000Z</time>
      </trkpt>
      <trkpt lat="43.77346" lon="7.33764">
        <ele>204.80000305176</ele>
        <time>2013-12-07T08:04:09.000Z</time>
      </trkpt>
      <trkpt lat="43.77346" lon="7.33766">
        <ele>205</ele>
        <time>2013-12-07T08:04:10.000Z</time>
      </trkpt>
      <trkpt lat="43.77346" lon="7.33773">
        <ele>206.19999694824</ele>
        <time>2013-12-07T08:04:16.000Z</time>
      </trkpt>
      <trkpt lat="43.77344" lon="7.33777">
        <ele>207.19999694824</ele>
        <time>2013-12-07T08:04:19.000Z</time>
      </trkpt>
      <trkpt lat="43.77343" lon="7.3378">
        <ele>208</ele>
        <time>2013-12-07T08:04:21.000Z</time>
      </trkpt>
      <trkpt lat="43.77341" lon="7.33782">
        <ele>208.80000305176</ele>
        <time>2013-12-07T08:04:23.000Z</time>
      </trkpt>
      <trkpt lat="43.77339" lon="7.33786">
        <ele>210.19999694824</ele>
        <time>2013-12-07T08:04:28.000Z</time>
      </trkpt>
      <trkpt lat="43.77334" lon="7.33793">
        <ele>213</ele>
        <time>2013-12-07T08:04:35.000Z</time>
      </trkpt>
      <trkpt lat="43.77326" lon="7.33805">
        <ele>217.60000610352</ele>
        <time>2013-12-07T08:04:42.000Z</time>
      </trkpt>
      <trkpt lat="43.77322" lon="7.33812">
        <ele>220.19999694824</ele>
        <time>2013-12-07T08:04:48.000Z</time>
      </trkpt>
      <trkpt lat="43.77319" lon="7.33815">
        <ele>222</ele>
        <time>2013-12-07T08:04:52.000Z</time>
      </trkpt>
      <trkpt lat="43.7732" lon="7.33819">
        <ele>222</ele>
        <time>2013-12-07T08:04:55.000Z</time>
      </trkpt>
      <trkpt lat="43.77321" lon="7.3382">
        <ele>221.60000610352</ele>
        <time>2013-12-07T08:04:56.000Z</time>
      </trkpt>
      <trkpt lat="43.77321" lon="7.33822">
        <ele>221.80000305176</ele>
        <time>2013-12-07T08:05:01.000Z</time>
      </trkpt>
      <trkpt lat="43.7733" lon="7.3382">
        <ele>217.80000305176</ele>
        <time>2013-12-07T08:05:07.000Z</time>
      </trkpt>
      <trkpt lat="43.7734" lon="7.33828">
        <ele>215.39999389648</ele>
        <time>2013-12-07T08:05:12.000Z</time>
      </trkpt>
      <trkpt lat="43.77352" lon="7.3384">
        <ele>213.80000305176</ele>
        <time>2013-12-07T08:05:19.000Z</time>
      </trkpt>
      <trkpt lat="43.77357" lon="7.3385">
        <ele>214.19999694824</ele>
        <time>2013-12-07T08:05:24.000Z</time>
      </trkpt>
      <trkpt lat="43.77357" lon="7.33852">
        <ele>214.80000305176</ele>
        <time>2013-12-07T08:05:25.000Z</time>
      </trkpt>
      <trkpt lat="43.77355" lon="7.3386">
        <ele>216.60000610352</ele>
        <time>2013-12-07T08:05:29.000Z</time>
      </trkpt>
      <trkpt lat="43.77363" lon="7.33863">
        <ele>214.80000305176</ele>
        <time>2013-12-07T08:05:34.000Z</time>
      </trkpt>
      <trkpt lat="43.77365" lon="7.33872">
        <ele>215.60000610352</ele>
        <time>2013-12-07T08:05:38.000Z</time>
      </trkpt>
      <trkpt lat="43.77371" lon="7.33883">
        <ele>216</ele>
        <time>2013-12-07T08:05:44.000Z</time>
      </trkpt>
      <trkpt lat="43.77374" lon="7.33894">
        <ele>216.80000305176</ele>
        <time>2013-12-07T08:05:51.000Z</time>
      </trkpt>
      <trkpt lat="43.77375" lon="7.33895">
        <ele>217</ele>
        <time>2013-12-07T08:05:52.000Z</time>
      </trkpt>
      <trkpt lat="43.77374" lon="7.33899">
        <ele>217.80000305176</ele>
        <time>2013-12-07T08:05:56.000Z</time>
      </trkpt>
      <trkpt lat="43.77373" lon="7.33899">
        <ele>218.19999694824</ele>
        <time>2013-12-07T08:05:57.000Z</time>
      </trkpt>
      <trkpt lat="43.77366" lon="7.33894">
        <ele>219</ele>
        <time>2013-12-07T08:06:02.000Z</time>
      </trkpt>
      <trkpt lat="43.77355" lon="7.33886">
        <ele>220.80000305176</ele>
        <time>2013-12-07T08:06:08.000Z</time>
      </trkpt>
      <trkpt lat="43.77348" lon="7.33879">
        <ele>221.60000610352</ele>
        <time>2013-12-07T08:06:13.000Z</time>
      </trkpt>
      <trkpt lat="43.77339" lon="7.33877">
        <ele>224</ele>
        <time>2013-12-07T08:06:19.000Z</time>
      </trkpt>
      <trkpt lat="43.77344" lon="7.33886">
        <ele>224</ele>
        <time>2013-12-07T08:06:23.000Z</time>
      </trkpt>
      <trkpt lat="43.77348" lon="7.3389">
        <ele>223.60000610352</ele>
        <time>2013-12-07T08:06:25.000Z</time>
      </trkpt>
      <trkpt lat="43.77359" lon="7.33905">
        <ele>223</ele>
        <time>2013-12-07T08:06:31.000Z</time>
      </trkpt>
      <trkpt lat="43.77363" lon="7.33924">
        <ele>224.60000610352</ele>
        <time>2013-12-07T08:06:35.000Z</time>
      </trkpt>
      <trkpt lat="43.77363" lon="7.33947">
        <ele>227.39999389648</ele>
        <time>2013-12-07T08:06:42.000Z</time>
      </trkpt>
      <trkpt lat="43.77356" lon="7.33961">
        <ele>231.60000610352</ele>
        <time>2013-12-07T08:06:48.000Z</time>
      </trkpt>
      <trkpt lat="43.77353" lon="7.33972">
        <ele>234.19999694824</ele>
        <time>2013-12-07T08:06:52.000Z</time>
      </trkpt>
      <trkpt lat="43.77355" lon="7.33977">
        <ele>234</ele>
        <time>2013-12-07T08:06:54.000Z</time>
      </trkpt>
      <trkpt lat="43.77361" lon="7.33983">
        <ele>232.60000610352</ele>
        <time>2013-12-07T08:06:57.000Z</time>
      </trkpt>
      <trkpt lat="43.77365" lon="7.33986">
        <ele>231.60000610352</ele>
        <time>2013-12-07T08:06:59.000Z</time>
      </trkpt>
      <trkpt lat="43.7737" lon="7.33999">
        <ele>230.80000305176</ele>
        <time>2013-12-07T08:07:05.000Z</time>
      </trkpt>
      <trkpt lat="43.7737" lon="7.34019">
        <ele>230.39999389648</ele>
        <time>2013-12-07T08:07:12.000Z</time>
      </trkpt>
      <trkpt lat="43.77362" lon="7.34032">
        <ele>233.19999694824</ele>
        <time>2013-12-07T08:07:19.000Z</time>
      </trkpt>
      <trkpt lat="43.77354" lon="7.34043">
        <ele>236</ele>
        <time>2013-12-07T08:07:26.000Z</time>
      </trkpt>
      <trkpt lat="43.77346" lon="7.34059">
        <ele>238.39999389648</ele>
        <time>2013-12-07T08:07:34.000Z</time>
      </trkpt>
      <trkpt lat="43.77339" lon="7.34071">
        <ele>240.60000610352</ele>
        <time>2013-12-07T08:07:41.000Z</time>
      </trkpt>
      <trkpt lat="43.77331" lon="7.3408">
        <ele>243.19999694824</ele>
        <time>2013-12-07T08:07:47.000Z</time>
      </trkpt>
      <trkpt lat="43.77321" lon="7.34091">
        <ele>247.39999389648</ele>
        <time>2013-12-07T08:07:55.000Z</time>
      </trkpt>
      <trkpt lat="43.77314" lon="7.34104">
        <ele>249.80000305176</ele>
        <time>2013-12-07T08:08:01.000Z</time>
      </trkpt>
      <trkpt lat="43.77308" lon="7.34122">
        <ele>251.80000305176</ele>
        <time>2013-12-07T08:08:09.000Z</time>
      </trkpt>
      <trkpt lat="43.77297" lon="7.34133">
        <ele>255.60000610352</ele>
        <time>2013-12-07T08:08:15.000Z</time>
      </trkpt>
      <trkpt lat="43.77286" lon="7.34148">
        <ele>258.79998779297</ele>
        <time>2013-12-07T08:08:23.000Z</time>
      </trkpt>
      <trkpt lat="43.77281" lon="7.34163">
        <ele>259.39999389648</ele>
        <time>2013-12-07T08:08:29.000Z</time>
      </trkpt>
      <trkpt lat="43.77274" lon="7.34177">
        <ele>262.20001220703</ele>
        <time>2013-12-07T08:08:36.000Z</time>
      </trkpt>
      <trkpt lat="43.77266" lon="7.34187">
        <ele>265.39999389648</ele>
        <time>2013-12-07T08:08:43.000Z</time>
      </trkpt>
      <trkpt lat="43.77266" lon="7.34199">
        <ele>266</ele>
        <time>2013-12-07T08:08:49.000Z</time>
      </trkpt>
      <trkpt lat="43.77275" lon="7.34211">
        <ele>264.39999389648</ele>
        <time>2013-12-07T08:08:55.000Z</time>
      </trkpt>
      <trkpt lat="43.77286" lon="7.34222">
        <ele>262.60000610352</ele>
        <time>2013-12-07T08:09:03.000Z</time>
      </trkpt>
      <trkpt lat="43.77296" lon="7.34228">
        <ele>261.20001220703</ele>
        <time>2013-12-07T08:09:10.000Z</time>
      </trkpt>
      <trkpt lat="43.77307" lon="7.34228">
        <ele>259</ele>
        <time>2013-12-07T08:09:18.000Z</time>
      </trkpt>
      <trkpt lat="43.77321" lon="7.34229">
        <ele>256.20001220703</ele>
        <time>2013-12-07T08:09:26.000Z</time>
      </trkpt>
      <trkpt lat="43.77335" lon="7.34238">
        <ele>255.19999694824</ele>
        <time>2013-12-07T08:09:34.000Z</time>
      </trkpt>
      <trkpt lat="43.77335" lon="7.3424">
        <ele>255.60000610352</ele>
        <time>2013-12-07T08:09:35.000Z</time>
      </trkpt>
      <trkpt lat="43.77333" lon="7.34248">
        <ele>257.60000610352</ele>
        <time>2013-12-07T08:09:38.000Z</time>
      </trkpt>
      <trkpt lat="43.77331" lon="7.34252">
        <ele>258.39999389648</ele>
        <time>2013-12-07T08:09:40.000Z</time>
      </trkpt>
      <trkpt lat="43.77326" lon="7.34259">
        <ele>259.20001220703</ele>
        <time>2013-12-07T08:09:44.000Z</time>
      </trkpt>
      <trkpt lat="43.77321" lon="7.34267">
        <ele>260.20001220703</ele>
        <time>2013-12-07T08:09:49.000Z</time>
      </trkpt>
      <trkpt lat="43.77314" lon="7.34282">
        <ele>261.39999389648</ele>
        <time>2013-12-07T08:09:56.000Z</time>
      </trkpt>
      <trkpt lat="43.77305" lon="7.34292">
        <ele>263</ele>
        <time>2013-12-07T08:10:03.000Z</time>
      </trkpt>
      <trkpt lat="43.77297" lon="7.34304">
        <ele>264.60000610352</ele>
        <time>2013-12-07T08:10:09.000Z</time>
      </trkpt>
      <trkpt lat="43.7729" lon="7.34323">
        <ele>266</ele>
        <time>2013-12-07T08:10:15.000Z</time>
      </trkpt>
      <trkpt lat="43.77281" lon="7.34343">
        <ele>267</ele>
        <time>2013-12-07T08:10:22.000Z</time>
      </trkpt>
      <trkpt lat="43.77273" lon="7.3436">
        <ele>267.39999389648</ele>
        <time>2013-12-07T08:10:28.000Z</time>
      </trkpt>
      <trkpt lat="43.77267" lon="7.34373">
        <ele>267.79998779297</ele>
        <time>2013-12-07T08:10:35.000Z</time>
      </trkpt>
      <trkpt lat="43.77262" lon="7.34394">
        <ele>267.79998779297</ele>
        <time>2013-12-07T08:10:44.000Z</time>
      </trkpt>
      <trkpt lat="43.77257" lon="7.34409">
        <ele>268.60000610352</ele>
        <time>2013-12-07T08:10:51.000Z</time>
      </trkpt>
      <trkpt lat="43.77251" lon="7.34431">
        <ele>269.20001220703</ele>
        <time>2013-12-07T08:10:59.000Z</time>
      </trkpt>
      <trkpt lat="43.77245" lon="7.34452">
        <ele>268.20001220703</ele>
        <time>2013-12-07T08:11:06.000Z</time>
      </trkpt>
      <trkpt lat="43.77243" lon="7.34475">
        <ele>267.39999389648</ele>
        <time>2013-12-07T08:11:14.000Z</time>
      </trkpt>
      <trkpt lat="43.77235" lon="7.34488">
        <ele>267.60000610352</ele>
        <time>2013-12-07T08:11:20.000Z</time>
      </trkpt>
      <trkpt lat="43.77229" lon="7.34505">
        <ele>268</ele>
        <time>2013-12-07T08:11:26.000Z</time>
      </trkpt>
      <trkpt lat="43.7722" lon="7.34523">
        <ele>268.79998779297</ele>
        <time>2013-12-07T08:11:33.000Z</time>
      </trkpt>
      <trkpt lat="43.77213" lon="7.3454">
        <ele>269.39999389648</ele>
        <time>2013-12-07T08:11:39.000Z</time>
      </trkpt>
      <trkpt lat="43.77206" lon="7.3456">
        <ele>269.79998779297</ele>
        <time>2013-12-07T08:11:46.000Z</time>
      </trkpt>
      <trkpt lat="43.77196" lon="7.34574">
        <ele>270.60000610352</ele>
        <time>2013-12-07T08:11:53.000Z</time>
      </trkpt>
      <trkpt lat="43.77191" lon="7.34593">
        <ele>270.79998779297</ele>
        <time>2013-12-07T08:11:59.000Z</time>
      </trkpt>
      <trkpt lat="43.77193" lon="7.34608">
        <ele>270.20001220703</ele>
        <time>2013-12-07T08:12:05.000Z</time>
      </trkpt>
      <trkpt lat="43.77197" lon="7.34622">
        <ele>269.79998779297</ele>
        <time>2013-12-07T08:12:10.000Z</time>
      </trkpt>
      <trkpt lat="43.77203" lon="7.34644">
        <ele>270</ele>
        <time>2013-12-07T08:12:17.000Z</time>
      </trkpt>
      <trkpt lat="43.77213" lon="7.3466">
        <ele>270.79998779297</ele>
        <time>2013-12-07T08:12:23.000Z</time>
      </trkpt>
      <trkpt lat="43.77223" lon="7.34675">
        <ele>272.39999389648</ele>
        <time>2013-12-07T08:12:29.000Z</time>
      </trkpt>
      <trkpt lat="43.77233" lon="7.34691">
        <ele>274.39999389648</ele>
        <time>2013-12-07T08:12:35.000Z</time>
      </trkpt>
      <trkpt lat="43.77246" lon="7.34716">
        <ele>278.39999389648</ele>
        <time>2013-12-07T08:12:44.000Z</time>
      </trkpt>
      <trkpt lat="43.77252" lon="7.34725">
        <ele>279.79998779297</ele>
        <time>2013-12-07T08:12:49.000Z</time>
      </trkpt>
      <trkpt lat="43.77264" lon="7.34745">
        <ele>281.60000610352</ele>
        <time>2013-12-07T08:12:58.000Z</time>
      </trkpt>
      <trkpt lat="43.77273" lon="7.34765">
        <ele>281.60000610352</ele>
        <time>2013-12-07T08:13:06.000Z</time>
      </trkpt>
      <trkpt lat="43.77287" lon="7.34779">
        <ele>282</ele>
        <time>2013-12-07T08:13:13.000Z</time>
      </trkpt>
      <trkpt lat="43.77299" lon="7.34795">
        <ele>283.39999389648</ele>
        <time>2013-12-07T08:13:20.000Z</time>
      </trkpt>
      <trkpt lat="43.77307" lon="7.34813">
        <ele>285.20001220703</ele>
        <time>2013-12-07T08:13:28.000Z</time>
      </trkpt>
      <trkpt lat="43.77317" lon="7.34828">
        <ele>288</ele>
        <time>2013-12-07T08:13:35.000Z</time>
      </trkpt>
      <trkpt lat="43.77327" lon="7.34841">
        <ele>289.79998779297</ele>
        <time>2013-12-07T08:13:43.000Z</time>
      </trkpt>
      <trkpt lat="43.77335" lon="7.34853">
        <ele>290</ele>
        <time>2013-12-07T08:13:50.000Z</time>
      </trkpt>
      <trkpt lat="43.7735" lon="7.34868">
        <ele>288.39999389648</ele>
        <time>2013-12-07T08:14:00.000Z</time>
      </trkpt>
      <trkpt lat="43.77361" lon="7.3488">
        <ele>288.20001220703</ele>
        <time>2013-12-07T08:14:07.000Z</time>
      </trkpt>
      <trkpt lat="43.77371" lon="7.34892">
        <ele>288.79998779297</ele>
        <time>2013-12-07T08:14:15.000Z</time>
      </trkpt>
      <trkpt lat="43.77381" lon="7.34904">
        <ele>290.20001220703</ele>
        <time>2013-12-07T08:14:21.000Z</time>
      </trkpt>
      <trkpt lat="43.77395" lon="7.3492">
        <ele>292.79998779297</ele>
        <time>2013-12-07T08:14:28.000Z</time>
      </trkpt>
      <trkpt lat="43.77411" lon="7.34938">
        <ele>294.20001220703</ele>
        <time>2013-12-07T08:14:36.000Z</time>
      </trkpt>
      <trkpt lat="43.7743" lon="7.34956">
        <ele>294.20001220703</ele>
        <time>2013-12-07T08:14:45.000Z</time>
      </trkpt>
      <trkpt lat="43.7745" lon="7.34974">
        <ele>293.79998779297</ele>
        <time>2013-12-07T08:14:54.000Z</time>
      </trkpt>
      <trkpt lat="43.77464" lon="7.34986">
        <ele>294.20001220703</ele>
        <time>2013-12-07T08:15:00.000Z</time>
      </trkpt>
      <trkpt lat="43.77482" lon="7.35009">
        <ele>295.79998779297</ele>
        <time>2013-12-07T08:15:07.000Z</time>
      </trkpt>
      <trkpt lat="43.775" lon="7.35034">
        <ele>298.39999389648</ele>
        <time>2013-12-07T08:15:12.000Z</time>
      </trkpt>
      <trkpt lat="43.77505" lon="7.35037">
        <ele>299.39999389648</ele>
        <time>2013-12-07T08:15:13.000Z</time>
      </trkpt>
      <trkpt lat="43.77518" lon="7.35048">
        <ele>302</ele>
        <time>2013-12-07T08:15:17.000Z</time>
      </trkpt>
      <trkpt lat="43.77522" lon="7.3505">
        <ele>302.79998779297</ele>
        <time>2013-12-07T08:15:19.000Z</time>
      </trkpt>
      <trkpt lat="43.7753" lon="7.35054">
        <ele>304.39999389648</ele>
        <time>2013-12-07T08:15:23.000Z</time>
      </trkpt>
      <trkpt lat="43.77532" lon="7.35057">
        <ele>305</ele>
        <time>2013-12-07T08:15:25.000Z</time>
      </trkpt>
      <trkpt lat="43.7753" lon="7.35062">
        <ele>305.39999389648</ele>
        <time>2013-12-07T08:15:28.000Z</time>
      </trkpt>
      <trkpt lat="43.7753" lon="7.35064">
        <ele>305.39999389648</ele>
        <time>2013-12-07T08:15:29.000Z</time>
      </trkpt>
      <trkpt lat="43.7753" lon="7.35065">
        <ele>305.60000610352</ele>
        <time>2013-12-07T08:15:30.000Z</time>
      </trkpt>
      <trkpt lat="43.77526" lon="7.35073">
        <ele>306</ele>
        <time>2013-12-07T08:15:33.000Z</time>
      </trkpt>
      <trkpt lat="43.77521" lon="7.3509">
        <ele>307.20001220703</ele>
        <time>2013-12-07T08:15:40.000Z</time>
      </trkpt>
      <trkpt lat="43.77519" lon="7.35105">
        <ele>309.60000610352</ele>
        <time>2013-12-07T08:15:46.000Z</time>
      </trkpt>
      <trkpt lat="43.7752" lon="7.35122">
        <ele>313</ele>
        <time>2013-12-07T08:15:53.000Z</time>
      </trkpt>
      <trkpt lat="43.77522" lon="7.35136">
        <ele>316.20001220703</ele>
        <time>2013-12-07T08:16:00.000Z</time>
      </trkpt>
      <trkpt lat="43.77525" lon="7.35146">
        <ele>318.39999389648</ele>
        <time>2013-12-07T08:16:05.000Z</time>
      </trkpt>
      <trkpt lat="43.77527" lon="7.35151">
        <ele>319.60000610352</ele>
        <time>2013-12-07T08:16:07.000Z</time>
      </trkpt>
      <trkpt lat="43.77529" lon="7.35163">
        <ele>322.20001220703</ele>
        <time>2013-12-07T08:16:13.000Z</time>
      </trkpt>
      <trkpt lat="43.7753" lon="7.35172">
        <ele>323.79998779297</ele>
        <time>2013-12-07T08:16:17.000Z</time>
      </trkpt>
      <trkpt lat="43.77528" lon="7.35179">
        <ele>324.79998779297</ele>
        <time>2013-12-07T08:16:20.000Z</time>
      </trkpt>
      <trkpt lat="43.77523" lon="7.35193">
        <ele>326.39999389648</ele>
        <time>2013-12-07T08:16:27.000Z</time>
      </trkpt>
      <trkpt lat="43.77521" lon="7.35207">
        <ele>328.39999389648</ele>
        <time>2013-12-07T08:16:33.000Z</time>
      </trkpt>
      <trkpt lat="43.77513" lon="7.35215">
        <ele>328.39999389648</ele>
        <time>2013-12-07T08:16:39.000Z</time>
      </trkpt>
      <trkpt lat="43.77506" lon="7.35213">
        <ele>327</ele>
        <time>2013-12-07T08:16:45.000Z</time>
      </trkpt>
      <trkpt lat="43.77499" lon="7.35207">
        <ele>324.60000610352</ele>
        <time>2013-12-07T08:16:50.000Z</time>
      </trkpt>
      <trkpt lat="43.77484" lon="7.35203">
        <ele>321.20001220703</ele>
        <time>2013-12-07T08:16:57.000Z</time>
      </trkpt>
      <trkpt lat="43.7747" lon="7.35204">
        <ele>319</ele>
        <time>2013-12-07T08:17:04.000Z</time>
      </trkpt>
      <trkpt lat="43.77461" lon="7.35211">
        <ele>318.39999389648</ele>
        <time>2013-12-07T08:17:10.000Z</time>
      </trkpt>
      <trkpt lat="43.77456" lon="7.35224">
        <ele>319</ele>
        <time>2013-12-07T08:17:17.000Z</time>
      </trkpt>
      <trkpt lat="43.77455" lon="7.35241">
        <ele>320.79998779297</ele>
        <time>2013-12-07T08:17:24.000Z</time>
      </trkpt>
      <trkpt lat="43.77458" lon="7.35254">
        <ele>322.39999389648</ele>
        <time>2013-12-07T08:17:31.000Z</time>
      </trkpt>
      <trkpt lat="43.77468" lon="7.35268">
        <ele>324.39999389648</ele>
        <time>2013-12-07T08:17:39.000Z</time>
      </trkpt>
      <trkpt lat="43.77478" lon="7.35281">
        <ele>327</ele>
        <time>2013-12-07T08:17:48.000Z</time>
      </trkpt>
      <trkpt lat="43.77491" lon="7.35299">
        <ele>330.60000610352</ele>
        <time>2013-12-07T08:17:59.000Z</time>
      </trkpt>
      <trkpt lat="43.77502" lon="7.35316">
        <ele>334</ele>
        <time>2013-12-07T08:18:08.000Z</time>
      </trkpt>
      <trkpt lat="43.77508" lon="7.35331">
        <ele>336</ele>
        <time>2013-12-07T08:18:15.000Z</time>
      </trkpt>
      <trkpt lat="43.77515" lon="7.35346">
        <ele>336.20001220703</ele>
        <time>2013-12-07T08:18:22.000Z</time>
      </trkpt>
      <trkpt lat="43.77521" lon="7.35363">
        <ele>335.60000610352</ele>
        <time>2013-12-07T08:18:26.000Z</time>
      </trkpt>
      <trkpt lat="43.7753" lon="7.35403">
        <ele>333</ele>
        <time>2013-12-07T08:18:32.000Z</time>
      </trkpt>
      <trkpt lat="43.77536" lon="7.35416">
        <ele>332.60000610352</ele>
        <time>2013-12-07T08:18:34.000Z</time>
      </trkpt>
      <trkpt lat="43.77542" lon="7.35421">
        <ele>332.79998779297</ele>
        <time>2013-12-07T08:18:35.000Z</time>
      </trkpt>
      <trkpt lat="43.7756" lon="7.35429">
        <ele>335</ele>
        <time>2013-12-07T08:18:38.000Z</time>
      </trkpt>
      <trkpt lat="43.77567" lon="7.35434">
        <ele>335.60000610352</ele>
        <time>2013-12-07T08:18:39.000Z</time>
      </trkpt>
      <trkpt lat="43.7758" lon="7.35446">
        <ele>336.60000610352</ele>
        <time>2013-12-07T08:18:41.000Z</time>
      </trkpt>
      <trkpt lat="43.7759" lon="7.35466">
        <ele>333.39999389648</ele>
        <time>2013-12-07T08:18:43.000Z</time>
      </trkpt>
      <trkpt lat="43.77587" lon="7.35499">
        <ele>329.60000610352</ele>
        <time>2013-12-07T08:18:46.000Z</time>
      </trkpt>
      <trkpt lat="43.77587" lon="7.35506">
        <ele>329.60000610352</ele>
        <time>2013-12-07T08:18:47.000Z</time>
      </trkpt>
      <trkpt lat="43.77585" lon="7.35512">
        <ele>329.79998779297</ele>
        <time>2013-12-07T08:18:49.000Z</time>
      </trkpt>
      <trkpt lat="43.77585" lon="7.35515">
        <ele>329.79998779297</ele>
        <time>2013-12-07T08:18:50.000Z</time>
      </trkpt>
      <trkpt lat="43.77591" lon="7.35519">
        <ele>329.20001220703</ele>
        <time>2013-12-07T08:18:54.000Z</time>
      </trkpt>
      <trkpt lat="43.77598" lon="7.35522">
        <ele>328.60000610352</ele>
        <time>2013-12-07T08:18:56.000Z</time>
      </trkpt>
      <trkpt lat="43.77606" lon="7.35524">
        <ele>328</ele>
        <time>2013-12-07T08:18:58.000Z</time>
      </trkpt>
      <trkpt lat="43.77612" lon="7.35522">
        <ele>327.39999389648</ele>
        <time>2013-12-07T08:19:00.000Z</time>
      </trkpt>
      <trkpt lat="43.77614" lon="7.35517">
        <ele>327</ele>
        <time>2013-12-07T08:19:01.000Z</time>
      </trkpt>
      <trkpt lat="43.77626" lon="7.35521">
        <ele>326</ele>
        <time>2013-12-07T08:19:04.000Z</time>
      </trkpt>
      <trkpt lat="43.77642" lon="7.35537">
        <ele>325.79998779297</ele>
        <time>2013-12-07T08:19:07.000Z</time>
      </trkpt>
      <trkpt lat="43.77654" lon="7.35546">
        <ele>325.79998779297</ele>
        <time>2013-12-07T08:19:10.000Z</time>
      </trkpt>
      <trkpt lat="43.77655" lon="7.35545">
        <ele>325.60000610352</ele>
        <time>2013-12-07T08:19:11.000Z</time>
      </trkpt>
      <trkpt lat="43.77662" lon="7.35547">
        <ele>325.39999389648</ele>
        <time>2013-12-07T08:19:14.000Z</time>
      </trkpt>
      <trkpt lat="43.77669" lon="7.35552">
        <ele>324.79998779297</ele>
        <time>2013-12-07T08:19:17.000Z</time>
      </trkpt>
      <trkpt lat="43.7768" lon="7.35544">
        <ele>320.79998779297</ele>
        <time>2013-12-07T08:19:20.000Z</time>
      </trkpt>
      <trkpt lat="43.77689" lon="7.35522">
        <ele>315.20001220703</ele>
        <time>2013-12-07T08:19:24.000Z</time>
      </trkpt>
      <trkpt lat="43.77696" lon="7.35516">
        <ele>312.20001220703</ele>
        <time>2013-12-07T08:19:26.000Z</time>
      </trkpt>
      <trkpt lat="43.77701" lon="7.35511">
        <ele>310</ele>
        <time>2013-12-07T08:19:28.000Z</time>
      </trkpt>
      <trkpt lat="43.7771" lon="7.35514">
        <ele>307.60000610352</ele>
        <time>2013-12-07T08:19:30.000Z</time>
      </trkpt>
      <trkpt lat="43.77714" lon="7.35517">
        <ele>306.60000610352</ele>
        <time>2013-12-07T08:19:31.000Z</time>
      </trkpt>
      <trkpt lat="43.7772" lon="7.35523">
        <ele>305.60000610352</ele>
        <time>2013-12-07T08:19:34.000Z</time>
      </trkpt>
      <trkpt lat="43.77721" lon="7.35523">
        <ele>305.20001220703</ele>
        <time>2013-12-07T08:19:35.000Z</time>
      </trkpt>
      <trkpt lat="43.77718" lon="7.35514">
        <ele>304.60000610352</ele>
        <time>2013-12-07T08:19:38.000Z</time>
      </trkpt>
      <trkpt lat="43.77715" lon="7.35495">
        <ele>303.79998779297</ele>
        <time>2013-12-07T08:19:42.000Z</time>
      </trkpt>
      <trkpt lat="43.77703" lon="7.35481">
        <ele>308.20001220703</ele>
        <time>2013-12-07T08:19:46.000Z</time>
      </trkpt>
      <trkpt lat="43.7769" lon="7.35481">
        <ele>312.60000610352</ele>
        <time>2013-12-07T08:19:50.000Z</time>
      </trkpt>
      <trkpt lat="43.77688" lon="7.35484">
        <ele>313.20001220703</ele>
        <time>2013-12-07T08:19:51.000Z</time>
      </trkpt>
      <trkpt lat="43.77686" lon="7.35487">
        <ele>313.79998779297</ele>
        <time>2013-12-07T08:19:53.000Z</time>
      </trkpt>
      <trkpt lat="43.77683" lon="7.35486">
        <ele>314.79998779297</ele>
        <time>2013-12-07T08:19:57.000Z</time>
      </trkpt>
      <trkpt lat="43.77676" lon="7.35486">
        <ele>317.20001220703</ele>
        <time>2013-12-07T08:20:01.000Z</time>
      </trkpt>
      <trkpt lat="43.7767" lon="7.35477">
        <ele>319.60000610352</ele>
        <time>2013-12-07T08:20:04.000Z</time>
      </trkpt>
      <trkpt lat="43.77664" lon="7.35472">
        <ele>321</ele>
        <time>2013-12-07T08:20:08.000Z</time>
      </trkpt>
      <trkpt lat="43.77666" lon="7.3547">
        <ele>320.79998779297</ele>
        <time>2013-12-07T08:20:09.000Z</time>
      </trkpt>
      <trkpt lat="43.77671" lon="7.35459">
        <ele>319.39999389648</ele>
        <time>2013-12-07T08:20:11.000Z</time>
      </trkpt>
      <trkpt lat="43.7768" lon="7.35454">
        <ele>316.39999389648</ele>
        <time>2013-12-07T08:20:14.000Z</time>
      </trkpt>
      <trkpt lat="43.77683" lon="7.35452">
        <ele>315.39999389648</ele>
        <time>2013-12-07T08:20:15.000Z</time>
      </trkpt>
      <trkpt lat="43.7769" lon="7.35438">
        <ele>313.39999389648</ele>
        <time>2013-12-07T08:20:19.000Z</time>
      </trkpt>
      <trkpt lat="43.77686" lon="7.3543">
        <ele>315</ele>
        <time>2013-12-07T08:20:22.000Z</time>
      </trkpt>
      <trkpt lat="43.77687" lon="7.3542">
        <ele>314.60000610352</ele>
        <time>2013-12-07T08:20:26.000Z</time>
      </trkpt>
      <trkpt lat="43.77699" lon="7.35419">
        <ele>310.60000610352</ele>
        <time>2013-12-07T08:20:29.000Z</time>
      </trkpt>
      <trkpt lat="43.77702" lon="7.3542">
        <ele>309.60000610352</ele>
        <time>2013-12-07T08:20:30.000Z</time>
      </trkpt>
      <trkpt lat="43.77719" lon="7.35421">
        <ele>303.79998779297</ele>
        <time>2013-12-07T08:20:34.000Z</time>
      </trkpt>
      <trkpt lat="43.77733" lon="7.35419">
        <ele>298.79998779297</ele>
        <time>2013-12-07T08:20:38.000Z</time>
      </trkpt>
      <trkpt lat="43.77749" lon="7.35413">
        <ele>294.79998779297</ele>
        <time>2013-12-07T08:20:42.000Z</time>
      </trkpt>
      <trkpt lat="43.77751" lon="7.35404">
        <ele>297.39999389648</ele>
        <time>2013-12-07T08:20:46.000Z</time>
      </trkpt>
      <trkpt lat="43.77751" lon="7.35396">
        <ele>300</ele>
        <time>2013-12-07T08:20:49.000Z</time>
      </trkpt>
      <trkpt lat="43.77757" lon="7.35386">
        <ele>303.20001220703</ele>
        <time>2013-12-07T08:20:53.000Z</time>
      </trkpt>
      <trkpt lat="43.77763" lon="7.35393">
        <ele>300.20001220703</ele>
        <time>2013-12-07T08:20:55.000Z</time>
      </trkpt>
      <trkpt lat="43.77767" lon="7.35397">
        <ele>298.60000610352</ele>
        <time>2013-12-07T08:20:56.000Z</time>
      </trkpt>
      <trkpt lat="43.77769" lon="7.35393">
        <ele>299.79998779297</ele>
        <time>2013-12-07T08:20:59.000Z</time>
      </trkpt>
      <trkpt lat="43.77775" lon="7.35381">
        <ele>303.60000610352</ele>
        <time>2013-12-07T08:21:03.000Z</time>
      </trkpt>
      <trkpt lat="43.77779" lon="7.35381">
        <ele>303.60000610352</ele>
        <time>2013-12-07T08:21:07.000Z</time>
      </trkpt>
      <trkpt lat="43.77782" lon="7.35377">
        <ele>304.79998779297</ele>
        <time>2013-12-07T08:21:10.000Z</time>
      </trkpt>
      <trkpt lat="43.77787" lon="7.35375">
        <ele>305.20001220703</ele>
        <time>2013-12-07T08:21:14.000Z</time>
      </trkpt>
      <trkpt lat="43.77789" lon="7.35377">
        <ele>304.20001220703</ele>
        <time>2013-12-07T08:21:20.000Z</time>
      </trkpt>
      <trkpt lat="43.77795" lon="7.35387">
        <ele>300.20001220703</ele>
        <time>2013-12-07T08:21:27.000Z</time>
      </trkpt>
      <trkpt lat="43.77795" lon="7.35397">
        <ele>296.60000610352</ele>
        <time>2013-12-07T08:21:31.000Z</time>
      </trkpt>
      <trkpt lat="43.77796" lon="7.35398">
        <ele>296.39999389648</ele>
        <time>2013-12-07T08:21:32.000Z</time>
      </trkpt>
      <trkpt lat="43.77799" lon="7.35398">
        <ele>296</ele>
        <time>2013-12-07T08:21:35.000Z</time>
      </trkpt>
      <trkpt lat="43.778" lon="7.35398">
        <ele>296</ele>
        <time>2013-12-07T08:21:36.000Z</time>
      </trkpt>
      <trkpt lat="43.77807" lon="7.35401">
        <ele>294.39999389648</ele>
        <time>2013-12-07T08:21:41.000Z</time>
      </trkpt>
      <trkpt lat="43.77811" lon="7.35399">
        <ele>294.79998779297</ele>
        <time>2013-12-07T08:21:47.000Z</time>
      </trkpt>
      <trkpt lat="43.77819" lon="7.35402">
        <ele>293.20001220703</ele>
        <time>2013-12-07T08:21:54.000Z</time>
      </trkpt>
      <trkpt lat="43.7782" lon="7.35404">
        <ele>292.60000610352</ele>
        <time>2013-12-07T08:21:59.000Z</time>
      </trkpt>
      <trkpt lat="43.77819" lon="7.35407">
        <ele>291.39999389648</ele>
        <time>2013-12-07T08:22:05.000Z</time>
      </trkpt>
      <trkpt lat="43.77814" lon="7.35408">
        <ele>291.60000610352</ele>
        <time>2013-12-07T08:22:10.000Z</time>
      </trkpt>
      <trkpt lat="43.77813" lon="7.35409">
        <ele>291.20001220703</ele>
        <time>2013-12-07T08:22:11.000Z</time>
      </trkpt>
      <trkpt lat="43.77813" lon="7.35412">
        <ele>290</ele>
        <time>2013-12-07T08:22:13.000Z</time>
      </trkpt>
      <trkpt lat="43.77814" lon="7.3542">
        <ele>287.79998779297</ele>
        <time>2013-12-07T08:22:16.000Z</time>
      </trkpt>
      <trkpt lat="43.77818" lon="7.35423">
        <ele>286.60000610352</ele>
        <time>2013-12-07T08:22:18.000Z</time>
      </trkpt>
      <trkpt lat="43.77831" lon="7.35427">
        <ele>284.39999389648</ele>
        <time>2013-12-07T08:22:21.000Z</time>
      </trkpt>
      <trkpt lat="43.77845" lon="7.35427">
        <ele>284.60000610352</ele>
        <time>2013-12-07T08:22:25.000Z</time>
      </trkpt>
      <trkpt lat="43.77854" lon="7.35423">
        <ele>286.39999389648</ele>
        <time>2013-12-07T08:22:28.000Z</time>
      </trkpt>
      <trkpt lat="43.77858" lon="7.35423">
        <ele>286.60000610352</ele>
        <time>2013-12-07T08:22:29.000Z</time>
      </trkpt>
      <trkpt lat="43.77872" lon="7.35411">
        <ele>290.79998779297</ele>
        <time>2013-12-07T08:22:34.000Z</time>
      </trkpt>
      <trkpt lat="43.77884" lon="7.35412">
        <ele>291.39999389648</ele>
        <time>2013-12-07T08:22:38.000Z</time>
      </trkpt>
      <trkpt lat="43.77894" lon="7.3541">
        <ele>292.39999389648</ele>
        <time>2013-12-07T08:22:41.000Z</time>
      </trkpt>
      <trkpt lat="43.77901" lon="7.35414">
        <ele>291.79998779297</ele>
        <time>2013-12-07T08:22:43.000Z</time>
      </trkpt>
      <trkpt lat="43.77903" lon="7.35417">
        <ele>291</ele>
        <time>2013-12-07T08:22:44.000Z</time>
      </trkpt>
      <trkpt lat="43.77904" lon="7.35422">
        <ele>289.60000610352</ele>
        <time>2013-12-07T08:22:45.000Z</time>
      </trkpt>
      <trkpt lat="43.77909" lon="7.35436">
        <ele>285.60000610352</ele>
        <time>2013-12-07T08:22:49.000Z</time>
      </trkpt>
      <trkpt lat="43.77909" lon="7.3545">
        <ele>281.20001220703</ele>
        <time>2013-12-07T08:22:52.000Z</time>
      </trkpt>
      <trkpt lat="43.77908" lon="7.35456">
        <ele>279.39999389648</ele>
        <time>2013-12-07T08:22:54.000Z</time>
      </trkpt>
      <trkpt lat="43.77907" lon="7.3546">
        <ele>278.20001220703</ele>
        <time>2013-12-07T08:22:55.000Z</time>
      </trkpt>
      <trkpt lat="43.77907" lon="7.35476">
        <ele>273.20001220703</ele>
        <time>2013-12-07T08:22:59.000Z</time>
      </trkpt>
      <trkpt lat="43.77914" lon="7.35482">
        <ele>271.60000610352</ele>
        <time>2013-12-07T08:23:02.000Z</time>
      </trkpt>
      <trkpt lat="43.77923" lon="7.35483">
        <ele>271.20001220703</ele>
        <time>2013-12-07T08:23:05.000Z</time>
      </trkpt>
      <trkpt lat="43.77932" lon="7.35488">
        <ele>269.60000610352</ele>
        <time>2013-12-07T08:23:07.000Z</time>
      </trkpt>
      <trkpt lat="43.7794" lon="7.35494">
        <ele>267.60000610352</ele>
        <time>2013-12-07T08:23:09.000Z</time>
      </trkpt>
      <trkpt lat="43.77943" lon="7.35496">
        <ele>267.20001220703</ele>
        <time>2013-12-07T08:23:10.000Z</time>
      </trkpt>
      <trkpt lat="43.77957" lon="7.35498">
        <ele>266.39999389648</ele>
        <time>2013-12-07T08:23:14.000Z</time>
      </trkpt>
      <trkpt lat="43.77962" lon="7.35497">
        <ele>266.60000610352</ele>
        <time>2013-12-07T08:23:16.000Z</time>
      </trkpt>
      <trkpt lat="43.77965" lon="7.35495">
        <ele>267</ele>
        <time>2013-12-07T08:23:17.000Z</time>
      </trkpt>
      <trkpt lat="43.77972" lon="7.35494">
        <ele>267.39999389648</ele>
        <time>2013-12-07T08:23:20.000Z</time>
      </trkpt>
      <trkpt lat="43.77973" lon="7.35494">
        <ele>267.39999389648</ele>
        <time>2013-12-07T08:23:21.000Z</time>
      </trkpt>
      <trkpt lat="43.77978" lon="7.35493">
        <ele>267.39999389648</ele>
        <time>2013-12-07T08:23:23.000Z</time>
      </trkpt>
      <trkpt lat="43.7798" lon="7.3549">
        <ele>268</ele>
        <time>2013-12-07T08:23:24.000Z</time>
      </trkpt>
      <trkpt lat="43.77982" lon="7.35483">
        <ele>269.60000610352</ele>
        <time>2013-12-07T08:23:26.000Z</time>
      </trkpt>
      <trkpt lat="43.77984" lon="7.35476">
        <ele>270.79998779297</ele>
        <time>2013-12-07T08:23:28.000Z</time>
      </trkpt>
      <trkpt lat="43.77988" lon="7.35479">
        <ele>270</ele>
        <time>2013-12-07T08:23:31.000Z</time>
      </trkpt>
      <trkpt lat="43.7799" lon="7.35485">
        <ele>268.79998779297</ele>
        <time>2013-12-07T08:23:33.000Z</time>
      </trkpt>
      <trkpt lat="43.77994" lon="7.35487">
        <ele>268.39999389648</ele>
        <time>2013-12-07T08:23:34.000Z</time>
      </trkpt>
      <trkpt lat="43.77997" lon="7.35486">
        <ele>268.60000610352</ele>
        <time>2013-12-07T08:23:35.000Z</time>
      </trkpt>
      <trkpt lat="43.7801" lon="7.35485">
        <ele>265.20001220703</ele>
        <time>2013-12-07T08:23:38.000Z</time>
      </trkpt>
      <trkpt lat="43.78013" lon="7.35483">
        <ele>264.39999389648</ele>
        <time>2013-12-07T08:23:39.000Z</time>
      </trkpt>
      <trkpt lat="43.78017" lon="7.35479">
        <ele>263.79998779297</ele>
        <time>2013-12-07T08:23:40.000Z</time>
      </trkpt>
      <trkpt lat="43.7802" lon="7.35472">
        <ele>263.79998779297</ele>
        <time>2013-12-07T08:23:42.000Z</time>
      </trkpt>
      <trkpt lat="43.78019" lon="7.35469">
        <ele>264.39999389648</ele>
        <time>2013-12-07T08:23:43.000Z</time>
      </trkpt>
      <trkpt lat="43.78023" lon="7.35463">
        <ele>263.79998779297</ele>
        <time>2013-12-07T08:23:46.000Z</time>
      </trkpt>
      <trkpt lat="43.78029" lon="7.3546">
        <ele>262</ele>
        <time>2013-12-07T08:23:48.000Z</time>
      </trkpt>
      <trkpt lat="43.78031" lon="7.35456">
        <ele>262</ele>
        <time>2013-12-07T08:23:49.000Z</time>
      </trkpt>
      <trkpt lat="43.78036" lon="7.35445">
        <ele>261.39999389648</ele>
        <time>2013-12-07T08:23:51.000Z</time>
      </trkpt>
      <trkpt lat="43.78042" lon="7.35432">
        <ele>260.79998779297</ele>
        <time>2013-12-07T08:23:54.000Z</time>
      </trkpt>
      <trkpt lat="43.7804" lon="7.35429">
        <ele>262.20001220703</ele>
        <time>2013-12-07T08:23:55.000Z</time>
      </trkpt>
      <trkpt lat="43.78033" lon="7.35415">
        <ele>266.79998779297</ele>
        <time>2013-12-07T08:23:59.000Z</time>
      </trkpt>
      <trkpt lat="43.78036" lon="7.3541">
        <ele>265.39999389648</ele>
        <time>2013-12-07T08:24:02.000Z</time>
      </trkpt>
      <trkpt lat="43.78039" lon="7.35404">
        <ele>264.39999389648</ele>
        <time>2013-12-07T08:24:04.000Z</time>
      </trkpt>
      <trkpt lat="43.78043" lon="7.35394">
        <ele>262.39999389648</ele>
        <time>2013-12-07T08:24:06.000Z</time>
      </trkpt>
      <trkpt lat="43.78038" lon="7.35377">
        <ele>265</ele>
        <time>2013-12-07T08:24:09.000Z</time>
      </trkpt>
      <trkpt lat="43.78037" lon="7.35376">
        <ele>265.79998779297</ele>
        <time>2013-12-07T08:24:10.000Z</time>
      </trkpt>
      <trkpt lat="43.78031" lon="7.35371">
        <ele>268.20001220703</ele>
        <time>2013-12-07T08:24:13.000Z</time>
      </trkpt>
      <trkpt lat="43.78034" lon="7.35359">
        <ele>267</ele>
        <time>2013-12-07T08:24:16.000Z</time>
      </trkpt>
      <trkpt lat="43.78037" lon="7.35344">
        <ele>266.20001220703</ele>
        <time>2013-12-07T08:24:20.000Z</time>
      </trkpt>
      <trkpt lat="43.78031" lon="7.35336">
        <ele>268.60000610352</ele>
        <time>2013-12-07T08:24:23.000Z</time>
      </trkpt>
      <trkpt lat="43.7803" lon="7.35333">
        <ele>269.39999389648</ele>
        <time>2013-12-07T08:24:24.000Z</time>
      </trkpt>
      <trkpt lat="43.78033" lon="7.35329">
        <ele>268</ele>
        <time>2013-12-07T08:24:25.000Z</time>
      </trkpt>
      <trkpt lat="43.78035" lon="7.35324">
        <ele>266.79998779297</ele>
        <time>2013-12-07T08:24:26.000Z</time>
      </trkpt>
      <trkpt lat="43.78039" lon="7.35317">
        <ele>264.79998779297</ele>
        <time>2013-12-07T08:24:28.000Z</time>
      </trkpt>
      <trkpt lat="43.7804" lon="7.35309">
        <ele>263.79998779297</ele>
        <time>2013-12-07T08:24:30.000Z</time>
      </trkpt>
      <trkpt lat="43.78036" lon="7.35289">
        <ele>265.39999389648</ele>
        <time>2013-12-07T08:24:34.000Z</time>
      </trkpt>
      <trkpt lat="43.78034" lon="7.35286">
        <ele>266.20001220703</ele>
        <time>2013-12-07T08:24:35.000Z</time>
      </trkpt>
      <trkpt lat="43.78031" lon="7.35281">
        <ele>267.20001220703</ele>
        <time>2013-12-07T08:24:38.000Z</time>
      </trkpt>
      <trkpt lat="43.78032" lon="7.35279">
        <ele>266.79998779297</ele>
        <time>2013-12-07T08:24:44.000Z</time>
      </trkpt>
      <trkpt lat="43.78031" lon="7.35277">
        <ele>267.20001220703</ele>
        <time>2013-12-07T08:24:50.000Z</time>
      </trkpt>
      <trkpt lat="43.78031" lon="7.35273">
        <ele>267</ele>
        <time>2013-12-07T08:24:52.000Z</time>
      </trkpt>
      <trkpt lat="43.7803" lon="7.35268">
        <ele>267.20001220703</ele>
        <time>2013-12-07T08:24:54.000Z</time>
      </trkpt>
      <trkpt lat="43.78031" lon="7.35254">
        <ele>266.20001220703</ele>
        <time>2013-12-07T08:25:01.000Z</time>
      </trkpt>
      <trkpt lat="43.78031" lon="7.35251">
        <ele>266.39999389648</ele>
        <time>2013-12-07T08:25:02.000Z</time>
      </trkpt>
      <trkpt lat="43.78028" lon="7.35241">
        <ele>267</ele>
        <time>2013-12-07T08:25:06.000Z</time>
      </trkpt>
      <trkpt lat="43.78028" lon="7.35234">
        <ele>267</ele>
        <time>2013-12-07T08:25:09.000Z</time>
      </trkpt>
      <trkpt lat="43.78024" lon="7.35225">
        <ele>268.20001220703</ele>
        <time>2013-12-07T08:25:15.000Z</time>
      </trkpt>
      <trkpt lat="43.7802" lon="7.35213">
        <ele>269.39999389648</ele>
        <time>2013-12-07T08:25:24.000Z</time>
      </trkpt>
      <trkpt lat="43.78015" lon="7.35203">
        <ele>270.79998779297</ele>
        <time>2013-12-07T08:25:30.000Z</time>
      </trkpt>
      <trkpt lat="43.78008" lon="7.35188">
        <ele>272.60000610352</ele>
        <time>2013-12-07T08:25:38.000Z</time>
      </trkpt>
      <trkpt lat="43.77998" lon="7.3518">
        <ele>275.79998779297</ele>
        <time>2013-12-07T08:25:46.000Z</time>
      </trkpt>
      <trkpt lat="43.77989" lon="7.35177">
        <ele>279</ele>
        <time>2013-12-07T08:25:53.000Z</time>
      </trkpt>
      <trkpt lat="43.77985" lon="7.35168">
        <ele>280.20001220703</ele>
        <time>2013-12-07T08:25:58.000Z</time>
      </trkpt>
      <trkpt lat="43.77986" lon="7.35158">
        <ele>279.20001220703</ele>
        <time>2013-12-07T08:26:05.000Z</time>
      </trkpt>
      <trkpt lat="43.77983" lon="7.35141">
        <ele>279.20001220703</ele>
        <time>2013-12-07T08:26:12.000Z</time>
      </trkpt>
      <trkpt lat="43.77974" lon="7.35127">
        <ele>281.39999389648</ele>
        <time>2013-12-07T08:26:19.000Z</time>
      </trkpt>
      <trkpt lat="43.77961" lon="7.35118">
        <ele>285.79998779297</ele>
        <time>2013-12-07T08:26:29.000Z</time>
      </trkpt>
      <trkpt lat="43.77957" lon="7.3511">
        <ele>286.60000610352</ele>
        <time>2013-12-07T08:26:34.000Z</time>
      </trkpt>
      <trkpt lat="43.77956" lon="7.35109">
        <ele>286.79998779297</ele>
        <time>2013-12-07T08:26:35.000Z</time>
      </trkpt>
      <trkpt lat="43.77957" lon="7.35099">
        <ele>285.20001220703</ele>
        <time>2013-12-07T08:26:39.000Z</time>
      </trkpt>
      <trkpt lat="43.77965" lon="7.35093">
        <ele>282</ele>
        <time>2013-12-07T08:26:45.000Z</time>
      </trkpt>
      <trkpt lat="43.77966" lon="7.35093">
        <ele>281.60000610352</ele>
        <time>2013-12-07T08:26:46.000Z</time>
      </trkpt>
      <trkpt lat="43.7797" lon="7.35084">
        <ele>279.39999389648</ele>
        <time>2013-12-07T08:26:50.000Z</time>
      </trkpt>
      <trkpt lat="43.77973" lon="7.35066">
        <ele>276.39999389648</ele>
        <time>2013-12-07T08:26:56.000Z</time>
      </trkpt>
      <trkpt lat="43.77972" lon="7.35052">
        <ele>275.20001220703</ele>
        <time>2013-12-07T08:27:01.000Z</time>
      </trkpt>
      <trkpt lat="43.77972" lon="7.35049">
        <ele>274.79998779297</ele>
        <time>2013-12-07T08:27:02.000Z</time>
      </trkpt>
      <trkpt lat="43.77969" lon="7.35026">
        <ele>273</ele>
        <time>2013-12-07T08:27:10.000Z</time>
      </trkpt>
      <trkpt lat="43.77969" lon="7.35016">
        <ele>272</ele>
        <time>2013-12-07T08:27:14.000Z</time>
      </trkpt>
      <trkpt lat="43.77969" lon="7.35009">
        <ele>271.39999389648</ele>
        <time>2013-12-07T08:27:17.000Z</time>
      </trkpt>
      <trkpt lat="43.77962" lon="7.34995">
        <ele>272.39999389648</ele>
        <time>2013-12-07T08:27:25.000Z</time>
      </trkpt>
      <trkpt lat="43.77951" lon="7.34986">
        <ele>275.60000610352</ele>
        <time>2013-12-07T08:27:32.000Z</time>
      </trkpt>
      <trkpt lat="43.77942" lon="7.34977">
        <ele>277.79998779297</ele>
        <time>2013-12-07T08:27:38.000Z</time>
      </trkpt>
      <trkpt lat="43.77931" lon="7.34963">
        <ele>280.39999389648</ele>
        <time>2013-12-07T08:27:43.000Z</time>
      </trkpt>
      <trkpt lat="43.77922" lon="7.3495">
        <ele>282.20001220703</ele>
        <time>2013-12-07T08:27:46.000Z</time>
      </trkpt>
      <trkpt lat="43.77923" lon="7.34944">
        <ele>281.20001220703</ele>
        <time>2013-12-07T08:27:47.000Z</time>
      </trkpt>
      <trkpt lat="43.77932" lon="7.34928">
        <ele>276.60000610352</ele>
        <time>2013-12-07T08:27:50.000Z</time>
      </trkpt>
      <trkpt lat="43.77937" lon="7.34923">
        <ele>274.60000610352</ele>
        <time>2013-12-07T08:27:51.000Z</time>
      </trkpt>
      <trkpt lat="43.77953" lon="7.34898">
        <ele>266.79998779297</ele>
        <time>2013-12-07T08:27:55.000Z</time>
      </trkpt>
      <trkpt lat="43.77958" lon="7.34888">
        <ele>264.20001220703</ele>
        <time>2013-12-07T08:27:58.000Z</time>
      </trkpt>
      <trkpt lat="43.77963" lon="7.34882">
        <ele>262.39999389648</ele>
        <time>2013-12-07T08:28:02.000Z</time>
      </trkpt>
      <trkpt lat="43.77965" lon="7.34881">
        <ele>261.79998779297</ele>
        <time>2013-12-07T08:28:03.000Z</time>
      </trkpt>
      <trkpt lat="43.77978" lon="7.34868">
        <ele>257</ele>
        <time>2013-12-07T08:28:08.000Z</time>
      </trkpt>
      <trkpt lat="43.77995" lon="7.3485">
        <ele>251.60000610352</ele>
        <time>2013-12-07T08:28:13.000Z</time>
      </trkpt>
      <trkpt lat="43.78" lon="7.34838">
        <ele>250.19999694824</ele>
        <time>2013-12-07T08:28:16.000Z</time>
      </trkpt>
      <trkpt lat="43.77998" lon="7.34831">
        <ele>250</ele>
        <time>2013-12-07T08:28:18.000Z</time>
      </trkpt>
      <trkpt lat="43.77998" lon="7.34827">
        <ele>249.19999694824</ele>
        <time>2013-12-07T08:28:20.000Z</time>
      </trkpt>
      <trkpt lat="43.78" lon="7.34825">
        <ele>248</ele>
        <time>2013-12-07T08:28:22.000Z</time>
      </trkpt>
      <trkpt lat="43.78006" lon="7.34827">
        <ele>245.60000610352</ele>
        <time>2013-12-07T08:28:24.000Z</time>
      </trkpt>
      <trkpt lat="43.78022" lon="7.34839">
        <ele>239</ele>
        <time>2013-12-07T08:28:30.000Z</time>
      </trkpt>
      <trkpt lat="43.78023" lon="7.34846">
        <ele>238.80000305176</ele>
        <time>2013-12-07T08:28:32.000Z</time>
      </trkpt>
      <trkpt lat="43.78021" lon="7.34852">
        <ele>240</ele>
        <time>2013-12-07T08:28:34.000Z</time>
      </trkpt>
      <trkpt lat="43.78026" lon="7.3485">
        <ele>237.39999389648</ele>
        <time>2013-12-07T08:28:37.000Z</time>
      </trkpt>
      <trkpt lat="43.78027" lon="7.34849">
        <ele>236.80000305176</ele>
        <time>2013-12-07T08:28:38.000Z</time>
      </trkpt>
      <trkpt lat="43.78028" lon="7.34852">
        <ele>236.60000610352</ele>
        <time>2013-12-07T08:28:40.000Z</time>
      </trkpt>
      <trkpt lat="43.78028" lon="7.34855">
        <ele>236.80000305176</ele>
        <time>2013-12-07T08:28:42.000Z</time>
      </trkpt>
      <trkpt lat="43.7803" lon="7.34855">
        <ele>236</ele>
        <time>2013-12-07T08:28:44.000Z</time>
      </trkpt>
      <trkpt lat="43.78035" lon="7.34848">
        <ele>233</ele>
        <time>2013-12-07T08:28:48.000Z</time>
      </trkpt>
      <trkpt lat="43.78036" lon="7.34848">
        <ele>232.60000610352</ele>
        <time>2013-12-07T08:28:49.000Z</time>
      </trkpt>
      <trkpt lat="43.78039" lon="7.34851">
        <ele>231.39999389648</ele>
        <time>2013-12-07T08:28:51.000Z</time>
      </trkpt>
      <trkpt lat="43.7804" lon="7.34855">
        <ele>231</ele>
        <time>2013-12-07T08:28:53.000Z</time>
      </trkpt>
      <trkpt lat="43.7804" lon="7.34863">
        <ele>231.60000610352</ele>
        <time>2013-12-07T08:28:55.000Z</time>
      </trkpt>
      <trkpt lat="43.78041" lon="7.34865">
        <ele>231.19999694824</ele>
        <time>2013-12-07T08:28:56.000Z</time>
      </trkpt>
      <trkpt lat="43.78044" lon="7.34865">
        <ele>229.60000610352</ele>
        <time>2013-12-07T08:28:58.000Z</time>
      </trkpt>
      <trkpt lat="43.78051" lon="7.34856">
        <ele>225.39999389648</ele>
        <time>2013-12-07T08:29:01.000Z</time>
      </trkpt>
      <trkpt lat="43.78059" lon="7.34837">
        <ele>220.80000305176</ele>
        <time>2013-12-07T08:29:06.000Z</time>
      </trkpt>
      <trkpt lat="43.78063" lon="7.34837">
        <ele>218.39999389648</ele>
        <time>2013-12-07T08:29:08.000Z</time>
      </trkpt>
      <trkpt lat="43.78064" lon="7.34837">
        <ele>217.80000305176</ele>
        <time>2013-12-07T08:29:09.000Z</time>
      </trkpt>
      <trkpt lat="43.78068" lon="7.3484">
        <ele>216</ele>
        <time>2013-12-07T08:29:10.000Z</time>
      </trkpt>
      <trkpt lat="43.78076" lon="7.34846">
        <ele>212.60000610352</ele>
        <time>2013-12-07T08:29:13.000Z</time>
      </trkpt>
      <trkpt lat="43.78076" lon="7.3484">
        <ele>212.39999389648</ele>
        <time>2013-12-07T08:29:16.000Z</time>
      </trkpt>
      <trkpt lat="43.78073" lon="7.34827">
        <ele>212.39999389648</ele>
        <time>2013-12-07T08:29:22.000Z</time>
      </trkpt>
      <trkpt lat="43.78073" lon="7.34825">
        <ele>212.19999694824</ele>
        <time>2013-12-07T08:29:23.000Z</time>
      </trkpt>
      <trkpt lat="43.78078" lon="7.34822">
        <ele>209</ele>
        <time>2013-12-07T08:29:26.000Z</time>
      </trkpt>
      <trkpt lat="43.78081" lon="7.34821">
        <ele>207.39999389648</ele>
        <time>2013-12-07T08:29:27.000Z</time>
      </trkpt>
      <trkpt lat="43.78084" lon="7.34822">
        <ele>206.39999389648</ele>
        <time>2013-12-07T08:29:28.000Z</time>
      </trkpt>
      <trkpt lat="43.78089" lon="7.34826">
        <ele>205</ele>
        <time>2013-12-07T08:29:30.000Z</time>
      </trkpt>
      <trkpt lat="43.78098" lon="7.34829">
        <ele>202.39999389648</ele>
        <time>2013-12-07T08:29:34.000Z</time>
      </trkpt>
      <trkpt lat="43.78102" lon="7.34832">
        <ele>201.19999694824</ele>
        <time>2013-12-07T08:29:38.000Z</time>
      </trkpt>
      <trkpt lat="43.78101" lon="7.34823">
        <ele>200.19999694824</ele>
        <time>2013-12-07T08:29:42.000Z</time>
      </trkpt>
      <trkpt lat="43.781" lon="7.34821">
        <ele>200.39999389648</ele>
        <time>2013-12-07T08:29:43.000Z</time>
      </trkpt>
      <trkpt lat="43.78095" lon="7.3482">
        <ele>202</ele>
        <time>2013-12-07T08:29:45.000Z</time>
      </trkpt>
      <trkpt lat="43.78086" lon="7.34808">
        <ele>203.80000305176</ele>
        <time>2013-12-07T08:29:49.000Z</time>
      </trkpt>
      <trkpt lat="43.78075" lon="7.34802">
        <ele>207.80000305176</ele>
        <time>2013-12-07T08:29:52.000Z</time>
      </trkpt>
      <trkpt lat="43.7807" lon="7.34796">
        <ele>209.19999694824</ele>
        <time>2013-12-07T08:29:54.000Z</time>
      </trkpt>
      <trkpt lat="43.78066" lon="7.34795">
        <ele>210.80000305176</ele>
        <time>2013-12-07T08:29:55.000Z</time>
      </trkpt>
      <trkpt lat="43.7806" lon="7.34791">
        <ele>213.19999694824</ele>
        <time>2013-12-07T08:29:57.000Z</time>
      </trkpt>
      <trkpt lat="43.78059" lon="7.34788">
        <ele>213.19999694824</ele>
        <time>2013-12-07T08:29:58.000Z</time>
      </trkpt>
      <trkpt lat="43.7806" lon="7.34781">
        <ele>211.39999389648</ele>
        <time>2013-12-07T08:30:00.000Z</time>
      </trkpt>
      <trkpt lat="43.7806" lon="7.34779">
        <ele>211.39999389648</ele>
        <time>2013-12-07T08:30:02.000Z</time>
      </trkpt>
      <trkpt lat="43.78059" lon="7.34778">
        <ele>211.60000610352</ele>
        <time>2013-12-07T08:30:04.000Z</time>
      </trkpt>
      <trkpt lat="43.78057" lon="7.34775">
        <ele>212</ele>
        <time>2013-12-07T08:30:05.000Z</time>
      </trkpt>
      <trkpt lat="43.78055" lon="7.34768">
        <ele>211.60000610352</ele>
        <time>2013-12-07T08:30:07.000Z</time>
      </trkpt>
      <trkpt lat="43.78057" lon="7.34757">
        <ele>209.39999389648</ele>
        <time>2013-12-07T08:30:09.000Z</time>
      </trkpt>
      <trkpt lat="43.78059" lon="7.34748">
        <ele>206.60000610352</ele>
        <time>2013-12-07T08:30:11.000Z</time>
      </trkpt>
      <trkpt lat="43.7806" lon="7.34737">
        <ele>204</ele>
        <time>2013-12-07T08:30:13.000Z</time>
      </trkpt>
      <trkpt lat="43.78058" lon="7.34732">
        <ele>203.80000305176</ele>
        <time>2013-12-07T08:30:14.000Z</time>
      </trkpt>
      <trkpt lat="43.7806" lon="7.34713">
        <ele>199.19999694824</ele>
        <time>2013-12-07T08:30:17.000Z</time>
      </trkpt>
      <trkpt lat="43.78057" lon="7.34695">
        <ele>196.60000610352</ele>
        <time>2013-12-07T08:30:21.000Z</time>
      </trkpt>
      <trkpt lat="43.78056" lon="7.34689">
        <ele>195.80000305176</ele>
        <time>2013-12-07T08:30:22.000Z</time>
      </trkpt>
      <trkpt lat="43.78055" lon="7.34676">
        <ele>193.39999389648</ele>
        <time>2013-12-07T08:30:25.000Z</time>
      </trkpt>
      <trkpt lat="43.7805" lon="7.34662">
        <ele>192.39999389648</ele>
        <time>2013-12-07T08:30:30.000Z</time>
      </trkpt>
      <trkpt lat="43.78047" lon="7.3466">
        <ele>192.80000305176</ele>
        <time>2013-12-07T08:30:31.000Z</time>
      </trkpt>
      <trkpt lat="43.78043" lon="7.34659">
        <ele>194</ele>
        <time>2013-12-07T08:30:34.000Z</time>
      </trkpt>
      <trkpt lat="43.78042" lon="7.34659">
        <ele>194.39999389648</ele>
        <time>2013-12-07T08:30:35.000Z</time>
      </trkpt>
      <trkpt lat="43.78039" lon="7.34658">
        <ele>195.39999389648</ele>
        <time>2013-12-07T08:30:39.000Z</time>
      </trkpt>
      <trkpt lat="43.78037" lon="7.34659">
        <ele>196</ele>
        <time>2013-12-07T08:30:41.000Z</time>
      </trkpt>
      <trkpt lat="43.78035" lon="7.34658">
        <ele>196.60000610352</ele>
        <time>2013-12-07T08:30:45.000Z</time>
      </trkpt>
      <trkpt lat="43.78033" lon="7.34659">
        <ele>197.80000305176</ele>
        <time>2013-12-07T08:30:47.000Z</time>
      </trkpt>
      <trkpt lat="43.78029" lon="7.34659">
        <ele>199</ele>
        <time>2013-12-07T08:30:49.000Z</time>
      </trkpt>
      <trkpt lat="43.78027" lon="7.34656">
        <ele>199.19999694824</ele>
        <time>2013-12-07T08:30:51.000Z</time>
      </trkpt>
      <trkpt lat="43.78022" lon="7.34653">
        <ele>200.19999694824</ele>
        <time>2013-12-07T08:30:53.000Z</time>
      </trkpt>
      <trkpt lat="43.78018" lon="7.34652">
        <ele>201.60000610352</ele>
        <time>2013-12-07T08:30:54.000Z</time>
      </trkpt>
      <trkpt lat="43.78014" lon="7.34652">
        <ele>202.80000305176</ele>
        <time>2013-12-07T08:30:56.000Z</time>
      </trkpt>
      <trkpt lat="43.78013" lon="7.34653">
        <ele>203.39999389648</ele>
        <time>2013-12-07T08:30:57.000Z</time>
      </trkpt>
      <trkpt lat="43.78007" lon="7.34654">
        <ele>206</ele>
        <time>2013-12-07T08:31:00.000Z</time>
      </trkpt>
      <trkpt lat="43.78004" lon="7.34653">
        <ele>206.39999389648</ele>
        <time>2013-12-07T08:31:01.000Z</time>
      </trkpt>
      <trkpt lat="43.78002" lon="7.34653">
        <ele>207.19999694824</ele>
        <time>2013-12-07T08:31:02.000Z</time>
      </trkpt>
      <trkpt lat="43.77999" lon="7.34656">
        <ele>208.80000305176</ele>
        <time>2013-12-07T08:31:04.000Z</time>
      </trkpt>
      <trkpt lat="43.77992" lon="7.34662">
        <ele>212.80000305176</ele>
        <time>2013-12-07T08:31:08.000Z</time>
      </trkpt>
      <trkpt lat="43.77985" lon="7.34669">
        <ele>216.19999694824</ele>
        <time>2013-12-07T08:31:11.000Z</time>
      </trkpt>
      <trkpt lat="43.77982" lon="7.34671">
        <ele>218.19999694824</ele>
        <time>2013-12-07T08:31:12.000Z</time>
      </trkpt>
      <trkpt lat="43.77976" lon="7.34673">
        <ele>221</ele>
        <time>2013-12-07T08:31:15.000Z</time>
      </trkpt>
      <trkpt lat="43.77976" lon="7.34671">
        <ele>220.60000610352</ele>
        <time>2013-12-07T08:31:18.000Z</time>
      </trkpt>
      <trkpt lat="43.77978" lon="7.3467">
        <ele>219.80000305176</ele>
        <time>2013-12-07T08:31:21.000Z</time>
      </trkpt>
      <trkpt lat="43.77979" lon="7.3467">
        <ele>219</ele>
        <time>2013-12-07T08:31:23.000Z</time>
      </trkpt>
      <trkpt lat="43.77981" lon="7.34669">
        <ele>218.39999389648</ele>
        <time>2013-12-07T08:31:27.000Z</time>
      </trkpt>
      <trkpt lat="43.77978" lon="7.34658">
        <ele>217.39999389648</ele>
        <time>2013-12-07T08:31:32.000Z</time>
      </trkpt>
      <trkpt lat="43.77974" lon="7.34654">
        <ele>218.39999389648</ele>
        <time>2013-12-07T08:31:34.000Z</time>
      </trkpt>
      <trkpt lat="43.77969" lon="7.34651">
        <ele>220.19999694824</ele>
        <time>2013-12-07T08:31:36.000Z</time>
      </trkpt>
      <trkpt lat="43.77955" lon="7.34648">
        <ele>225.60000610352</ele>
        <time>2013-12-07T08:31:41.000Z</time>
      </trkpt>
      <trkpt lat="43.77953" lon="7.34642">
        <ele>225.60000610352</ele>
        <time>2013-12-07T08:31:44.000Z</time>
      </trkpt>
      <trkpt lat="43.77959" lon="7.34637">
        <ele>222.80000305176</ele>
        <time>2013-12-07T08:31:55.000Z</time>
      </trkpt>
      <trkpt lat="43.77958" lon="7.34636">
        <ele>223</ele>
        <time>2013-12-07T08:31:57.000Z</time>
      </trkpt>
      <trkpt lat="43.77964" lon="7.34633">
        <ele>220</ele>
        <time>2013-12-07T08:32:22.000Z</time>
      </trkpt>
      <trkpt lat="43.77968" lon="7.34631">
        <ele>218.39999389648</ele>
        <time>2013-12-07T08:32:24.000Z</time>
      </trkpt>
      <trkpt lat="43.77969" lon="7.34627">
        <ele>217.39999389648</ele>
        <time>2013-12-07T08:32:26.000Z</time>
      </trkpt>
      <trkpt lat="43.77974" lon="7.34624">
        <ele>214.60000610352</ele>
        <time>2013-12-07T08:32:30.000Z</time>
      </trkpt>
      <trkpt lat="43.77977" lon="7.34617">
        <ele>212.80000305176</ele>
        <time>2013-12-07T08:32:33.000Z</time>
      </trkpt>
      <trkpt lat="43.77977" lon="7.34605">
        <ele>210.80000305176</ele>
        <time>2013-12-07T08:32:35.000Z</time>
      </trkpt>
      <trkpt lat="43.77981" lon="7.34594">
        <ele>208</ele>
        <time>2013-12-07T08:32:37.000Z</time>
      </trkpt>
      <trkpt lat="43.77984" lon="7.34586">
        <ele>205.60000610352</ele>
        <time>2013-12-07T08:32:39.000Z</time>
      </trkpt>
      <trkpt lat="43.77983" lon="7.34579">
        <ele>205.19999694824</ele>
        <time>2013-12-07T08:32:41.000Z</time>
      </trkpt>
      <trkpt lat="43.77984" lon="7.34574">
        <ele>204.60000610352</ele>
        <time>2013-12-07T08:32:43.000Z</time>
      </trkpt>
      <trkpt lat="43.77986" lon="7.34571">
        <ele>203.80000305176</ele>
        <time>2013-12-07T08:32:45.000Z</time>
      </trkpt>
      <trkpt lat="43.77986" lon="7.34557">
        <ele>203.19999694824</ele>
        <time>2013-12-07T08:32:49.000Z</time>
      </trkpt>
      <trkpt lat="43.77992" lon="7.34555">
        <ele>200.19999694824</ele>
        <time>2013-12-07T08:32:52.000Z</time>
      </trkpt>
      <trkpt lat="43.78004" lon="7.34553">
        <ele>195.19999694824</ele>
        <time>2013-12-07T08:32:56.000Z</time>
      </trkpt>
      <trkpt lat="43.78007" lon="7.34552">
        <ele>194</ele>
        <time>2013-12-07T08:32:57.000Z</time>
      </trkpt>
      <trkpt lat="43.78011" lon="7.34548">
        <ele>192.19999694824</ele>
        <time>2013-12-07T08:32:58.000Z</time>
      </trkpt>
      <trkpt lat="43.78013" lon="7.34538">
        <ele>191</ele>
        <time>2013-12-07T08:33:00.000Z</time>
      </trkpt>
      <trkpt lat="43.78013" lon="7.3452">
        <ele>190.39999389648</ele>
        <time>2013-12-07T08:33:04.000Z</time>
      </trkpt>
      <trkpt lat="43.7801" lon="7.34506">
        <ele>191.19999694824</ele>
        <time>2013-12-07T08:33:07.000Z</time>
      </trkpt>
      <trkpt lat="43.7801" lon="7.34485">
        <ele>189.39999389648</ele>
        <time>2013-12-07T08:33:11.000Z</time>
      </trkpt>
      <trkpt lat="43.78007" lon="7.34474">
        <ele>189.39999389648</ele>
        <time>2013-12-07T08:33:14.000Z</time>
      </trkpt>
      <trkpt lat="43.78007" lon="7.34471">
        <ele>188.80000305176</ele>
        <time>2013-12-07T08:33:15.000Z</time>
      </trkpt>
      <trkpt lat="43.78005" lon="7.34453">
        <ele>187.60000610352</ele>
        <time>2013-12-07T08:33:19.000Z</time>
      </trkpt>
      <trkpt lat="43.78007" lon="7.34448">
        <ele>186.60000610352</ele>
        <time>2013-12-07T08:33:20.000Z</time>
      </trkpt>
      <trkpt lat="43.78005" lon="7.34439">
        <ele>186</ele>
        <time>2013-12-07T08:33:22.000Z</time>
      </trkpt>
      <trkpt lat="43.77999" lon="7.34435">
        <ele>187.60000610352</ele>
        <time>2013-12-07T08:33:25.000Z</time>
      </trkpt>
      <trkpt lat="43.77985" lon="7.34438">
        <ele>192.60000610352</ele>
        <time>2013-12-07T08:33:29.000Z</time>
      </trkpt>
      <trkpt lat="43.77978" lon="7.34428">
        <ele>193.80000305176</ele>
        <time>2013-12-07T08:33:33.000Z</time>
      </trkpt>
      <trkpt lat="43.77985" lon="7.34405">
        <ele>187</ele>
        <time>2013-12-07T08:33:36.000Z</time>
      </trkpt>
      <trkpt lat="43.77993" lon="7.34393">
        <ele>181.39999389648</ele>
        <time>2013-12-07T08:33:40.000Z</time>
      </trkpt>
      <trkpt lat="43.77989" lon="7.34388">
        <ele>181.60000610352</ele>
        <time>2013-12-07T08:33:43.000Z</time>
      </trkpt>
      <trkpt lat="43.77984" lon="7.3438">
        <ele>181.39999389648</ele>
        <time>2013-12-07T08:33:46.000Z</time>
      </trkpt>
      <trkpt lat="43.7798" lon="7.3437">
        <ele>180.39999389648</ele>
        <time>2013-12-07T08:33:48.000Z</time>
      </trkpt>
      <trkpt lat="43.77981" lon="7.34362">
        <ele>178.39999389648</ele>
        <time>2013-12-07T08:33:50.000Z</time>
      </trkpt>
      <trkpt lat="43.77984" lon="7.34358">
        <ele>176.39999389648</ele>
        <time>2013-12-07T08:33:52.000Z</time>
      </trkpt>
      <trkpt lat="43.77979" lon="7.34354">
        <ele>177.19999694824</ele>
        <time>2013-12-07T08:33:54.000Z</time>
      </trkpt>
      <trkpt lat="43.77973" lon="7.34346">
        <ele>177.39999389648</ele>
        <time>2013-12-07T08:33:57.000Z</time>
      </trkpt>
      <trkpt lat="43.7797" lon="7.34338">
        <ele>176.39999389648</ele>
        <time>2013-12-07T08:34:00.000Z</time>
      </trkpt>
      <trkpt lat="43.77968" lon="7.34338">
        <ele>177</ele>
        <time>2013-12-07T08:34:01.000Z</time>
      </trkpt>
      <trkpt lat="43.77965" lon="7.34334">
        <ele>177.39999389648</ele>
        <time>2013-12-07T08:34:04.000Z</time>
      </trkpt>
      <trkpt lat="43.77959" lon="7.34326">
        <ele>177.60000610352</ele>
        <time>2013-12-07T08:34:08.000Z</time>
      </trkpt>
      <trkpt lat="43.77957" lon="7.3431">
        <ele>174</ele>
        <time>2013-12-07T08:34:11.000Z</time>
      </trkpt>
      <trkpt lat="43.77951" lon="7.34306">
        <ele>175</ele>
        <time>2013-12-07T08:34:14.000Z</time>
      </trkpt>
      <trkpt lat="43.77943" lon="7.34298">
        <ele>175.60000610352</ele>
        <time>2013-12-07T08:34:17.000Z</time>
      </trkpt>
      <trkpt lat="43.77947" lon="7.34285">
        <ele>171</ele>
        <time>2013-12-07T08:34:20.000Z</time>
      </trkpt>
      <trkpt lat="43.77947" lon="7.34272">
        <ele>167.60000610352</ele>
        <time>2013-12-07T08:34:23.000Z</time>
      </trkpt>
      <trkpt lat="43.77943" lon="7.34262">
        <ele>166.39999389648</ele>
        <time>2013-12-07T08:34:26.000Z</time>
      </trkpt>
      <trkpt lat="43.77941" lon="7.34251">
        <ele>164</ele>
        <time>2013-12-07T08:34:29.000Z</time>
      </trkpt>
      <trkpt lat="43.77933" lon="7.3424">
        <ele>164</ele>
        <time>2013-12-07T08:34:33.000Z</time>
      </trkpt>
      <trkpt lat="43.77924" lon="7.34238">
        <ele>166.19999694824</ele>
        <time>2013-12-07T08:34:36.000Z</time>
      </trkpt>
      <trkpt lat="43.7792" lon="7.34238">
        <ele>167</ele>
        <time>2013-12-07T08:34:37.000Z</time>
      </trkpt>
      <trkpt lat="43.77906" lon="7.34234">
        <ele>169.60000610352</ele>
        <time>2013-12-07T08:34:41.000Z</time>
      </trkpt>
      <trkpt lat="43.77902" lon="7.34234">
        <ele>170.60000610352</ele>
        <time>2013-12-07T08:34:42.000Z</time>
      </trkpt>
      <trkpt lat="43.77897" lon="7.34227">
        <ele>170.60000610352</ele>
        <time>2013-12-07T08:34:44.000Z</time>
      </trkpt>
      <trkpt lat="43.77899" lon="7.34209">
        <ele>167.19999694824</ele>
        <time>2013-12-07T08:34:48.000Z</time>
      </trkpt>
      <trkpt lat="43.77902" lon="7.34204">
        <ele>165.39999389648</ele>
        <time>2013-12-07T08:34:49.000Z</time>
      </trkpt>
      <trkpt lat="43.77912" lon="7.34188">
        <ele>159.60000610352</ele>
        <time>2013-12-07T08:34:52.000Z</time>
      </trkpt>
      <trkpt lat="43.7792" lon="7.34175">
        <ele>155.39999389648</ele>
        <time>2013-12-07T08:34:55.000Z</time>
      </trkpt>
      <trkpt lat="43.77918" lon="7.34162">
        <ele>153.39999389648</ele>
        <time>2013-12-07T08:34:58.000Z</time>
      </trkpt>
      <trkpt lat="43.77911" lon="7.34148">
        <ele>153.60000610352</ele>
        <time>2013-12-07T08:35:02.000Z</time>
      </trkpt>
      <trkpt lat="43.77907" lon="7.34133">
        <ele>153.19999694824</ele>
        <time>2013-12-07T08:35:05.000Z</time>
      </trkpt>
      <trkpt lat="43.77898" lon="7.34111">
        <ele>152.80000305176</ele>
        <time>2013-12-07T08:35:09.000Z</time>
      </trkpt>
      <trkpt lat="43.77889" lon="7.34096">
        <ele>152.80000305176</ele>
        <time>2013-12-07T08:35:12.000Z</time>
      </trkpt>
      <trkpt lat="43.77878" lon="7.34076">
        <ele>152.19999694824</ele>
        <time>2013-12-07T08:35:15.000Z</time>
      </trkpt>
      <trkpt lat="43.77863" lon="7.34065">
        <ele>152.80000305176</ele>
        <time>2013-12-07T08:35:18.000Z</time>
      </trkpt>
      <trkpt lat="43.77851" lon="7.34054">
        <ele>152.19999694824</ele>
        <time>2013-12-07T08:35:22.000Z</time>
      </trkpt>
      <trkpt lat="43.77847" lon="7.34048">
        <ele>151.39999389648</ele>
        <time>2013-12-07T08:35:24.000Z</time>
      </trkpt>
      <trkpt lat="43.77842" lon="7.34043">
        <ele>150.60000610352</ele>
        <time>2013-12-07T08:35:26.000Z</time>
      </trkpt>
      <trkpt lat="43.77835" lon="7.34043">
        <ele>151.19999694824</ele>
        <time>2013-12-07T08:35:28.000Z</time>
      </trkpt>
      <trkpt lat="43.77828" lon="7.34042">
        <ele>150.39999389648</ele>
        <time>2013-12-07T08:35:30.000Z</time>
      </trkpt>
      <trkpt lat="43.77819" lon="7.34034">
        <ele>147</ele>
        <time>2013-12-07T08:35:34.000Z</time>
      </trkpt>
      <trkpt lat="43.77818" lon="7.34028">
        <ele>145.19999694824</ele>
        <time>2013-12-07T08:35:36.000Z</time>
      </trkpt>
      <trkpt lat="43.77822" lon="7.34026">
        <ele>145.19999694824</ele>
        <time>2013-12-07T08:35:38.000Z</time>
      </trkpt>
      <trkpt lat="43.77822" lon="7.34025">
        <ele>145</ele>
        <time>2013-12-07T08:35:39.000Z</time>
      </trkpt>
      <trkpt lat="43.77819" lon="7.34024">
        <ele>144.39999389648</ele>
        <time>2013-12-07T08:35:43.000Z</time>
      </trkpt>
      <trkpt lat="43.77815" lon="7.34022">
        <ele>143.39999389648</ele>
        <time>2013-12-07T08:35:51.000Z</time>
      </trkpt>
      <trkpt lat="43.77812" lon="7.34019">
        <ele>142.39999389648</ele>
        <time>2013-12-07T08:35:57.000Z</time>
      </trkpt>
      <trkpt lat="43.77814" lon="7.34024">
        <ele>144</ele>
        <time>2013-12-07T08:36:27.000Z</time>
      </trkpt>
      <trkpt lat="43.77818" lon="7.34026">
        <ele>144.80000305176</ele>
        <time>2013-12-07T08:36:29.000Z</time>
      </trkpt>
      <trkpt lat="43.77819" lon="7.34026">
        <ele>145</ele>
        <time>2013-12-07T08:36:30.000Z</time>
      </trkpt>
      <trkpt lat="43.77834" lon="7.34026">
        <ele>146.60000610352</ele>
        <time>2013-12-07T08:36:35.000Z</time>
      </trkpt>
      <trkpt lat="43.77851" lon="7.34038">
        <ele>148.39999389648</ele>
        <time>2013-12-07T08:36:39.000Z</time>
      </trkpt>
      <trkpt lat="43.77881" lon="7.34061">
        <ele>149.60000610352</ele>
        <time>2013-12-07T08:36:44.000Z</time>
      </trkpt>
      <trkpt lat="43.77911" lon="7.3408">
        <ele>146.19999694824</ele>
        <time>2013-12-07T08:36:48.000Z</time>
      </trkpt>
      <trkpt lat="43.7794" lon="7.3409">
        <ele>148.39999389648</ele>
        <time>2013-12-07T08:36:52.000Z</time>
      </trkpt>
      <trkpt lat="43.7796" lon="7.34079">
        <ele>150.80000305176</ele>
        <time>2013-12-07T08:36:55.000Z</time>
      </trkpt>
      <trkpt lat="43.77969" lon="7.34056">
        <ele>152.60000610352</ele>
        <time>2013-12-07T08:36:58.000Z</time>
      </trkpt>
      <trkpt lat="43.77967" lon="7.34041">
        <ele>152.39999389648</ele>
        <time>2013-12-07T08:37:01.000Z</time>
      </trkpt>
      <trkpt lat="43.77965" lon="7.34037">
        <ele>152.39999389648</ele>
        <time>2013-12-07T08:37:02.000Z</time>
      </trkpt>
      <trkpt lat="43.77962" lon="7.3403">
        <ele>152</ele>
        <time>2013-12-07T08:37:04.000Z</time>
      </trkpt>
      <trkpt lat="43.77959" lon="7.34024">
        <ele>151.39999389648</ele>
        <time>2013-12-07T08:37:06.000Z</time>
      </trkpt>
      <trkpt lat="43.77958" lon="7.34022">
        <ele>151.19999694824</ele>
        <time>2013-12-07T08:37:07.000Z</time>
      </trkpt>
      <trkpt lat="43.77952" lon="7.34007">
        <ele>150</ele>
        <time>2013-12-07T08:37:13.000Z</time>
      </trkpt>
      <trkpt lat="43.77949" lon="7.33995">
        <ele>149.19999694824</ele>
        <time>2013-12-07T08:37:18.000Z</time>
      </trkpt>
      <trkpt lat="43.77949" lon="7.3398">
        <ele>148.19999694824</ele>
        <time>2013-12-07T08:37:24.000Z</time>
      </trkpt>
      <trkpt lat="43.77949" lon="7.33963">
        <ele>147.39999389648</ele>
        <time>2013-12-07T08:37:29.000Z</time>
      </trkpt>
      <trkpt lat="43.77951" lon="7.33944">
        <ele>146.80000305176</ele>
        <time>2013-12-07T08:37:36.000Z</time>
      </trkpt>
      <trkpt lat="43.77954" lon="7.3393">
        <ele>146.60000610352</ele>
        <time>2013-12-07T08:37:42.000Z</time>
      </trkpt>
      <trkpt lat="43.77961" lon="7.33917">
        <ele>146.80000305176</ele>
        <time>2013-12-07T08:37:48.000Z</time>
      </trkpt>
      <trkpt lat="43.77971" lon="7.33909">
        <ele>147.39999389648</ele>
        <time>2013-12-07T08:37:54.000Z</time>
      </trkpt>
      <trkpt lat="43.7798" lon="7.33908">
        <ele>148.60000610352</ele>
        <time>2013-12-07T08:37:59.000Z</time>
      </trkpt>
      <trkpt lat="43.77996" lon="7.33909">
        <ele>151</ele>
        <time>2013-12-07T08:38:05.000Z</time>
      </trkpt>
      <trkpt lat="43.78012" lon="7.33913">
        <ele>153.19999694824</ele>
        <time>2013-12-07T08:38:12.000Z</time>
      </trkpt>
      <trkpt lat="43.78024" lon="7.33915">
        <ele>154.39999389648</ele>
        <time>2013-12-07T08:38:19.000Z</time>
      </trkpt>
      <trkpt lat="43.78044" lon="7.33919">
        <ele>156.39999389648</ele>
        <time>2013-12-07T08:38:29.000Z</time>
      </trkpt>
      <trkpt lat="43.78056" lon="7.33922">
        <ele>157.80000305176</ele>
        <time>2013-12-07T08:38:35.000Z</time>
      </trkpt>
      <trkpt lat="43.78072" lon="7.33937">
        <ele>161.19999694824</ele>
        <time>2013-12-07T08:38:44.000Z</time>
      </trkpt>
      <trkpt lat="43.78085" lon="7.3395">
        <ele>164</ele>
        <time>2013-12-07T08:38:51.000Z</time>
      </trkpt>
      <trkpt lat="43.78101" lon="7.33951">
        <ele>161.80000305176</ele>
        <time>2013-12-07T08:38:59.000Z</time>
      </trkpt>
      <trkpt lat="43.78112" lon="7.33954">
        <ele>160.60000610352</ele>
        <time>2013-12-07T08:39:05.000Z</time>
      </trkpt>
      <trkpt lat="43.78127" lon="7.3396">
        <ele>159</ele>
        <time>2013-12-07T08:39:13.000Z</time>
      </trkpt>
      <trkpt lat="43.78129" lon="7.33971">
        <ele>160</ele>
        <time>2013-12-07T08:39:17.000Z</time>
      </trkpt>
      <trkpt lat="43.78125" lon="7.33987">
        <ele>162.60000610352</ele>
        <time>2013-12-07T08:39:23.000Z</time>
      </trkpt>
      <trkpt lat="43.7812" lon="7.34">
        <ele>165.39999389648</ele>
        <time>2013-12-07T08:39:30.000Z</time>
      </trkpt>
      <trkpt lat="43.78117" lon="7.34008">
        <ele>166.60000610352</ele>
        <time>2013-12-07T08:39:35.000Z</time>
      </trkpt>
      <trkpt lat="43.78116" lon="7.3401">
        <ele>167</ele>
        <time>2013-12-07T08:39:37.000Z</time>
      </trkpt>
      <trkpt lat="43.78116" lon="7.34013">
        <ele>167.19999694824</ele>
        <time>2013-12-07T08:39:40.000Z</time>
      </trkpt>
      <trkpt lat="43.78116" lon="7.34013">
        <ele>167.19999694824</ele>
        <time>2013-12-07T08:39:43.000Z</time>
      </trkpt>
      <trkpt lat="43.78116" lon="7.34016">
        <ele>167.39999389648</ele>
        <time>2013-12-07T08:39:49.000Z</time>
      </trkpt>
      <trkpt lat="43.78115" lon="7.34019">
        <ele>167.80000305176</ele>
        <time>2013-12-07T08:39:51.000Z</time>
      </trkpt>
      <trkpt lat="43.78115" lon="7.34022">
        <ele>168</ele>
        <time>2013-12-07T08:39:53.000Z</time>
      </trkpt>
      <trkpt lat="43.78117" lon="7.34023">
        <ele>167.80000305176</ele>
        <time>2013-12-07T08:39:54.000Z</time>
      </trkpt>
      <trkpt lat="43.78124" lon="7.34029">
        <ele>167.19999694824</ele>
        <time>2013-12-07T08:39:58.000Z</time>
      </trkpt>
      <trkpt lat="43.78125" lon="7.34033">
        <ele>167.39999389648</ele>
        <time>2013-12-07T08:39:59.000Z</time>
      </trkpt>
      <trkpt lat="43.78125" lon="7.34045">
        <ele>168.60000610352</ele>
        <time>2013-12-07T08:40:02.000Z</time>
      </trkpt>
      <trkpt lat="43.78125" lon="7.34058">
        <ele>169.80000305176</ele>
        <time>2013-12-07T08:40:05.000Z</time>
      </trkpt>
      <trkpt lat="43.78127" lon="7.3406">
        <ele>169.80000305176</ele>
        <time>2013-12-07T08:40:06.000Z</time>
      </trkpt>
      <trkpt lat="43.78135" lon="7.34064">
        <ele>169.39999389648</ele>
        <time>2013-12-07T08:40:10.000Z</time>
      </trkpt>
      <trkpt lat="43.78146" lon="7.3407">
        <ele>169</ele>
        <time>2013-12-07T08:40:14.000Z</time>
      </trkpt>
      <trkpt lat="43.78151" lon="7.34068">
        <ele>168.39999389648</ele>
        <time>2013-12-07T08:40:17.000Z</time>
      </trkpt>
      <trkpt lat="43.78157" lon="7.34063">
        <ele>167</ele>
        <time>2013-12-07T08:40:22.000Z</time>
      </trkpt>
      <trkpt lat="43.7816" lon="7.34063">
        <ele>166.80000305176</ele>
        <time>2013-12-07T08:40:23.000Z</time>
      </trkpt>
      <trkpt lat="43.78163" lon="7.34069">
        <ele>167.19999694824</ele>
        <time>2013-12-07T08:40:25.000Z</time>
      </trkpt>
      <trkpt lat="43.7817" lon="7.34074">
        <ele>166.80000305176</ele>
        <time>2013-12-07T08:40:28.000Z</time>
      </trkpt>
      <trkpt lat="43.7818" lon="7.34081">
        <ele>165.19999694824</ele>
        <time>2013-12-07T08:40:32.000Z</time>
      </trkpt>
      <trkpt lat="43.78184" lon="7.3409">
        <ele>166</ele>
        <time>2013-12-07T08:40:36.000Z</time>
      </trkpt>
      <trkpt lat="43.7819" lon="7.34098">
        <ele>166</ele>
        <time>2013-12-07T08:40:41.000Z</time>
      </trkpt>
      <trkpt lat="43.78193" lon="7.34101">
        <ele>165.80000305176</ele>
        <time>2013-12-07T08:40:43.000Z</time>
      </trkpt>
      <trkpt lat="43.78194" lon="7.34107">
        <ele>167</ele>
        <time>2013-12-07T08:40:45.000Z</time>
      </trkpt>
      <trkpt lat="43.78195" lon="7.3412">
        <ele>169.19999694824</ele>
        <time>2013-12-07T08:40:49.000Z</time>
      </trkpt>
      <trkpt lat="43.78199" lon="7.34127">
        <ele>169.60000610352</ele>
        <time>2013-12-07T08:40:52.000Z</time>
      </trkpt>
      <trkpt lat="43.78206" lon="7.34127">
        <ele>168</ele>
        <time>2013-12-07T08:40:55.000Z</time>
      </trkpt>
      <trkpt lat="43.78212" lon="7.34134">
        <ele>167.80000305176</ele>
        <time>2013-12-07T08:41:00.000Z</time>
      </trkpt>
      <trkpt lat="43.78221" lon="7.34145">
        <ele>168.19999694824</ele>
        <time>2013-12-07T08:41:05.000Z</time>
      </trkpt>
      <trkpt lat="43.78221" lon="7.34157">
        <ele>170.60000610352</ele>
        <time>2013-12-07T08:41:10.000Z</time>
      </trkpt>
      <trkpt lat="43.78223" lon="7.3416">
        <ele>170.60000610352</ele>
        <time>2013-12-07T08:41:13.000Z</time>
      </trkpt>
      <trkpt lat="43.78227" lon="7.34159">
        <ele>169.60000610352</ele>
        <time>2013-12-07T08:41:15.000Z</time>
      </trkpt>
      <trkpt lat="43.78234" lon="7.34159">
        <ele>168</ele>
        <time>2013-12-07T08:41:18.000Z</time>
      </trkpt>
      <trkpt lat="43.78242" lon="7.34161">
        <ele>166.60000610352</ele>
        <time>2013-12-07T08:41:22.000Z</time>
      </trkpt>
      <trkpt lat="43.78244" lon="7.34163">
        <ele>166.60000610352</ele>
        <time>2013-12-07T08:41:23.000Z</time>
      </trkpt>
      <trkpt lat="43.78248" lon="7.34169">
        <ele>166.60000610352</ele>
        <time>2013-12-07T08:41:25.000Z</time>
      </trkpt>
      <trkpt lat="43.78251" lon="7.34171">
        <ele>166</ele>
        <time>2013-12-07T08:41:26.000Z</time>
      </trkpt>
      <trkpt lat="43.78256" lon="7.3418">
        <ele>165.39999389648</ele>
        <time>2013-12-07T08:41:30.000Z</time>
      </trkpt>
      <trkpt lat="43.78262" lon="7.34193">
        <ele>164.60000610352</ele>
        <time>2013-12-07T08:41:35.000Z</time>
      </trkpt>
      <trkpt lat="43.7826" lon="7.34205">
        <ele>166</ele>
        <time>2013-12-07T08:41:40.000Z</time>
      </trkpt>
      <trkpt lat="43.78259" lon="7.34209">
        <ele>166.60000610352</ele>
        <time>2013-12-07T08:41:43.000Z</time>
      </trkpt>
      <trkpt lat="43.78258" lon="7.34214">
        <ele>167.19999694824</ele>
        <time>2013-12-07T08:41:45.000Z</time>
      </trkpt>
      <trkpt lat="43.78251" lon="7.34213">
        <ele>169</ele>
        <time>2013-12-07T08:41:49.000Z</time>
      </trkpt>
      <trkpt lat="43.78248" lon="7.34215">
        <ele>170</ele>
        <time>2013-12-07T08:41:52.000Z</time>
      </trkpt>
      <trkpt lat="43.78249" lon="7.34222">
        <ele>170.39999389648</ele>
        <time>2013-12-07T08:41:54.000Z</time>
      </trkpt>
      <trkpt lat="43.78248" lon="7.34226">
        <ele>170.60000610352</ele>
        <time>2013-12-07T08:41:55.000Z</time>
      </trkpt>
      <trkpt lat="43.78247" lon="7.34229">
        <ele>171.19999694824</ele>
        <time>2013-12-07T08:41:56.000Z</time>
      </trkpt>
      <trkpt lat="43.7824" lon="7.34234">
        <ele>173</ele>
        <time>2013-12-07T08:42:00.000Z</time>
      </trkpt>
      <trkpt lat="43.78235" lon="7.34242">
        <ele>174.39999389648</ele>
        <time>2013-12-07T08:42:03.000Z</time>
      </trkpt>
      <trkpt lat="43.78235" lon="7.34245">
        <ele>174.60000610352</ele>
        <time>2013-12-07T08:42:04.000Z</time>
      </trkpt>
      <trkpt lat="43.78232" lon="7.34257">
        <ele>175.60000610352</ele>
        <time>2013-12-07T08:42:10.000Z</time>
      </trkpt>
      <trkpt lat="43.78228" lon="7.34259">
        <ele>176.39999389648</ele>
        <time>2013-12-07T08:42:12.000Z</time>
      </trkpt>
      <trkpt lat="43.78222" lon="7.34262">
        <ele>177.39999389648</ele>
        <time>2013-12-07T08:42:15.000Z</time>
      </trkpt>
      <trkpt lat="43.78216" lon="7.34272">
        <ele>178.19999694824</ele>
        <time>2013-12-07T08:42:20.000Z</time>
      </trkpt>
      <trkpt lat="43.78218" lon="7.34277">
        <ele>177.60000610352</ele>
        <time>2013-12-07T08:42:22.000Z</time>
      </trkpt>
      <trkpt lat="43.78219" lon="7.3428">
        <ele>177.39999389648</ele>
        <time>2013-12-07T08:42:23.000Z</time>
      </trkpt>
      <trkpt lat="43.7822" lon="7.34282">
        <ele>177.39999389648</ele>
        <time>2013-12-07T08:42:24.000Z</time>
      </trkpt>
      <trkpt lat="43.78222" lon="7.34293">
        <ele>176.60000610352</ele>
        <time>2013-12-07T08:42:27.000Z</time>
      </trkpt>
      <trkpt lat="43.78225" lon="7.34298">
        <ele>176.19999694824</ele>
        <time>2013-12-07T08:42:29.000Z</time>
      </trkpt>
      <trkpt lat="43.78226" lon="7.34305">
        <ele>175.80000305176</ele>
        <time>2013-12-07T08:42:32.000Z</time>
      </trkpt>
      <trkpt lat="43.78226" lon="7.3432">
        <ele>175.60000610352</ele>
        <time>2013-12-07T08:42:36.000Z</time>
      </trkpt>
      <trkpt lat="43.78226" lon="7.34334">
        <ele>175.39999389648</ele>
        <time>2013-12-07T08:42:40.000Z</time>
      </trkpt>
      <trkpt lat="43.78227" lon="7.34343">
        <ele>176.19999694824</ele>
        <time>2013-12-07T08:42:42.000Z</time>
      </trkpt>
      <trkpt lat="43.78228" lon="7.34345">
        <ele>176.39999389648</ele>
        <time>2013-12-07T08:42:43.000Z</time>
      </trkpt>
      <trkpt lat="43.78232" lon="7.34344">
        <ele>176</ele>
        <time>2013-12-07T08:42:46.000Z</time>
      </trkpt>
      <trkpt lat="43.78232" lon="7.34343">
        <ele>176</ele>
        <time>2013-12-07T08:42:47.000Z</time>
      </trkpt>
      <trkpt lat="43.78233" lon="7.34343">
        <ele>175.80000305176</ele>
        <time>2013-12-07T08:42:48.000Z</time>
      </trkpt>
      <trkpt lat="43.78235" lon="7.34345">
        <ele>176</ele>
        <time>2013-12-07T08:42:50.000Z</time>
      </trkpt>
      <trkpt lat="43.78235" lon="7.34352">
        <ele>176.80000305176</ele>
        <time>2013-12-07T08:42:53.000Z</time>
      </trkpt>
      <trkpt lat="43.78235" lon="7.34362">
        <ele>178</ele>
        <time>2013-12-07T08:42:56.000Z</time>
      </trkpt>
      <trkpt lat="43.78236" lon="7.34373">
        <ele>179.39999389648</ele>
        <time>2013-12-07T08:43:00.000Z</time>
      </trkpt>
      <trkpt lat="43.78232" lon="7.34385">
        <ele>180.80000305176</ele>
        <time>2013-12-07T08:43:04.000Z</time>
      </trkpt>
      <trkpt lat="43.78227" lon="7.34393">
        <ele>181.80000305176</ele>
        <time>2013-12-07T08:43:08.000Z</time>
      </trkpt>
      <trkpt lat="43.78224" lon="7.34401">
        <ele>182.60000610352</ele>
        <time>2013-12-07T08:43:11.000Z</time>
      </trkpt>
      <trkpt lat="43.7823" lon="7.34404">
        <ele>183</ele>
        <time>2013-12-07T08:43:14.000Z</time>
      </trkpt>
      <trkpt lat="43.78233" lon="7.34405">
        <ele>183.39999389648</ele>
        <time>2013-12-07T08:43:15.000Z</time>
      </trkpt>
      <trkpt lat="43.78236" lon="7.34409">
        <ele>184</ele>
        <time>2013-12-07T08:43:16.000Z</time>
      </trkpt>
      <trkpt lat="43.78239" lon="7.34414">
        <ele>184.80000305176</ele>
        <time>2013-12-07T08:43:18.000Z</time>
      </trkpt>
      <trkpt lat="43.78253" lon="7.34418">
        <ele>186.19999694824</ele>
        <time>2013-12-07T08:43:22.000Z</time>
      </trkpt>
      <trkpt lat="43.78267" lon="7.34415">
        <ele>185.60000610352</ele>
        <time>2013-12-07T08:43:26.000Z</time>
      </trkpt>
      <trkpt lat="43.78267" lon="7.34414">
        <ele>185.19999694824</ele>
        <time>2013-12-07T08:43:27.000Z</time>
      </trkpt>
      <trkpt lat="43.78264" lon="7.34411">
        <ele>184.80000305176</ele>
        <time>2013-12-07T08:43:29.000Z</time>
      </trkpt>
      <trkpt lat="43.78265" lon="7.34403">
        <ele>183.39999389648</ele>
        <time>2013-12-07T08:43:33.000Z</time>
      </trkpt>
      <trkpt lat="43.78267" lon="7.34403">
        <ele>183.39999389648</ele>
        <time>2013-12-07T08:43:35.000Z</time>
      </trkpt>
      <trkpt lat="43.78268" lon="7.34403">
        <ele>183.39999389648</ele>
        <time>2013-12-07T08:43:37.000Z</time>
      </trkpt>
      <trkpt lat="43.78271" lon="7.34395">
        <ele>182</ele>
        <time>2013-12-07T08:43:42.000Z</time>
      </trkpt>
      <trkpt lat="43.7828" lon="7.34393">
        <ele>181.19999694824</ele>
        <time>2013-12-07T08:43:46.000Z</time>
      </trkpt>
      <trkpt lat="43.78288" lon="7.34395">
        <ele>181.19999694824</ele>
        <time>2013-12-07T08:43:49.000Z</time>
      </trkpt>
      <trkpt lat="43.7829" lon="7.34395">
        <ele>181.39999389648</ele>
        <time>2013-12-07T08:43:50.000Z</time>
      </trkpt>
      <trkpt lat="43.78292" lon="7.34397">
        <ele>181.60000610352</ele>
        <time>2013-12-07T08:43:51.000Z</time>
      </trkpt>
      <trkpt lat="43.78293" lon="7.34404">
        <ele>183</ele>
        <time>2013-12-07T08:43:53.000Z</time>
      </trkpt>
      <trkpt lat="43.78297" lon="7.34408">
        <ele>183.60000610352</ele>
        <time>2013-12-07T08:43:57.000Z</time>
      </trkpt>
      <trkpt lat="43.78299" lon="7.34407">
        <ele>183.39999389648</ele>
        <time>2013-12-07T08:43:58.000Z</time>
      </trkpt>
      <trkpt lat="43.78301" lon="7.34405">
        <ele>183</ele>
        <time>2013-12-07T08:43:59.000Z</time>
      </trkpt>
      <trkpt lat="43.78306" lon="7.34408">
        <ele>183.60000610352</ele>
        <time>2013-12-07T08:44:02.000Z</time>
      </trkpt>
      <trkpt lat="43.78311" lon="7.34415">
        <ele>184.80000305176</ele>
        <time>2013-12-07T08:44:07.000Z</time>
      </trkpt>
      <trkpt lat="43.78319" lon="7.34414">
        <ele>184.60000610352</ele>
        <time>2013-12-07T08:44:11.000Z</time>
      </trkpt>
      <trkpt lat="43.7832" lon="7.34415">
        <ele>184.60000610352</ele>
        <time>2013-12-07T08:44:12.000Z</time>
      </trkpt>
      <trkpt lat="43.78324" lon="7.34416">
        <ele>185</ele>
        <time>2013-12-07T08:44:14.000Z</time>
      </trkpt>
      <trkpt lat="43.78325" lon="7.34422">
        <ele>186.39999389648</ele>
        <time>2013-12-07T08:44:17.000Z</time>
      </trkpt>
      <trkpt lat="43.78325" lon="7.34427">
        <ele>187.39999389648</ele>
        <time>2013-12-07T08:44:19.000Z</time>
      </trkpt>
      <trkpt lat="43.78324" lon="7.34433">
        <ele>189</ele>
        <time>2013-12-07T08:44:22.000Z</time>
      </trkpt>
      <trkpt lat="43.78322" lon="7.34444">
        <ele>191.19999694824</ele>
        <time>2013-12-07T08:44:26.000Z</time>
      </trkpt>
      <trkpt lat="43.78323" lon="7.34446">
        <ele>191.80000305176</ele>
        <time>2013-12-07T08:44:27.000Z</time>
      </trkpt>
      <trkpt lat="43.78328" lon="7.34446">
        <ele>192</ele>
        <time>2013-12-07T08:44:31.000Z</time>
      </trkpt>
      <trkpt lat="43.7833" lon="7.34442">
        <ele>191</ele>
        <time>2013-12-07T08:44:34.000Z</time>
      </trkpt>
      <trkpt lat="43.78333" lon="7.34439">
        <ele>190.39999389648</ele>
        <time>2013-12-07T08:44:36.000Z</time>
      </trkpt>
      <trkpt lat="43.78333" lon="7.34438">
        <ele>190.19999694824</ele>
        <time>2013-12-07T08:44:37.000Z</time>
      </trkpt>
      <trkpt lat="43.78337" lon="7.34441">
        <ele>190.80000305176</ele>
        <time>2013-12-07T08:44:41.000Z</time>
      </trkpt>
      <trkpt lat="43.78338" lon="7.34444">
        <ele>191.39999389648</ele>
        <time>2013-12-07T08:44:42.000Z</time>
      </trkpt>
      <trkpt lat="43.78341" lon="7.34449">
        <ele>192.39999389648</ele>
        <time>2013-12-07T08:44:45.000Z</time>
      </trkpt>
      <trkpt lat="43.78344" lon="7.34452">
        <ele>193</ele>
        <time>2013-12-07T08:44:47.000Z</time>
      </trkpt>
      <trkpt lat="43.78345" lon="7.34453">
        <ele>193.19999694824</ele>
        <time>2013-12-07T08:44:51.000Z</time>
      </trkpt>
      <trkpt lat="43.78347" lon="7.34459">
        <ele>194.39999389648</ele>
        <time>2013-12-07T08:44:57.000Z</time>
      </trkpt>
      <trkpt lat="43.7835" lon="7.34464">
        <ele>195.60000610352</ele>
        <time>2013-12-07T08:45:01.000Z</time>
      </trkpt>
      <trkpt lat="43.78351" lon="7.34467">
        <ele>196.19999694824</ele>
        <time>2013-12-07T08:45:04.000Z</time>
      </trkpt>
      <trkpt lat="43.78351" lon="7.34471">
        <ele>197</ele>
        <time>2013-12-07T08:45:07.000Z</time>
      </trkpt>
      <trkpt lat="43.78351" lon="7.34476">
        <ele>198.39999389648</ele>
        <time>2013-12-07T08:45:09.000Z</time>
      </trkpt>
      <trkpt lat="43.78352" lon="7.34479">
        <ele>199</ele>
        <time>2013-12-07T08:45:10.000Z</time>
      </trkpt>
      <trkpt lat="43.78356" lon="7.34479">
        <ele>198.80000305176</ele>
        <time>2013-12-07T08:45:13.000Z</time>
      </trkpt>
      <trkpt lat="43.7836" lon="7.34469">
        <ele>196.19999694824</ele>
        <time>2013-12-07T08:45:16.000Z</time>
      </trkpt>
      <trkpt lat="43.78371" lon="7.34462">
        <ele>194.19999694824</ele>
        <time>2013-12-07T08:45:20.000Z</time>
      </trkpt>
      <trkpt lat="43.78376" lon="7.34472">
        <ele>196.19999694824</ele>
        <time>2013-12-07T08:45:23.000Z</time>
      </trkpt>
      <trkpt lat="43.78385" lon="7.34472">
        <ele>195.80000305176</ele>
        <time>2013-12-07T08:45:26.000Z</time>
      </trkpt>
      <trkpt lat="43.78385" lon="7.34469">
        <ele>195</ele>
        <time>2013-12-07T08:45:28.000Z</time>
      </trkpt>
      <trkpt lat="43.78386" lon="7.34469">
        <ele>195</ele>
        <time>2013-12-07T08:45:29.000Z</time>
      </trkpt>
      <trkpt lat="43.78386" lon="7.34466">
        <ele>194.39999389648</ele>
        <time>2013-12-07T08:45:35.000Z</time>
      </trkpt>
      <trkpt lat="43.78389" lon="7.34456">
        <ele>191.80000305176</ele>
        <time>2013-12-07T08:45:39.000Z</time>
      </trkpt>
      <trkpt lat="43.78395" lon="7.34444">
        <ele>188.60000610352</ele>
        <time>2013-12-07T08:45:43.000Z</time>
      </trkpt>
      <trkpt lat="43.784" lon="7.34444">
        <ele>188.39999389648</ele>
        <time>2013-12-07T08:45:45.000Z</time>
      </trkpt>
      <trkpt lat="43.78407" lon="7.34451">
        <ele>189.60000610352</ele>
        <time>2013-12-07T08:45:48.000Z</time>
      </trkpt>
      <trkpt lat="43.7841" lon="7.34462">
        <ele>192.39999389648</ele>
        <time>2013-12-07T08:45:52.000Z</time>
      </trkpt>
      <trkpt lat="43.78413" lon="7.34472">
        <ele>194.39999389648</ele>
        <time>2013-12-07T08:45:56.000Z</time>
      </trkpt>
      <trkpt lat="43.78413" lon="7.34477">
        <ele>195.60000610352</ele>
        <time>2013-12-07T08:45:58.000Z</time>
      </trkpt>
      <trkpt lat="43.78414" lon="7.34491">
        <ele>198.80000305176</ele>
        <time>2013-12-07T08:46:02.000Z</time>
      </trkpt>
      <trkpt lat="43.78419" lon="7.34499">
        <ele>200.39999389648</ele>
        <time>2013-12-07T08:46:07.000Z</time>
      </trkpt>
      <trkpt lat="43.78423" lon="7.34494">
        <ele>198.39999389648</ele>
        <time>2013-12-07T08:46:10.000Z</time>
      </trkpt>
      <trkpt lat="43.78423" lon="7.34491">
        <ele>197.60000610352</ele>
        <time>2013-12-07T08:46:13.000Z</time>
      </trkpt>
      <trkpt lat="43.78428" lon="7.34492">
        <ele>197</ele>
        <time>2013-12-07T08:46:18.000Z</time>
      </trkpt>
      <trkpt lat="43.78429" lon="7.34493">
        <ele>197</ele>
        <time>2013-12-07T08:46:19.000Z</time>
      </trkpt>
      <trkpt lat="43.78435" lon="7.34501">
        <ele>197.80000305176</ele>
        <time>2013-12-07T08:46:26.000Z</time>
      </trkpt>
      <trkpt lat="43.78438" lon="7.345">
        <ele>196.80000305176</ele>
        <time>2013-12-07T08:46:30.000Z</time>
      </trkpt>
      <trkpt lat="43.78442" lon="7.34496">
        <ele>195.19999694824</ele>
        <time>2013-12-07T08:46:32.000Z</time>
      </trkpt>
      <trkpt lat="43.78443" lon="7.34486">
        <ele>192.60000610352</ele>
        <time>2013-12-07T08:46:35.000Z</time>
      </trkpt>
      <trkpt lat="43.78448" lon="7.34485">
        <ele>191.39999389648</ele>
        <time>2013-12-07T08:46:37.000Z</time>
      </trkpt>
      <trkpt lat="43.78455" lon="7.34494">
        <ele>192.19999694824</ele>
        <time>2013-12-07T08:46:40.000Z</time>
      </trkpt>
      <trkpt lat="43.78457" lon="7.34505">
        <ele>194.60000610352</ele>
        <time>2013-12-07T08:46:45.000Z</time>
      </trkpt>
      <trkpt lat="43.78458" lon="7.34506">
        <ele>194.80000305176</ele>
        <time>2013-12-07T08:46:47.000Z</time>
      </trkpt>
      <trkpt lat="43.7846" lon="7.34507">
        <ele>194.80000305176</ele>
        <time>2013-12-07T08:46:51.000Z</time>
      </trkpt>
      <trkpt lat="43.78467" lon="7.34505">
        <ele>192.80000305176</ele>
        <time>2013-12-07T08:47:04.000Z</time>
      </trkpt>
      <trkpt lat="43.78467" lon="7.34501">
        <ele>191.60000610352</ele>
        <time>2013-12-07T08:47:09.000Z</time>
      </trkpt>
      <trkpt lat="43.78467" lon="7.345">
        <ele>191.39999389648</ele>
        <time>2013-12-07T08:47:10.000Z</time>
      </trkpt>
      <trkpt lat="43.78467" lon="7.34496">
        <ele>190.39999389648</ele>
        <time>2013-12-07T08:47:14.000Z</time>
      </trkpt>
      <trkpt lat="43.7847" lon="7.34493">
        <ele>188.80000305176</ele>
        <time>2013-12-07T08:47:19.000Z</time>
      </trkpt>
      <trkpt lat="43.78472" lon="7.34492">
        <ele>188.39999389648</ele>
        <time>2013-12-07T08:47:21.000Z</time>
      </trkpt>
      <trkpt lat="43.78476" lon="7.34494">
        <ele>188.19999694824</ele>
        <time>2013-12-07T08:47:27.000Z</time>
      </trkpt>
      <trkpt lat="43.78477" lon="7.34495">
        <ele>188</ele>
        <time>2013-12-07T08:47:28.000Z</time>
      </trkpt>
      <trkpt lat="43.7848" lon="7.34498">
        <ele>188.19999694824</ele>
        <time>2013-12-07T08:47:31.000Z</time>
      </trkpt>
      <trkpt lat="43.78484" lon="7.34499">
        <ele>187.80000305176</ele>
        <time>2013-12-07T08:47:34.000Z</time>
      </trkpt>
      <trkpt lat="43.78487" lon="7.34503">
        <ele>188.60000610352</ele>
        <time>2013-12-07T08:47:41.000Z</time>
      </trkpt>
      <trkpt lat="43.78487" lon="7.34505">
        <ele>189</ele>
        <time>2013-12-07T08:47:42.000Z</time>
      </trkpt>
      <trkpt lat="43.78489" lon="7.34514">
        <ele>191.39999389648</ele>
        <time>2013-12-07T08:47:47.000Z</time>
      </trkpt>
      <trkpt lat="43.7849" lon="7.34518">
        <ele>192.39999389648</ele>
        <time>2013-12-07T08:47:49.000Z</time>
      </trkpt>
      <trkpt lat="43.78488" lon="7.34527">
        <ele>195.19999694824</ele>
        <time>2013-12-07T08:47:53.000Z</time>
      </trkpt>
      <trkpt lat="43.78489" lon="7.34529">
        <ele>195.80000305176</ele>
        <time>2013-12-07T08:47:54.000Z</time>
      </trkpt>
      <trkpt lat="43.78491" lon="7.34531">
        <ele>196</ele>
        <time>2013-12-07T08:47:56.000Z</time>
      </trkpt>
      <trkpt lat="43.785" lon="7.34539">
        <ele>196.80000305176</ele>
        <time>2013-12-07T08:48:00.000Z</time>
      </trkpt>
      <trkpt lat="43.78505" lon="7.3455">
        <ele>198.80000305176</ele>
        <time>2013-12-07T08:48:04.000Z</time>
      </trkpt>
      <trkpt lat="43.78512" lon="7.34556">
        <ele>198.60000610352</ele>
        <time>2013-12-07T08:48:08.000Z</time>
      </trkpt>
      <trkpt lat="43.78517" lon="7.34562">
        <ele>199.19999694824</ele>
        <time>2013-12-07T08:48:11.000Z</time>
      </trkpt>
      <trkpt lat="43.78523" lon="7.34568">
        <ele>199.39999389648</ele>
        <time>2013-12-07T08:48:14.000Z</time>
      </trkpt>
      <trkpt lat="43.78526" lon="7.34572">
        <ele>199.80000305176</ele>
        <time>2013-12-07T08:48:15.000Z</time>
      </trkpt>
      <trkpt lat="43.78535" lon="7.34588">
        <ele>202.80000305176</ele>
        <time>2013-12-07T08:48:19.000Z</time>
      </trkpt>
      <trkpt lat="43.78537" lon="7.34597">
        <ele>205</ele>
        <time>2013-12-07T08:48:21.000Z</time>
      </trkpt>
      <trkpt lat="43.78536" lon="7.34605">
        <ele>207.80000305176</ele>
        <time>2013-12-07T08:48:23.000Z</time>
      </trkpt>
      <trkpt lat="43.78538" lon="7.34611">
        <ele>209.19999694824</ele>
        <time>2013-12-07T08:48:26.000Z</time>
      </trkpt>
      <trkpt lat="43.78548" lon="7.34611">
        <ele>207</ele>
        <time>2013-12-07T08:48:30.000Z</time>
      </trkpt>
      <trkpt lat="43.7855" lon="7.34612">
        <ele>206.80000305176</ele>
        <time>2013-12-07T08:48:32.000Z</time>
      </trkpt>
      <trkpt lat="43.78554" lon="7.34614">
        <ele>206.39999389648</ele>
        <time>2013-12-07T08:48:35.000Z</time>
      </trkpt>
      <trkpt lat="43.78557" lon="7.34619">
        <ele>207.39999389648</ele>
        <time>2013-12-07T08:48:40.000Z</time>
      </trkpt>
      <trkpt lat="43.78556" lon="7.34619">
        <ele>207.39999389648</ele>
        <time>2013-12-07T08:48:42.000Z</time>
      </trkpt>
      <trkpt lat="43.78557" lon="7.3462">
        <ele>207.39999389648</ele>
        <time>2013-12-07T08:48:49.000Z</time>
      </trkpt>
      <trkpt lat="43.78559" lon="7.34618">
        <ele>206.39999389648</ele>
        <time>2013-12-07T08:48:57.000Z</time>
      </trkpt>
      <trkpt lat="43.7856" lon="7.34619">
        <ele>206.39999389648</ele>
        <time>2013-12-07T08:49:04.000Z</time>
      </trkpt>
      <trkpt lat="43.7856" lon="7.34617">
        <ele>205.80000305176</ele>
        <time>2013-12-07T08:49:12.000Z</time>
      </trkpt>
      <trkpt lat="43.78563" lon="7.34614">
        <ele>204</ele>
        <time>2013-12-07T08:49:17.000Z</time>
      </trkpt>
      <trkpt lat="43.78564" lon="7.3461">
        <ele>202.39999389648</ele>
        <time>2013-12-07T08:49:36.000Z</time>
      </trkpt>
      <trkpt lat="43.78566" lon="7.34604">
        <ele>200</ele>
        <time>2013-12-07T08:49:40.000Z</time>
      </trkpt>
      <trkpt lat="43.78568" lon="7.34602">
        <ele>198.80000305176</ele>
        <time>2013-12-07T08:49:41.000Z</time>
      </trkpt>
      <trkpt lat="43.78573" lon="7.34598">
        <ele>196.39999389648</ele>
        <time>2013-12-07T08:49:44.000Z</time>
      </trkpt>
      <trkpt lat="43.78578" lon="7.34593">
        <ele>193.60000610352</ele>
        <time>2013-12-07T08:49:47.000Z</time>
      </trkpt>
      <trkpt lat="43.78578" lon="7.34592">
        <ele>193.19999694824</ele>
        <time>2013-12-07T08:49:48.000Z</time>
      </trkpt>
      <trkpt lat="43.78579" lon="7.3459">
        <ele>192.39999389648</ele>
        <time>2013-12-07T08:49:49.000Z</time>
      </trkpt>
      <trkpt lat="43.78583" lon="7.34585">
        <ele>189.60000610352</ele>
        <time>2013-12-07T08:49:52.000Z</time>
      </trkpt>
      <trkpt lat="43.78591" lon="7.34583">
        <ele>187</ele>
        <time>2013-12-07T08:49:57.000Z</time>
      </trkpt>
      <trkpt lat="43.78594" lon="7.34581">
        <ele>185.80000305176</ele>
        <time>2013-12-07T08:50:00.000Z</time>
      </trkpt>
      <trkpt lat="43.78596" lon="7.34581">
        <ele>185.39999389648</ele>
        <time>2013-12-07T08:50:01.000Z</time>
      </trkpt>
      <trkpt lat="43.78597" lon="7.34582">
        <ele>185.19999694824</ele>
        <time>2013-12-07T08:50:02.000Z</time>
      </trkpt>
      <trkpt lat="43.78608" lon="7.34589">
        <ele>185.19999694824</ele>
        <time>2013-12-07T08:50:09.000Z</time>
      </trkpt>
      <trkpt lat="43.78618" lon="7.34593">
        <ele>184.19999694824</ele>
        <time>2013-12-07T08:50:15.000Z</time>
      </trkpt>
      <trkpt lat="43.78626" lon="7.34597">
        <ele>183.19999694824</ele>
        <time>2013-12-07T08:50:20.000Z</time>
      </trkpt>
      <trkpt lat="43.78629" lon="7.34608">
        <ele>185.80000305176</ele>
        <time>2013-12-07T08:50:25.000Z</time>
      </trkpt>
      <trkpt lat="43.78635" lon="7.34617">
        <ele>187.39999389648</ele>
        <time>2013-12-07T08:50:31.000Z</time>
      </trkpt>
      <trkpt lat="43.78643" lon="7.34626">
        <ele>188</ele>
        <time>2013-12-07T08:50:37.000Z</time>
      </trkpt>
      <trkpt lat="43.78644" lon="7.34635">
        <ele>190.60000610352</ele>
        <time>2013-12-07T08:50:42.000Z</time>
      </trkpt>
      <trkpt lat="43.78642" lon="7.34647">
        <ele>194.60000610352</ele>
        <time>2013-12-07T08:50:47.000Z</time>
      </trkpt>
      <trkpt lat="43.78639" lon="7.34657">
        <ele>198.39999389648</ele>
        <time>2013-12-07T08:50:52.000Z</time>
      </trkpt>
      <trkpt lat="43.78638" lon="7.34668">
        <ele>202</ele>
        <time>2013-12-07T08:50:57.000Z</time>
      </trkpt>
      <trkpt lat="43.78637" lon="7.34674">
        <ele>204</ele>
        <time>2013-12-07T08:50:59.000Z</time>
      </trkpt>
      <trkpt lat="43.78633" lon="7.34683">
        <ele>208</ele>
        <time>2013-12-07T08:51:04.000Z</time>
      </trkpt>
      <trkpt lat="43.78632" lon="7.34688">
        <ele>210</ele>
        <time>2013-12-07T08:51:10.000Z</time>
      </trkpt>
      <trkpt lat="43.7863" lon="7.34699">
        <ele>214</ele>
        <time>2013-12-07T08:51:15.000Z</time>
      </trkpt>
      <trkpt lat="43.78632" lon="7.34701">
        <ele>214</ele>
        <time>2013-12-07T08:51:17.000Z</time>
      </trkpt>
      <trkpt lat="43.78634" lon="7.34702">
        <ele>213.60000610352</ele>
        <time>2013-12-07T08:51:18.000Z</time>
      </trkpt>
      <trkpt lat="43.78647" lon="7.34703">
        <ele>210.60000610352</ele>
        <time>2013-12-07T08:51:24.000Z</time>
      </trkpt>
      <trkpt lat="43.78654" lon="7.34705">
        <ele>209.19999694824</ele>
        <time>2013-12-07T08:51:29.000Z</time>
      </trkpt>
      <trkpt lat="43.78662" lon="7.34701">
        <ele>205.60000610352</ele>
        <time>2013-12-07T08:51:35.000Z</time>
      </trkpt>
      <trkpt lat="43.78663" lon="7.34701">
        <ele>205.39999389648</ele>
        <time>2013-12-07T08:51:36.000Z</time>
      </trkpt>
      <trkpt lat="43.78667" lon="7.34703">
        <ele>204.60000610352</ele>
        <time>2013-12-07T08:51:50.000Z</time>
      </trkpt>
      <trkpt lat="43.7867" lon="7.34704">
        <ele>203.19999694824</ele>
        <time>2013-12-07T08:51:52.000Z</time>
      </trkpt>
      <trkpt lat="43.78671" lon="7.34706">
        <ele>203.19999694824</ele>
        <time>2013-12-07T08:51:53.000Z</time>
      </trkpt>
      <trkpt lat="43.78675" lon="7.34716">
        <ele>204.19999694824</ele>
        <time>2013-12-07T08:51:58.000Z</time>
      </trkpt>
      <trkpt lat="43.78676" lon="7.34725">
        <ele>206.19999694824</ele>
        <time>2013-12-07T08:52:02.000Z</time>
      </trkpt>
      <trkpt lat="43.78676" lon="7.34727">
        <ele>206.60000610352</ele>
        <time>2013-12-07T08:52:03.000Z</time>
      </trkpt>
      <trkpt lat="43.78681" lon="7.34736">
        <ele>206.39999389648</ele>
        <time>2013-12-07T08:52:08.000Z</time>
      </trkpt>
      <trkpt lat="43.78685" lon="7.3474">
        <ele>205.19999694824</ele>
        <time>2013-12-07T08:52:10.000Z</time>
      </trkpt>
      <trkpt lat="43.78686" lon="7.34742">
        <ele>204.80000305176</ele>
        <time>2013-12-07T08:52:11.000Z</time>
      </trkpt>
      <trkpt lat="43.78687" lon="7.34744">
        <ele>204.60000610352</ele>
        <time>2013-12-07T08:52:12.000Z</time>
      </trkpt>
      <trkpt lat="43.78693" lon="7.34758">
        <ele>205</ele>
        <time>2013-12-07T08:52:17.000Z</time>
      </trkpt>
      <trkpt lat="43.78697" lon="7.3477">
        <ele>206</ele>
        <time>2013-12-07T08:52:21.000Z</time>
      </trkpt>
      <trkpt lat="43.78696" lon="7.3478">
        <ele>209.60000610352</ele>
        <time>2013-12-07T08:52:25.000Z</time>
      </trkpt>
      <trkpt lat="43.78694" lon="7.34789">
        <ele>212.60000610352</ele>
        <time>2013-12-07T08:52:28.000Z</time>
      </trkpt>
      <trkpt lat="43.78694" lon="7.34792">
        <ele>213.80000305176</ele>
        <time>2013-12-07T08:52:29.000Z</time>
      </trkpt>
      <trkpt lat="43.78692" lon="7.34811">
        <ele>219.80000305176</ele>
        <time>2013-12-07T08:52:35.000Z</time>
      </trkpt>
      <trkpt lat="43.78691" lon="7.34824">
        <ele>223.60000610352</ele>
        <time>2013-12-07T08:52:39.000Z</time>
      </trkpt>
      <trkpt lat="43.78691" lon="7.34832">
        <ele>226.19999694824</ele>
        <time>2013-12-07T08:52:43.000Z</time>
      </trkpt>
      <trkpt lat="43.78692" lon="7.34832">
        <ele>225.60000610352</ele>
        <time>2013-12-07T08:52:44.000Z</time>
      </trkpt>
      <trkpt lat="43.78699" lon="7.34829">
        <ele>221.39999389648</ele>
        <time>2013-12-07T08:52:48.000Z</time>
      </trkpt>
      <trkpt lat="43.787" lon="7.34828">
        <ele>220.60000610352</ele>
        <time>2013-12-07T08:52:49.000Z</time>
      </trkpt>
      <trkpt lat="43.78708" lon="7.34826">
        <ele>216.19999694824</ele>
        <time>2013-12-07T08:52:52.000Z</time>
      </trkpt>
      <trkpt lat="43.78718" lon="7.34823">
        <ele>210.39999389648</ele>
        <time>2013-12-07T08:52:56.000Z</time>
      </trkpt>
      <trkpt lat="43.78719" lon="7.34823">
        <ele>209.80000305176</ele>
        <time>2013-12-07T08:52:57.000Z</time>
      </trkpt>
      <trkpt lat="43.78721" lon="7.34823">
        <ele>208.39999389648</ele>
        <time>2013-12-07T08:53:00.000Z</time>
      </trkpt>
      <trkpt lat="43.78729" lon="7.34824">
        <ele>205.19999694824</ele>
        <time>2013-12-07T08:53:04.000Z</time>
      </trkpt>
      <trkpt lat="43.78727" lon="7.34835">
        <ele>209.60000610352</ele>
        <time>2013-12-07T08:53:09.000Z</time>
      </trkpt>
      <trkpt lat="43.78727" lon="7.34845">
        <ele>213.60000610352</ele>
        <time>2013-12-07T08:53:13.000Z</time>
      </trkpt>
      <trkpt lat="43.78729" lon="7.34844">
        <ele>212.39999389648</ele>
        <time>2013-12-07T08:53:14.000Z</time>
      </trkpt>
      <trkpt lat="43.78738" lon="7.34839">
        <ele>206</ele>
        <time>2013-12-07T08:53:20.000Z</time>
      </trkpt>
      <trkpt lat="43.78747" lon="7.34842">
        <ele>203.19999694824</ele>
        <time>2013-12-07T08:53:25.000Z</time>
      </trkpt>
      <trkpt lat="43.78754" lon="7.34848">
        <ele>202.80000305176</ele>
        <time>2013-12-07T08:53:29.000Z</time>
      </trkpt>
      <trkpt lat="43.78759" lon="7.34846">
        <ele>199.60000610352</ele>
        <time>2013-12-07T08:53:31.000Z</time>
      </trkpt>
      <trkpt lat="43.78764" lon="7.34847">
        <ele>198</ele>
        <time>2013-12-07T08:53:33.000Z</time>
      </trkpt>
      <trkpt lat="43.78767" lon="7.34849">
        <ele>197.39999389648</ele>
        <time>2013-12-07T08:53:34.000Z</time>
      </trkpt>
      <trkpt lat="43.78776" lon="7.34856">
        <ele>196.39999389648</ele>
        <time>2013-12-07T08:53:39.000Z</time>
      </trkpt>
      <trkpt lat="43.78787" lon="7.34864">
        <ele>194.80000305176</ele>
        <time>2013-12-07T08:53:43.000Z</time>
      </trkpt>
      <trkpt lat="43.78791" lon="7.34871">
        <ele>196.39999389648</ele>
        <time>2013-12-07T08:53:45.000Z</time>
      </trkpt>
      <trkpt lat="43.78793" lon="7.34875">
        <ele>196.80000305176</ele>
        <time>2013-12-07T08:53:46.000Z</time>
      </trkpt>
      <trkpt lat="43.78794" lon="7.34876">
        <ele>196.80000305176</ele>
        <time>2013-12-07T08:53:47.000Z</time>
      </trkpt>
      <trkpt lat="43.78801" lon="7.34884">
        <ele>196.60000610352</ele>
        <time>2013-12-07T08:53:51.000Z</time>
      </trkpt>
      <trkpt lat="43.78809" lon="7.34892">
        <ele>196.80000305176</ele>
        <time>2013-12-07T08:53:54.000Z</time>
      </trkpt>
      <trkpt lat="43.78813" lon="7.34901">
        <ele>198.19999694824</ele>
        <time>2013-12-07T08:53:56.000Z</time>
      </trkpt>
      <trkpt lat="43.78822" lon="7.34915">
        <ele>199.80000305176</ele>
        <time>2013-12-07T08:54:00.000Z</time>
      </trkpt>
      <trkpt lat="43.78821" lon="7.34915">
        <ele>200.19999694824</ele>
        <time>2013-12-07T08:54:01.000Z</time>
      </trkpt>
      <trkpt lat="43.78822" lon="7.34916">
        <ele>200.19999694824</ele>
        <time>2013-12-07T08:54:03.000Z</time>
      </trkpt>
      <trkpt lat="43.7883" lon="7.34915">
        <ele>196</ele>
        <time>2013-12-07T08:54:06.000Z</time>
      </trkpt>
      <trkpt lat="43.78844" lon="7.3492">
        <ele>191.19999694824</ele>
        <time>2013-12-07T08:54:10.000Z</time>
      </trkpt>
      <trkpt lat="43.7885" lon="7.34924">
        <ele>189.19999694824</ele>
        <time>2013-12-07T08:54:12.000Z</time>
      </trkpt>
      <trkpt lat="43.78854" lon="7.34926">
        <ele>188</ele>
        <time>2013-12-07T08:54:14.000Z</time>
      </trkpt>
      <trkpt lat="43.78858" lon="7.34936">
        <ele>188.80000305176</ele>
        <time>2013-12-07T08:54:17.000Z</time>
      </trkpt>
      <trkpt lat="43.78861" lon="7.34947">
        <ele>190.19999694824</ele>
        <time>2013-12-07T08:54:21.000Z</time>
      </trkpt>
      <trkpt lat="43.78862" lon="7.34954">
        <ele>191.80000305176</ele>
        <time>2013-12-07T08:54:23.000Z</time>
      </trkpt>
      <trkpt lat="43.78863" lon="7.34957">
        <ele>191.80000305176</ele>
        <time>2013-12-07T08:54:25.000Z</time>
      </trkpt>
      <trkpt lat="43.78863" lon="7.34961">
        <ele>193.19999694824</ele>
        <time>2013-12-07T08:54:34.000Z</time>
      </trkpt>
      <trkpt lat="43.78864" lon="7.34965">
        <ele>193.60000610352</ele>
        <time>2013-12-07T08:54:39.000Z</time>
      </trkpt>
      <trkpt lat="43.78865" lon="7.34967">
        <ele>193.39999389648</ele>
        <time>2013-12-07T08:54:45.000Z</time>
      </trkpt>
      <trkpt lat="43.78869" lon="7.3497">
        <ele>192.19999694824</ele>
        <time>2013-12-07T08:54:53.000Z</time>
      </trkpt>
      <trkpt lat="43.78873" lon="7.34975">
        <ele>191.39999389648</ele>
        <time>2013-12-07T08:55:01.000Z</time>
      </trkpt>
      <trkpt lat="43.78876" lon="7.34983">
        <ele>191.60000610352</ele>
        <time>2013-12-07T08:55:05.000Z</time>
      </trkpt>
      <trkpt lat="43.78878" lon="7.34985">
        <ele>190.80000305176</ele>
        <time>2013-12-07T08:55:06.000Z</time>
      </trkpt>
      <trkpt lat="43.78881" lon="7.34985">
        <ele>189</ele>
        <time>2013-12-07T08:55:08.000Z</time>
      </trkpt>
      <trkpt lat="43.78884" lon="7.34991">
        <ele>188.80000305176</ele>
        <time>2013-12-07T08:55:11.000Z</time>
      </trkpt>
      <trkpt lat="43.78891" lon="7.34999">
        <ele>186</ele>
        <time>2013-12-07T08:55:14.000Z</time>
      </trkpt>
      <trkpt lat="43.78893" lon="7.35001">
        <ele>185.19999694824</ele>
        <time>2013-12-07T08:55:15.000Z</time>
      </trkpt>
      <trkpt lat="43.78897" lon="7.3501">
        <ele>185.19999694824</ele>
        <time>2013-12-07T08:55:18.000Z</time>
      </trkpt>
      <trkpt lat="43.78898" lon="7.35012">
        <ele>184.60000610352</ele>
        <time>2013-12-07T08:55:19.000Z</time>
      </trkpt>
      <trkpt lat="43.78904" lon="7.35021">
        <ele>183.19999694824</ele>
        <time>2013-12-07T08:55:23.000Z</time>
      </trkpt>
      <trkpt lat="43.78911" lon="7.35026">
        <ele>180.60000610352</ele>
        <time>2013-12-07T08:55:26.000Z</time>
      </trkpt>
      <trkpt lat="43.78914" lon="7.35028">
        <ele>179.60000610352</ele>
        <time>2013-12-07T08:55:27.000Z</time>
      </trkpt>
      <trkpt lat="43.7892" lon="7.35036">
        <ele>179.19999694824</ele>
        <time>2013-12-07T08:55:30.000Z</time>
      </trkpt>
      <trkpt lat="43.78921" lon="7.35038">
        <ele>179.80000305176</ele>
        <time>2013-12-07T08:55:31.000Z</time>
      </trkpt>
      <trkpt lat="43.78922" lon="7.35044">
        <ele>181</ele>
        <time>2013-12-07T08:55:35.000Z</time>
      </trkpt>
      <trkpt lat="43.78925" lon="7.35048">
        <ele>181.19999694824</ele>
        <time>2013-12-07T08:55:41.000Z</time>
      </trkpt>
      <trkpt lat="43.78929" lon="7.35048">
        <ele>180.19999694824</ele>
        <time>2013-12-07T08:55:46.000Z</time>
      </trkpt>
      <trkpt lat="43.78932" lon="7.35039">
        <ele>177.39999389648</ele>
        <time>2013-12-07T08:55:51.000Z</time>
      </trkpt>
      <trkpt lat="43.78932" lon="7.35036">
        <ele>176.80000305176</ele>
        <time>2013-12-07T08:55:52.000Z</time>
      </trkpt>
      <trkpt lat="43.78928" lon="7.35025">
        <ele>175</ele>
        <time>2013-12-07T08:55:56.000Z</time>
      </trkpt>
      <trkpt lat="43.78926" lon="7.3502">
        <ele>174</ele>
        <time>2013-12-07T08:55:58.000Z</time>
      </trkpt>
      <trkpt lat="43.78925" lon="7.35016">
        <ele>173.19999694824</ele>
        <time>2013-12-07T08:56:00.000Z</time>
      </trkpt>
      <trkpt lat="43.78927" lon="7.35016">
        <ele>172.80000305176</ele>
        <time>2013-12-07T08:56:04.000Z</time>
      </trkpt>
      <trkpt lat="43.78929" lon="7.35017">
        <ele>172.60000610352</ele>
        <time>2013-12-07T08:56:06.000Z</time>
      </trkpt>
      <trkpt lat="43.78934" lon="7.35017">
        <ele>172</ele>
        <time>2013-12-07T08:56:16.000Z</time>
      </trkpt>
      <trkpt lat="43.78935" lon="7.35022">
        <ele>172.80000305176</ele>
        <time>2013-12-07T08:56:21.000Z</time>
      </trkpt>
      <trkpt lat="43.78942" lon="7.35029">
        <ele>173.19999694824</ele>
        <time>2013-12-07T08:56:26.000Z</time>
      </trkpt>
      <trkpt lat="43.78943" lon="7.35032">
        <ele>173.60000610352</ele>
        <time>2013-12-07T08:56:30.000Z</time>
      </trkpt>
      <trkpt lat="43.78944" lon="7.3503">
        <ele>173.19999694824</ele>
        <time>2013-12-07T08:56:32.000Z</time>
      </trkpt>
      <trkpt lat="43.78945" lon="7.35027">
        <ele>172.19999694824</ele>
        <time>2013-12-07T08:56:37.000Z</time>
      </trkpt>
      <trkpt lat="43.78943" lon="7.35022">
        <ele>171.60000610352</ele>
        <time>2013-12-07T08:56:46.000Z</time>
      </trkpt>
      <trkpt lat="43.78945" lon="7.35025">
        <ele>171.80000305176</ele>
        <time>2013-12-07T08:56:50.000Z</time>
      </trkpt>
      <trkpt lat="43.78946" lon="7.35028">
        <ele>172.19999694824</ele>
        <time>2013-12-07T08:56:55.000Z</time>
      </trkpt>
      <trkpt lat="43.78948" lon="7.35028">
        <ele>172</ele>
        <time>2013-12-07T08:56:58.000Z</time>
      </trkpt>
      <trkpt lat="43.78951" lon="7.3503">
        <ele>171.80000305176</ele>
        <time>2013-12-07T08:57:00.000Z</time>
      </trkpt>
      <trkpt lat="43.78953" lon="7.35033">
        <ele>172</ele>
        <time>2013-12-07T08:57:03.000Z</time>
      </trkpt>
      <trkpt lat="43.78953" lon="7.35034">
        <ele>172.19999694824</ele>
        <time>2013-12-07T08:57:05.000Z</time>
      </trkpt>
      <trkpt lat="43.78954" lon="7.35034">
        <ele>172.19999694824</ele>
        <time>2013-12-07T08:57:12.000Z</time>
      </trkpt>
      <trkpt lat="43.78958" lon="7.35031">
        <ele>170.60000610352</ele>
        <time>2013-12-07T08:57:20.000Z</time>
      </trkpt>
      <trkpt lat="43.78956" lon="7.3503">
        <ele>170.80000305176</ele>
        <time>2013-12-07T08:57:25.000Z</time>
      </trkpt>
      <trkpt lat="43.78958" lon="7.35029">
        <ele>170.19999694824</ele>
        <time>2013-12-07T08:57:30.000Z</time>
      </trkpt>
      <trkpt lat="43.78966" lon="7.35029">
        <ele>168.80000305176</ele>
        <time>2013-12-07T08:57:34.000Z</time>
      </trkpt>
      <trkpt lat="43.78967" lon="7.35029">
        <ele>168.60000610352</ele>
        <time>2013-12-07T08:57:39.000Z</time>
      </trkpt>
      <trkpt lat="43.7897" lon="7.35028">
        <ele>167.80000305176</ele>
        <time>2013-12-07T08:57:57.000Z</time>
      </trkpt>
      <trkpt lat="43.78971" lon="7.35026">
        <ele>167.39999389648</ele>
        <time>2013-12-07T08:57:59.000Z</time>
      </trkpt>
      <trkpt lat="43.78974" lon="7.35022">
        <ele>166.19999694824</ele>
        <time>2013-12-07T08:58:17.000Z</time>
      </trkpt>
      <trkpt lat="43.78976" lon="7.35013">
        <ele>164.80000305176</ele>
        <time>2013-12-07T08:58:32.000Z</time>
      </trkpt>
      <trkpt lat="43.78973" lon="7.35009">
        <ele>164.60000610352</ele>
        <time>2013-12-07T08:58:39.000Z</time>
      </trkpt>
      <trkpt lat="43.7897" lon="7.35003">
        <ele>164</ele>
        <time>2013-12-07T08:58:46.000Z</time>
      </trkpt>
      <trkpt lat="43.78969" lon="7.34998">
        <ele>163.80000305176</ele>
        <time>2013-12-07T08:58:55.000Z</time>
      </trkpt>
      <trkpt lat="43.78968" lon="7.34999">
        <ele>163.80000305176</ele>
        <time>2013-12-07T08:59:03.000Z</time>
      </trkpt>
      <trkpt lat="43.78967" lon="7.34994">
        <ele>164</ele>
        <time>2013-12-07T08:59:06.000Z</time>
      </trkpt>
      <trkpt lat="43.78966" lon="7.34992">
        <ele>164</ele>
        <time>2013-12-07T08:59:07.000Z</time>
      </trkpt>
      <trkpt lat="43.78958" lon="7.34986">
        <ele>164.39999389648</ele>
        <time>2013-12-07T08:59:12.000Z</time>
      </trkpt>
      <trkpt lat="43.78957" lon="7.34981">
        <ele>164.19999694824</ele>
        <time>2013-12-07T08:59:16.000Z</time>
      </trkpt>
      <trkpt lat="43.78955" lon="7.34974">
        <ele>164</ele>
        <time>2013-12-07T08:59:26.000Z</time>
      </trkpt>
      <trkpt lat="43.78955" lon="7.34972">
        <ele>164</ele>
        <time>2013-12-07T08:59:31.000Z</time>
      </trkpt>
      <trkpt lat="43.78958" lon="7.34968">
        <ele>163.60000610352</ele>
        <time>2013-12-07T08:59:36.000Z</time>
      </trkpt>
      <trkpt lat="43.78962" lon="7.34964">
        <ele>163.39999389648</ele>
        <time>2013-12-07T08:59:41.000Z</time>
      </trkpt>
      <trkpt lat="43.78962" lon="7.34964">
        <ele>163.39999389648</ele>
        <time>2013-12-07T08:59:42.000Z</time>
      </trkpt>
      <trkpt lat="43.78966" lon="7.34963">
        <ele>163.39999389648</ele>
        <time>2013-12-07T08:59:51.000Z</time>
      </trkpt>
      <trkpt lat="43.78966" lon="7.34961">
        <ele>163.39999389648</ele>
        <time>2013-12-07T09:00:05.000Z</time>
      </trkpt>
      <trkpt lat="43.7897" lon="7.34953">
        <ele>163.39999389648</ele>
        <time>2013-12-07T09:00:08.000Z</time>
      </trkpt>
      <trkpt lat="43.78973" lon="7.34943">
        <ele>163.60000610352</ele>
        <time>2013-12-07T09:00:12.000Z</time>
      </trkpt>
      <trkpt lat="43.78976" lon="7.34941">
        <ele>163.80000305176</ele>
        <time>2013-12-07T09:00:14.000Z</time>
      </trkpt>
      <trkpt lat="43.78979" lon="7.3494">
        <ele>164</ele>
        <time>2013-12-07T09:00:16.000Z</time>
      </trkpt>
      <trkpt lat="43.78981" lon="7.34939">
        <ele>164.39999389648</ele>
        <time>2013-12-07T09:00:18.000Z</time>
      </trkpt>
      <trkpt lat="43.78983" lon="7.34942">
        <ele>164.39999389648</ele>
        <time>2013-12-07T09:00:21.000Z</time>
      </trkpt>
      <trkpt lat="43.78984" lon="7.34946">
        <ele>164.19999694824</ele>
        <time>2013-12-07T09:00:23.000Z</time>
      </trkpt>
      <trkpt lat="43.78985" lon="7.34948">
        <ele>164.19999694824</ele>
        <time>2013-12-07T09:00:25.000Z</time>
      </trkpt>
      <trkpt lat="43.78989" lon="7.34955">
        <ele>164</ele>
        <time>2013-12-07T09:00:29.000Z</time>
      </trkpt>
      <trkpt lat="43.78994" lon="7.34965">
        <ele>163.39999389648</ele>
        <time>2013-12-07T09:00:33.000Z</time>
      </trkpt>
      <trkpt lat="43.78995" lon="7.34966">
        <ele>163.39999389648</ele>
        <time>2013-12-07T09:00:34.000Z</time>
      </trkpt>
      <trkpt lat="43.78999" lon="7.34981">
        <ele>162</ele>
        <time>2013-12-07T09:00:41.000Z</time>
      </trkpt>
      <trkpt lat="43.79003" lon="7.34996">
        <ele>161.19999694824</ele>
        <time>2013-12-07T09:00:47.000Z</time>
      </trkpt>
      <trkpt lat="43.79009" lon="7.35009">
        <ele>162.80000305176</ele>
        <time>2013-12-07T09:00:52.000Z</time>
      </trkpt>
      <trkpt lat="43.79012" lon="7.35015">
        <ele>164</ele>
        <time>2013-12-07T09:00:55.000Z</time>
      </trkpt>
      <trkpt lat="43.79016" lon="7.35021">
        <ele>165</ele>
        <time>2013-12-07T09:00:58.000Z</time>
      </trkpt>
      <trkpt lat="43.79022" lon="7.35031">
        <ele>166.39999389648</ele>
        <time>2013-12-07T09:01:03.000Z</time>
      </trkpt>
      <trkpt lat="43.79028" lon="7.35039">
        <ele>167.39999389648</ele>
        <time>2013-12-07T09:01:07.000Z</time>
      </trkpt>
      <trkpt lat="43.79031" lon="7.35042">
        <ele>168</ele>
        <time>2013-12-07T09:01:09.000Z</time>
      </trkpt>
      <trkpt lat="43.79039" lon="7.35055">
        <ele>168.80000305176</ele>
        <time>2013-12-07T09:01:16.000Z</time>
      </trkpt>
      <trkpt lat="43.79048" lon="7.35066">
        <ele>169</ele>
        <time>2013-12-07T09:01:22.000Z</time>
      </trkpt>
      <trkpt lat="43.7905" lon="7.35069">
        <ele>169</ele>
        <time>2013-12-07T09:01:24.000Z</time>
      </trkpt>
      <trkpt lat="43.79053" lon="7.35074">
        <ele>169</ele>
        <time>2013-12-07T09:01:27.000Z</time>
      </trkpt>
      <trkpt lat="43.79056" lon="7.35077">
        <ele>168.80000305176</ele>
        <time>2013-12-07T09:01:30.000Z</time>
      </trkpt>
      <trkpt lat="43.79068" lon="7.3509">
        <ele>168.80000305176</ele>
        <time>2013-12-07T09:01:36.000Z</time>
      </trkpt>
      <trkpt lat="43.79076" lon="7.35098">
        <ele>168.60000610352</ele>
        <time>2013-12-07T09:01:41.000Z</time>
      </trkpt>
      <trkpt lat="43.79086" lon="7.35106">
        <ele>168.39999389648</ele>
        <time>2013-12-07T09:01:47.000Z</time>
      </trkpt>
      <trkpt lat="43.79101" lon="7.35111">
        <ele>171.60000610352</ele>
        <time>2013-12-07T09:01:54.000Z</time>
      </trkpt>
      <trkpt lat="43.79127" lon="7.35119">
        <ele>176.39999389648</ele>
        <time>2013-12-07T09:02:01.000Z</time>
      </trkpt>
      <trkpt lat="43.79141" lon="7.35122">
        <ele>178.80000305176</ele>
        <time>2013-12-07T09:02:05.000Z</time>
      </trkpt>
      <trkpt lat="43.79156" lon="7.35126">
        <ele>181.19999694824</ele>
        <time>2013-12-07T09:02:10.000Z</time>
      </trkpt>
      <trkpt lat="43.79175" lon="7.35134">
        <ele>182.80000305176</ele>
        <time>2013-12-07T09:02:17.000Z</time>
      </trkpt>
      <trkpt lat="43.79191" lon="7.35141">
        <ele>183</ele>
        <time>2013-12-07T09:02:23.000Z</time>
      </trkpt>
      <trkpt lat="43.79214" lon="7.35157">
        <ele>181.19999694824</ele>
        <time>2013-12-07T09:02:32.000Z</time>
      </trkpt>
      <trkpt lat="43.79227" lon="7.35167">
        <ele>179.80000305176</ele>
        <time>2013-12-07T09:02:38.000Z</time>
      </trkpt>
      <trkpt lat="43.79244" lon="7.35172">
        <ele>181.39999389648</ele>
        <time>2013-12-07T09:02:45.000Z</time>
      </trkpt>
      <trkpt lat="43.79263" lon="7.35175">
        <ele>181.39999389648</ele>
        <time>2013-12-07T09:02:52.000Z</time>
      </trkpt>
      <trkpt lat="43.79288" lon="7.35181">
        <ele>180</ele>
        <time>2013-12-07T09:02:59.000Z</time>
      </trkpt>
      <trkpt lat="43.79306" lon="7.35191">
        <ele>178.80000305176</ele>
        <time>2013-12-07T09:03:05.000Z</time>
      </trkpt>
      <trkpt lat="43.7932" lon="7.35205">
        <ele>177.60000610352</ele>
        <time>2013-12-07T09:03:11.000Z</time>
      </trkpt>
      <trkpt lat="43.7933" lon="7.35227">
        <ele>176</ele>
        <time>2013-12-07T09:03:18.000Z</time>
      </trkpt>
      <trkpt lat="43.7934" lon="7.35252">
        <ele>175.80000305176</ele>
        <time>2013-12-07T09:03:24.000Z</time>
      </trkpt>
      <trkpt lat="43.79349" lon="7.35279">
        <ele>177.19999694824</ele>
        <time>2013-12-07T09:03:31.000Z</time>
      </trkpt>
      <trkpt lat="43.79359" lon="7.35308">
        <ele>178.39999389648</ele>
        <time>2013-12-07T09:03:38.000Z</time>
      </trkpt>
      <trkpt lat="43.7937" lon="7.35316">
        <ele>179.19999694824</ele>
        <time>2013-12-07T09:03:42.000Z</time>
      </trkpt>
      <trkpt lat="43.79378" lon="7.35308">
        <ele>179.60000610352</ele>
        <time>2013-12-07T09:03:45.000Z</time>
      </trkpt>
      <trkpt lat="43.79381" lon="7.35298">
        <ele>179.60000610352</ele>
        <time>2013-12-07T09:03:48.000Z</time>
      </trkpt>
      <trkpt lat="43.79384" lon="7.35293">
        <ele>179.80000305176</ele>
        <time>2013-12-07T09:03:50.000Z</time>
      </trkpt>
      <trkpt lat="43.79391" lon="7.35284">
        <ele>180.39999389648</ele>
        <time>2013-12-07T09:03:54.000Z</time>
      </trkpt>
      <trkpt lat="43.79393" lon="7.35284">
        <ele>180.39999389648</ele>
        <time>2013-12-07T09:03:55.000Z</time>
      </trkpt>
      <trkpt lat="43.79397" lon="7.35289">
        <ele>180.80000305176</ele>
        <time>2013-12-07T09:03:59.000Z</time>
      </trkpt>
      <trkpt lat="43.79405" lon="7.35301">
        <ele>181.19999694824</ele>
        <time>2013-12-07T09:04:05.000Z</time>
      </trkpt>
      <trkpt lat="43.79407" lon="7.35302">
        <ele>181.19999694824</ele>
        <time>2013-12-07T09:04:06.000Z</time>
      </trkpt>
      <trkpt lat="43.7941" lon="7.353">
        <ele>181.39999389648</ele>
        <time>2013-12-07T09:04:09.000Z</time>
      </trkpt>
      <trkpt lat="43.79411" lon="7.35296">
        <ele>181.60000610352</ele>
        <time>2013-12-07T09:04:11.000Z</time>
      </trkpt>
      <trkpt lat="43.79413" lon="7.35289">
        <ele>181.80000305176</ele>
        <time>2013-12-07T09:04:14.000Z</time>
      </trkpt>
      <trkpt lat="43.7942" lon="7.35279">
        <ele>182.80000305176</ele>
        <time>2013-12-07T09:04:20.000Z</time>
      </trkpt>
      <trkpt lat="43.79427" lon="7.35271">
        <ele>183.80000305176</ele>
        <time>2013-12-07T09:04:25.000Z</time>
      </trkpt>
      <trkpt lat="43.79429" lon="7.35266">
        <ele>184.19999694824</ele>
        <time>2013-12-07T09:04:28.000Z</time>
      </trkpt>
      <trkpt lat="43.79432" lon="7.35261">
        <ele>184.60000610352</ele>
        <time>2013-12-07T09:04:30.000Z</time>
      </trkpt>
      <trkpt lat="43.79439" lon="7.35252">
        <ele>185.80000305176</ele>
        <time>2013-12-07T09:04:36.000Z</time>
      </trkpt>
      <trkpt lat="43.7945" lon="7.35247">
        <ele>187.39999389648</ele>
        <time>2013-12-07T09:04:43.000Z</time>
      </trkpt>
      <trkpt lat="43.79454" lon="7.35247">
        <ele>187.80000305176</ele>
        <time>2013-12-07T09:04:45.000Z</time>
      </trkpt>
      <trkpt lat="43.79466" lon="7.35244">
        <ele>189.39999389648</ele>
        <time>2013-12-07T09:04:52.000Z</time>
      </trkpt>
      <trkpt lat="43.79474" lon="7.35242">
        <ele>190.39999389648</ele>
        <time>2013-12-07T09:04:58.000Z</time>
      </trkpt>
      <trkpt lat="43.79488" lon="7.35238">
        <ele>192.19999694824</ele>
        <time>2013-12-07T09:05:06.000Z</time>
      </trkpt>
      <trkpt lat="43.79502" lon="7.35237">
        <ele>194</ele>
        <time>2013-12-07T09:05:14.000Z</time>
      </trkpt>
      <trkpt lat="43.79512" lon="7.35235">
        <ele>195.19999694824</ele>
        <time>2013-12-07T09:05:21.000Z</time>
      </trkpt>
      <trkpt lat="43.79523" lon="7.3523">
        <ele>196.19999694824</ele>
        <time>2013-12-07T09:05:28.000Z</time>
      </trkpt>
      <trkpt lat="43.79536" lon="7.35225">
        <ele>197.80000305176</ele>
        <time>2013-12-07T09:05:33.000Z</time>
      </trkpt>
      <trkpt lat="43.79549" lon="7.35219">
        <ele>199.39999389648</ele>
        <time>2013-12-07T09:05:40.000Z</time>
      </trkpt>
      <trkpt lat="43.79557" lon="7.3522">
        <ele>200.39999389648</ele>
        <time>2013-12-07T09:05:45.000Z</time>
      </trkpt>
      <trkpt lat="43.7957" lon="7.35221">
        <ele>201.80000305176</ele>
        <time>2013-12-07T09:05:53.000Z</time>
      </trkpt>
      <trkpt lat="43.79582" lon="7.35215">
        <ele>203.39999389648</ele>
        <time>2013-12-07T09:06:01.000Z</time>
      </trkpt>
      <trkpt lat="43.79593" lon="7.35208">
        <ele>204.80000305176</ele>
        <time>2013-12-07T09:06:08.000Z</time>
      </trkpt>
      <trkpt lat="43.79601" lon="7.35214">
        <ele>205.19999694824</ele>
        <time>2013-12-07T09:06:14.000Z</time>
      </trkpt>
      <trkpt lat="43.79611" lon="7.35235">
        <ele>204</ele>
        <time>2013-12-07T09:06:24.000Z</time>
      </trkpt>
      <trkpt lat="43.7962" lon="7.35235">
        <ele>204.39999389648</ele>
        <time>2013-12-07T09:06:29.000Z</time>
      </trkpt>
      <trkpt lat="43.79628" lon="7.35225">
        <ele>206</ele>
        <time>2013-12-07T09:06:34.000Z</time>
      </trkpt>
      <trkpt lat="43.79633" lon="7.35208">
        <ele>208.39999389648</ele>
        <time>2013-12-07T09:06:41.000Z</time>
      </trkpt>
      <trkpt lat="43.79636" lon="7.3519">
        <ele>211.19999694824</ele>
        <time>2013-12-07T09:06:49.000Z</time>
      </trkpt>
      <trkpt lat="43.79642" lon="7.35168">
        <ele>215</ele>
        <time>2013-12-07T09:06:58.000Z</time>
      </trkpt>
      <trkpt lat="43.79648" lon="7.35154">
        <ele>216</ele>
        <time>2013-12-07T09:07:05.000Z</time>
      </trkpt>
      <trkpt lat="43.79658" lon="7.35144">
        <ele>217.39999389648</ele>
        <time>2013-12-07T09:07:12.000Z</time>
      </trkpt>
      <trkpt lat="43.7967" lon="7.35139">
        <ele>219.39999389648</ele>
        <time>2013-12-07T09:07:19.000Z</time>
      </trkpt>
      <trkpt lat="43.79684" lon="7.35139">
        <ele>221.39999389648</ele>
        <time>2013-12-07T09:07:26.000Z</time>
      </trkpt>
      <trkpt lat="43.79696" lon="7.35138">
        <ele>223.19999694824</ele>
        <time>2013-12-07T09:07:33.000Z</time>
      </trkpt>
      <trkpt lat="43.7971" lon="7.35134">
        <ele>225.39999389648</ele>
        <time>2013-12-07T09:07:40.000Z</time>
      </trkpt>
      <trkpt lat="43.79719" lon="7.35129">
        <ele>227</ele>
        <time>2013-12-07T09:07:46.000Z</time>
      </trkpt>
      <trkpt lat="43.79729" lon="7.35125">
        <ele>228.80000305176</ele>
        <time>2013-12-07T09:07:52.000Z</time>
      </trkpt>
      <trkpt lat="43.7974" lon="7.35127">
        <ele>230.39999389648</ele>
        <time>2013-12-07T09:08:00.000Z</time>
      </trkpt>
      <trkpt lat="43.79752" lon="7.35132">
        <ele>231.39999389648</ele>
        <time>2013-12-07T09:08:07.000Z</time>
      </trkpt>
      <trkpt lat="43.79766" lon="7.35136">
        <ele>230.80000305176</ele>
        <time>2013-12-07T09:08:15.000Z</time>
      </trkpt>
      <trkpt lat="43.79767" lon="7.35135">
        <ele>230.80000305176</ele>
        <time>2013-12-07T09:08:16.000Z</time>
      </trkpt>
      <trkpt lat="43.7977" lon="7.3513">
        <ele>231.19999694824</ele>
        <time>2013-12-07T09:08:19.000Z</time>
      </trkpt>
      <trkpt lat="43.79771" lon="7.35128">
        <ele>231.39999389648</ele>
        <time>2013-12-07T09:08:20.000Z</time>
      </trkpt>
      <trkpt lat="43.79775" lon="7.35114">
        <ele>233</ele>
        <time>2013-12-07T09:08:27.000Z</time>
      </trkpt>
      <trkpt lat="43.79783" lon="7.35098">
        <ele>235</ele>
        <time>2013-12-07T09:08:35.000Z</time>
      </trkpt>
      <trkpt lat="43.79788" lon="7.35085">
        <ele>237</ele>
        <time>2013-12-07T09:08:41.000Z</time>
      </trkpt>
      <trkpt lat="43.79795" lon="7.35073">
        <ele>238</ele>
        <time>2013-12-07T09:08:47.000Z</time>
      </trkpt>
      <trkpt lat="43.79806" lon="7.35061">
        <ele>239.60000610352</ele>
        <time>2013-12-07T09:08:54.000Z</time>
      </trkpt>
      <trkpt lat="43.79813" lon="7.35055">
        <ele>240.80000305176</ele>
        <time>2013-12-07T09:09:00.000Z</time>
      </trkpt>
      <trkpt lat="43.79821" lon="7.35052">
        <ele>242.19999694824</ele>
        <time>2013-12-07T09:09:07.000Z</time>
      </trkpt>
      <trkpt lat="43.79835" lon="7.35049">
        <ele>244.19999694824</ele>
        <time>2013-12-07T09:09:16.000Z</time>
      </trkpt>
      <trkpt lat="43.79847" lon="7.35044">
        <ele>245.39999389648</ele>
        <time>2013-12-07T09:09:24.000Z</time>
      </trkpt>
      <trkpt lat="43.7986" lon="7.35039">
        <ele>246.80000305176</ele>
        <time>2013-12-07T09:09:33.000Z</time>
      </trkpt>
      <trkpt lat="43.79872" lon="7.35034">
        <ele>248.39999389648</ele>
        <time>2013-12-07T09:09:41.000Z</time>
      </trkpt>
      <trkpt lat="43.79885" lon="7.35028">
        <ele>250.19999694824</ele>
        <time>2013-12-07T09:09:50.000Z</time>
      </trkpt>
      <trkpt lat="43.79897" lon="7.3502">
        <ele>252.80000305176</ele>
        <time>2013-12-07T09:09:59.000Z</time>
      </trkpt>
      <trkpt lat="43.79906" lon="7.3501">
        <ele>255.60000610352</ele>
        <time>2013-12-07T09:10:05.000Z</time>
      </trkpt>
      <trkpt lat="43.79915" lon="7.34995">
        <ele>259.39999389648</ele>
        <time>2013-12-07T09:10:13.000Z</time>
      </trkpt>
      <trkpt lat="43.79919" lon="7.34983">
        <ele>261</ele>
        <time>2013-12-07T09:10:20.000Z</time>
      </trkpt>
      <trkpt lat="43.79928" lon="7.34969">
        <ele>262.60000610352</ele>
        <time>2013-12-07T09:10:27.000Z</time>
      </trkpt>
      <trkpt lat="43.79936" lon="7.34953">
        <ele>265.20001220703</ele>
        <time>2013-12-07T09:10:33.000Z</time>
      </trkpt>
      <trkpt lat="43.79941" lon="7.34935">
        <ele>269</ele>
        <time>2013-12-07T09:10:40.000Z</time>
      </trkpt>
      <trkpt lat="43.79947" lon="7.34917">
        <ele>273</ele>
        <time>2013-12-07T09:10:48.000Z</time>
      </trkpt>
      <trkpt lat="43.79956" lon="7.34908">
        <ele>277</ele>
        <time>2013-12-07T09:10:55.000Z</time>
      </trkpt>
      <trkpt lat="43.79965" lon="7.34902">
        <ele>280.39999389648</ele>
        <time>2013-12-07T09:11:01.000Z</time>
      </trkpt>
      <trkpt lat="43.79966" lon="7.34888">
        <ele>285.20001220703</ele>
        <time>2013-12-07T09:11:06.000Z</time>
      </trkpt>
      <trkpt lat="43.79959" lon="7.34881">
        <ele>286.39999389648</ele>
        <time>2013-12-07T09:11:11.000Z</time>
      </trkpt>
      <trkpt lat="43.79954" lon="7.34877">
        <ele>286.39999389648</ele>
        <time>2013-12-07T09:11:17.000Z</time>
      </trkpt>
      <trkpt lat="43.79945" lon="7.34874">
        <ele>285.60000610352</ele>
        <time>2013-12-07T09:11:26.000Z</time>
      </trkpt>
      <trkpt lat="43.79935" lon="7.34865">
        <ele>286</ele>
        <time>2013-12-07T09:11:35.000Z</time>
      </trkpt>
      <trkpt lat="43.79929" lon="7.34857">
        <ele>286.79998779297</ele>
        <time>2013-12-07T09:11:41.000Z</time>
      </trkpt>
      <trkpt lat="43.79927" lon="7.34844">
        <ele>289.79998779297</ele>
        <time>2013-12-07T09:11:48.000Z</time>
      </trkpt>
      <trkpt lat="43.79928" lon="7.34832">
        <ele>293.39999389648</ele>
        <time>2013-12-07T09:11:54.000Z</time>
      </trkpt>
      <trkpt lat="43.79934" lon="7.34828">
        <ele>296</ele>
        <time>2013-12-07T09:12:00.000Z</time>
      </trkpt>
      <trkpt lat="43.79942" lon="7.34831">
        <ele>297.60000610352</ele>
        <time>2013-12-07T09:12:06.000Z</time>
      </trkpt>
      <trkpt lat="43.79952" lon="7.34833">
        <ele>299.60000610352</ele>
        <time>2013-12-07T09:12:13.000Z</time>
      </trkpt>
      <trkpt lat="43.79961" lon="7.34836">
        <ele>301.20001220703</ele>
        <time>2013-12-07T09:12:20.000Z</time>
      </trkpt>
      <trkpt lat="43.79969" lon="7.34842">
        <ele>301.60000610352</ele>
        <time>2013-12-07T09:12:26.000Z</time>
      </trkpt>
      <trkpt lat="43.79977" lon="7.3485">
        <ele>301</ele>
        <time>2013-12-07T09:12:33.000Z</time>
      </trkpt>
      <trkpt lat="43.79989" lon="7.34855">
        <ele>301.60000610352</ele>
        <time>2013-12-07T09:12:40.000Z</time>
      </trkpt>
      <trkpt lat="43.80004" lon="7.34856">
        <ele>305</ele>
        <time>2013-12-07T09:12:49.000Z</time>
      </trkpt>
      <trkpt lat="43.80015" lon="7.34851">
        <ele>309.60000610352</ele>
        <time>2013-12-07T09:12:56.000Z</time>
      </trkpt>
      <trkpt lat="43.80025" lon="7.34846">
        <ele>313.79998779297</ele>
        <time>2013-12-07T09:13:02.000Z</time>
      </trkpt>
      <trkpt lat="43.80035" lon="7.34843">
        <ele>317</ele>
        <time>2013-12-07T09:13:09.000Z</time>
      </trkpt>
      <trkpt lat="43.80043" lon="7.34841">
        <ele>319.79998779297</ele>
        <time>2013-12-07T09:13:15.000Z</time>
      </trkpt>
      <trkpt lat="43.8005" lon="7.34843">
        <ele>320.79998779297</ele>
        <time>2013-12-07T09:13:20.000Z</time>
      </trkpt>
      <trkpt lat="43.80053" lon="7.34845">
        <ele>320.60000610352</ele>
        <time>2013-12-07T09:13:22.000Z</time>
      </trkpt>
      <trkpt lat="43.80067" lon="7.34854">
        <ele>320.60000610352</ele>
        <time>2013-12-07T09:13:32.000Z</time>
      </trkpt>
      <trkpt lat="43.80079" lon="7.34856">
        <ele>323</ele>
        <time>2013-12-07T09:13:40.000Z</time>
      </trkpt>
      <trkpt lat="43.80091" lon="7.34858">
        <ele>325.39999389648</ele>
        <time>2013-12-07T09:13:48.000Z</time>
      </trkpt>
      <trkpt lat="43.80101" lon="7.34864">
        <ele>326</ele>
        <time>2013-12-07T09:13:55.000Z</time>
      </trkpt>
      <trkpt lat="43.80106" lon="7.34872">
        <ele>324.20001220703</ele>
        <time>2013-12-07T09:14:02.000Z</time>
      </trkpt>
      <trkpt lat="43.80108" lon="7.34874">
        <ele>323.79998779297</ele>
        <time>2013-12-07T09:14:03.000Z</time>
      </trkpt>
      <trkpt lat="43.80113" lon="7.34881">
        <ele>322.60000610352</ele>
        <time>2013-12-07T09:14:06.000Z</time>
      </trkpt>
      <trkpt lat="43.80117" lon="7.34891">
        <ele>319.79998779297</ele>
        <time>2013-12-07T09:14:11.000Z</time>
      </trkpt>
      <trkpt lat="43.80124" lon="7.349">
        <ele>318</ele>
        <time>2013-12-07T09:14:18.000Z</time>
      </trkpt>
      <trkpt lat="43.80133" lon="7.34908">
        <ele>317</ele>
        <time>2013-12-07T09:14:25.000Z</time>
      </trkpt>
      <trkpt lat="43.80144" lon="7.34908">
        <ele>319.60000610352</ele>
        <time>2013-12-07T09:14:32.000Z</time>
      </trkpt>
      <trkpt lat="43.80153" lon="7.34899">
        <ele>325.39999389648</ele>
        <time>2013-12-07T09:14:38.000Z</time>
      </trkpt>
      <trkpt lat="43.80162" lon="7.34892">
        <ele>330.79998779297</ele>
        <time>2013-12-07T09:14:44.000Z</time>
      </trkpt>
      <trkpt lat="43.80175" lon="7.34886">
        <ele>335.79998779297</ele>
        <time>2013-12-07T09:14:51.000Z</time>
      </trkpt>
      <trkpt lat="43.80188" lon="7.3488">
        <ele>340.39999389648</ele>
        <time>2013-12-07T09:14:58.000Z</time>
      </trkpt>
      <trkpt lat="43.80199" lon="7.34875">
        <ele>343.79998779297</ele>
        <time>2013-12-07T09:15:04.000Z</time>
      </trkpt>
      <trkpt lat="43.80208" lon="7.34869">
        <ele>348</ele>
        <time>2013-12-07T09:15:11.000Z</time>
      </trkpt>
      <trkpt lat="43.80209" lon="7.34865">
        <ele>349.39999389648</ele>
        <time>2013-12-07T09:15:13.000Z</time>
      </trkpt>
      <trkpt lat="43.80207" lon="7.34862">
        <ele>350.60000610352</ele>
        <time>2013-12-07T09:15:17.000Z</time>
      </trkpt>
      <trkpt lat="43.80202" lon="7.3486">
        <ele>350.79998779297</ele>
        <time>2013-12-07T09:15:22.000Z</time>
      </trkpt>
      <trkpt lat="43.80201" lon="7.3486">
        <ele>350.79998779297</ele>
        <time>2013-12-07T09:15:23.000Z</time>
      </trkpt>
      <trkpt lat="43.80194" lon="7.34861">
        <ele>349.39999389648</ele>
        <time>2013-12-07T09:15:27.000Z</time>
      </trkpt>
      <trkpt lat="43.8019" lon="7.34862">
        <ele>348.39999389648</ele>
        <time>2013-12-07T09:15:29.000Z</time>
      </trkpt>
      <trkpt lat="43.80181" lon="7.34866">
        <ele>345.60000610352</ele>
        <time>2013-12-07T09:15:34.000Z</time>
      </trkpt>
      <trkpt lat="43.80179" lon="7.34866">
        <ele>345</ele>
        <time>2013-12-07T09:15:35.000Z</time>
      </trkpt>
      <trkpt lat="43.80168" lon="7.34871">
        <ele>341.39999389648</ele>
        <time>2013-12-07T09:15:40.000Z</time>
      </trkpt>
      <trkpt lat="43.80152" lon="7.34874">
        <ele>336</ele>
        <time>2013-12-07T09:15:48.000Z</time>
      </trkpt>
      <trkpt lat="43.8014" lon="7.34868">
        <ele>335.39999389648</ele>
        <time>2013-12-07T09:15:54.000Z</time>
      </trkpt>
      <trkpt lat="43.80134" lon="7.34855">
        <ele>338.79998779297</ele>
        <time>2013-12-07T09:16:00.000Z</time>
      </trkpt>
      <trkpt lat="43.80133" lon="7.34843">
        <ele>343.79998779297</ele>
        <time>2013-12-07T09:16:06.000Z</time>
      </trkpt>
      <trkpt lat="43.80131" lon="7.34838">
        <ele>345.20001220703</ele>
        <time>2013-12-07T09:16:09.000Z</time>
      </trkpt>
      <trkpt lat="43.80129" lon="7.34832">
        <ele>346.39999389648</ele>
        <time>2013-12-07T09:16:12.000Z</time>
      </trkpt>
      <trkpt lat="43.80119" lon="7.3482">
        <ele>346.20001220703</ele>
        <time>2013-12-07T09:16:19.000Z</time>
      </trkpt>
      <trkpt lat="43.80108" lon="7.34813">
        <ele>344.60000610352</ele>
        <time>2013-12-07T09:16:27.000Z</time>
      </trkpt>
      <trkpt lat="43.80099" lon="7.34806">
        <ele>343.60000610352</ele>
        <time>2013-12-07T09:16:33.000Z</time>
      </trkpt>
      <trkpt lat="43.80088" lon="7.34796">
        <ele>343.79998779297</ele>
        <time>2013-12-07T09:16:40.000Z</time>
      </trkpt>
      <trkpt lat="43.80081" lon="7.34783">
        <ele>345.39999389648</ele>
        <time>2013-12-07T09:16:47.000Z</time>
      </trkpt>
      <trkpt lat="43.80081" lon="7.3478">
        <ele>345.79998779297</ele>
        <time>2013-12-07T09:16:49.000Z</time>
      </trkpt>
      <trkpt lat="43.80076" lon="7.34773">
        <ele>346.60000610352</ele>
        <time>2013-12-07T09:16:53.000Z</time>
      </trkpt>
      <trkpt lat="43.80064" lon="7.34765">
        <ele>345.79998779297</ele>
        <time>2013-12-07T09:16:59.000Z</time>
      </trkpt>
      <trkpt lat="43.80053" lon="7.3476">
        <ele>344.20001220703</ele>
        <time>2013-12-07T09:17:05.000Z</time>
      </trkpt>
      <trkpt lat="43.80049" lon="7.34755">
        <ele>344.20001220703</ele>
        <time>2013-12-07T09:17:10.000Z</time>
      </trkpt>
      <trkpt lat="43.8005" lon="7.34755">
        <ele>344.60000610352</ele>
        <time>2013-12-07T09:17:16.000Z</time>
      </trkpt>
      <trkpt lat="43.80047" lon="7.34753">
        <ele>344.20001220703</ele>
        <time>2013-12-07T09:19:16.000Z</time>
      </trkpt>
      <trkpt lat="43.80044" lon="7.34756">
        <ele>342.79998779297</ele>
        <time>2013-12-07T09:19:39.000Z</time>
      </trkpt>
      <trkpt lat="43.8004" lon="7.34754">
        <ele>342</ele>
        <time>2013-12-07T09:19:41.000Z</time>
      </trkpt>
      <trkpt lat="43.80024" lon="7.3475">
        <ele>338.60000610352</ele>
        <time>2013-12-07T09:19:45.000Z</time>
      </trkpt>
      <trkpt lat="43.80003" lon="7.34738">
        <ele>331.60000610352</ele>
        <time>2013-12-07T09:19:50.000Z</time>
      </trkpt>
      <trkpt lat="43.79995" lon="7.34731">
        <ele>328.20001220703</ele>
        <time>2013-12-07T09:19:53.000Z</time>
      </trkpt>
      <trkpt lat="43.7999" lon="7.34729">
        <ele>326.60000610352</ele>
        <time>2013-12-07T09:19:55.000Z</time>
      </trkpt>
      <trkpt lat="43.79985" lon="7.34733">
        <ele>325.39999389648</ele>
        <time>2013-12-07T09:19:58.000Z</time>
      </trkpt>
      <trkpt lat="43.79977" lon="7.34745">
        <ele>324</ele>
        <time>2013-12-07T09:20:01.000Z</time>
      </trkpt>
      <trkpt lat="43.79967" lon="7.34738">
        <ele>320</ele>
        <time>2013-12-07T09:20:05.000Z</time>
      </trkpt>
      <trkpt lat="43.79965" lon="7.34721">
        <ele>317.39999389648</ele>
        <time>2013-12-07T09:20:08.000Z</time>
      </trkpt>
      <trkpt lat="43.79955" lon="7.34721">
        <ele>314.20001220703</ele>
        <time>2013-12-07T09:20:11.000Z</time>
      </trkpt>
      <trkpt lat="43.79944" lon="7.34736">
        <ele>312.39999389648</ele>
        <time>2013-12-07T09:20:15.000Z</time>
      </trkpt>
      <trkpt lat="43.79945" lon="7.34748">
        <ele>314</ele>
        <time>2013-12-07T09:20:18.000Z</time>
      </trkpt>
      <trkpt lat="43.79945" lon="7.34751">
        <ele>313.79998779297</ele>
        <time>2013-12-07T09:20:19.000Z</time>
      </trkpt>
      <trkpt lat="43.79952" lon="7.3476">
        <ele>314.39999389648</ele>
        <time>2013-12-07T09:20:22.000Z</time>
      </trkpt>
      <trkpt lat="43.79956" lon="7.34768">
        <ele>314</ele>
        <time>2013-12-07T09:20:26.000Z</time>
      </trkpt>
      <trkpt lat="43.79952" lon="7.34766">
        <ele>313.20001220703</ele>
        <time>2013-12-07T09:20:29.000Z</time>
      </trkpt>
      <trkpt lat="43.79941" lon="7.3476">
        <ele>310.79998779297</ele>
        <time>2013-12-07T09:20:34.000Z</time>
      </trkpt>
      <trkpt lat="43.79934" lon="7.34757">
        <ele>309.39999389648</ele>
        <time>2013-12-07T09:20:38.000Z</time>
      </trkpt>
      <trkpt lat="43.79931" lon="7.34756">
        <ele>308.60000610352</ele>
        <time>2013-12-07T09:20:39.000Z</time>
      </trkpt>
      <trkpt lat="43.7992" lon="7.34754">
        <ele>305.20001220703</ele>
        <time>2013-12-07T09:20:43.000Z</time>
      </trkpt>
      <trkpt lat="43.79913" lon="7.34753">
        <ele>303.20001220703</ele>
        <time>2013-12-07T09:20:45.000Z</time>
      </trkpt>
      <trkpt lat="43.79911" lon="7.34751">
        <ele>302.60000610352</ele>
        <time>2013-12-07T09:20:47.000Z</time>
      </trkpt>
      <trkpt lat="43.79908" lon="7.34749">
        <ele>301.79998779297</ele>
        <time>2013-12-07T09:20:52.000Z</time>
      </trkpt>
      <trkpt lat="43.79905" lon="7.34748">
        <ele>300.39999389648</ele>
        <time>2013-12-07T09:20:58.000Z</time>
      </trkpt>
      <trkpt lat="43.79902" lon="7.34746">
        <ele>299.39999389648</ele>
        <time>2013-12-07T09:21:05.000Z</time>
      </trkpt>
      <trkpt lat="43.79901" lon="7.34746">
        <ele>298.79998779297</ele>
        <time>2013-12-07T09:21:06.000Z</time>
      </trkpt>
      <trkpt lat="43.79899" lon="7.34744">
        <ele>297.79998779297</ele>
        <time>2013-12-07T09:21:11.000Z</time>
      </trkpt>
      <trkpt lat="43.79895" lon="7.34745">
        <ele>296.39999389648</ele>
        <time>2013-12-07T09:21:17.000Z</time>
      </trkpt>
      <trkpt lat="43.79891" lon="7.34745">
        <ele>294.79998779297</ele>
        <time>2013-12-07T09:21:25.000Z</time>
      </trkpt>
      <trkpt lat="43.79887" lon="7.34748">
        <ele>293.79998779297</ele>
        <time>2013-12-07T09:21:30.000Z</time>
      </trkpt>
      <trkpt lat="43.79885" lon="7.34748">
        <ele>293</ele>
        <time>2013-12-07T09:21:31.000Z</time>
      </trkpt>
      <trkpt lat="43.79878" lon="7.34751">
        <ele>290.39999389648</ele>
        <time>2013-12-07T09:21:34.000Z</time>
      </trkpt>
      <trkpt lat="43.79871" lon="7.34758">
        <ele>287.20001220703</ele>
        <time>2013-12-07T09:21:38.000Z</time>
      </trkpt>
      <trkpt lat="43.79864" lon="7.34763">
        <ele>283.79998779297</ele>
        <time>2013-12-07T09:21:42.000Z</time>
      </trkpt>
      <trkpt lat="43.79863" lon="7.34765">
        <ele>283</ele>
        <time>2013-12-07T09:21:43.000Z</time>
      </trkpt>
      <trkpt lat="43.79852" lon="7.34771">
        <ele>278.60000610352</ele>
        <time>2013-12-07T09:21:48.000Z</time>
      </trkpt>
      <trkpt lat="43.79847" lon="7.34774">
        <ele>276.79998779297</ele>
        <time>2013-12-07T09:21:50.000Z</time>
      </trkpt>
      <trkpt lat="43.79842" lon="7.34778">
        <ele>274.79998779297</ele>
        <time>2013-12-07T09:21:52.000Z</time>
      </trkpt>
      <trkpt lat="43.79835" lon="7.34778">
        <ele>272.20001220703</ele>
        <time>2013-12-07T09:21:56.000Z</time>
      </trkpt>
      <trkpt lat="43.79828" lon="7.34771">
        <ele>270.20001220703</ele>
        <time>2013-12-07T09:22:01.000Z</time>
      </trkpt>
      <trkpt lat="43.79828" lon="7.34755">
        <ele>271.79998779297</ele>
        <time>2013-12-07T09:22:05.000Z</time>
      </trkpt>
      <trkpt lat="43.79829" lon="7.34747">
        <ele>272.39999389648</ele>
        <time>2013-12-07T09:22:07.000Z</time>
      </trkpt>
      <trkpt lat="43.79828" lon="7.34742">
        <ele>272</ele>
        <time>2013-12-07T09:22:08.000Z</time>
      </trkpt>
      <trkpt lat="43.79831" lon="7.34729">
        <ele>272</ele>
        <time>2013-12-07T09:22:12.000Z</time>
      </trkpt>
      <trkpt lat="43.79835" lon="7.34719">
        <ele>272.79998779297</ele>
        <time>2013-12-07T09:22:15.000Z</time>
      </trkpt>
      <trkpt lat="43.79836" lon="7.34714">
        <ele>273</ele>
        <time>2013-12-07T09:22:17.000Z</time>
      </trkpt>
      <trkpt lat="43.7984" lon="7.34707">
        <ele>273.79998779297</ele>
        <time>2013-12-07T09:22:20.000Z</time>
      </trkpt>
      <trkpt lat="43.79841" lon="7.34702">
        <ele>273.60000610352</ele>
        <time>2013-12-07T09:22:24.000Z</time>
      </trkpt>
      <trkpt lat="43.79839" lon="7.347">
        <ele>273</ele>
        <time>2013-12-07T09:22:26.000Z</time>
      </trkpt>
      <trkpt lat="43.79837" lon="7.347">
        <ele>272.39999389648</ele>
        <time>2013-12-07T09:22:28.000Z</time>
      </trkpt>
      <trkpt lat="43.79837" lon="7.34699">
        <ele>272</ele>
        <time>2013-12-07T09:22:29.000Z</time>
      </trkpt>
      <trkpt lat="43.79835" lon="7.34695">
        <ele>271.20001220703</ele>
        <time>2013-12-07T09:22:33.000Z</time>
      </trkpt>
      <trkpt lat="43.79831" lon="7.34694">
        <ele>270.20001220703</ele>
        <time>2013-12-07T09:22:37.000Z</time>
      </trkpt>
      <trkpt lat="43.79818" lon="7.34695">
        <ele>267.79998779297</ele>
        <time>2013-12-07T09:22:42.000Z</time>
      </trkpt>
      <trkpt lat="43.79813" lon="7.34683">
        <ele>266.60000610352</ele>
        <time>2013-12-07T09:22:45.000Z</time>
      </trkpt>
      <trkpt lat="43.79805" lon="7.34673">
        <ele>265.60000610352</ele>
        <time>2013-12-07T09:22:48.000Z</time>
      </trkpt>
      <trkpt lat="43.79801" lon="7.34662">
        <ele>265</ele>
        <time>2013-12-07T09:22:51.000Z</time>
      </trkpt>
      <trkpt lat="43.79798" lon="7.34657">
        <ele>264.39999389648</ele>
        <time>2013-12-07T09:22:52.000Z</time>
      </trkpt>
      <trkpt lat="43.79779" lon="7.34646">
        <ele>261.79998779297</ele>
        <time>2013-12-07T09:22:56.000Z</time>
      </trkpt>
      <trkpt lat="43.79767" lon="7.34655">
        <ele>260.79998779297</ele>
        <time>2013-12-07T09:22:59.000Z</time>
      </trkpt>
      <trkpt lat="43.79755" lon="7.34666">
        <ele>259.60000610352</ele>
        <time>2013-12-07T09:23:02.000Z</time>
      </trkpt>
      <trkpt lat="43.79753" lon="7.34668">
        <ele>259</ele>
        <time>2013-12-07T09:23:03.000Z</time>
      </trkpt>
      <trkpt lat="43.79749" lon="7.34671">
        <ele>258.39999389648</ele>
        <time>2013-12-07T09:23:05.000Z</time>
      </trkpt>
      <trkpt lat="43.79746" lon="7.34673">
        <ele>257.79998779297</ele>
        <time>2013-12-07T09:23:07.000Z</time>
      </trkpt>
      <trkpt lat="43.79729" lon="7.34682">
        <ele>255.80000305176</ele>
        <time>2013-12-07T09:23:15.000Z</time>
      </trkpt>
      <trkpt lat="43.79719" lon="7.34686">
        <ele>254.80000305176</ele>
        <time>2013-12-07T09:23:20.000Z</time>
      </trkpt>
      <trkpt lat="43.79705" lon="7.34695">
        <ele>253.39999389648</ele>
        <time>2013-12-07T09:23:28.000Z</time>
      </trkpt>
      <trkpt lat="43.79702" lon="7.3471">
        <ele>251.60000610352</ele>
        <time>2013-12-07T09:23:34.000Z</time>
      </trkpt>
      <trkpt lat="43.79692" lon="7.34718">
        <ele>250.60000610352</ele>
        <time>2013-12-07T09:23:40.000Z</time>
      </trkpt>
      <trkpt lat="43.7968" lon="7.34728">
        <ele>249.60000610352</ele>
        <time>2013-12-07T09:23:44.000Z</time>
      </trkpt>
      <trkpt lat="43.79668" lon="7.34743">
        <ele>248.60000610352</ele>
        <time>2013-12-07T09:23:49.000Z</time>
      </trkpt>
      <trkpt lat="43.79655" lon="7.34757">
        <ele>244</ele>
        <time>2013-12-07T09:23:53.000Z</time>
      </trkpt>
      <trkpt lat="43.79639" lon="7.3477">
        <ele>238.19999694824</ele>
        <time>2013-12-07T09:23:57.000Z</time>
      </trkpt>
      <trkpt lat="43.7963" lon="7.34774">
        <ele>235.60000610352</ele>
        <time>2013-12-07T09:23:59.000Z</time>
      </trkpt>
      <trkpt lat="43.79618" lon="7.34782">
        <ele>232.39999389648</ele>
        <time>2013-12-07T09:24:02.000Z</time>
      </trkpt>
      <trkpt lat="43.79615" lon="7.34784">
        <ele>231.39999389648</ele>
        <time>2013-12-07T09:24:03.000Z</time>
      </trkpt>
      <trkpt lat="43.79609" lon="7.34784">
        <ele>230.60000610352</ele>
        <time>2013-12-07T09:24:05.000Z</time>
      </trkpt>
      <trkpt lat="43.79605" lon="7.34785">
        <ele>229.80000305176</ele>
        <time>2013-12-07T09:24:09.000Z</time>
      </trkpt>
      <trkpt lat="43.79605" lon="7.34786">
        <ele>229.60000610352</ele>
        <time>2013-12-07T09:24:10.000Z</time>
      </trkpt>
      <trkpt lat="43.79604" lon="7.34786">
        <ele>229.39999389648</ele>
        <time>2013-12-07T09:24:14.000Z</time>
      </trkpt>
      <trkpt lat="43.79603" lon="7.34784">
        <ele>229.39999389648</ele>
        <time>2013-12-07T09:24:23.000Z</time>
      </trkpt>
      <trkpt lat="43.79598" lon="7.34788">
        <ele>228.19999694824</ele>
        <time>2013-12-07T09:24:30.000Z</time>
      </trkpt>
      <trkpt lat="43.79596" lon="7.34791">
        <ele>227.39999389648</ele>
        <time>2013-12-07T09:24:36.000Z</time>
      </trkpt>
      <trkpt lat="43.7959" lon="7.34791">
        <ele>226.60000610352</ele>
        <time>2013-12-07T09:24:42.000Z</time>
      </trkpt>
      <trkpt lat="43.79587" lon="7.34793">
        <ele>225.80000305176</ele>
        <time>2013-12-07T09:24:44.000Z</time>
      </trkpt>
      <trkpt lat="43.79587" lon="7.34799">
        <ele>225.19999694824</ele>
        <time>2013-12-07T09:24:46.000Z</time>
      </trkpt>
      <trkpt lat="43.7959" lon="7.34807">
        <ele>224.60000610352</ele>
        <time>2013-12-07T09:24:49.000Z</time>
      </trkpt>
      <trkpt lat="43.79594" lon="7.34814">
        <ele>224.39999389648</ele>
        <time>2013-12-07T09:24:51.000Z</time>
      </trkpt>
      <trkpt lat="43.796" lon="7.3483">
        <ele>222.80000305176</ele>
        <time>2013-12-07T09:24:55.000Z</time>
      </trkpt>
      <trkpt lat="43.79601" lon="7.34838">
        <ele>221.39999389648</ele>
        <time>2013-12-07T09:24:58.000Z</time>
      </trkpt>
      <trkpt lat="43.79599" lon="7.34853">
        <ele>218</ele>
        <time>2013-12-07T09:25:03.000Z</time>
      </trkpt>
      <trkpt lat="43.79598" lon="7.34856">
        <ele>217.39999389648</ele>
        <time>2013-12-07T09:25:04.000Z</time>
      </trkpt>
      <trkpt lat="43.79597" lon="7.34871">
        <ele>214.19999694824</ele>
        <time>2013-12-07T09:25:08.000Z</time>
      </trkpt>
      <trkpt lat="43.79593" lon="7.34875">
        <ele>213.19999694824</ele>
        <time>2013-12-07T09:25:10.000Z</time>
      </trkpt>
      <trkpt lat="43.79589" lon="7.34881">
        <ele>211.60000610352</ele>
        <time>2013-12-07T09:25:12.000Z</time>
      </trkpt>
      <trkpt lat="43.79579" lon="7.34908">
        <ele>205.60000610352</ele>
        <time>2013-12-07T09:25:18.000Z</time>
      </trkpt>
      <trkpt lat="43.79579" lon="7.3493">
        <ele>202.60000610352</ele>
        <time>2013-12-07T09:25:23.000Z</time>
      </trkpt>
      <trkpt lat="43.79572" lon="7.34956">
        <ele>199.80000305176</ele>
        <time>2013-12-07T09:25:27.000Z</time>
      </trkpt>
      <trkpt lat="43.7956" lon="7.34972">
        <ele>197.60000610352</ele>
        <time>2013-12-07T09:25:31.000Z</time>
      </trkpt>
      <trkpt lat="43.79558" lon="7.34974">
        <ele>197.19999694824</ele>
        <time>2013-12-07T09:25:32.000Z</time>
      </trkpt>
      <trkpt lat="43.79552" lon="7.34982">
        <ele>196</ele>
        <time>2013-12-07T09:25:35.000Z</time>
      </trkpt>
      <trkpt lat="43.79551" lon="7.34986">
        <ele>195.60000610352</ele>
        <time>2013-12-07T09:25:36.000Z</time>
      </trkpt>
      <trkpt lat="43.79547" lon="7.34996">
        <ele>194.19999694824</ele>
        <time>2013-12-07T09:25:39.000Z</time>
      </trkpt>
      <trkpt lat="43.79538" lon="7.35016">
        <ele>193</ele>
        <time>2013-12-07T09:25:45.000Z</time>
      </trkpt>
      <trkpt lat="43.79526" lon="7.35033">
        <ele>191.60000610352</ele>
        <time>2013-12-07T09:25:50.000Z</time>
      </trkpt>
      <trkpt lat="43.79524" lon="7.35045">
        <ele>191</ele>
        <time>2013-12-07T09:25:54.000Z</time>
      </trkpt>
      <trkpt lat="43.79523" lon="7.35048">
        <ele>190.80000305176</ele>
        <time>2013-12-07T09:25:58.000Z</time>
      </trkpt>
      <trkpt lat="43.79515" lon="7.3505">
        <ele>189.80000305176</ele>
        <time>2013-12-07T09:26:14.000Z</time>
      </trkpt>
      <trkpt lat="43.79512" lon="7.35053">
        <ele>189.19999694824</ele>
        <time>2013-12-07T09:26:16.000Z</time>
      </trkpt>
      <trkpt lat="43.79509" lon="7.35061">
        <ele>188.39999389648</ele>
        <time>2013-12-07T09:26:19.000Z</time>
      </trkpt>
      <trkpt lat="43.79508" lon="7.35064">
        <ele>188.19999694824</ele>
        <time>2013-12-07T09:26:20.000Z</time>
      </trkpt>
      <trkpt lat="43.79504" lon="7.35076">
        <ele>187.19999694824</ele>
        <time>2013-12-07T09:26:25.000Z</time>
      </trkpt>
      <trkpt lat="43.79503" lon="7.35077">
        <ele>186.80000305176</ele>
        <time>2013-12-07T09:26:26.000Z</time>
      </trkpt>
      <trkpt lat="43.79498" lon="7.35085">
        <ele>186.19999694824</ele>
        <time>2013-12-07T09:26:31.000Z</time>
      </trkpt>
      <trkpt lat="43.79497" lon="7.35089">
        <ele>186.39999389648</ele>
        <time>2013-12-07T09:26:36.000Z</time>
      </trkpt>
      <trkpt lat="43.79505" lon="7.35082">
        <ele>186.80000305176</ele>
        <time>2013-12-07T09:26:52.000Z</time>
      </trkpt>
      <trkpt lat="43.79515" lon="7.35067">
        <ele>189</ele>
        <time>2013-12-07T09:26:56.000Z</time>
      </trkpt>
      <trkpt lat="43.79519" lon="7.35058">
        <ele>190</ele>
        <time>2013-12-07T09:27:00.000Z</time>
      </trkpt>
      <trkpt lat="43.79527" lon="7.3504">
        <ele>191.39999389648</ele>
        <time>2013-12-07T09:27:08.000Z</time>
      </trkpt>
      <trkpt lat="43.79533" lon="7.3503">
        <ele>192.39999389648</ele>
        <time>2013-12-07T09:27:13.000Z</time>
      </trkpt>
      <trkpt lat="43.79541" lon="7.35017">
        <ele>193.19999694824</ele>
        <time>2013-12-07T09:27:20.000Z</time>
      </trkpt>
      <trkpt lat="43.79545" lon="7.35008">
        <ele>193.60000610352</ele>
        <time>2013-12-07T09:27:26.000Z</time>
      </trkpt>
      <trkpt lat="43.79544" lon="7.35006">
        <ele>193.60000610352</ele>
        <time>2013-12-07T09:27:31.000Z</time>
      </trkpt>
      <trkpt lat="43.79547" lon="7.35001">
        <ele>193.80000305176</ele>
        <time>2013-12-07T09:27:35.000Z</time>
      </trkpt>
      <trkpt lat="43.79549" lon="7.34997">
        <ele>194.19999694824</ele>
        <time>2013-12-07T09:27:37.000Z</time>
      </trkpt>
      <trkpt lat="43.79551" lon="7.34995">
        <ele>194.60000610352</ele>
        <time>2013-12-07T09:27:42.000Z</time>
      </trkpt>
      <trkpt lat="43.79553" lon="7.34987">
        <ele>195.60000610352</ele>
        <time>2013-12-07T09:27:48.000Z</time>
      </trkpt>
      <trkpt lat="43.79553" lon="7.34985">
        <ele>195.80000305176</ele>
        <time>2013-12-07T09:27:50.000Z</time>
      </trkpt>
      <trkpt lat="43.79554" lon="7.34981">
        <ele>196.19999694824</ele>
        <time>2013-12-07T09:27:54.000Z</time>
      </trkpt>
      <trkpt lat="43.79555" lon="7.3498">
        <ele>196.39999389648</ele>
        <time>2013-12-07T09:27:55.000Z</time>
      </trkpt>
      <trkpt lat="43.7956" lon="7.34974">
        <ele>197.19999694824</ele>
        <time>2013-12-07T09:28:01.000Z</time>
      </trkpt>
      <trkpt lat="43.79568" lon="7.34967">
        <ele>198.39999389648</ele>
        <time>2013-12-07T09:28:09.000Z</time>
      </trkpt>
      <trkpt lat="43.79575" lon="7.34957">
        <ele>199.80000305176</ele>
        <time>2013-12-07T09:28:16.000Z</time>
      </trkpt>
      <trkpt lat="43.79578" lon="7.3495">
        <ele>200.60000610352</ele>
        <time>2013-12-07T09:28:23.000Z</time>
      </trkpt>
      <trkpt lat="43.79579" lon="7.34946">
        <ele>201</ele>
        <time>2013-12-07T09:28:28.000Z</time>
      </trkpt>
      <trkpt lat="43.79579" lon="7.34946">
        <ele>201</ele>
        <time>2013-12-07T09:28:35.000Z</time>
      </trkpt>
      <trkpt lat="43.7958" lon="7.34938">
        <ele>201.80000305176</ele>
        <time>2013-12-07T09:28:46.000Z</time>
      </trkpt>
      <trkpt lat="43.79579" lon="7.34931">
        <ele>202.39999389648</ele>
        <time>2013-12-07T09:28:54.000Z</time>
      </trkpt>
      <trkpt lat="43.79579" lon="7.34925">
        <ele>203</ele>
        <time>2013-12-07T09:29:03.000Z</time>
      </trkpt>
      <trkpt lat="43.79581" lon="7.34919">
        <ele>203.60000610352</ele>
        <time>2013-12-07T09:29:09.000Z</time>
      </trkpt>
      <trkpt lat="43.79581" lon="7.34913">
        <ele>204.60000610352</ele>
        <time>2013-12-07T09:29:16.000Z</time>
      </trkpt>
      <trkpt lat="43.79581" lon="7.34907">
        <ele>205.80000305176</ele>
        <time>2013-12-07T09:29:23.000Z</time>
      </trkpt>
      <trkpt lat="43.7958" lon="7.34902">
        <ele>206.80000305176</ele>
        <time>2013-12-07T09:29:31.000Z</time>
      </trkpt>
      <trkpt lat="43.79583" lon="7.34899">
        <ele>207.60000610352</ele>
        <time>2013-12-07T09:29:38.000Z</time>
      </trkpt>
      <trkpt lat="43.79588" lon="7.34894">
        <ele>209</ele>
        <time>2013-12-07T09:29:45.000Z</time>
      </trkpt>
      <trkpt lat="43.79593" lon="7.34886">
        <ele>210.80000305176</ele>
        <time>2013-12-07T09:29:53.000Z</time>
      </trkpt>
      <trkpt lat="43.79597" lon="7.34878">
        <ele>213</ele>
        <time>2013-12-07T09:30:01.000Z</time>
      </trkpt>
      <trkpt lat="43.79603" lon="7.34872">
        <ele>214.60000610352</ele>
        <time>2013-12-07T09:30:07.000Z</time>
      </trkpt>
      <trkpt lat="43.79603" lon="7.3487">
        <ele>215</ele>
        <time>2013-12-07T09:30:09.000Z</time>
      </trkpt>
      <trkpt lat="43.79603" lon="7.34867">
        <ele>215.39999389648</ele>
        <time>2013-12-07T09:30:12.000Z</time>
      </trkpt>
      <trkpt lat="43.79604" lon="7.34865">
        <ele>216</ele>
        <time>2013-12-07T09:30:17.000Z</time>
      </trkpt>
      <trkpt lat="43.79606" lon="7.34865">
        <ele>216.19999694824</ele>
        <time>2013-12-07T09:30:26.000Z</time>
      </trkpt>
      <trkpt lat="43.79607" lon="7.34861">
        <ele>217.19999694824</ele>
        <time>2013-12-07T09:30:38.000Z</time>
      </trkpt>
      <trkpt lat="43.79606" lon="7.34856">
        <ele>218.19999694824</ele>
        <time>2013-12-07T09:30:46.000Z</time>
      </trkpt>
      <trkpt lat="43.79604" lon="7.34851">
        <ele>219</ele>
        <time>2013-12-07T09:30:49.000Z</time>
      </trkpt>
      <trkpt lat="43.79602" lon="7.34848">
        <ele>219.39999389648</ele>
        <time>2013-12-07T09:30:52.000Z</time>
      </trkpt>
      <trkpt lat="43.79601" lon="7.34847">
        <ele>219.60000610352</ele>
        <time>2013-12-07T09:30:53.000Z</time>
      </trkpt>
      <trkpt lat="43.79602" lon="7.34842">
        <ele>220.80000305176</ele>
        <time>2013-12-07T09:30:58.000Z</time>
      </trkpt>
      <trkpt lat="43.79603" lon="7.3484">
        <ele>221.19999694824</ele>
        <time>2013-12-07T09:30:59.000Z</time>
      </trkpt>
      <trkpt lat="43.79603" lon="7.34839">
        <ele>221.39999389648</ele>
        <time>2013-12-07T09:31:00.000Z</time>
      </trkpt>
      <trkpt lat="43.79601" lon="7.34833">
        <ele>222.39999389648</ele>
        <time>2013-12-07T09:31:04.000Z</time>
      </trkpt>
      <trkpt lat="43.79601" lon="7.34832">
        <ele>222.60000610352</ele>
        <time>2013-12-07T09:31:05.000Z</time>
      </trkpt>
      <trkpt lat="43.796" lon="7.34826">
        <ele>223.39999389648</ele>
        <time>2013-12-07T09:31:10.000Z</time>
      </trkpt>
      <trkpt lat="43.79599" lon="7.34822">
        <ele>223.80000305176</ele>
        <time>2013-12-07T09:31:14.000Z</time>
      </trkpt>
      <trkpt lat="43.79598" lon="7.34819">
        <ele>224</ele>
        <time>2013-12-07T09:31:17.000Z</time>
      </trkpt>
      <trkpt lat="43.79594" lon="7.34815">
        <ele>224.19999694824</ele>
        <time>2013-12-07T09:31:21.000Z</time>
      </trkpt>
      <trkpt lat="43.79589" lon="7.34811">
        <ele>224.19999694824</ele>
        <time>2013-12-07T09:31:28.000Z</time>
      </trkpt>
      <trkpt lat="43.79589" lon="7.34804">
        <ele>225</ele>
        <time>2013-12-07T09:31:36.000Z</time>
      </trkpt>
      <trkpt lat="43.79588" lon="7.34797">
        <ele>225.60000610352</ele>
        <time>2013-12-07T09:31:44.000Z</time>
      </trkpt>
      <trkpt lat="43.79586" lon="7.34795">
        <ele>225.60000610352</ele>
        <time>2013-12-07T09:31:53.000Z</time>
      </trkpt>
      <trkpt lat="43.79588" lon="7.34793">
        <ele>226</ele>
        <time>2013-12-07T09:32:02.000Z</time>
      </trkpt>
      <trkpt lat="43.79591" lon="7.34792">
        <ele>226.60000610352</ele>
        <time>2013-12-07T09:32:09.000Z</time>
      </trkpt>
      <trkpt lat="43.79593" lon="7.34791">
        <ele>227</ele>
        <time>2013-12-07T09:32:15.000Z</time>
      </trkpt>
      <trkpt lat="43.79595" lon="7.34788">
        <ele>227.60000610352</ele>
        <time>2013-12-07T09:32:25.000Z</time>
      </trkpt>
      <trkpt lat="43.79594" lon="7.34789">
        <ele>227.39999389648</ele>
        <time>2013-12-07T09:32:34.000Z</time>
      </trkpt>
      <trkpt lat="43.79598" lon="7.34786">
        <ele>228.39999389648</ele>
        <time>2013-12-07T09:32:39.000Z</time>
      </trkpt>
      <trkpt lat="43.79598" lon="7.34785">
        <ele>228.60000610352</ele>
        <time>2013-12-07T09:32:46.000Z</time>
      </trkpt>
      <trkpt lat="43.79606" lon="7.34784">
        <ele>230.19999694824</ele>
        <time>2013-12-07T09:32:53.000Z</time>
      </trkpt>
      <trkpt lat="43.79612" lon="7.34781">
        <ele>231.60000610352</ele>
        <time>2013-12-07T09:32:58.000Z</time>
      </trkpt>
      <trkpt lat="43.79615" lon="7.34779">
        <ele>232.19999694824</ele>
        <time>2013-12-07T09:33:00.000Z</time>
      </trkpt>
      <trkpt lat="43.79619" lon="7.34776">
        <ele>233.39999389648</ele>
        <time>2013-12-07T09:33:04.000Z</time>
      </trkpt>
      <trkpt lat="43.79621" lon="7.34774">
        <ele>234.19999694824</ele>
        <time>2013-12-07T09:33:07.000Z</time>
      </trkpt>
      <trkpt lat="43.79626" lon="7.34771">
        <ele>235.39999389648</ele>
        <time>2013-12-07T09:33:13.000Z</time>
      </trkpt>
      <trkpt lat="43.79628" lon="7.34771">
        <ele>235.80000305176</ele>
        <time>2013-12-07T09:33:15.000Z</time>
      </trkpt>
      <trkpt lat="43.7963" lon="7.3477">
        <ele>236.39999389648</ele>
        <time>2013-12-07T09:33:17.000Z</time>
      </trkpt>
      <trkpt lat="43.79632" lon="7.34769">
        <ele>236.80000305176</ele>
        <time>2013-12-07T09:33:19.000Z</time>
      </trkpt>
      <trkpt lat="43.79638" lon="7.34768">
        <ele>238.39999389648</ele>
        <time>2013-12-07T09:33:26.000Z</time>
      </trkpt>
      <trkpt lat="43.79641" lon="7.34766">
        <ele>239.39999389648</ele>
        <time>2013-12-07T09:33:31.000Z</time>
      </trkpt>
      <trkpt lat="43.79644" lon="7.34765">
        <ele>240</ele>
        <time>2013-12-07T09:33:34.000Z</time>
      </trkpt>
      <trkpt lat="43.79646" lon="7.34763">
        <ele>241</ele>
        <time>2013-12-07T09:33:38.000Z</time>
      </trkpt>
      <trkpt lat="43.79647" lon="7.34762">
        <ele>241.19999694824</ele>
        <time>2013-12-07T09:33:39.000Z</time>
      </trkpt>
      <trkpt lat="43.79653" lon="7.34758">
        <ele>243.19999694824</ele>
        <time>2013-12-07T09:33:47.000Z</time>
      </trkpt>
      <trkpt lat="43.7966" lon="7.34754">
        <ele>245.60000610352</ele>
        <time>2013-12-07T09:33:55.000Z</time>
      </trkpt>
      <trkpt lat="43.79664" lon="7.34751">
        <ele>247</ele>
        <time>2013-12-07T09:34:02.000Z</time>
      </trkpt>
      <trkpt lat="43.79668" lon="7.34747">
        <ele>248.19999694824</ele>
        <time>2013-12-07T09:34:10.000Z</time>
      </trkpt>
      <trkpt lat="43.7967" lon="7.34741">
        <ele>248.60000610352</ele>
        <time>2013-12-07T09:34:18.000Z</time>
      </trkpt>
      <trkpt lat="43.79675" lon="7.34735">
        <ele>249</ele>
        <time>2013-12-07T09:34:27.000Z</time>
      </trkpt>
      <trkpt lat="43.7968" lon="7.34733">
        <ele>249.19999694824</ele>
        <time>2013-12-07T09:34:34.000Z</time>
      </trkpt>
      <trkpt lat="43.79685" lon="7.34725">
        <ele>250</ele>
        <time>2013-12-07T09:34:41.000Z</time>
      </trkpt>
      <trkpt lat="43.79686" lon="7.34721">
        <ele>250.39999389648</ele>
        <time>2013-12-07T09:34:48.000Z</time>
      </trkpt>
      <trkpt lat="43.79688" lon="7.3472">
        <ele>250.39999389648</ele>
        <time>2013-12-07T09:35:05.000Z</time>
      </trkpt>
      <trkpt lat="43.79688" lon="7.34719">
        <ele>250.60000610352</ele>
        <time>2013-12-07T09:35:06.000Z</time>
      </trkpt>
      <trkpt lat="43.79692" lon="7.34708">
        <ele>251.60000610352</ele>
        <time>2013-12-07T09:35:11.000Z</time>
      </trkpt>
      <trkpt lat="43.79691" lon="7.34705">
        <ele>252</ele>
        <time>2013-12-07T09:35:12.000Z</time>
      </trkpt>
      <trkpt lat="43.79692" lon="7.34695">
        <ele>253</ele>
        <time>2013-12-07T09:35:16.000Z</time>
      </trkpt>
      <trkpt lat="43.79696" lon="7.34682">
        <ele>254.80000305176</ele>
        <time>2013-12-07T09:35:21.000Z</time>
      </trkpt>
      <trkpt lat="43.79699" lon="7.34669">
        <ele>256.39999389648</ele>
        <time>2013-12-07T09:35:27.000Z</time>
      </trkpt>
      <trkpt lat="43.79699" lon="7.34667">
        <ele>256.60000610352</ele>
        <time>2013-12-07T09:35:28.000Z</time>
      </trkpt>
      <trkpt lat="43.79699" lon="7.34664">
        <ele>256.39999389648</ele>
        <time>2013-12-07T09:35:31.000Z</time>
      </trkpt>
      <trkpt lat="43.79699" lon="7.34656">
        <ele>256</ele>
        <time>2013-12-07T09:35:46.000Z</time>
      </trkpt>
      <trkpt lat="43.79703" lon="7.34642">
        <ele>255.60000610352</ele>
        <time>2013-12-07T09:35:49.000Z</time>
      </trkpt>
      <trkpt lat="43.79712" lon="7.34615">
        <ele>254.80000305176</ele>
        <time>2013-12-07T09:35:54.000Z</time>
      </trkpt>
      <trkpt lat="43.79716" lon="7.34595">
        <ele>254.19999694824</ele>
        <time>2013-12-07T09:35:58.000Z</time>
      </trkpt>
      <trkpt lat="43.7971" lon="7.3458">
        <ele>253</ele>
        <time>2013-12-07T09:36:01.000Z</time>
      </trkpt>
      <trkpt lat="43.79709" lon="7.34574">
        <ele>252.60000610352</ele>
        <time>2013-12-07T09:36:02.000Z</time>
      </trkpt>
      <trkpt lat="43.79703" lon="7.34547">
        <ele>250.80000305176</ele>
        <time>2013-12-07T09:36:06.000Z</time>
      </trkpt>
      <trkpt lat="43.79701" lon="7.3454">
        <ele>250.19999694824</ele>
        <time>2013-12-07T09:36:07.000Z</time>
      </trkpt>
      <trkpt lat="43.79698" lon="7.34525">
        <ele>249.39999389648</ele>
        <time>2013-12-07T09:36:09.000Z</time>
      </trkpt>
      <trkpt lat="43.79696" lon="7.34518">
        <ele>249</ele>
        <time>2013-12-07T09:36:10.000Z</time>
      </trkpt>
      <trkpt lat="43.79691" lon="7.34508">
        <ele>248.60000610352</ele>
        <time>2013-12-07T09:36:12.000Z</time>
      </trkpt>
      <trkpt lat="43.79688" lon="7.34506">
        <ele>248.39999389648</ele>
        <time>2013-12-07T09:36:13.000Z</time>
      </trkpt>
      <trkpt lat="43.79684" lon="7.34491">
        <ele>248.39999389648</ele>
        <time>2013-12-07T09:36:17.000Z</time>
      </trkpt>
      <trkpt lat="43.79687" lon="7.3448">
        <ele>248.60000610352</ele>
        <time>2013-12-07T09:36:20.000Z</time>
      </trkpt>
      <trkpt lat="43.79688" lon="7.34477">
        <ele>248.60000610352</ele>
        <time>2013-12-07T09:36:21.000Z</time>
      </trkpt>
      <trkpt lat="43.79689" lon="7.34461">
        <ele>248.60000610352</ele>
        <time>2013-12-07T09:36:26.000Z</time>
      </trkpt>
      <trkpt lat="43.79689" lon="7.34452">
        <ele>248.60000610352</ele>
        <time>2013-12-07T09:36:32.000Z</time>
      </trkpt>
      <trkpt lat="43.79688" lon="7.34444">
        <ele>248.80000305176</ele>
        <time>2013-12-07T09:36:49.000Z</time>
      </trkpt>
      <trkpt lat="43.79694" lon="7.3443">
        <ele>248.39999389648</ele>
        <time>2013-12-07T09:36:53.000Z</time>
      </trkpt>
      <trkpt lat="43.79708" lon="7.34411">
        <ele>246.60000610352</ele>
        <time>2013-12-07T09:36:57.000Z</time>
      </trkpt>
      <trkpt lat="43.79717" lon="7.34382">
        <ele>245</ele>
        <time>2013-12-07T09:37:01.000Z</time>
      </trkpt>
      <trkpt lat="43.7972" lon="7.34369">
        <ele>244.39999389648</ele>
        <time>2013-12-07T09:37:04.000Z</time>
      </trkpt>
      <trkpt lat="43.79737" lon="7.34355">
        <ele>241.60000610352</ele>
        <time>2013-12-07T09:37:08.000Z</time>
      </trkpt>
      <trkpt lat="43.79745" lon="7.34345">
        <ele>240</ele>
        <time>2013-12-07T09:37:10.000Z</time>
      </trkpt>
      <trkpt lat="43.79756" lon="7.34334">
        <ele>239.19999694824</ele>
        <time>2013-12-07T09:37:13.000Z</time>
      </trkpt>
      <trkpt lat="43.7976" lon="7.34322">
        <ele>239</ele>
        <time>2013-12-07T09:37:16.000Z</time>
      </trkpt>
      <trkpt lat="43.7976" lon="7.34315">
        <ele>238.80000305176</ele>
        <time>2013-12-07T09:37:17.000Z</time>
      </trkpt>
      <trkpt lat="43.7976" lon="7.34306">
        <ele>238.60000610352</ele>
        <time>2013-12-07T09:37:18.000Z</time>
      </trkpt>
      <trkpt lat="43.7976" lon="7.34297">
        <ele>238.39999389648</ele>
        <time>2013-12-07T09:37:19.000Z</time>
      </trkpt>
      <trkpt lat="43.79763" lon="7.34266">
        <ele>237.80000305176</ele>
        <time>2013-12-07T09:37:23.000Z</time>
      </trkpt>
      <trkpt lat="43.79764" lon="7.3426">
        <ele>237.60000610352</ele>
        <time>2013-12-07T09:37:24.000Z</time>
      </trkpt>
      <trkpt lat="43.79766" lon="7.34242">
        <ele>237</ele>
        <time>2013-12-07T09:37:28.000Z</time>
      </trkpt>
      <trkpt lat="43.79766" lon="7.34239">
        <ele>237</ele>
        <time>2013-12-07T09:37:29.000Z</time>
      </trkpt>
      <trkpt lat="43.79767" lon="7.34238">
        <ele>236.80000305176</ele>
        <time>2013-12-07T09:37:33.000Z</time>
      </trkpt>
      <trkpt lat="43.79765" lon="7.34237">
        <ele>237</ele>
        <time>2013-12-07T09:38:03.000Z</time>
      </trkpt>
      <trkpt lat="43.79762" lon="7.34238">
        <ele>237</ele>
        <time>2013-12-07T09:38:08.000Z</time>
      </trkpt>
      <trkpt lat="43.79757" lon="7.34243">
        <ele>237.39999389648</ele>
        <time>2013-12-07T09:38:17.000Z</time>
      </trkpt>
      <trkpt lat="43.79751" lon="7.34243">
        <ele>237.60000610352</ele>
        <time>2013-12-07T09:38:26.000Z</time>
      </trkpt>
      <trkpt lat="43.79744" lon="7.34245">
        <ele>238.60000610352</ele>
        <time>2013-12-07T09:38:34.000Z</time>
      </trkpt>
      <trkpt lat="43.79742" lon="7.34245">
        <ele>239</ele>
        <time>2013-12-07T09:38:39.000Z</time>
      </trkpt>
      <trkpt lat="43.79737" lon="7.34245">
        <ele>239.60000610352</ele>
        <time>2013-12-07T09:38:47.000Z</time>
      </trkpt>
      <trkpt lat="43.79732" lon="7.34243">
        <ele>240.19999694824</ele>
        <time>2013-12-07T09:38:55.000Z</time>
      </trkpt>
      <trkpt lat="43.79725" lon="7.34243">
        <ele>241.19999694824</ele>
        <time>2013-12-07T09:39:03.000Z</time>
      </trkpt>
      <trkpt lat="43.7972" lon="7.34246">
        <ele>242</ele>
        <time>2013-12-07T09:39:10.000Z</time>
      </trkpt>
      <trkpt lat="43.79714" lon="7.34245">
        <ele>242.80000305176</ele>
        <time>2013-12-07T09:39:18.000Z</time>
      </trkpt>
      <trkpt lat="43.79713" lon="7.34245">
        <ele>242.80000305176</ele>
        <time>2013-12-07T09:39:24.000Z</time>
      </trkpt>
      <trkpt lat="43.79712" lon="7.34244">
        <ele>243</ele>
        <time>2013-12-07T09:39:34.000Z</time>
      </trkpt>
      <trkpt lat="43.79715" lon="7.34244">
        <ele>242.60000610352</ele>
        <time>2013-12-07T09:39:38.000Z</time>
      </trkpt>
      <trkpt lat="43.79727" lon="7.34244">
        <ele>240.80000305176</ele>
        <time>2013-12-07T09:39:43.000Z</time>
      </trkpt>
      <trkpt lat="43.79744" lon="7.34244">
        <ele>238.60000610352</ele>
        <time>2013-12-07T09:39:47.000Z</time>
      </trkpt>
      <trkpt lat="43.79755" lon="7.34243">
        <ele>237.60000610352</ele>
        <time>2013-12-07T09:39:51.000Z</time>
      </trkpt>
      <trkpt lat="43.79762" lon="7.34229">
        <ele>236.60000610352</ele>
        <time>2013-12-07T09:39:56.000Z</time>
      </trkpt>
      <trkpt lat="43.79773" lon="7.34205">
        <ele>235.19999694824</ele>
        <time>2013-12-07T09:40:00.000Z</time>
      </trkpt>
      <trkpt lat="43.79784" lon="7.34188">
        <ele>234.39999389648</ele>
        <time>2013-12-07T09:40:04.000Z</time>
      </trkpt>
      <trkpt lat="43.79799" lon="7.34182">
        <ele>234</ele>
        <time>2013-12-07T09:40:08.000Z</time>
      </trkpt>
      <trkpt lat="43.79814" lon="7.34171">
        <ele>233.39999389648</ele>
        <time>2013-12-07T09:40:12.000Z</time>
      </trkpt>
      <trkpt lat="43.79818" lon="7.34145">
        <ele>232.60000610352</ele>
        <time>2013-12-07T09:40:15.000Z</time>
      </trkpt>
      <trkpt lat="43.79817" lon="7.34123">
        <ele>232</ele>
        <time>2013-12-07T09:40:18.000Z</time>
      </trkpt>
      <trkpt lat="43.79817" lon="7.34117">
        <ele>231.80000305176</ele>
        <time>2013-12-07T09:40:19.000Z</time>
      </trkpt>
      <trkpt lat="43.79816" lon="7.34102">
        <ele>231.19999694824</ele>
        <time>2013-12-07T09:40:22.000Z</time>
      </trkpt>
      <trkpt lat="43.79815" lon="7.34089">
        <ele>230.60000610352</ele>
        <time>2013-12-07T09:40:26.000Z</time>
      </trkpt>
      <trkpt lat="43.79815" lon="7.34083">
        <ele>230.39999389648</ele>
        <time>2013-12-07T09:40:28.000Z</time>
      </trkpt>
      <trkpt lat="43.79809" lon="7.34062">
        <ele>228.80000305176</ele>
        <time>2013-12-07T09:40:33.000Z</time>
      </trkpt>
      <trkpt lat="43.79797" lon="7.34041">
        <ele>225.60000610352</ele>
        <time>2013-12-07T09:40:38.000Z</time>
      </trkpt>
      <trkpt lat="43.79778" lon="7.34018">
        <ele>219.60000610352</ele>
        <time>2013-12-07T09:40:45.000Z</time>
      </trkpt>
      <trkpt lat="43.79776" lon="7.34004">
        <ele>218</ele>
        <time>2013-12-07T09:40:49.000Z</time>
      </trkpt>
      <trkpt lat="43.7978" lon="7.33994">
        <ele>218</ele>
        <time>2013-12-07T09:40:52.000Z</time>
      </trkpt>
      <trkpt lat="43.79782" lon="7.33993">
        <ele>218.39999389648</ele>
        <time>2013-12-07T09:40:53.000Z</time>
      </trkpt>
      <trkpt lat="43.79792" lon="7.33996">
        <ele>222</ele>
        <time>2013-12-07T09:40:57.000Z</time>
      </trkpt>
      <trkpt lat="43.79806" lon="7.33993">
        <ele>226</ele>
        <time>2013-12-07T09:41:01.000Z</time>
      </trkpt>
      <trkpt lat="43.79821" lon="7.33979">
        <ele>228</ele>
        <time>2013-12-07T09:41:05.000Z</time>
      </trkpt>
      <trkpt lat="43.79832" lon="7.33975">
        <ele>230.60000610352</ele>
        <time>2013-12-07T09:41:09.000Z</time>
      </trkpt>
      <trkpt lat="43.79846" lon="7.33978">
        <ele>230.39999389648</ele>
        <time>2013-12-07T09:41:14.000Z</time>
      </trkpt>
      <trkpt lat="43.79856" lon="7.3398">
        <ele>229.60000610352</ele>
        <time>2013-12-07T09:41:18.000Z</time>
      </trkpt>
      <trkpt lat="43.79859" lon="7.33977">
        <ele>229</ele>
        <time>2013-12-07T09:41:19.000Z</time>
      </trkpt>
      <trkpt lat="43.79872" lon="7.33967">
        <ele>226</ele>
        <time>2013-12-07T09:41:23.000Z</time>
      </trkpt>
      <trkpt lat="43.7989" lon="7.33963">
        <ele>223.60000610352</ele>
        <time>2013-12-07T09:41:27.000Z</time>
      </trkpt>
      <trkpt lat="43.79896" lon="7.33958">
        <ele>221.80000305176</ele>
        <time>2013-12-07T09:41:30.000Z</time>
      </trkpt>
      <trkpt lat="43.79899" lon="7.33954">
        <ele>220.80000305176</ele>
        <time>2013-12-07T09:41:32.000Z</time>
      </trkpt>
      <trkpt lat="43.799" lon="7.33952">
        <ele>220.19999694824</ele>
        <time>2013-12-07T09:41:35.000Z</time>
      </trkpt>
      <trkpt lat="43.79912" lon="7.33952">
        <ele>219.19999694824</ele>
        <time>2013-12-07T09:42:01.000Z</time>
      </trkpt>
      <trkpt lat="43.79928" lon="7.33954">
        <ele>218.39999389648</ele>
        <time>2013-12-07T09:42:06.000Z</time>
      </trkpt>
      <trkpt lat="43.7994" lon="7.33955">
        <ele>217.60000610352</ele>
        <time>2013-12-07T09:42:11.000Z</time>
      </trkpt>
      <trkpt lat="43.79943" lon="7.33954">
        <ele>217.19999694824</ele>
        <time>2013-12-07T09:42:13.000Z</time>
      </trkpt>
      <trkpt lat="43.79946" lon="7.33952">
        <ele>216.80000305176</ele>
        <time>2013-12-07T09:42:15.000Z</time>
      </trkpt>
      <trkpt lat="43.79946" lon="7.3395">
        <ele>216.39999389648</ele>
        <time>2013-12-07T09:42:16.000Z</time>
      </trkpt>
      <trkpt lat="43.79945" lon="7.33946">
        <ele>215.80000305176</ele>
        <time>2013-12-07T09:42:20.000Z</time>
      </trkpt>
      <trkpt lat="43.79944" lon="7.33942">
        <ele>215.39999389648</ele>
        <time>2013-12-07T09:42:22.000Z</time>
      </trkpt>
      <trkpt lat="43.79943" lon="7.33941">
        <ele>215.19999694824</ele>
        <time>2013-12-07T09:42:23.000Z</time>
      </trkpt>
      <trkpt lat="43.79943" lon="7.33941">
        <ele>215.19999694824</ele>
        <time>2013-12-07T09:42:25.000Z</time>
      </trkpt>
      <trkpt lat="43.79942" lon="7.33936">
        <ele>214.39999389648</ele>
        <time>2013-12-07T09:42:29.000Z</time>
      </trkpt>
      <trkpt lat="43.79943" lon="7.33934">
        <ele>214</ele>
        <time>2013-12-07T09:42:31.000Z</time>
      </trkpt>
      <trkpt lat="43.79944" lon="7.33933">
        <ele>213.80000305176</ele>
        <time>2013-12-07T09:42:34.000Z</time>
      </trkpt>
      <trkpt lat="43.79945" lon="7.33929">
        <ele>213.19999694824</ele>
        <time>2013-12-07T09:42:36.000Z</time>
      </trkpt>
      <trkpt lat="43.7995" lon="7.33924">
        <ele>212.60000610352</ele>
        <time>2013-12-07T09:42:38.000Z</time>
      </trkpt>
      <trkpt lat="43.79958" lon="7.3392">
        <ele>212</ele>
        <time>2013-12-07T09:42:40.000Z</time>
      </trkpt>
      <trkpt lat="43.79972" lon="7.33915">
        <ele>211.80000305176</ele>
        <time>2013-12-07T09:42:44.000Z</time>
      </trkpt>
      <trkpt lat="43.79984" lon="7.33913">
        <ele>212.19999694824</ele>
        <time>2013-12-07T09:42:49.000Z</time>
      </trkpt>
      <trkpt lat="43.79988" lon="7.33911">
        <ele>212.39999389648</ele>
        <time>2013-12-07T09:42:51.000Z</time>
      </trkpt>
      <trkpt lat="43.79992" lon="7.33905">
        <ele>213.19999694824</ele>
        <time>2013-12-07T09:42:53.000Z</time>
      </trkpt>
      <trkpt lat="43.79988" lon="7.33897">
        <ele>213.80000305176</ele>
        <time>2013-12-07T09:42:56.000Z</time>
      </trkpt>
      <trkpt lat="43.79974" lon="7.3388">
        <ele>214</ele>
        <time>2013-12-07T09:42:59.000Z</time>
      </trkpt>
      <trkpt lat="43.7997" lon="7.33857">
        <ele>214.80000305176</ele>
        <time>2013-12-07T09:43:02.000Z</time>
      </trkpt>
      <trkpt lat="43.79968" lon="7.33842">
        <ele>215</ele>
        <time>2013-12-07T09:43:04.000Z</time>
      </trkpt>
      <trkpt lat="43.79966" lon="7.33827">
        <ele>216</ele>
        <time>2013-12-07T09:43:06.000Z</time>
      </trkpt>
      <trkpt lat="43.79965" lon="7.33822">
        <ele>216.39999389648</ele>
        <time>2013-12-07T09:43:07.000Z</time>
      </trkpt>
      <trkpt lat="43.7996" lon="7.33814">
        <ele>217</ele>
        <time>2013-12-07T09:43:10.000Z</time>
      </trkpt>
      <trkpt lat="43.7996" lon="7.33811">
        <ele>217.39999389648</ele>
        <time>2013-12-07T09:43:11.000Z</time>
      </trkpt>
      <trkpt lat="43.79954" lon="7.33795">
        <ele>219</ele>
        <time>2013-12-07T09:43:18.000Z</time>
      </trkpt>
      <trkpt lat="43.79948" lon="7.3378">
        <ele>220</ele>
        <time>2013-12-07T09:43:25.000Z</time>
      </trkpt>
      <trkpt lat="43.79939" lon="7.33774">
        <ele>219</ele>
        <time>2013-12-07T09:43:31.000Z</time>
      </trkpt>
      <trkpt lat="43.79935" lon="7.33772">
        <ele>218.39999389648</ele>
        <time>2013-12-07T09:43:33.000Z</time>
      </trkpt>
      <trkpt lat="43.79933" lon="7.33765">
        <ele>219.19999694824</ele>
        <time>2013-12-07T09:43:36.000Z</time>
      </trkpt>
      <trkpt lat="43.79928" lon="7.33755">
        <ele>220</ele>
        <time>2013-12-07T09:43:42.000Z</time>
      </trkpt>
      <trkpt lat="43.79927" lon="7.33751">
        <ele>220.39999389648</ele>
        <time>2013-12-07T09:43:44.000Z</time>
      </trkpt>
      <trkpt lat="43.79924" lon="7.33739">
        <ele>221.60000610352</ele>
        <time>2013-12-07T09:43:50.000Z</time>
      </trkpt>
      <trkpt lat="43.79924" lon="7.33738">
        <ele>221.80000305176</ele>
        <time>2013-12-07T09:43:51.000Z</time>
      </trkpt>
      <trkpt lat="43.79924" lon="7.33734">
        <ele>222.39999389648</ele>
        <time>2013-12-07T09:43:54.000Z</time>
      </trkpt>
      <trkpt lat="43.79923" lon="7.33731">
        <ele>222.80000305176</ele>
        <time>2013-12-07T09:43:55.000Z</time>
      </trkpt>
      <trkpt lat="43.79923" lon="7.3373">
        <ele>223</ele>
        <time>2013-12-07T09:43:56.000Z</time>
      </trkpt>
      <trkpt lat="43.79924" lon="7.33728">
        <ele>223.60000610352</ele>
        <time>2013-12-07T09:43:59.000Z</time>
      </trkpt>
      <trkpt lat="43.79927" lon="7.33719">
        <ele>225.60000610352</ele>
        <time>2013-12-07T09:44:07.000Z</time>
      </trkpt>
      <trkpt lat="43.79927" lon="7.33718">
        <ele>225.80000305176</ele>
        <time>2013-12-07T09:44:08.000Z</time>
      </trkpt>
      <trkpt lat="43.79927" lon="7.33711">
        <ele>227</ele>
        <time>2013-12-07T09:44:13.000Z</time>
      </trkpt>
      <trkpt lat="43.79927" lon="7.337">
        <ele>228.80000305176</ele>
        <time>2013-12-07T09:44:21.000Z</time>
      </trkpt>
      <trkpt lat="43.79928" lon="7.33698">
        <ele>229.39999389648</ele>
        <time>2013-12-07T09:44:23.000Z</time>
      </trkpt>
      <trkpt lat="43.7993" lon="7.33695">
        <ele>230.19999694824</ele>
        <time>2013-12-07T09:44:27.000Z</time>
      </trkpt>
      <trkpt lat="43.79931" lon="7.33693">
        <ele>230.60000610352</ele>
        <time>2013-12-07T09:44:28.000Z</time>
      </trkpt>
      <trkpt lat="43.79939" lon="7.33686">
        <ele>233</ele>
        <time>2013-12-07T09:44:33.000Z</time>
      </trkpt>
      <trkpt lat="43.79944" lon="7.33678">
        <ele>235</ele>
        <time>2013-12-07T09:44:38.000Z</time>
      </trkpt>
      <trkpt lat="43.79947" lon="7.33674">
        <ele>236</ele>
        <time>2013-12-07T09:44:44.000Z</time>
      </trkpt>
      <trkpt lat="43.79947" lon="7.33673">
        <ele>236</ele>
        <time>2013-12-07T09:44:45.000Z</time>
      </trkpt>
      <trkpt lat="43.79948" lon="7.33664">
        <ele>237.60000610352</ele>
        <time>2013-12-07T09:46:46.000Z</time>
      </trkpt>
      <trkpt lat="43.79952" lon="7.33654">
        <ele>240</ele>
        <time>2013-12-07T09:46:51.000Z</time>
      </trkpt>
      <trkpt lat="43.79951" lon="7.33652">
        <ele>240.39999389648</ele>
        <time>2013-12-07T09:46:52.000Z</time>
      </trkpt>
      <trkpt lat="43.79951" lon="7.33649">
        <ele>240.80000305176</ele>
        <time>2013-12-07T09:46:54.000Z</time>
      </trkpt>
      <trkpt lat="43.79949" lon="7.33646">
        <ele>241.39999389648</ele>
        <time>2013-12-07T09:46:56.000Z</time>
      </trkpt>
      <trkpt lat="43.79952" lon="7.33635">
        <ele>243.80000305176</ele>
        <time>2013-12-07T09:47:01.000Z</time>
      </trkpt>
      <trkpt lat="43.79955" lon="7.33627">
        <ele>245.39999389648</ele>
        <time>2013-12-07T09:47:05.000Z</time>
      </trkpt>
      <trkpt lat="43.79961" lon="7.3362">
        <ele>247</ele>
        <time>2013-12-07T09:47:10.000Z</time>
      </trkpt>
      <trkpt lat="43.79966" lon="7.33617">
        <ele>247.80000305176</ele>
        <time>2013-12-07T09:47:13.000Z</time>
      </trkpt>
      <trkpt lat="43.79969" lon="7.33615">
        <ele>248.19999694824</ele>
        <time>2013-12-07T09:47:16.000Z</time>
      </trkpt>
      <trkpt lat="43.79972" lon="7.33614">
        <ele>248.60000610352</ele>
        <time>2013-12-07T09:47:24.000Z</time>
      </trkpt>
      <trkpt lat="43.79979" lon="7.33614">
        <ele>248.80000305176</ele>
        <time>2013-12-07T09:47:30.000Z</time>
      </trkpt>
      <trkpt lat="43.79986" lon="7.3361">
        <ele>249.60000610352</ele>
        <time>2013-12-07T09:47:35.000Z</time>
      </trkpt>
      <trkpt lat="43.7999" lon="7.33607">
        <ele>250</ele>
        <time>2013-12-07T09:47:38.000Z</time>
      </trkpt>
      <trkpt lat="43.7999" lon="7.33602">
        <ele>250.80000305176</ele>
        <time>2013-12-07T09:47:40.000Z</time>
      </trkpt>
      <trkpt lat="43.7999" lon="7.3359">
        <ele>252.39999389648</ele>
        <time>2013-12-07T09:47:46.000Z</time>
      </trkpt>
      <trkpt lat="43.79992" lon="7.3358">
        <ele>253.39999389648</ele>
        <time>2013-12-07T09:47:51.000Z</time>
      </trkpt>
      <trkpt lat="43.79993" lon="7.33579">
        <ele>253.60000610352</ele>
        <time>2013-12-07T09:47:52.000Z</time>
      </trkpt>
      <trkpt lat="43.79996" lon="7.3357">
        <ele>254.60000610352</ele>
        <time>2013-12-07T09:47:57.000Z</time>
      </trkpt>
      <trkpt lat="43.79997" lon="7.33569">
        <ele>254.80000305176</ele>
        <time>2013-12-07T09:47:58.000Z</time>
      </trkpt>
      <trkpt lat="43.79999" lon="7.33567">
        <ele>255</ele>
        <time>2013-12-07T09:48:02.000Z</time>
      </trkpt>
      <trkpt lat="43.8" lon="7.33565">
        <ele>255.19999694824</ele>
        <time>2013-12-07T09:48:04.000Z</time>
      </trkpt>
      <trkpt lat="43.80001" lon="7.33561">
        <ele>255.80000305176</ele>
        <time>2013-12-07T09:48:07.000Z</time>
      </trkpt>
      <trkpt lat="43.80001" lon="7.3356">
        <ele>255.80000305176</ele>
        <time>2013-12-07T09:48:08.000Z</time>
      </trkpt>
      <trkpt lat="43.80001" lon="7.33559">
        <ele>256</ele>
        <time>2013-12-07T09:48:10.000Z</time>
      </trkpt>
      <trkpt lat="43.80001" lon="7.33556">
        <ele>256.20001220703</ele>
        <time>2013-12-07T09:48:12.000Z</time>
      </trkpt>
      <trkpt lat="43.8" lon="7.33553">
        <ele>256.60000610352</ele>
        <time>2013-12-07T09:48:17.000Z</time>
      </trkpt>
      <trkpt lat="43.8" lon="7.33549">
        <ele>257.20001220703</ele>
        <time>2013-12-07T09:48:23.000Z</time>
      </trkpt>
      <trkpt lat="43.80005" lon="7.33546">
        <ele>257.60000610352</ele>
        <time>2013-12-07T09:48:29.000Z</time>
      </trkpt>
      <trkpt lat="43.80009" lon="7.33544">
        <ele>258.20001220703</ele>
        <time>2013-12-07T09:48:35.000Z</time>
      </trkpt>
      <trkpt lat="43.8001" lon="7.33538">
        <ele>258.79998779297</ele>
        <time>2013-12-07T09:48:43.000Z</time>
      </trkpt>
      <trkpt lat="43.80011" lon="7.33535">
        <ele>259.20001220703</ele>
        <time>2013-12-07T09:48:45.000Z</time>
      </trkpt>
      <trkpt lat="43.80014" lon="7.3353">
        <ele>259.60000610352</ele>
        <time>2013-12-07T09:48:48.000Z</time>
      </trkpt>
      <trkpt lat="43.8002" lon="7.33525">
        <ele>260.20001220703</ele>
        <time>2013-12-07T09:48:53.000Z</time>
      </trkpt>
      <trkpt lat="43.80022" lon="7.33524">
        <ele>260.39999389648</ele>
        <time>2013-12-07T09:48:54.000Z</time>
      </trkpt>
      <trkpt lat="43.80033" lon="7.33518">
        <ele>261</ele>
        <time>2013-12-07T09:49:01.000Z</time>
      </trkpt>
      <trkpt lat="43.8005" lon="7.33508">
        <ele>261.39999389648</ele>
        <time>2013-12-07T09:49:10.000Z</time>
      </trkpt>
      <trkpt lat="43.8006" lon="7.335">
        <ele>261.60000610352</ele>
        <time>2013-12-07T09:49:16.000Z</time>
      </trkpt>
      <trkpt lat="43.80077" lon="7.33487">
        <ele>260.39999389648</ele>
        <time>2013-12-07T09:49:25.000Z</time>
      </trkpt>
      <trkpt lat="43.80088" lon="7.3348">
        <ele>260.20001220703</ele>
        <time>2013-12-07T09:49:33.000Z</time>
      </trkpt>
      <trkpt lat="43.80089" lon="7.3348">
        <ele>260.39999389648</ele>
        <time>2013-12-07T09:49:34.000Z</time>
      </trkpt>
      <trkpt lat="43.80098" lon="7.33481">
        <ele>261</ele>
        <time>2013-12-07T09:49:38.000Z</time>
      </trkpt>
      <trkpt lat="43.80107" lon="7.33488">
        <ele>262.39999389648</ele>
        <time>2013-12-07T09:49:44.000Z</time>
      </trkpt>
      <trkpt lat="43.80118" lon="7.33496">
        <ele>264</ele>
        <time>2013-12-07T09:49:51.000Z</time>
      </trkpt>
      <trkpt lat="43.80131" lon="7.33494">
        <ele>265</ele>
        <time>2013-12-07T09:49:58.000Z</time>
      </trkpt>
      <trkpt lat="43.80143" lon="7.33487">
        <ele>265.39999389648</ele>
        <time>2013-12-07T09:50:06.000Z</time>
      </trkpt>
      <trkpt lat="43.80156" lon="7.33481">
        <ele>265.79998779297</ele>
        <time>2013-12-07T09:50:14.000Z</time>
      </trkpt>
      <trkpt lat="43.80166" lon="7.33483">
        <ele>266.79998779297</ele>
        <time>2013-12-07T09:50:21.000Z</time>
      </trkpt>
      <trkpt lat="43.80177" lon="7.33486">
        <ele>267.60000610352</ele>
        <time>2013-12-07T09:50:28.000Z</time>
      </trkpt>
      <trkpt lat="43.80192" lon="7.33487">
        <ele>267.79998779297</ele>
        <time>2013-12-07T09:50:36.000Z</time>
      </trkpt>
      <trkpt lat="43.80208" lon="7.33495">
        <ele>269.20001220703</ele>
        <time>2013-12-07T09:50:42.000Z</time>
      </trkpt>
      <trkpt lat="43.80225" lon="7.33502">
        <ele>270.60000610352</ele>
        <time>2013-12-07T09:50:48.000Z</time>
      </trkpt>
      <trkpt lat="43.80245" lon="7.33501">
        <ele>271</ele>
        <time>2013-12-07T09:50:55.000Z</time>
      </trkpt>
      <trkpt lat="43.8026" lon="7.33499">
        <ele>269.79998779297</ele>
        <time>2013-12-07T09:51:01.000Z</time>
      </trkpt>
      <trkpt lat="43.80269" lon="7.33504">
        <ele>269.20001220703</ele>
        <time>2013-12-07T09:51:06.000Z</time>
      </trkpt>
      <trkpt lat="43.80281" lon="7.33511">
        <ele>268.60000610352</ele>
        <time>2013-12-07T09:51:11.000Z</time>
      </trkpt>
      <trkpt lat="43.80297" lon="7.33526">
        <ele>268.20001220703</ele>
        <time>2013-12-07T09:51:19.000Z</time>
      </trkpt>
      <trkpt lat="43.80309" lon="7.33548">
        <ele>268.60000610352</ele>
        <time>2013-12-07T09:51:26.000Z</time>
      </trkpt>
      <trkpt lat="43.80323" lon="7.3356">
        <ele>268.20001220703</ele>
        <time>2013-12-07T09:51:32.000Z</time>
      </trkpt>
      <trkpt lat="43.80341" lon="7.33575">
        <ele>268</ele>
        <time>2013-12-07T09:51:40.000Z</time>
      </trkpt>
      <trkpt lat="43.80354" lon="7.33583">
        <ele>268.20001220703</ele>
        <time>2013-12-07T09:51:45.000Z</time>
      </trkpt>
      <trkpt lat="43.8037" lon="7.33578">
        <ele>267.20001220703</ele>
        <time>2013-12-07T09:51:51.000Z</time>
      </trkpt>
      <trkpt lat="43.80383" lon="7.33568">
        <ele>265.39999389648</ele>
        <time>2013-12-07T09:51:56.000Z</time>
      </trkpt>
      <trkpt lat="43.80396" lon="7.3356">
        <ele>263.79998779297</ele>
        <time>2013-12-07T09:52:01.000Z</time>
      </trkpt>
      <trkpt lat="43.80419" lon="7.3356">
        <ele>262.39999389648</ele>
        <time>2013-12-07T09:52:08.000Z</time>
      </trkpt>
      <trkpt lat="43.80431" lon="7.33569">
        <ele>262.79998779297</ele>
        <time>2013-12-07T09:52:13.000Z</time>
      </trkpt>
      <trkpt lat="43.80435" lon="7.33584">
        <ele>264.39999389648</ele>
        <time>2013-12-07T09:52:18.000Z</time>
      </trkpt>
      <trkpt lat="43.80446" lon="7.33608">
        <ele>263.20001220703</ele>
        <time>2013-12-07T09:52:24.000Z</time>
      </trkpt>
      <trkpt lat="43.80463" lon="7.33618">
        <ele>262.39999389648</ele>
        <time>2013-12-07T09:52:28.000Z</time>
      </trkpt>
      <trkpt lat="43.80487" lon="7.33621">
        <ele>261.39999389648</ele>
        <time>2013-12-07T09:52:33.000Z</time>
      </trkpt>
      <trkpt lat="43.8051" lon="7.33618">
        <ele>261</ele>
        <time>2013-12-07T09:52:38.000Z</time>
      </trkpt>
      <trkpt lat="43.80513" lon="7.33617">
        <ele>261</ele>
        <time>2013-12-07T09:52:39.000Z</time>
      </trkpt>
      <trkpt lat="43.80522" lon="7.33617">
        <ele>261.20001220703</ele>
        <time>2013-12-07T09:52:43.000Z</time>
      </trkpt>
      <trkpt lat="43.80526" lon="7.33617">
        <ele>261.20001220703</ele>
        <time>2013-12-07T09:52:47.000Z</time>
      </trkpt>
      <trkpt lat="43.80527" lon="7.33617">
        <ele>261.39999389648</ele>
        <time>2013-12-07T09:52:48.000Z</time>
      </trkpt>
      <trkpt lat="43.80525" lon="7.33623">
        <ele>261.60000610352</ele>
        <time>2013-12-07T09:52:52.000Z</time>
      </trkpt>
      <trkpt lat="43.8052" lon="7.33626">
        <ele>261.60000610352</ele>
        <time>2013-12-07T09:52:55.000Z</time>
      </trkpt>
      <trkpt lat="43.80518" lon="7.3363">
        <ele>261.60000610352</ele>
        <time>2013-12-07T09:52:57.000Z</time>
      </trkpt>
      <trkpt lat="43.80517" lon="7.33631">
        <ele>261.60000610352</ele>
        <time>2013-12-07T09:52:58.000Z</time>
      </trkpt>
      <trkpt lat="43.80518" lon="7.33633">
        <ele>261.79998779297</ele>
        <time>2013-12-07T09:53:02.000Z</time>
      </trkpt>
      <trkpt lat="43.80521" lon="7.3362">
        <ele>261.20001220703</ele>
        <time>2013-12-07T09:55:34.000Z</time>
      </trkpt>
      <trkpt lat="43.80524" lon="7.33623">
        <ele>261.39999389648</ele>
        <time>2013-12-07T09:56:31.000Z</time>
      </trkpt>
      <trkpt lat="43.80522" lon="7.33626">
        <ele>261.60000610352</ele>
        <time>2013-12-07T09:57:02.000Z</time>
      </trkpt>
      <trkpt lat="43.80525" lon="7.33626">
        <ele>261.60000610352</ele>
        <time>2013-12-07T09:57:56.000Z</time>
      </trkpt>
      <trkpt lat="43.80525" lon="7.33627">
        <ele>261.79998779297</ele>
        <time>2013-12-07T09:58:23.000Z</time>
      </trkpt>
      <trkpt lat="43.80525" lon="7.33631">
        <ele>261.79998779297</ele>
        <time>2013-12-07T09:58:28.000Z</time>
      </trkpt>
      <trkpt lat="43.80526" lon="7.33636">
        <ele>262</ele>
        <time>2013-12-07T09:58:40.000Z</time>
      </trkpt>
      <trkpt lat="43.80525" lon="7.3364">
        <ele>262.20001220703</ele>
        <time>2013-12-07T09:58:47.000Z</time>
      </trkpt>
      <trkpt lat="43.80527" lon="7.33643">
        <ele>262.39999389648</ele>
        <time>2013-12-07T09:59:01.000Z</time>
      </trkpt>
      <trkpt lat="43.80529" lon="7.33637">
        <ele>262.20001220703</ele>
        <time>2013-12-07T09:59:06.000Z</time>
      </trkpt>
      <trkpt lat="43.80537" lon="7.33636">
        <ele>262.39999389648</ele>
        <time>2013-12-07T09:59:13.000Z</time>
      </trkpt>
      <trkpt lat="43.80538" lon="7.33635">
        <ele>262.20001220703</ele>
        <time>2013-12-07T09:59:14.000Z</time>
      </trkpt>
      <trkpt lat="43.80546" lon="7.33629">
        <ele>262.20001220703</ele>
        <time>2013-12-07T09:59:21.000Z</time>
      </trkpt>
      <trkpt lat="43.80555" lon="7.33619">
        <ele>262.20001220703</ele>
        <time>2013-12-07T09:59:27.000Z</time>
      </trkpt>
      <trkpt lat="43.80567" lon="7.33611">
        <ele>262.20001220703</ele>
        <time>2013-12-07T09:59:33.000Z</time>
      </trkpt>
      <trkpt lat="43.80582" lon="7.33606">
        <ele>262.60000610352</ele>
        <time>2013-12-07T09:59:40.000Z</time>
      </trkpt>
      <trkpt lat="43.80602" lon="7.33604">
        <ele>263.79998779297</ele>
        <time>2013-12-07T09:59:49.000Z</time>
      </trkpt>
      <trkpt lat="43.8062" lon="7.33599">
        <ele>265</ele>
        <time>2013-12-07T09:59:58.000Z</time>
      </trkpt>
      <trkpt lat="43.80636" lon="7.33592">
        <ele>266.20001220703</ele>
        <time>2013-12-07T10:00:06.000Z</time>
      </trkpt>
      <trkpt lat="43.80651" lon="7.33594">
        <ele>267.39999389648</ele>
        <time>2013-12-07T10:00:13.000Z</time>
      </trkpt>
      <trkpt lat="43.80668" lon="7.33602">
        <ele>268.60000610352</ele>
        <time>2013-12-07T10:00:21.000Z</time>
      </trkpt>
      <trkpt lat="43.80686" lon="7.33605">
        <ele>270.39999389648</ele>
        <time>2013-12-07T10:00:28.000Z</time>
      </trkpt>
      <trkpt lat="43.80697" lon="7.33602">
        <ele>271.60000610352</ele>
        <time>2013-12-07T10:00:34.000Z</time>
      </trkpt>
      <trkpt lat="43.80707" lon="7.33593">
        <ele>274</ele>
        <time>2013-12-07T10:00:40.000Z</time>
      </trkpt>
      <trkpt lat="43.80722" lon="7.33583">
        <ele>277.60000610352</ele>
        <time>2013-12-07T10:00:48.000Z</time>
      </trkpt>
      <trkpt lat="43.80738" lon="7.3357">
        <ele>282</ele>
        <time>2013-12-07T10:00:56.000Z</time>
      </trkpt>
      <trkpt lat="43.80741" lon="7.33566">
        <ele>283.20001220703</ele>
        <time>2013-12-07T10:00:59.000Z</time>
      </trkpt>
      <trkpt lat="43.80741" lon="7.33564">
        <ele>283.60000610352</ele>
        <time>2013-12-07T10:01:01.000Z</time>
      </trkpt>
      <trkpt lat="43.80736" lon="7.33553">
        <ele>284</ele>
        <time>2013-12-07T10:01:06.000Z</time>
      </trkpt>
      <trkpt lat="43.80726" lon="7.33544">
        <ele>282.60000610352</ele>
        <time>2013-12-07T10:01:11.000Z</time>
      </trkpt>
      <trkpt lat="43.80725" lon="7.33542">
        <ele>282.39999389648</ele>
        <time>2013-12-07T10:01:15.000Z</time>
      </trkpt>
      <trkpt lat="43.80725" lon="7.33541">
        <ele>282.60000610352</ele>
        <time>2013-12-07T10:01:16.000Z</time>
      </trkpt>
      <trkpt lat="43.80725" lon="7.33536">
        <ele>283.20001220703</ele>
        <time>2013-12-07T10:01:23.000Z</time>
      </trkpt>
      <trkpt lat="43.80725" lon="7.33534">
        <ele>283.39999389648</ele>
        <time>2013-12-07T10:01:27.000Z</time>
      </trkpt>
      <trkpt lat="43.8073" lon="7.3353">
        <ele>285.39999389648</ele>
        <time>2013-12-07T10:01:33.000Z</time>
      </trkpt>
      <trkpt lat="43.80735" lon="7.33525">
        <ele>287.60000610352</ele>
        <time>2013-12-07T10:01:42.000Z</time>
      </trkpt>
      <trkpt lat="43.80738" lon="7.33519">
        <ele>289.60000610352</ele>
        <time>2013-12-07T10:01:49.000Z</time>
      </trkpt>
      <trkpt lat="43.80742" lon="7.33513">
        <ele>291.60000610352</ele>
        <time>2013-12-07T10:01:55.000Z</time>
      </trkpt>
      <trkpt lat="43.80745" lon="7.33507">
        <ele>293.60000610352</ele>
        <time>2013-12-07T10:02:03.000Z</time>
      </trkpt>
      <trkpt lat="43.80745" lon="7.33502">
        <ele>294.60000610352</ele>
        <time>2013-12-07T10:02:17.000Z</time>
      </trkpt>
      <trkpt lat="43.80747" lon="7.33499">
        <ele>295.79998779297</ele>
        <time>2013-12-07T10:02:25.000Z</time>
      </trkpt>
      <trkpt lat="43.80749" lon="7.33498">
        <ele>296.79998779297</ele>
        <time>2013-12-07T10:02:33.000Z</time>
      </trkpt>
      <trkpt lat="43.80751" lon="7.33495">
        <ele>298</ele>
        <time>2013-12-07T10:02:39.000Z</time>
      </trkpt>
      <trkpt lat="43.80754" lon="7.33493">
        <ele>299.20001220703</ele>
        <time>2013-12-07T10:02:44.000Z</time>
      </trkpt>
      <trkpt lat="43.80757" lon="7.3349">
        <ele>300.79998779297</ele>
        <time>2013-12-07T10:02:49.000Z</time>
      </trkpt>
      <trkpt lat="43.80761" lon="7.33485">
        <ele>303</ele>
        <time>2013-12-07T10:02:56.000Z</time>
      </trkpt>
      <trkpt lat="43.80763" lon="7.33477">
        <ele>304.79998779297</ele>
        <time>2013-12-07T10:03:05.000Z</time>
      </trkpt>
      <trkpt lat="43.80763" lon="7.33474">
        <ele>304.79998779297</ele>
        <time>2013-12-07T10:03:12.000Z</time>
      </trkpt>
      <trkpt lat="43.80764" lon="7.33468">
        <ele>306</ele>
        <time>2013-12-07T10:03:20.000Z</time>
      </trkpt>
      <trkpt lat="43.80766" lon="7.33465">
        <ele>307.39999389648</ele>
        <time>2013-12-07T10:03:27.000Z</time>
      </trkpt>
      <trkpt lat="43.80768" lon="7.33461">
        <ele>308.79998779297</ele>
        <time>2013-12-07T10:03:34.000Z</time>
      </trkpt>
      <trkpt lat="43.8077" lon="7.33456">
        <ele>310.39999389648</ele>
        <time>2013-12-07T10:03:43.000Z</time>
      </trkpt>
      <trkpt lat="43.80771" lon="7.3345">
        <ele>311.39999389648</ele>
        <time>2013-12-07T10:03:51.000Z</time>
      </trkpt>
      <trkpt lat="43.80771" lon="7.33445">
        <ele>311.79998779297</ele>
        <time>2013-12-07T10:03:59.000Z</time>
      </trkpt>
      <trkpt lat="43.80772" lon="7.33438">
        <ele>313.20001220703</ele>
        <time>2013-12-07T10:04:07.000Z</time>
      </trkpt>
      <trkpt lat="43.80773" lon="7.33433">
        <ele>314.20001220703</ele>
        <time>2013-12-07T10:04:13.000Z</time>
      </trkpt>
      <trkpt lat="43.80774" lon="7.33431">
        <ele>315</ele>
        <time>2013-12-07T10:04:22.000Z</time>
      </trkpt>
      <trkpt lat="43.80775" lon="7.33425">
        <ele>316</ele>
        <time>2013-12-07T10:04:30.000Z</time>
      </trkpt>
      <trkpt lat="43.80778" lon="7.33415">
        <ele>318.39999389648</ele>
        <time>2013-12-07T10:04:34.000Z</time>
      </trkpt>
      <trkpt lat="43.80781" lon="7.33407">
        <ele>319</ele>
        <time>2013-12-07T10:04:38.000Z</time>
      </trkpt>
      <trkpt lat="43.80783" lon="7.33403">
        <ele>319.20001220703</ele>
        <time>2013-12-07T10:04:40.000Z</time>
      </trkpt>
      <trkpt lat="43.80788" lon="7.33388">
        <ele>319.79998779297</ele>
        <time>2013-12-07T10:04:45.000Z</time>
      </trkpt>
      <trkpt lat="43.80795" lon="7.33376">
        <ele>321.79998779297</ele>
        <time>2013-12-07T10:04:50.000Z</time>
      </trkpt>
      <trkpt lat="43.80798" lon="7.33369">
        <ele>322.20001220703</ele>
        <time>2013-12-07T10:04:52.000Z</time>
      </trkpt>
      <trkpt lat="43.80798" lon="7.33365">
        <ele>321.60000610352</ele>
        <time>2013-12-07T10:04:53.000Z</time>
      </trkpt>
      <trkpt lat="43.80798" lon="7.33362">
        <ele>321.39999389648</ele>
        <time>2013-12-07T10:04:54.000Z</time>
      </trkpt>
      <trkpt lat="43.80797" lon="7.3336">
        <ele>320.60000610352</ele>
        <time>2013-12-07T10:04:55.000Z</time>
      </trkpt>
      <trkpt lat="43.8079" lon="7.33351">
        <ele>316.20001220703</ele>
        <time>2013-12-07T10:04:58.000Z</time>
      </trkpt>
      <trkpt lat="43.80791" lon="7.33334">
        <ele>314</ele>
        <time>2013-12-07T10:05:02.000Z</time>
      </trkpt>
      <trkpt lat="43.80794" lon="7.33317">
        <ele>312.20001220703</ele>
        <time>2013-12-07T10:05:07.000Z</time>
      </trkpt>
      <trkpt lat="43.80799" lon="7.33301">
        <ele>311</ele>
        <time>2013-12-07T10:05:13.000Z</time>
      </trkpt>
      <trkpt lat="43.80811" lon="7.33292">
        <ele>314.60000610352</ele>
        <time>2013-12-07T10:05:19.000Z</time>
      </trkpt>
      <trkpt lat="43.80813" lon="7.33288">
        <ele>315</ele>
        <time>2013-12-07T10:05:22.000Z</time>
      </trkpt>
      <trkpt lat="43.80815" lon="7.33284">
        <ele>315.20001220703</ele>
        <time>2013-12-07T10:05:24.000Z</time>
      </trkpt>
      <trkpt lat="43.80824" lon="7.33273">
        <ele>317</ele>
        <time>2013-12-07T10:05:29.000Z</time>
      </trkpt>
      <trkpt lat="43.80825" lon="7.3327">
        <ele>316.60000610352</ele>
        <time>2013-12-07T10:05:31.000Z</time>
      </trkpt>
      <trkpt lat="43.80825" lon="7.33263">
        <ele>315</ele>
        <time>2013-12-07T10:05:33.000Z</time>
      </trkpt>
      <trkpt lat="43.8083" lon="7.3325">
        <ele>314.60000610352</ele>
        <time>2013-12-07T10:05:36.000Z</time>
      </trkpt>
      <trkpt lat="43.80835" lon="7.33239">
        <ele>315</ele>
        <time>2013-12-07T10:05:39.000Z</time>
      </trkpt>
      <trkpt lat="43.80843" lon="7.33236">
        <ele>316.60000610352</ele>
        <time>2013-12-07T10:05:41.000Z</time>
      </trkpt>
      <trkpt lat="43.8086" lon="7.33229">
        <ele>320.79998779297</ele>
        <time>2013-12-07T10:05:46.000Z</time>
      </trkpt>
      <trkpt lat="43.80865" lon="7.33222">
        <ele>321</ele>
        <time>2013-12-07T10:05:48.000Z</time>
      </trkpt>
      <trkpt lat="43.80866" lon="7.33217">
        <ele>321</ele>
        <time>2013-12-07T10:05:50.000Z</time>
      </trkpt>
      <trkpt lat="43.80867" lon="7.33201">
        <ele>318.79998779297</ele>
        <time>2013-12-07T10:05:55.000Z</time>
      </trkpt>
      <trkpt lat="43.80871" lon="7.33194">
        <ele>319.20001220703</ele>
        <time>2013-12-07T10:05:59.000Z</time>
      </trkpt>
      <trkpt lat="43.80872" lon="7.33193">
        <ele>319.20001220703</ele>
        <time>2013-12-07T10:06:01.000Z</time>
      </trkpt>
      <trkpt lat="43.80879" lon="7.33182">
        <ele>319.79998779297</ele>
        <time>2013-12-07T10:06:16.000Z</time>
      </trkpt>
      <trkpt lat="43.80886" lon="7.33169">
        <ele>320.20001220703</ele>
        <time>2013-12-07T10:06:21.000Z</time>
      </trkpt>
      <trkpt lat="43.80896" lon="7.33156">
        <ele>321</ele>
        <time>2013-12-07T10:06:26.000Z</time>
      </trkpt>
      <trkpt lat="43.80904" lon="7.3315">
        <ele>322.39999389648</ele>
        <time>2013-12-07T10:06:31.000Z</time>
      </trkpt>
      <trkpt lat="43.8091" lon="7.33141">
        <ele>322.60000610352</ele>
        <time>2013-12-07T10:06:34.000Z</time>
      </trkpt>
      <trkpt lat="43.80911" lon="7.33135">
        <ele>321.79998779297</ele>
        <time>2013-12-07T10:06:35.000Z</time>
      </trkpt>
      <trkpt lat="43.80922" lon="7.33117">
        <ele>321.39999389648</ele>
        <time>2013-12-07T10:06:39.000Z</time>
      </trkpt>
      <trkpt lat="43.80935" lon="7.33109">
        <ele>323.60000610352</ele>
        <time>2013-12-07T10:06:43.000Z</time>
      </trkpt>
      <trkpt lat="43.80947" lon="7.33098">
        <ele>325</ele>
        <time>2013-12-07T10:06:49.000Z</time>
      </trkpt>
      <trkpt lat="43.80959" lon="7.33092">
        <ele>327.39999389648</ele>
        <time>2013-12-07T10:06:54.000Z</time>
      </trkpt>
      <trkpt lat="43.80972" lon="7.33087">
        <ele>330</ele>
        <time>2013-12-07T10:06:59.000Z</time>
      </trkpt>
      <trkpt lat="43.80977" lon="7.33087">
        <ele>331.20001220703</ele>
        <time>2013-12-07T10:07:04.000Z</time>
      </trkpt>
      <trkpt lat="43.80978" lon="7.33085">
        <ele>331.20001220703</ele>
        <time>2013-12-07T10:07:06.000Z</time>
      </trkpt>
      <trkpt lat="43.8098" lon="7.33085">
        <ele>331.79998779297</ele>
        <time>2013-12-07T10:07:09.000Z</time>
      </trkpt>
      <trkpt lat="43.80982" lon="7.33087">
        <ele>332.60000610352</ele>
        <time>2013-12-07T10:07:10.000Z</time>
      </trkpt>
      <trkpt lat="43.80985" lon="7.33087">
        <ele>333.60000610352</ele>
        <time>2013-12-07T10:07:13.000Z</time>
      </trkpt>
      <trkpt lat="43.80986" lon="7.33086">
        <ele>333.39999389648</ele>
        <time>2013-12-07T10:07:14.000Z</time>
      </trkpt>
      <trkpt lat="43.80986" lon="7.33083">
        <ele>333.20001220703</ele>
        <time>2013-12-07T10:07:16.000Z</time>
      </trkpt>
      <trkpt lat="43.80988" lon="7.33076">
        <ele>333</ele>
        <time>2013-12-07T10:07:22.000Z</time>
      </trkpt>
      <trkpt lat="43.80989" lon="7.33068">
        <ele>332.79998779297</ele>
        <time>2013-12-07T10:07:28.000Z</time>
      </trkpt>
      <trkpt lat="43.8099" lon="7.33065">
        <ele>333</ele>
        <time>2013-12-07T10:07:30.000Z</time>
      </trkpt>
      <trkpt lat="43.80989" lon="7.33063">
        <ele>332.60000610352</ele>
        <time>2013-12-07T10:07:33.000Z</time>
      </trkpt>
      <trkpt lat="43.80989" lon="7.33062">
        <ele>332.60000610352</ele>
        <time>2013-12-07T10:07:34.000Z</time>
      </trkpt>
      <trkpt lat="43.80991" lon="7.3306">
        <ele>333</ele>
        <time>2013-12-07T10:07:40.000Z</time>
      </trkpt>
      <trkpt lat="43.80995" lon="7.33058">
        <ele>334</ele>
        <time>2013-12-07T10:07:44.000Z</time>
      </trkpt>
      <trkpt lat="43.80996" lon="7.33055">
        <ele>334.20001220703</ele>
        <time>2013-12-07T10:07:47.000Z</time>
      </trkpt>
      <trkpt lat="43.80997" lon="7.33054">
        <ele>334.39999389648</ele>
        <time>2013-12-07T10:07:48.000Z</time>
      </trkpt>
      <trkpt lat="43.80997" lon="7.33047">
        <ele>334</ele>
        <time>2013-12-07T10:07:53.000Z</time>
      </trkpt>
      <trkpt lat="43.80998" lon="7.33047">
        <ele>334.20001220703</ele>
        <time>2013-12-07T10:07:54.000Z</time>
      </trkpt>
      <trkpt lat="43.81" lon="7.33043">
        <ele>334.79998779297</ele>
        <time>2013-12-07T10:07:59.000Z</time>
      </trkpt>
      <trkpt lat="43.81" lon="7.3304">
        <ele>334.60000610352</ele>
        <time>2013-12-07T10:08:00.000Z</time>
      </trkpt>
      <trkpt lat="43.81004" lon="7.33023">
        <ele>335.20001220703</ele>
        <time>2013-12-07T10:08:05.000Z</time>
      </trkpt>
      <trkpt lat="43.81011" lon="7.33004">
        <ele>336.39999389648</ele>
        <time>2013-12-07T10:08:10.000Z</time>
      </trkpt>
      <trkpt lat="43.81019" lon="7.3299">
        <ele>339.79998779297</ele>
        <time>2013-12-07T10:08:15.000Z</time>
      </trkpt>
      <trkpt lat="43.81021" lon="7.3299">
        <ele>340.39999389648</ele>
        <time>2013-12-07T10:08:16.000Z</time>
      </trkpt>
      <trkpt lat="43.81022" lon="7.32987">
        <ele>341</ele>
        <time>2013-12-07T10:08:19.000Z</time>
      </trkpt>
      <trkpt lat="43.81025" lon="7.32987">
        <ele>342</ele>
        <time>2013-12-07T10:08:26.000Z</time>
      </trkpt>
      <trkpt lat="43.8103" lon="7.32986">
        <ele>343.79998779297</ele>
        <time>2013-12-07T10:08:34.000Z</time>
      </trkpt>
      <trkpt lat="43.81032" lon="7.32983">
        <ele>344.39999389648</ele>
        <time>2013-12-07T10:08:39.000Z</time>
      </trkpt>
      <trkpt lat="43.81036" lon="7.32982">
        <ele>346.20001220703</ele>
        <time>2013-12-07T10:08:44.000Z</time>
      </trkpt>
      <trkpt lat="43.81037" lon="7.32981">
        <ele>346.20001220703</ele>
        <time>2013-12-07T10:08:45.000Z</time>
      </trkpt>
      <trkpt lat="43.81038" lon="7.32978">
        <ele>346.60000610352</ele>
        <time>2013-12-07T10:08:48.000Z</time>
      </trkpt>
      <trkpt lat="43.81038" lon="7.32977">
        <ele>346.79998779297</ele>
        <time>2013-12-07T10:08:49.000Z</time>
      </trkpt>
      <trkpt lat="43.81038" lon="7.32974">
        <ele>346.79998779297</ele>
        <time>2013-12-07T10:08:52.000Z</time>
      </trkpt>
      <trkpt lat="43.81037" lon="7.32972">
        <ele>346.39999389648</ele>
        <time>2013-12-07T10:08:54.000Z</time>
      </trkpt>
      <trkpt lat="43.81036" lon="7.32966">
        <ele>346</ele>
        <time>2013-12-07T10:08:59.000Z</time>
      </trkpt>
      <trkpt lat="43.81036" lon="7.32952">
        <ele>346.39999389648</ele>
        <time>2013-12-07T10:09:08.000Z</time>
      </trkpt>
      <trkpt lat="43.81036" lon="7.32948">
        <ele>346.20001220703</ele>
        <time>2013-12-07T10:09:12.000Z</time>
      </trkpt>
      <trkpt lat="43.81035" lon="7.32945">
        <ele>346</ele>
        <time>2013-12-07T10:09:17.000Z</time>
      </trkpt>
      <trkpt lat="43.81032" lon="7.32938">
        <ele>345.20001220703</ele>
        <time>2013-12-07T10:09:24.000Z</time>
      </trkpt>
      <trkpt lat="43.81031" lon="7.32936">
        <ele>344.79998779297</ele>
        <time>2013-12-07T10:09:26.000Z</time>
      </trkpt>
      <trkpt lat="43.81029" lon="7.32932">
        <ele>344.20001220703</ele>
        <time>2013-12-07T10:09:33.000Z</time>
      </trkpt>
      <trkpt lat="43.81028" lon="7.32925">
        <ele>344.20001220703</ele>
        <time>2013-12-07T10:09:38.000Z</time>
      </trkpt>
      <trkpt lat="43.81025" lon="7.32909">
        <ele>344.20001220703</ele>
        <time>2013-12-07T10:09:46.000Z</time>
      </trkpt>
      <trkpt lat="43.81026" lon="7.32908">
        <ele>344.39999389648</ele>
        <time>2013-12-07T10:09:47.000Z</time>
      </trkpt>
      <trkpt lat="43.81028" lon="7.329">
        <ele>345.79998779297</ele>
        <time>2013-12-07T10:09:51.000Z</time>
      </trkpt>
      <trkpt lat="43.81034" lon="7.3289">
        <ele>347.79998779297</ele>
        <time>2013-12-07T10:09:58.000Z</time>
      </trkpt>
      <trkpt lat="43.81036" lon="7.3289">
        <ele>348.20001220703</ele>
        <time>2013-12-07T10:10:06.000Z</time>
      </trkpt>
      <trkpt lat="43.81039" lon="7.32885">
        <ele>349</ele>
        <time>2013-12-07T10:10:19.000Z</time>
      </trkpt>
      <trkpt lat="43.81041" lon="7.32883">
        <ele>349.79998779297</ele>
        <time>2013-12-07T10:10:24.000Z</time>
      </trkpt>
      <trkpt lat="43.81042" lon="7.32883">
        <ele>349.79998779297</ele>
        <time>2013-12-07T10:10:25.000Z</time>
      </trkpt>
      <trkpt lat="43.81041" lon="7.32874">
        <ele>350.20001220703</ele>
        <time>2013-12-07T10:10:30.000Z</time>
      </trkpt>
      <trkpt lat="43.81041" lon="7.32871">
        <ele>350.39999389648</ele>
        <time>2013-12-07T10:10:31.000Z</time>
      </trkpt>
      <trkpt lat="43.81038" lon="7.32864">
        <ele>350.20001220703</ele>
        <time>2013-12-07T10:10:34.000Z</time>
      </trkpt>
      <trkpt lat="43.81037" lon="7.32861">
        <ele>350.20001220703</ele>
        <time>2013-12-07T10:10:35.000Z</time>
      </trkpt>
      <trkpt lat="43.81026" lon="7.32851">
        <ele>349.39999389648</ele>
        <time>2013-12-07T10:10:39.000Z</time>
      </trkpt>
      <trkpt lat="43.81003" lon="7.3283">
        <ele>347.79998779297</ele>
        <time>2013-12-07T10:10:44.000Z</time>
      </trkpt>
      <trkpt lat="43.80989" lon="7.32822">
        <ele>345</ele>
        <time>2013-12-07T10:10:46.000Z</time>
      </trkpt>
      <trkpt lat="43.80982" lon="7.3282">
        <ele>344</ele>
        <time>2013-12-07T10:10:47.000Z</time>
      </trkpt>
      <trkpt lat="43.80947" lon="7.32817">
        <ele>338.60000610352</ele>
        <time>2013-12-07T10:10:52.000Z</time>
      </trkpt>
      <trkpt lat="43.80933" lon="7.32825">
        <ele>336.79998779297</ele>
        <time>2013-12-07T10:10:55.000Z</time>
      </trkpt>
      <trkpt lat="43.80929" lon="7.32826">
        <ele>336.20001220703</ele>
        <time>2013-12-07T10:10:56.000Z</time>
      </trkpt>
      <trkpt lat="43.80924" lon="7.32825">
        <ele>335.20001220703</ele>
        <time>2013-12-07T10:10:58.000Z</time>
      </trkpt>
      <trkpt lat="43.80924" lon="7.3282">
        <ele>335.20001220703</ele>
        <time>2013-12-07T10:11:01.000Z</time>
      </trkpt>
      <trkpt lat="43.8092" lon="7.32811">
        <ele>334.79998779297</ele>
        <time>2013-12-07T10:11:03.000Z</time>
      </trkpt>
      <trkpt lat="43.80917" lon="7.32806">
        <ele>334.39999389648</ele>
        <time>2013-12-07T10:11:04.000Z</time>
      </trkpt>
      <trkpt lat="43.80904" lon="7.32783">
        <ele>329.79998779297</ele>
        <time>2013-12-07T10:11:08.000Z</time>
      </trkpt>
      <trkpt lat="43.80901" lon="7.32771">
        <ele>329</ele>
        <time>2013-12-07T10:11:11.000Z</time>
      </trkpt>
      <trkpt lat="43.80899" lon="7.3277">
        <ele>328.20001220703</ele>
        <time>2013-12-07T10:11:12.000Z</time>
      </trkpt>
      <trkpt lat="43.80887" lon="7.32758">
        <ele>324.39999389648</ele>
        <time>2013-12-07T10:11:15.000Z</time>
      </trkpt>
      <trkpt lat="43.80881" lon="7.32755">
        <ele>322.20001220703</ele>
        <time>2013-12-07T10:11:17.000Z</time>
      </trkpt>
      <trkpt lat="43.80876" lon="7.32752">
        <ele>320.60000610352</ele>
        <time>2013-12-07T10:11:19.000Z</time>
      </trkpt>
      <trkpt lat="43.80876" lon="7.32739">
        <ele>319.79998779297</ele>
        <time>2013-12-07T10:11:22.000Z</time>
      </trkpt>
      <trkpt lat="43.80875" lon="7.3273">
        <ele>318.79998779297</ele>
        <time>2013-12-07T10:11:25.000Z</time>
      </trkpt>
      <trkpt lat="43.80875" lon="7.32731">
        <ele>319</ele>
        <time>2013-12-07T10:11:26.000Z</time>
      </trkpt>
      <trkpt lat="43.80873" lon="7.32727">
        <ele>318.20001220703</ele>
        <time>2013-12-07T10:11:30.000Z</time>
      </trkpt>
      <trkpt lat="43.80871" lon="7.32725">
        <ele>317.20001220703</ele>
        <time>2013-12-07T10:11:32.000Z</time>
      </trkpt>
      <trkpt lat="43.80869" lon="7.32724">
        <ele>316.60000610352</ele>
        <time>2013-12-07T10:11:35.000Z</time>
      </trkpt>
      <trkpt lat="43.80869" lon="7.32723">
        <ele>316.39999389648</ele>
        <time>2013-12-07T10:11:36.000Z</time>
      </trkpt>
      <trkpt lat="43.80868" lon="7.32721">
        <ele>316.20001220703</ele>
        <time>2013-12-07T10:11:37.000Z</time>
      </trkpt>
      <trkpt lat="43.80867" lon="7.3272">
        <ele>315.79998779297</ele>
        <time>2013-12-07T10:11:42.000Z</time>
      </trkpt>
      <trkpt lat="43.80866" lon="7.32711">
        <ele>314.79998779297</ele>
        <time>2013-12-07T10:11:49.000Z</time>
      </trkpt>
      <trkpt lat="43.80862" lon="7.32701">
        <ele>313.39999389648</ele>
        <time>2013-12-07T10:11:55.000Z</time>
      </trkpt>
      <trkpt lat="43.80861" lon="7.32696">
        <ele>312.79998779297</ele>
        <time>2013-12-07T10:11:57.000Z</time>
      </trkpt>
      <trkpt lat="43.8086" lon="7.3269">
        <ele>312.20001220703</ele>
        <time>2013-12-07T10:12:00.000Z</time>
      </trkpt>
      <trkpt lat="43.80858" lon="7.32677">
        <ele>311.39999389648</ele>
        <time>2013-12-07T10:12:04.000Z</time>
      </trkpt>
      <trkpt lat="43.80859" lon="7.32674">
        <ele>311.39999389648</ele>
        <time>2013-12-07T10:12:05.000Z</time>
      </trkpt>
      <trkpt lat="43.80858" lon="7.32661">
        <ele>310</ele>
        <time>2013-12-07T10:12:10.000Z</time>
      </trkpt>
      <trkpt lat="43.80855" lon="7.32656">
        <ele>309</ele>
        <time>2013-12-07T10:12:15.000Z</time>
      </trkpt>
      <trkpt lat="43.80852" lon="7.32651">
        <ele>308</ele>
        <time>2013-12-07T10:12:23.000Z</time>
      </trkpt>
      <trkpt lat="43.80844" lon="7.32649">
        <ele>306.60000610352</ele>
        <time>2013-12-07T10:12:42.000Z</time>
      </trkpt>
      <trkpt lat="43.80831" lon="7.32648">
        <ele>304.39999389648</ele>
        <time>2013-12-07T10:12:49.000Z</time>
      </trkpt>
      <trkpt lat="43.80818" lon="7.32645">
        <ele>301.39999389648</ele>
        <time>2013-12-07T10:12:55.000Z</time>
      </trkpt>
      <trkpt lat="43.80809" lon="7.3265">
        <ele>299.79998779297</ele>
        <time>2013-12-07T10:13:00.000Z</time>
      </trkpt>
      <trkpt lat="43.808" lon="7.32658">
        <ele>298.39999389648</ele>
        <time>2013-12-07T10:13:06.000Z</time>
      </trkpt>
      <trkpt lat="43.80798" lon="7.3266">
        <ele>298</ele>
        <time>2013-12-07T10:13:07.000Z</time>
      </trkpt>
      <trkpt lat="43.8079" lon="7.3266">
        <ele>296.20001220703</ele>
        <time>2013-12-07T10:13:10.000Z</time>
      </trkpt>
      <trkpt lat="43.80786" lon="7.32653">
        <ele>295</ele>
        <time>2013-12-07T10:13:14.000Z</time>
      </trkpt>
      <trkpt lat="43.80779" lon="7.32643">
        <ele>292.79998779297</ele>
        <time>2013-12-07T10:13:17.000Z</time>
      </trkpt>
      <trkpt lat="43.80775" lon="7.32634">
        <ele>291.60000610352</ele>
        <time>2013-12-07T10:13:19.000Z</time>
      </trkpt>
      <trkpt lat="43.80771" lon="7.32625">
        <ele>290.60000610352</ele>
        <time>2013-12-07T10:13:21.000Z</time>
      </trkpt>
      <trkpt lat="43.80771" lon="7.32621">
        <ele>290.39999389648</ele>
        <time>2013-12-07T10:13:22.000Z</time>
      </trkpt>
      <trkpt lat="43.80774" lon="7.32613">
        <ele>290.60000610352</ele>
        <time>2013-12-07T10:13:24.000Z</time>
      </trkpt>
      <trkpt lat="43.80768" lon="7.32606">
        <ele>289.20001220703</ele>
        <time>2013-12-07T10:13:27.000Z</time>
      </trkpt>
      <trkpt lat="43.80755" lon="7.32592">
        <ele>286.79998779297</ele>
        <time>2013-12-07T10:13:31.000Z</time>
      </trkpt>
      <trkpt lat="43.80751" lon="7.32577">
        <ele>284.79998779297</ele>
        <time>2013-12-07T10:13:34.000Z</time>
      </trkpt>
      <trkpt lat="43.80759" lon="7.32559">
        <ele>282.20001220703</ele>
        <time>2013-12-07T10:13:38.000Z</time>
      </trkpt>
      <trkpt lat="43.80756" lon="7.32556">
        <ele>281.20001220703</ele>
        <time>2013-12-07T10:13:41.000Z</time>
      </trkpt>
      <trkpt lat="43.80759" lon="7.32556">
        <ele>281.79998779297</ele>
        <time>2013-12-07T10:13:46.000Z</time>
      </trkpt>
      <trkpt lat="43.80757" lon="7.32543">
        <ele>278.60000610352</ele>
        <time>2013-12-07T10:13:50.000Z</time>
      </trkpt>
      <trkpt lat="43.80757" lon="7.32511">
        <ele>272</ele>
        <time>2013-12-07T10:13:55.000Z</time>
      </trkpt>
      <trkpt lat="43.80762" lon="7.32474">
        <ele>266.20001220703</ele>
        <time>2013-12-07T10:14:00.000Z</time>
      </trkpt>
      <trkpt lat="43.8077" lon="7.32454">
        <ele>265.60000610352</ele>
        <time>2013-12-07T10:14:03.000Z</time>
      </trkpt>
      <trkpt lat="43.80773" lon="7.32448">
        <ele>265.20001220703</ele>
        <time>2013-12-07T10:14:04.000Z</time>
      </trkpt>
      <trkpt lat="43.80781" lon="7.32419">
        <ele>263.60000610352</ele>
        <time>2013-12-07T10:14:09.000Z</time>
      </trkpt>
      <trkpt lat="43.80782" lon="7.32412">
        <ele>263.60000610352</ele>
        <time>2013-12-07T10:14:10.000Z</time>
      </trkpt>
      <trkpt lat="43.80786" lon="7.3239">
        <ele>263.79998779297</ele>
        <time>2013-12-07T10:14:14.000Z</time>
      </trkpt>
      <trkpt lat="43.80787" lon="7.32379">
        <ele>263.60000610352</ele>
        <time>2013-12-07T10:14:16.000Z</time>
      </trkpt>
      <trkpt lat="43.80787" lon="7.3237">
        <ele>262.79998779297</ele>
        <time>2013-12-07T10:14:18.000Z</time>
      </trkpt>
      <trkpt lat="43.80786" lon="7.32366">
        <ele>262.20001220703</ele>
        <time>2013-12-07T10:14:19.000Z</time>
      </trkpt>
      <trkpt lat="43.80785" lon="7.32358">
        <ele>261.60000610352</ele>
        <time>2013-12-07T10:14:21.000Z</time>
      </trkpt>
      <trkpt lat="43.80783" lon="7.32341">
        <ele>260</ele>
        <time>2013-12-07T10:14:27.000Z</time>
      </trkpt>
      <trkpt lat="43.80782" lon="7.32336">
        <ele>259.39999389648</ele>
        <time>2013-12-07T10:14:33.000Z</time>
      </trkpt>
      <trkpt lat="43.80778" lon="7.32333">
        <ele>258</ele>
        <time>2013-12-07T10:14:40.000Z</time>
      </trkpt>
      <trkpt lat="43.80777" lon="7.32331">
        <ele>257.60000610352</ele>
        <time>2013-12-07T10:14:41.000Z</time>
      </trkpt>
      <trkpt lat="43.8077" lon="7.3232">
        <ele>255.19999694824</ele>
        <time>2013-12-07T10:14:44.000Z</time>
      </trkpt>
      <trkpt lat="43.80768" lon="7.32316">
        <ele>254.60000610352</ele>
        <time>2013-12-07T10:14:45.000Z</time>
      </trkpt>
      <trkpt lat="43.80764" lon="7.3231">
        <ele>253.39999389648</ele>
        <time>2013-12-07T10:14:47.000Z</time>
      </trkpt>
      <trkpt lat="43.80761" lon="7.3231">
        <ele>252.39999389648</ele>
        <time>2013-12-07T10:14:48.000Z</time>
      </trkpt>
      <trkpt lat="43.80754" lon="7.32303">
        <ele>250.60000610352</ele>
        <time>2013-12-07T10:14:52.000Z</time>
      </trkpt>
      <trkpt lat="43.80754" lon="7.32289">
        <ele>250.19999694824</ele>
        <time>2013-12-07T10:14:56.000Z</time>
      </trkpt>
      <trkpt lat="43.80753" lon="7.32286">
        <ele>250</ele>
        <time>2013-12-07T10:14:57.000Z</time>
      </trkpt>
      <trkpt lat="43.80751" lon="7.32271">
        <ele>249.39999389648</ele>
        <time>2013-12-07T10:15:01.000Z</time>
      </trkpt>
      <trkpt lat="43.80749" lon="7.32262">
        <ele>248.80000305176</ele>
        <time>2013-12-07T10:15:06.000Z</time>
      </trkpt>
      <trkpt lat="43.8075" lon="7.32261">
        <ele>249</ele>
        <time>2013-12-07T10:15:08.000Z</time>
      </trkpt>
      <trkpt lat="43.80751" lon="7.3226">
        <ele>249.39999389648</ele>
        <time>2013-12-07T10:15:11.000Z</time>
      </trkpt>
      <trkpt lat="43.8075" lon="7.32256">
        <ele>249.19999694824</ele>
        <time>2013-12-07T10:15:15.000Z</time>
      </trkpt>
      <trkpt lat="43.8075" lon="7.32254">
        <ele>249</ele>
        <time>2013-12-07T10:15:17.000Z</time>
      </trkpt>
      <trkpt lat="43.80749" lon="7.32255">
        <ele>248.80000305176</ele>
        <time>2013-12-07T10:15:19.000Z</time>
      </trkpt>
      <trkpt lat="43.80747" lon="7.32254">
        <ele>248.19999694824</ele>
        <time>2013-12-07T10:15:27.000Z</time>
      </trkpt>
      <trkpt lat="43.80745" lon="7.32254">
        <ele>247.39999389648</ele>
        <time>2013-12-07T10:15:35.000Z</time>
      </trkpt>
      <trkpt lat="43.80748" lon="7.3225">
        <ele>248.39999389648</ele>
        <time>2013-12-07T10:15:39.000Z</time>
      </trkpt>
      <trkpt lat="43.80751" lon="7.32246">
        <ele>248.60000610352</ele>
        <time>2013-12-07T10:15:42.000Z</time>
      </trkpt>
      <trkpt lat="43.80752" lon="7.32244">
        <ele>248.39999389648</ele>
        <time>2013-12-07T10:15:43.000Z</time>
      </trkpt>
      <trkpt lat="43.8075" lon="7.32232">
        <ele>246.39999389648</ele>
        <time>2013-12-07T10:15:48.000Z</time>
      </trkpt>
      <trkpt lat="43.80747" lon="7.32219">
        <ele>243.60000610352</ele>
        <time>2013-12-07T10:15:52.000Z</time>
      </trkpt>
      <trkpt lat="43.80744" lon="7.32212">
        <ele>241.60000610352</ele>
        <time>2013-12-07T10:15:55.000Z</time>
      </trkpt>
      <trkpt lat="43.8074" lon="7.32203">
        <ele>239.19999694824</ele>
        <time>2013-12-07T10:15:57.000Z</time>
      </trkpt>
      <trkpt lat="43.8074" lon="7.32186">
        <ele>236.80000305176</ele>
        <time>2013-12-07T10:16:00.000Z</time>
      </trkpt>
      <trkpt lat="43.80736" lon="7.32174">
        <ele>234</ele>
        <time>2013-12-07T10:16:03.000Z</time>
      </trkpt>
      <trkpt lat="43.80731" lon="7.3217">
        <ele>232.19999694824</ele>
        <time>2013-12-07T10:16:05.000Z</time>
      </trkpt>
      <trkpt lat="43.80727" lon="7.32165">
        <ele>230.19999694824</ele>
        <time>2013-12-07T10:16:07.000Z</time>
      </trkpt>
      <trkpt lat="43.80714" lon="7.32141">
        <ele>223.19999694824</ele>
        <time>2013-12-07T10:16:12.000Z</time>
      </trkpt>
      <trkpt lat="43.80709" lon="7.32122">
        <ele>219.80000305176</ele>
        <time>2013-12-07T10:16:16.000Z</time>
      </trkpt>
      <trkpt lat="43.80703" lon="7.32108">
        <ele>217</ele>
        <time>2013-12-07T10:16:20.000Z</time>
      </trkpt>
      <trkpt lat="43.80697" lon="7.32099">
        <ele>215.19999694824</ele>
        <time>2013-12-07T10:16:24.000Z</time>
      </trkpt>
      <trkpt lat="43.80688" lon="7.32086">
        <ele>212.80000305176</ele>
        <time>2013-12-07T10:16:28.000Z</time>
      </trkpt>
      <trkpt lat="43.80682" lon="7.32073">
        <ele>210</ele>
        <time>2013-12-07T10:16:31.000Z</time>
      </trkpt>
      <trkpt lat="43.8068" lon="7.32065">
        <ele>208.39999389648</ele>
        <time>2013-12-07T10:16:33.000Z</time>
      </trkpt>
      <trkpt lat="43.80675" lon="7.32058">
        <ele>206.60000610352</ele>
        <time>2013-12-07T10:16:37.000Z</time>
      </trkpt>
      <trkpt lat="43.80673" lon="7.32044">
        <ele>204</ele>
        <time>2013-12-07T10:16:42.000Z</time>
      </trkpt>
      <trkpt lat="43.80666" lon="7.32033">
        <ele>201.39999389648</ele>
        <time>2013-12-07T10:16:46.000Z</time>
      </trkpt>
      <trkpt lat="43.80664" lon="7.32024">
        <ele>199.39999389648</ele>
        <time>2013-12-07T10:16:50.000Z</time>
      </trkpt>
      <trkpt lat="43.80665" lon="7.32015">
        <ele>198.19999694824</ele>
        <time>2013-12-07T10:16:54.000Z</time>
      </trkpt>
      <trkpt lat="43.80659" lon="7.32013">
        <ele>196.80000305176</ele>
        <time>2013-12-07T10:16:58.000Z</time>
      </trkpt>
      <trkpt lat="43.80652" lon="7.32">
        <ele>193.60000610352</ele>
        <time>2013-12-07T10:17:02.000Z</time>
      </trkpt>
      <trkpt lat="43.80649" lon="7.31994">
        <ele>192.39999389648</ele>
        <time>2013-12-07T10:17:06.000Z</time>
      </trkpt>
      <trkpt lat="43.80646" lon="7.31986">
        <ele>191</ele>
        <time>2013-12-07T10:17:10.000Z</time>
      </trkpt>
      <trkpt lat="43.80653" lon="7.3198">
        <ele>191.39999389648</ele>
        <time>2013-12-07T10:17:14.000Z</time>
      </trkpt>
      <trkpt lat="43.80652" lon="7.31964">
        <ele>189.39999389648</ele>
        <time>2013-12-07T10:17:18.000Z</time>
      </trkpt>
      <trkpt lat="43.80652" lon="7.31938">
        <ele>186.60000610352</ele>
        <time>2013-12-07T10:17:22.000Z</time>
      </trkpt>
      <trkpt lat="43.80649" lon="7.31914">
        <ele>184</ele>
        <time>2013-12-07T10:17:26.000Z</time>
      </trkpt>
      <trkpt lat="43.80644" lon="7.31895">
        <ele>183.39999389648</ele>
        <time>2013-12-07T10:17:29.000Z</time>
      </trkpt>
      <trkpt lat="43.80639" lon="7.31889">
        <ele>183.19999694824</ele>
        <time>2013-12-07T10:17:31.000Z</time>
      </trkpt>
      <trkpt lat="43.80638" lon="7.31888">
        <ele>183</ele>
        <time>2013-12-07T10:17:33.000Z</time>
      </trkpt>
      <trkpt lat="43.80637" lon="7.31887">
        <ele>183</ele>
        <time>2013-12-07T10:17:34.000Z</time>
      </trkpt>
      <trkpt lat="43.80637" lon="7.31885">
        <ele>183</ele>
        <time>2013-12-07T10:17:37.000Z</time>
      </trkpt>
      <trkpt lat="43.80633" lon="7.31883">
        <ele>182.80000305176</ele>
        <time>2013-12-07T10:17:40.000Z</time>
      </trkpt>
      <trkpt lat="43.80628" lon="7.31882">
        <ele>182.60000610352</ele>
        <time>2013-12-07T10:17:44.000Z</time>
      </trkpt>
      <trkpt lat="43.80628" lon="7.31882">
        <ele>182.60000610352</ele>
        <time>2013-12-07T10:17:45.000Z</time>
      </trkpt>
      <trkpt lat="43.80629" lon="7.31878">
        <ele>182.60000610352</ele>
        <time>2013-12-07T10:18:07.000Z</time>
      </trkpt>
      <trkpt lat="43.80623" lon="7.31879">
        <ele>182.39999389648</ele>
        <time>2013-12-07T10:18:31.000Z</time>
      </trkpt>
      <trkpt lat="43.80612" lon="7.3187">
        <ele>182</ele>
        <time>2013-12-07T10:18:36.000Z</time>
      </trkpt>
      <trkpt lat="43.80603" lon="7.31857">
        <ele>182</ele>
        <time>2013-12-07T10:18:43.000Z</time>
      </trkpt>
      <trkpt lat="43.80601" lon="7.31852">
        <ele>182</ele>
        <time>2013-12-07T10:18:48.000Z</time>
      </trkpt>
      <trkpt lat="43.806" lon="7.31852">
        <ele>182</ele>
        <time>2013-12-07T10:18:49.000Z</time>
      </trkpt>
      <trkpt lat="43.80599" lon="7.31851">
        <ele>182</ele>
        <time>2013-12-07T10:18:59.000Z</time>
      </trkpt>
      <trkpt lat="43.80594" lon="7.31851">
        <ele>181.80000305176</ele>
        <time>2013-12-07T10:19:09.000Z</time>
      </trkpt>
      <trkpt lat="43.80593" lon="7.31853">
        <ele>181.80000305176</ele>
        <time>2013-12-07T10:19:10.000Z</time>
      </trkpt>
      <trkpt lat="43.80587" lon="7.31858">
        <ele>181.60000610352</ele>
        <time>2013-12-07T10:19:13.000Z</time>
      </trkpt>
      <trkpt lat="43.80577" lon="7.31875">
        <ele>180.80000305176</ele>
        <time>2013-12-07T10:19:19.000Z</time>
      </trkpt>
      <trkpt lat="43.80569" lon="7.31893">
        <ele>180.39999389648</ele>
        <time>2013-12-07T10:19:23.000Z</time>
      </trkpt>
      <trkpt lat="43.80569" lon="7.31896">
        <ele>180.19999694824</ele>
        <time>2013-12-07T10:19:24.000Z</time>
      </trkpt>
      <trkpt lat="43.80564" lon="7.31902">
        <ele>180</ele>
        <time>2013-12-07T10:19:27.000Z</time>
      </trkpt>
      <trkpt lat="43.80554" lon="7.31903">
        <ele>180</ele>
        <time>2013-12-07T10:19:31.000Z</time>
      </trkpt>
      <trkpt lat="43.80548" lon="7.31913">
        <ele>179.60000610352</ele>
        <time>2013-12-07T10:19:34.000Z</time>
      </trkpt>
      <trkpt lat="43.80536" lon="7.31948">
        <ele>179.39999389648</ele>
        <time>2013-12-07T10:19:40.000Z</time>
      </trkpt>
      <trkpt lat="43.80527" lon="7.31965">
        <ele>179</ele>
        <time>2013-12-07T10:19:43.000Z</time>
      </trkpt>
      <trkpt lat="43.80519" lon="7.31974">
        <ele>178.39999389648</ele>
        <time>2013-12-07T10:19:45.000Z</time>
      </trkpt>
      <trkpt lat="43.80487" lon="7.32011">
        <ele>177.19999694824</ele>
        <time>2013-12-07T10:19:53.000Z</time>
      </trkpt>
      <trkpt lat="43.80453" lon="7.32054">
        <ele>177.39999389648</ele>
        <time>2013-12-07T10:20:02.000Z</time>
      </trkpt>
      <trkpt lat="43.80445" lon="7.32064">
        <ele>177.39999389648</ele>
        <time>2013-12-07T10:20:04.000Z</time>
      </trkpt>
      <trkpt lat="43.80422" lon="7.32092">
        <ele>177.19999694824</ele>
        <time>2013-12-07T10:20:10.000Z</time>
      </trkpt>
      <trkpt lat="43.80398" lon="7.32125">
        <ele>176.80000305176</ele>
        <time>2013-12-07T10:20:17.000Z</time>
      </trkpt>
      <trkpt lat="43.80385" lon="7.32143">
        <ele>176.39999389648</ele>
        <time>2013-12-07T10:20:21.000Z</time>
      </trkpt>
      <trkpt lat="43.8038" lon="7.32154">
        <ele>176.19999694824</ele>
        <time>2013-12-07T10:20:23.000Z</time>
      </trkpt>
      <trkpt lat="43.80361" lon="7.32199">
        <ele>175.80000305176</ele>
        <time>2013-12-07T10:20:31.000Z</time>
      </trkpt>
      <trkpt lat="43.80344" lon="7.32238">
        <ele>175.39999389648</ele>
        <time>2013-12-07T10:20:38.000Z</time>
      </trkpt>
      <trkpt lat="43.80331" lon="7.32272">
        <ele>176</ele>
        <time>2013-12-07T10:20:44.000Z</time>
      </trkpt>
      <trkpt lat="43.80324" lon="7.32281">
        <ele>176.39999389648</ele>
        <time>2013-12-07T10:20:46.000Z</time>
      </trkpt>
      <trkpt lat="43.80317" lon="7.32289">
        <ele>176.80000305176</ele>
        <time>2013-12-07T10:20:48.000Z</time>
      </trkpt>
      <trkpt lat="43.80303" lon="7.32297">
        <ele>176.80000305176</ele>
        <time>2013-12-07T10:20:51.000Z</time>
      </trkpt>
      <trkpt lat="43.80293" lon="7.323">
        <ele>176.80000305176</ele>
        <time>2013-12-07T10:20:53.000Z</time>
      </trkpt>
      <trkpt lat="43.8029" lon="7.32302">
        <ele>176.80000305176</ele>
        <time>2013-12-07T10:20:54.000Z</time>
      </trkpt>
      <trkpt lat="43.8029" lon="7.32304">
        <ele>177</ele>
        <time>2013-12-07T10:20:55.000Z</time>
      </trkpt>
      <trkpt lat="43.80292" lon="7.32314">
        <ele>177.39999389648</ele>
        <time>2013-12-07T10:20:59.000Z</time>
      </trkpt>
      <trkpt lat="43.80291" lon="7.32331">
        <ele>177.80000305176</ele>
        <time>2013-12-07T10:21:04.000Z</time>
      </trkpt>
      <trkpt lat="43.80288" lon="7.32342">
        <ele>179</ele>
        <time>2013-12-07T10:21:09.000Z</time>
      </trkpt>
      <trkpt lat="43.80287" lon="7.32348">
        <ele>179.80000305176</ele>
        <time>2013-12-07T10:21:11.000Z</time>
      </trkpt>
      <trkpt lat="43.80284" lon="7.32352">
        <ele>180.19999694824</ele>
        <time>2013-12-07T10:21:13.000Z</time>
      </trkpt>
      <trkpt lat="43.80283" lon="7.32355">
        <ele>180.60000610352</ele>
        <time>2013-12-07T10:21:15.000Z</time>
      </trkpt>
      <trkpt lat="43.80283" lon="7.32355">
        <ele>180.60000610352</ele>
        <time>2013-12-07T10:21:17.000Z</time>
      </trkpt>
      <trkpt lat="43.80282" lon="7.3236">
        <ele>181.19999694824</ele>
        <time>2013-12-07T10:21:23.000Z</time>
      </trkpt>
      <trkpt lat="43.80283" lon="7.32363">
        <ele>181.60000610352</ele>
        <time>2013-12-07T10:21:32.000Z</time>
      </trkpt>
      <trkpt lat="43.80288" lon="7.32371">
        <ele>182.80000305176</ele>
        <time>2013-12-07T10:21:39.000Z</time>
      </trkpt>
      <trkpt lat="43.80288" lon="7.32376">
        <ele>183.39999389648</ele>
        <time>2013-12-07T10:21:46.000Z</time>
      </trkpt>
      <trkpt lat="43.80292" lon="7.3238">
        <ele>184.19999694824</ele>
        <time>2013-12-07T10:21:51.000Z</time>
      </trkpt>
      <trkpt lat="43.80294" lon="7.32381">
        <ele>184.39999389648</ele>
        <time>2013-12-07T10:21:52.000Z</time>
      </trkpt>
      <trkpt lat="43.80299" lon="7.32383">
        <ele>185</ele>
        <time>2013-12-07T10:21:57.000Z</time>
      </trkpt>
      <trkpt lat="43.80302" lon="7.32387">
        <ele>185.60000610352</ele>
        <time>2013-12-07T10:22:01.000Z</time>
      </trkpt>
      <trkpt lat="43.80303" lon="7.32389">
        <ele>186</ele>
        <time>2013-12-07T10:22:03.000Z</time>
      </trkpt>
      <trkpt lat="43.80304" lon="7.3239">
        <ele>186.19999694824</ele>
        <time>2013-12-07T10:22:05.000Z</time>
      </trkpt>
      <trkpt lat="43.80303" lon="7.3239">
        <ele>186.19999694824</ele>
        <time>2013-12-07T10:22:09.000Z</time>
      </trkpt>
      <trkpt lat="43.80306" lon="7.32397">
        <ele>187.19999694824</ele>
        <time>2013-12-07T10:22:15.000Z</time>
      </trkpt>
      <trkpt lat="43.80307" lon="7.32399">
        <ele>187.60000610352</ele>
        <time>2013-12-07T10:22:17.000Z</time>
      </trkpt>
      <trkpt lat="43.80304" lon="7.32404">
        <ele>188.19999694824</ele>
        <time>2013-12-07T10:22:20.000Z</time>
      </trkpt>
      <trkpt lat="43.80303" lon="7.32413">
        <ele>189.39999389648</ele>
        <time>2013-12-07T10:22:24.000Z</time>
      </trkpt>
      <trkpt lat="43.80303" lon="7.32417">
        <ele>189.80000305176</ele>
        <time>2013-12-07T10:22:29.000Z</time>
      </trkpt>
      <trkpt lat="43.80301" lon="7.3242">
        <ele>190</ele>
        <time>2013-12-07T10:22:32.000Z</time>
      </trkpt>
      <trkpt lat="43.80299" lon="7.32424">
        <ele>190.39999389648</ele>
        <time>2013-12-07T10:22:34.000Z</time>
      </trkpt>
      <trkpt lat="43.80297" lon="7.32427">
        <ele>190.60000610352</ele>
        <time>2013-12-07T10:22:38.000Z</time>
      </trkpt>
      <trkpt lat="43.80297" lon="7.3243">
        <ele>191</ele>
        <time>2013-12-07T10:22:41.000Z</time>
      </trkpt>
      <trkpt lat="43.80297" lon="7.32434">
        <ele>191.60000610352</ele>
        <time>2013-12-07T10:22:47.000Z</time>
      </trkpt>
      <trkpt lat="43.80297" lon="7.32439">
        <ele>192</ele>
        <time>2013-12-07T10:22:52.000Z</time>
      </trkpt>
      <trkpt lat="43.80298" lon="7.32444">
        <ele>192.80000305176</ele>
        <time>2013-12-07T10:22:59.000Z</time>
      </trkpt>
      <trkpt lat="43.80298" lon="7.32446">
        <ele>193</ele>
        <time>2013-12-07T10:23:04.000Z</time>
      </trkpt>
      <trkpt lat="43.80299" lon="7.32449">
        <ele>193.39999389648</ele>
        <time>2013-12-07T10:23:11.000Z</time>
      </trkpt>
      <trkpt lat="43.80297" lon="7.32452">
        <ele>193.60000610352</ele>
        <time>2013-12-07T10:23:17.000Z</time>
      </trkpt>
      <trkpt lat="43.80298" lon="7.32454">
        <ele>194</ele>
        <time>2013-12-07T10:23:24.000Z</time>
      </trkpt>
      <trkpt lat="43.80299" lon="7.32458">
        <ele>194.60000610352</ele>
        <time>2013-12-07T10:23:34.000Z</time>
      </trkpt>
      <trkpt lat="43.803" lon="7.32471">
        <ele>196.19999694824</ele>
        <time>2013-12-07T10:23:39.000Z</time>
      </trkpt>
      <trkpt lat="43.80302" lon="7.32486">
        <ele>198.39999389648</ele>
        <time>2013-12-07T10:23:45.000Z</time>
      </trkpt>
      <trkpt lat="43.80306" lon="7.32504">
        <ele>200.80000305176</ele>
        <time>2013-12-07T10:23:52.000Z</time>
      </trkpt>
      <trkpt lat="43.80312" lon="7.32527">
        <ele>203.19999694824</ele>
        <time>2013-12-07T10:24:01.000Z</time>
      </trkpt>
      <trkpt lat="43.80318" lon="7.32545">
        <ele>205</ele>
        <time>2013-12-07T10:24:08.000Z</time>
      </trkpt>
      <trkpt lat="43.80328" lon="7.32561">
        <ele>207</ele>
        <time>2013-12-07T10:24:16.000Z</time>
      </trkpt>
      <trkpt lat="43.80334" lon="7.32572">
        <ele>208.19999694824</ele>
        <time>2013-12-07T10:24:22.000Z</time>
      </trkpt>
      <trkpt lat="43.8034" lon="7.32584">
        <ele>209.19999694824</ele>
        <time>2013-12-07T10:24:28.000Z</time>
      </trkpt>
      <trkpt lat="43.80346" lon="7.32605">
        <ele>210</ele>
        <time>2013-12-07T10:24:35.000Z</time>
      </trkpt>
      <trkpt lat="43.8035" lon="7.3263">
        <ele>210.80000305176</ele>
        <time>2013-12-07T10:24:43.000Z</time>
      </trkpt>
      <trkpt lat="43.80349" lon="7.32652">
        <ele>211.39999389648</ele>
        <time>2013-12-07T10:24:51.000Z</time>
      </trkpt>
      <trkpt lat="43.80348" lon="7.3267">
        <ele>212</ele>
        <time>2013-12-07T10:24:58.000Z</time>
      </trkpt>
      <trkpt lat="43.80345" lon="7.3269">
        <ele>213.60000610352</ele>
        <time>2013-12-07T10:25:05.000Z</time>
      </trkpt>
      <trkpt lat="43.80342" lon="7.32714">
        <ele>215.39999389648</ele>
        <time>2013-12-07T10:25:14.000Z</time>
      </trkpt>
      <trkpt lat="43.80338" lon="7.3273">
        <ele>216.60000610352</ele>
        <time>2013-12-07T10:25:20.000Z</time>
      </trkpt>
      <trkpt lat="43.80332" lon="7.3276">
        <ele>218.60000610352</ele>
        <time>2013-12-07T10:25:30.000Z</time>
      </trkpt>
      <trkpt lat="43.80324" lon="7.32785">
        <ele>220.19999694824</ele>
        <time>2013-12-07T10:25:38.000Z</time>
      </trkpt>
      <trkpt lat="43.80315" lon="7.32819">
        <ele>222</ele>
        <time>2013-12-07T10:25:48.000Z</time>
      </trkpt>
      <trkpt lat="43.80318" lon="7.32849">
        <ele>221.39999389648</ele>
        <time>2013-12-07T10:25:54.000Z</time>
      </trkpt>
      <trkpt lat="43.80315" lon="7.32877">
        <ele>219.80000305176</ele>
        <time>2013-12-07T10:25:58.000Z</time>
      </trkpt>
      <trkpt lat="43.80312" lon="7.32886">
        <ele>219.19999694824</ele>
        <time>2013-12-07T10:25:59.000Z</time>
      </trkpt>
      <trkpt lat="43.80303" lon="7.329">
        <ele>218</ele>
        <time>2013-12-07T10:26:01.000Z</time>
      </trkpt>
      <trkpt lat="43.80297" lon="7.3291">
        <ele>217.19999694824</ele>
        <time>2013-12-07T10:26:03.000Z</time>
      </trkpt>
      <trkpt lat="43.80295" lon="7.32918">
        <ele>216.60000610352</ele>
        <time>2013-12-07T10:26:04.000Z</time>
      </trkpt>
      <trkpt lat="43.80281" lon="7.32945">
        <ele>215.19999694824</ele>
        <time>2013-12-07T10:26:07.000Z</time>
      </trkpt>
      <trkpt lat="43.80275" lon="7.32953">
        <ele>215</ele>
        <time>2013-12-07T10:26:08.000Z</time>
      </trkpt>
      <trkpt lat="43.80267" lon="7.32967">
        <ele>214.60000610352</ele>
        <time>2013-12-07T10:26:10.000Z</time>
      </trkpt>
      <trkpt lat="43.80265" lon="7.32972">
        <ele>214.39999389648</ele>
        <time>2013-12-07T10:26:11.000Z</time>
      </trkpt>
      <trkpt lat="43.8026" lon="7.32986">
        <ele>214.19999694824</ele>
        <time>2013-12-07T10:26:15.000Z</time>
      </trkpt>
      <trkpt lat="43.80255" lon="7.32993">
        <ele>214</ele>
        <time>2013-12-07T10:26:17.000Z</time>
      </trkpt>
      <trkpt lat="43.80253" lon="7.32995">
        <ele>214</ele>
        <time>2013-12-07T10:26:18.000Z</time>
      </trkpt>
      <trkpt lat="43.80249" lon="7.32999">
        <ele>214.19999694824</ele>
        <time>2013-12-07T10:26:20.000Z</time>
      </trkpt>
      <trkpt lat="43.80242" lon="7.33006">
        <ele>215.80000305176</ele>
        <time>2013-12-07T10:26:23.000Z</time>
      </trkpt>
      <trkpt lat="43.80233" lon="7.33014">
        <ele>218</ele>
        <time>2013-12-07T10:26:27.000Z</time>
      </trkpt>
      <trkpt lat="43.80225" lon="7.33025">
        <ele>220.19999694824</ele>
        <time>2013-12-07T10:26:33.000Z</time>
      </trkpt>
      <trkpt lat="43.80223" lon="7.33026">
        <ele>220.39999389648</ele>
        <time>2013-12-07T10:26:34.000Z</time>
      </trkpt>
      <trkpt lat="43.80219" lon="7.33026">
        <ele>221</ele>
        <time>2013-12-07T10:26:38.000Z</time>
      </trkpt>
      <trkpt lat="43.80213" lon="7.33038">
        <ele>222.80000305176</ele>
        <time>2013-12-07T10:26:43.000Z</time>
      </trkpt>
      <trkpt lat="43.80207" lon="7.33048">
        <ele>224.60000610352</ele>
        <time>2013-12-07T10:26:46.000Z</time>
      </trkpt>
      <trkpt lat="43.80203" lon="7.33054">
        <ele>225.60000610352</ele>
        <time>2013-12-07T10:26:48.000Z</time>
      </trkpt>
      <trkpt lat="43.80192" lon="7.3306">
        <ele>227</ele>
        <time>2013-12-07T10:26:53.000Z</time>
      </trkpt>
      <trkpt lat="43.80191" lon="7.33059">
        <ele>227.19999694824</ele>
        <time>2013-12-07T10:26:54.000Z</time>
      </trkpt>
      <trkpt lat="43.80187" lon="7.33056">
        <ele>227.19999694824</ele>
        <time>2013-12-07T10:26:57.000Z</time>
      </trkpt>
      <trkpt lat="43.80182" lon="7.3306">
        <ele>228</ele>
        <time>2013-12-07T10:27:02.000Z</time>
      </trkpt>
      <trkpt lat="43.80179" lon="7.33069">
        <ele>229</ele>
        <time>2013-12-07T10:27:07.000Z</time>
      </trkpt>
      <trkpt lat="43.80175" lon="7.33076">
        <ele>229.80000305176</ele>
        <time>2013-12-07T10:27:12.000Z</time>
      </trkpt>
      <trkpt lat="43.80175" lon="7.33077">
        <ele>230</ele>
        <time>2013-12-07T10:27:13.000Z</time>
      </trkpt>
      <trkpt lat="43.80175" lon="7.33078">
        <ele>230</ele>
        <time>2013-12-07T10:27:14.000Z</time>
      </trkpt>
      <trkpt lat="43.80174" lon="7.33082">
        <ele>230.39999389648</ele>
        <time>2013-12-07T10:27:18.000Z</time>
      </trkpt>
      <trkpt lat="43.80175" lon="7.33084">
        <ele>230.39999389648</ele>
        <time>2013-12-07T10:27:19.000Z</time>
      </trkpt>
      <trkpt lat="43.80175" lon="7.33086">
        <ele>230.60000610352</ele>
        <time>2013-12-07T10:27:21.000Z</time>
      </trkpt>
      <trkpt lat="43.80175" lon="7.3309">
        <ele>230.60000610352</ele>
        <time>2013-12-07T10:27:24.000Z</time>
      </trkpt>
      <trkpt lat="43.80175" lon="7.33091">
        <ele>230.80000305176</ele>
        <time>2013-12-07T10:27:25.000Z</time>
      </trkpt>
      <trkpt lat="43.80175" lon="7.33092">
        <ele>230.80000305176</ele>
        <time>2013-12-07T10:27:26.000Z</time>
      </trkpt>
      <trkpt lat="43.80174" lon="7.33096">
        <ele>231</ele>
        <time>2013-12-07T10:27:30.000Z</time>
      </trkpt>
      <trkpt lat="43.80174" lon="7.33098">
        <ele>231</ele>
        <time>2013-12-07T10:27:33.000Z</time>
      </trkpt>
      <trkpt lat="43.80173" lon="7.331">
        <ele>231.19999694824</ele>
        <time>2013-12-07T10:27:35.000Z</time>
      </trkpt>
      <trkpt lat="43.80176" lon="7.33104">
        <ele>231.19999694824</ele>
        <time>2013-12-07T10:27:39.000Z</time>
      </trkpt>
      <trkpt lat="43.80179" lon="7.33106">
        <ele>231.19999694824</ele>
        <time>2013-12-07T10:27:42.000Z</time>
      </trkpt>
      <trkpt lat="43.80179" lon="7.33108">
        <ele>231.19999694824</ele>
        <time>2013-12-07T10:27:43.000Z</time>
      </trkpt>
      <trkpt lat="43.80179" lon="7.33114">
        <ele>231.39999389648</ele>
        <time>2013-12-07T10:27:48.000Z</time>
      </trkpt>
      <trkpt lat="43.80181" lon="7.33122">
        <ele>231.60000610352</ele>
        <time>2013-12-07T10:27:54.000Z</time>
      </trkpt>
      <trkpt lat="43.80182" lon="7.33123">
        <ele>231.60000610352</ele>
        <time>2013-12-07T10:27:55.000Z</time>
      </trkpt>
      <trkpt lat="43.80181" lon="7.33131">
        <ele>232</ele>
        <time>2013-12-07T10:27:59.000Z</time>
      </trkpt>
      <trkpt lat="43.80182" lon="7.33134">
        <ele>232.19999694824</ele>
        <time>2013-12-07T10:28:00.000Z</time>
      </trkpt>
      <trkpt lat="43.80188" lon="7.3314">
        <ele>232.19999694824</ele>
        <time>2013-12-07T10:28:03.000Z</time>
      </trkpt>
      <trkpt lat="43.8019" lon="7.33146">
        <ele>232.39999389648</ele>
        <time>2013-12-07T10:28:06.000Z</time>
      </trkpt>
      <trkpt lat="43.80191" lon="7.33157">
        <ele>233</ele>
        <time>2013-12-07T10:28:10.000Z</time>
      </trkpt>
      <trkpt lat="43.80192" lon="7.33159">
        <ele>233</ele>
        <time>2013-12-07T10:28:11.000Z</time>
      </trkpt>
      <trkpt lat="43.80191" lon="7.3316">
        <ele>233</ele>
        <time>2013-12-07T10:28:12.000Z</time>
      </trkpt>
      <trkpt lat="43.80189" lon="7.33166">
        <ele>233.39999389648</ele>
        <time>2013-12-07T10:28:16.000Z</time>
      </trkpt>
      <trkpt lat="43.80189" lon="7.33176">
        <ele>234.19999694824</ele>
        <time>2013-12-07T10:28:19.000Z</time>
      </trkpt>
      <trkpt lat="43.80187" lon="7.33183">
        <ele>235</ele>
        <time>2013-12-07T10:28:21.000Z</time>
      </trkpt>
      <trkpt lat="43.80187" lon="7.33203">
        <ele>236.60000610352</ele>
        <time>2013-12-07T10:28:27.000Z</time>
      </trkpt>
      <trkpt lat="43.80185" lon="7.33221">
        <ele>238.19999694824</ele>
        <time>2013-12-07T10:28:35.000Z</time>
      </trkpt>
      <trkpt lat="43.80183" lon="7.33233">
        <ele>239.39999389648</ele>
        <time>2013-12-07T10:28:41.000Z</time>
      </trkpt>
      <trkpt lat="43.80178" lon="7.33254">
        <ele>241.19999694824</ele>
        <time>2013-12-07T10:28:51.000Z</time>
      </trkpt>
      <trkpt lat="43.80171" lon="7.33266">
        <ele>242.19999694824</ele>
        <time>2013-12-07T10:28:58.000Z</time>
      </trkpt>
      <trkpt lat="43.80165" lon="7.33275">
        <ele>243.39999389648</ele>
        <time>2013-12-07T10:29:04.000Z</time>
      </trkpt>
      <trkpt lat="43.80155" lon="7.33284">
        <ele>245.60000610352</ele>
        <time>2013-12-07T10:29:10.000Z</time>
      </trkpt>
      <trkpt lat="43.80145" lon="7.333">
        <ele>248.19999694824</ele>
        <time>2013-12-07T10:29:18.000Z</time>
      </trkpt>
      <trkpt lat="43.80137" lon="7.33313">
        <ele>250</ele>
        <time>2013-12-07T10:29:24.000Z</time>
      </trkpt>
      <trkpt lat="43.8013" lon="7.33331">
        <ele>251.39999389648</ele>
        <time>2013-12-07T10:29:32.000Z</time>
      </trkpt>
      <trkpt lat="43.80123" lon="7.33348">
        <ele>253.19999694824</ele>
        <time>2013-12-07T10:29:38.000Z</time>
      </trkpt>
      <trkpt lat="43.80115" lon="7.33374">
        <ele>255</ele>
        <time>2013-12-07T10:29:47.000Z</time>
      </trkpt>
      <trkpt lat="43.80108" lon="7.33394">
        <ele>256</ele>
        <time>2013-12-07T10:29:54.000Z</time>
      </trkpt>
      <trkpt lat="43.80104" lon="7.33414">
        <ele>256.60000610352</ele>
        <time>2013-12-07T10:30:01.000Z</time>
      </trkpt>
      <trkpt lat="43.80098" lon="7.33435">
        <ele>257.79998779297</ele>
        <time>2013-12-07T10:30:09.000Z</time>
      </trkpt>
      <trkpt lat="43.80096" lon="7.33456">
        <ele>259.20001220703</ele>
        <time>2013-12-07T10:30:17.000Z</time>
      </trkpt>
      <trkpt lat="43.80097" lon="7.33473">
        <ele>260.39999389648</ele>
        <time>2013-12-07T10:30:24.000Z</time>
      </trkpt>
      <trkpt lat="43.80093" lon="7.3348">
        <ele>260.60000610352</ele>
        <time>2013-12-07T10:30:30.000Z</time>
      </trkpt>
      <trkpt lat="43.80088" lon="7.33479">
        <ele>260.20001220703</ele>
        <time>2013-12-07T10:30:36.000Z</time>
      </trkpt>
      <trkpt lat="43.80083" lon="7.33481">
        <ele>259.79998779297</ele>
        <time>2013-12-07T10:30:43.000Z</time>
      </trkpt>
      <trkpt lat="43.80078" lon="7.33486">
        <ele>260.39999389648</ele>
        <time>2013-12-07T10:30:51.000Z</time>
      </trkpt>
      <trkpt lat="43.80066" lon="7.33495">
        <ele>261.20001220703</ele>
        <time>2013-12-07T10:30:57.000Z</time>
      </trkpt>
      <trkpt lat="43.80053" lon="7.33505">
        <ele>261.60000610352</ele>
        <time>2013-12-07T10:31:04.000Z</time>
      </trkpt>
      <trkpt lat="43.80044" lon="7.3351">
        <ele>261.39999389648</ele>
        <time>2013-12-07T10:31:10.000Z</time>
      </trkpt>
      <trkpt lat="43.80042" lon="7.33511">
        <ele>261.39999389648</ele>
        <time>2013-12-07T10:31:11.000Z</time>
      </trkpt>
      <trkpt lat="43.80037" lon="7.33514">
        <ele>261.20001220703</ele>
        <time>2013-12-07T10:31:14.000Z</time>
      </trkpt>
      <trkpt lat="43.8003" lon="7.33518">
        <ele>260.79998779297</ele>
        <time>2013-12-07T10:31:18.000Z</time>
      </trkpt>
      <trkpt lat="43.80015" lon="7.33526">
        <ele>260</ele>
        <time>2013-12-07T10:31:23.000Z</time>
      </trkpt>
      <trkpt lat="43.79998" lon="7.33533">
        <ele>259.20001220703</ele>
        <time>2013-12-07T10:31:27.000Z</time>
      </trkpt>
      <trkpt lat="43.79988" lon="7.33537">
        <ele>259.39999389648</ele>
        <time>2013-12-07T10:31:32.000Z</time>
      </trkpt>
      <trkpt lat="43.7998" lon="7.33538">
        <ele>259.79998779297</ele>
        <time>2013-12-07T10:31:38.000Z</time>
      </trkpt>
      <trkpt lat="43.79976" lon="7.33534">
        <ele>260.79998779297</ele>
        <time>2013-12-07T10:31:44.000Z</time>
      </trkpt>
      <trkpt lat="43.79974" lon="7.33533">
        <ele>261.20001220703</ele>
        <time>2013-12-07T10:31:47.000Z</time>
      </trkpt>
      <trkpt lat="43.7997" lon="7.3353">
        <ele>261.79998779297</ele>
        <time>2013-12-07T10:31:51.000Z</time>
      </trkpt>
      <trkpt lat="43.79968" lon="7.3353">
        <ele>262</ele>
        <time>2013-12-07T10:31:56.000Z</time>
      </trkpt>
      <trkpt lat="43.79964" lon="7.33529">
        <ele>262.39999389648</ele>
        <time>2013-12-07T10:31:59.000Z</time>
      </trkpt>
      <trkpt lat="43.79959" lon="7.33527">
        <ele>263.20001220703</ele>
        <time>2013-12-07T10:32:03.000Z</time>
      </trkpt>
      <trkpt lat="43.79953" lon="7.33525">
        <ele>264</ele>
        <time>2013-12-07T10:32:08.000Z</time>
      </trkpt>
      <trkpt lat="43.79951" lon="7.33526">
        <ele>264.20001220703</ele>
        <time>2013-12-07T10:32:10.000Z</time>
      </trkpt>
      <trkpt lat="43.79939" lon="7.33528">
        <ele>264.79998779297</ele>
        <time>2013-12-07T10:32:18.000Z</time>
      </trkpt>
      <trkpt lat="43.79926" lon="7.3353">
        <ele>265.39999389648</ele>
        <time>2013-12-07T10:32:23.000Z</time>
      </trkpt>
      <trkpt lat="43.79914" lon="7.33543">
        <ele>263.20001220703</ele>
        <time>2013-12-07T10:32:27.000Z</time>
      </trkpt>
      <trkpt lat="43.79898" lon="7.33562">
        <ele>259.20001220703</ele>
        <time>2013-12-07T10:32:31.000Z</time>
      </trkpt>
      <trkpt lat="43.79891" lon="7.33571">
        <ele>256.79998779297</ele>
        <time>2013-12-07T10:32:33.000Z</time>
      </trkpt>
      <trkpt lat="43.79883" lon="7.33576">
        <ele>255.80000305176</ele>
        <time>2013-12-07T10:32:35.000Z</time>
      </trkpt>
      <trkpt lat="43.79873" lon="7.33577">
        <ele>255.19999694824</ele>
        <time>2013-12-07T10:32:37.000Z</time>
      </trkpt>
      <trkpt lat="43.79863" lon="7.33576">
        <ele>255.60000610352</ele>
        <time>2013-12-07T10:32:39.000Z</time>
      </trkpt>
      <trkpt lat="43.79858" lon="7.33574">
        <ele>256.20001220703</ele>
        <time>2013-12-07T10:32:40.000Z</time>
      </trkpt>
      <trkpt lat="43.79842" lon="7.33562">
        <ele>260</ele>
        <time>2013-12-07T10:32:43.000Z</time>
      </trkpt>
      <trkpt lat="43.79837" lon="7.33556">
        <ele>262</ele>
        <time>2013-12-07T10:32:44.000Z</time>
      </trkpt>
      <trkpt lat="43.79819" lon="7.33544">
        <ele>265.79998779297</ele>
        <time>2013-12-07T10:32:47.000Z</time>
      </trkpt>
      <trkpt lat="43.79813" lon="7.33541">
        <ele>266.20001220703</ele>
        <time>2013-12-07T10:32:48.000Z</time>
      </trkpt>
      <trkpt lat="43.79801" lon="7.3354">
        <ele>266</ele>
        <time>2013-12-07T10:32:50.000Z</time>
      </trkpt>
      <trkpt lat="43.79789" lon="7.33554">
        <ele>262.39999389648</ele>
        <time>2013-12-07T10:32:53.000Z</time>
      </trkpt>
      <trkpt lat="43.79784" lon="7.33558">
        <ele>261.39999389648</ele>
        <time>2013-12-07T10:32:54.000Z</time>
      </trkpt>
      <trkpt lat="43.7978" lon="7.3356">
        <ele>261</ele>
        <time>2013-12-07T10:32:55.000Z</time>
      </trkpt>
      <trkpt lat="43.79771" lon="7.3356">
        <ele>261</ele>
        <time>2013-12-07T10:32:57.000Z</time>
      </trkpt>
      <trkpt lat="43.79761" lon="7.33564">
        <ele>260.39999389648</ele>
        <time>2013-12-07T10:32:59.000Z</time>
      </trkpt>
      <trkpt lat="43.79749" lon="7.33567">
        <ele>260.20001220703</ele>
        <time>2013-12-07T10:33:02.000Z</time>
      </trkpt>
      <trkpt lat="43.79735" lon="7.33568">
        <ele>261.20001220703</ele>
        <time>2013-12-07T10:33:06.000Z</time>
      </trkpt>
      <trkpt lat="43.79724" lon="7.33572">
        <ele>261.60000610352</ele>
        <time>2013-12-07T10:33:09.000Z</time>
      </trkpt>
      <trkpt lat="43.79719" lon="7.33572">
        <ele>262.20001220703</ele>
        <time>2013-12-07T10:33:11.000Z</time>
      </trkpt>
      <trkpt lat="43.79709" lon="7.33571">
        <ele>263</ele>
        <time>2013-12-07T10:33:14.000Z</time>
      </trkpt>
      <trkpt lat="43.79685" lon="7.33574">
        <ele>265</ele>
        <time>2013-12-07T10:33:20.000Z</time>
      </trkpt>
      <trkpt lat="43.79667" lon="7.33573">
        <ele>266.39999389648</ele>
        <time>2013-12-07T10:33:25.000Z</time>
      </trkpt>
      <trkpt lat="43.79649" lon="7.33577">
        <ele>268.20001220703</ele>
        <time>2013-12-07T10:33:31.000Z</time>
      </trkpt>
      <trkpt lat="43.79633" lon="7.33579">
        <ele>269.39999389648</ele>
        <time>2013-12-07T10:33:37.000Z</time>
      </trkpt>
      <trkpt lat="43.79625" lon="7.33575">
        <ele>269.79998779297</ele>
        <time>2013-12-07T10:33:41.000Z</time>
      </trkpt>
      <trkpt lat="43.79615" lon="7.33572">
        <ele>270.39999389648</ele>
        <time>2013-12-07T10:33:47.000Z</time>
      </trkpt>
      <trkpt lat="43.79604" lon="7.33581">
        <ele>272</ele>
        <time>2013-12-07T10:33:52.000Z</time>
      </trkpt>
      <trkpt lat="43.79592" lon="7.33587">
        <ele>272.60000610352</ele>
        <time>2013-12-07T10:33:57.000Z</time>
      </trkpt>
      <trkpt lat="43.79582" lon="7.33587">
        <ele>273.20001220703</ele>
        <time>2013-12-07T10:34:02.000Z</time>
      </trkpt>
      <trkpt lat="43.79578" lon="7.33587">
        <ele>273.20001220703</ele>
        <time>2013-12-07T10:34:06.000Z</time>
      </trkpt>
      <trkpt lat="43.79574" lon="7.33588">
        <ele>273</ele>
        <time>2013-12-07T10:34:08.000Z</time>
      </trkpt>
      <trkpt lat="43.79562" lon="7.33589">
        <ele>272.60000610352</ele>
        <time>2013-12-07T10:34:14.000Z</time>
      </trkpt>
      <trkpt lat="43.79555" lon="7.3359">
        <ele>272.60000610352</ele>
        <time>2013-12-07T10:34:19.000Z</time>
      </trkpt>
      <trkpt lat="43.79554" lon="7.33589">
        <ele>272.60000610352</ele>
        <time>2013-12-07T10:34:20.000Z</time>
      </trkpt>
      <trkpt lat="43.79548" lon="7.33587">
        <ele>273</ele>
        <time>2013-12-07T10:34:23.000Z</time>
      </trkpt>
      <trkpt lat="43.79545" lon="7.33585">
        <ele>273.20001220703</ele>
        <time>2013-12-07T10:34:25.000Z</time>
      </trkpt>
      <trkpt lat="43.79531" lon="7.33581">
        <ele>273.20001220703</ele>
        <time>2013-12-07T10:34:31.000Z</time>
      </trkpt>
      <trkpt lat="43.79522" lon="7.33578">
        <ele>272.79998779297</ele>
        <time>2013-12-07T10:34:37.000Z</time>
      </trkpt>
      <trkpt lat="43.79518" lon="7.3358">
        <ele>272.79998779297</ele>
        <time>2013-12-07T10:34:43.000Z</time>
      </trkpt>
      <trkpt lat="43.79516" lon="7.3358">
        <ele>272.79998779297</ele>
        <time>2013-12-07T10:34:45.000Z</time>
      </trkpt>
      <trkpt lat="43.79512" lon="7.33579">
        <ele>272.60000610352</ele>
        <time>2013-12-07T10:34:49.000Z</time>
      </trkpt>
      <trkpt lat="43.79512" lon="7.33579">
        <ele>272.60000610352</ele>
        <time>2013-12-07T10:34:50.000Z</time>
      </trkpt>
      <trkpt lat="43.7951" lon="7.33576">
        <ele>272.39999389648</ele>
        <time>2013-12-07T10:34:58.000Z</time>
      </trkpt>
      <trkpt lat="43.79502" lon="7.33576">
        <ele>272.20001220703</ele>
        <time>2013-12-07T10:35:30.000Z</time>
      </trkpt>
      <trkpt lat="43.79501" lon="7.33574">
        <ele>272</ele>
        <time>2013-12-07T10:36:15.000Z</time>
      </trkpt>
      <trkpt lat="43.79495" lon="7.33575">
        <ele>272.20001220703</ele>
        <time>2013-12-07T10:36:42.000Z</time>
      </trkpt>
      <trkpt lat="43.79483" lon="7.33576">
        <ele>272.39999389648</ele>
        <time>2013-12-07T10:36:48.000Z</time>
      </trkpt>
      <trkpt lat="43.7947" lon="7.33584">
        <ele>273.39999389648</ele>
        <time>2013-12-07T10:36:53.000Z</time>
      </trkpt>
      <trkpt lat="43.7945" lon="7.33596">
        <ele>273.20001220703</ele>
        <time>2013-12-07T10:37:00.000Z</time>
      </trkpt>
      <trkpt lat="43.79435" lon="7.33602">
        <ele>273.39999389648</ele>
        <time>2013-12-07T10:37:06.000Z</time>
      </trkpt>
      <trkpt lat="43.79422" lon="7.33616">
        <ele>273.79998779297</ele>
        <time>2013-12-07T10:37:12.000Z</time>
      </trkpt>
      <trkpt lat="43.79411" lon="7.33623">
        <ele>274.20001220703</ele>
        <time>2013-12-07T10:37:17.000Z</time>
      </trkpt>
      <trkpt lat="43.79397" lon="7.33623">
        <ele>275</ele>
        <time>2013-12-07T10:37:24.000Z</time>
      </trkpt>
      <trkpt lat="43.79382" lon="7.33624">
        <ele>275.79998779297</ele>
        <time>2013-12-07T10:37:31.000Z</time>
      </trkpt>
      <trkpt lat="43.79364" lon="7.33627">
        <ele>276.79998779297</ele>
        <time>2013-12-07T10:37:36.000Z</time>
      </trkpt>
      <trkpt lat="43.79349" lon="7.3363">
        <ele>277.79998779297</ele>
        <time>2013-12-07T10:37:41.000Z</time>
      </trkpt>
      <trkpt lat="43.79338" lon="7.33633">
        <ele>278.39999389648</ele>
        <time>2013-12-07T10:37:46.000Z</time>
      </trkpt>
      <trkpt lat="43.79319" lon="7.33632">
        <ele>277.60000610352</ele>
        <time>2013-12-07T10:37:51.000Z</time>
      </trkpt>
      <trkpt lat="43.79309" lon="7.33634">
        <ele>277</ele>
        <time>2013-12-07T10:37:55.000Z</time>
      </trkpt>
      <trkpt lat="43.79308" lon="7.33635">
        <ele>277</ele>
        <time>2013-12-07T10:37:57.000Z</time>
      </trkpt>
      <trkpt lat="43.79308" lon="7.33635">
        <ele>277</ele>
        <time>2013-12-07T10:38:00.000Z</time>
      </trkpt>
      <trkpt lat="43.79302" lon="7.3364">
        <ele>276.60000610352</ele>
        <time>2013-12-07T10:40:13.000Z</time>
      </trkpt>
      <trkpt lat="43.79286" lon="7.33649">
        <ele>275.39999389648</ele>
        <time>2013-12-07T10:40:17.000Z</time>
      </trkpt>
      <trkpt lat="43.79263" lon="7.33653">
        <ele>274</ele>
        <time>2013-12-07T10:40:22.000Z</time>
      </trkpt>
      <trkpt lat="43.79251" lon="7.33654">
        <ele>273</ele>
        <time>2013-12-07T10:40:25.000Z</time>
      </trkpt>
      <trkpt lat="43.79244" lon="7.33654">
        <ele>271.60000610352</ele>
        <time>2013-12-07T10:40:27.000Z</time>
      </trkpt>
      <trkpt lat="43.79233" lon="7.33653">
        <ele>269.20001220703</ele>
        <time>2013-12-07T10:40:30.000Z</time>
      </trkpt>
      <trkpt lat="43.79224" lon="7.33655">
        <ele>267</ele>
        <time>2013-12-07T10:40:32.000Z</time>
      </trkpt>
      <trkpt lat="43.79209" lon="7.33655">
        <ele>264</ele>
        <time>2013-12-07T10:40:35.000Z</time>
      </trkpt>
      <trkpt lat="43.79201" lon="7.33654">
        <ele>262</ele>
        <time>2013-12-07T10:40:37.000Z</time>
      </trkpt>
      <trkpt lat="43.79198" lon="7.33654">
        <ele>261.20001220703</ele>
        <time>2013-12-07T10:40:38.000Z</time>
      </trkpt>
      <trkpt lat="43.79186" lon="7.3366">
        <ele>259.20001220703</ele>
        <time>2013-12-07T10:40:41.000Z</time>
      </trkpt>
      <trkpt lat="43.79179" lon="7.33662">
        <ele>258</ele>
        <time>2013-12-07T10:40:43.000Z</time>
      </trkpt>
      <trkpt lat="43.79175" lon="7.33666">
        <ele>257.60000610352</ele>
        <time>2013-12-07T10:40:45.000Z</time>
      </trkpt>
      <trkpt lat="43.79177" lon="7.3367">
        <ele>257.39999389648</ele>
        <time>2013-12-07T10:40:49.000Z</time>
      </trkpt>
      <trkpt lat="43.79177" lon="7.33672">
        <ele>257</ele>
        <time>2013-12-07T10:40:50.000Z</time>
      </trkpt>
      <trkpt lat="43.79174" lon="7.33678">
        <ele>255</ele>
        <time>2013-12-07T10:40:53.000Z</time>
      </trkpt>
      <trkpt lat="43.79172" lon="7.33679">
        <ele>254.19999694824</ele>
        <time>2013-12-07T10:40:54.000Z</time>
      </trkpt>
      <trkpt lat="43.79164" lon="7.33689">
        <ele>250.19999694824</ele>
        <time>2013-12-07T10:40:58.000Z</time>
      </trkpt>
      <trkpt lat="43.79157" lon="7.33691">
        <ele>247.19999694824</ele>
        <time>2013-12-07T10:41:02.000Z</time>
      </trkpt>
      <trkpt lat="43.79148" lon="7.337">
        <ele>243</ele>
        <time>2013-12-07T10:41:06.000Z</time>
      </trkpt>
      <trkpt lat="43.79146" lon="7.33707">
        <ele>241.19999694824</ele>
        <time>2013-12-07T10:41:10.000Z</time>
      </trkpt>
      <trkpt lat="43.79143" lon="7.33711">
        <ele>239.80000305176</ele>
        <time>2013-12-07T10:41:14.000Z</time>
      </trkpt>
      <trkpt lat="43.79141" lon="7.33713">
        <ele>238.80000305176</ele>
        <time>2013-12-07T10:41:16.000Z</time>
      </trkpt>
      <trkpt lat="43.79137" lon="7.33713">
        <ele>237.60000610352</ele>
        <time>2013-12-07T10:41:19.000Z</time>
      </trkpt>
      <trkpt lat="43.79134" lon="7.33715">
        <ele>236.60000610352</ele>
        <time>2013-12-07T10:41:23.000Z</time>
      </trkpt>
      <trkpt lat="43.79132" lon="7.33717">
        <ele>236</ele>
        <time>2013-12-07T10:41:24.000Z</time>
      </trkpt>
      <trkpt lat="43.79125" lon="7.33725">
        <ele>233.39999389648</ele>
        <time>2013-12-07T10:41:29.000Z</time>
      </trkpt>
      <trkpt lat="43.79121" lon="7.33728">
        <ele>232</ele>
        <time>2013-12-07T10:41:31.000Z</time>
      </trkpt>
      <trkpt lat="43.79116" lon="7.33731">
        <ele>230.80000305176</ele>
        <time>2013-12-07T10:41:34.000Z</time>
      </trkpt>
      <trkpt lat="43.7911" lon="7.33733">
        <ele>229.39999389648</ele>
        <time>2013-12-07T10:41:38.000Z</time>
      </trkpt>
      <trkpt lat="43.79109" lon="7.33734">
        <ele>228.80000305176</ele>
        <time>2013-12-07T10:41:39.000Z</time>
      </trkpt>
      <trkpt lat="43.79103" lon="7.33736">
        <ele>227.60000610352</ele>
        <time>2013-12-07T10:41:42.000Z</time>
      </trkpt>
      <trkpt lat="43.79098" lon="7.33736">
        <ele>226.60000610352</ele>
        <time>2013-12-07T10:41:43.000Z</time>
      </trkpt>
      <trkpt lat="43.79085" lon="7.33745">
        <ele>224.19999694824</ele>
        <time>2013-12-07T10:41:46.000Z</time>
      </trkpt>
      <trkpt lat="43.79076" lon="7.33749">
        <ele>222.39999389648</ele>
        <time>2013-12-07T10:41:50.000Z</time>
      </trkpt>
      <trkpt lat="43.79067" lon="7.33747">
        <ele>220.39999389648</ele>
        <time>2013-12-07T10:41:55.000Z</time>
      </trkpt>
      <trkpt lat="43.79064" lon="7.33747">
        <ele>220</ele>
        <time>2013-12-07T10:41:56.000Z</time>
      </trkpt>
      <trkpt lat="43.79053" lon="7.33742">
        <ele>217.19999694824</ele>
        <time>2013-12-07T10:41:58.000Z</time>
      </trkpt>
      <trkpt lat="43.79043" lon="7.33739">
        <ele>214.80000305176</ele>
        <time>2013-12-07T10:42:00.000Z</time>
      </trkpt>
      <trkpt lat="43.7903" lon="7.33741">
        <ele>212.19999694824</ele>
        <time>2013-12-07T10:42:03.000Z</time>
      </trkpt>
      <trkpt lat="43.79026" lon="7.33741">
        <ele>211.39999389648</ele>
        <time>2013-12-07T10:42:04.000Z</time>
      </trkpt>
      <trkpt lat="43.79018" lon="7.33736">
        <ele>209</ele>
        <time>2013-12-07T10:42:06.000Z</time>
      </trkpt>
      <trkpt lat="43.79004" lon="7.33731">
        <ele>205.39999389648</ele>
        <time>2013-12-07T10:42:09.000Z</time>
      </trkpt>
      <trkpt lat="43.78999" lon="7.33724">
        <ele>203.39999389648</ele>
        <time>2013-12-07T10:42:11.000Z</time>
      </trkpt>
      <trkpt lat="43.78986" lon="7.33715">
        <ele>200.60000610352</ele>
        <time>2013-12-07T10:42:15.000Z</time>
      </trkpt>
      <trkpt lat="43.78973" lon="7.33709">
        <ele>198.60000610352</ele>
        <time>2013-12-07T10:42:19.000Z</time>
      </trkpt>
      <trkpt lat="43.78968" lon="7.33707">
        <ele>197.80000305176</ele>
        <time>2013-12-07T10:42:24.000Z</time>
      </trkpt>
      <trkpt lat="43.78972" lon="7.33705">
        <ele>198</ele>
        <time>2013-12-07T10:42:32.000Z</time>
      </trkpt>
      <trkpt lat="43.78973" lon="7.33702">
        <ele>197.80000305176</ele>
        <time>2013-12-07T10:42:34.000Z</time>
      </trkpt>
      <trkpt lat="43.78972" lon="7.33698">
        <ele>197.19999694824</ele>
        <time>2013-12-07T10:42:38.000Z</time>
      </trkpt>
      <trkpt lat="43.78973" lon="7.33697">
        <ele>197.19999694824</ele>
        <time>2013-12-07T10:42:39.000Z</time>
      </trkpt>
      <trkpt lat="43.78974" lon="7.33695">
        <ele>197.19999694824</ele>
        <time>2013-12-07T10:42:42.000Z</time>
      </trkpt>
      <trkpt lat="43.78977" lon="7.3369">
        <ele>196.80000305176</ele>
        <time>2013-12-07T10:42:48.000Z</time>
      </trkpt>
      <trkpt lat="43.7898" lon="7.33681">
        <ele>196.19999694824</ele>
        <time>2013-12-07T10:42:52.000Z</time>
      </trkpt>
      <trkpt lat="43.78985" lon="7.33664">
        <ele>194.60000610352</ele>
        <time>2013-12-07T10:42:56.000Z</time>
      </trkpt>
      <trkpt lat="43.78989" lon="7.33646">
        <ele>192.60000610352</ele>
        <time>2013-12-07T10:43:00.000Z</time>
      </trkpt>
      <trkpt lat="43.78989" lon="7.3362">
        <ele>189.19999694824</ele>
        <time>2013-12-07T10:43:05.000Z</time>
      </trkpt>
      <trkpt lat="43.78988" lon="7.33602">
        <ele>186.60000610352</ele>
        <time>2013-12-07T10:43:09.000Z</time>
      </trkpt>
      <trkpt lat="43.78986" lon="7.33597">
        <ele>185.80000305176</ele>
        <time>2013-12-07T10:43:12.000Z</time>
      </trkpt>
      <trkpt lat="43.78984" lon="7.33595">
        <ele>185.39999389648</ele>
        <time>2013-12-07T10:43:13.000Z</time>
      </trkpt>
      <trkpt lat="43.78976" lon="7.33588">
        <ele>184</ele>
        <time>2013-12-07T10:43:17.000Z</time>
      </trkpt>
      <trkpt lat="43.78969" lon="7.3358">
        <ele>182.39999389648</ele>
        <time>2013-12-07T10:43:21.000Z</time>
      </trkpt>
      <trkpt lat="43.78966" lon="7.33563">
        <ele>180.39999389648</ele>
        <time>2013-12-07T10:43:24.000Z</time>
      </trkpt>
      <trkpt lat="43.78962" lon="7.33553">
        <ele>179.19999694824</ele>
        <time>2013-12-07T10:43:27.000Z</time>
      </trkpt>
      <trkpt lat="43.78962" lon="7.3355">
        <ele>179</ele>
        <time>2013-12-07T10:43:30.000Z</time>
      </trkpt>
      <trkpt lat="43.78963" lon="7.33551">
        <ele>179</ele>
        <time>2013-12-07T10:43:32.000Z</time>
      </trkpt>
      <trkpt lat="43.78958" lon="7.33542">
        <ele>177.80000305176</ele>
        <time>2013-12-07T10:43:42.000Z</time>
      </trkpt>
      <trkpt lat="43.78947" lon="7.33516">
        <ele>174.19999694824</ele>
        <time>2013-12-07T10:43:48.000Z</time>
      </trkpt>
      <trkpt lat="43.78938" lon="7.33502">
        <ele>172</ele>
        <time>2013-12-07T10:43:52.000Z</time>
      </trkpt>
      <trkpt lat="43.78933" lon="7.3349">
        <ele>170.60000610352</ele>
        <time>2013-12-07T10:43:56.000Z</time>
      </trkpt>
      <trkpt lat="43.78932" lon="7.33485">
        <ele>170</ele>
        <time>2013-12-07T10:44:02.000Z</time>
      </trkpt>
      <trkpt lat="43.78928" lon="7.33472">
        <ele>168.39999389648</ele>
        <time>2013-12-07T10:44:42.000Z</time>
      </trkpt>
      <trkpt lat="43.78922" lon="7.3345">
        <ele>165.80000305176</ele>
        <time>2013-12-07T10:44:46.000Z</time>
      </trkpt>
      <trkpt lat="43.78913" lon="7.33406">
        <ele>161.60000610352</ele>
        <time>2013-12-07T10:44:50.000Z</time>
      </trkpt>
      <trkpt lat="43.78904" lon="7.33347">
        <ele>158.39999389648</ele>
        <time>2013-12-07T10:44:55.000Z</time>
      </trkpt>
      <trkpt lat="43.78908" lon="7.33315">
        <ele>155.80000305176</ele>
        <time>2013-12-07T10:44:58.000Z</time>
      </trkpt>
      <trkpt lat="43.78923" lon="7.33284">
        <ele>154</ele>
        <time>2013-12-07T10:45:02.000Z</time>
      </trkpt>
      <trkpt lat="43.78929" lon="7.33268">
        <ele>153.80000305176</ele>
        <time>2013-12-07T10:45:05.000Z</time>
      </trkpt>
      <trkpt lat="43.78921" lon="7.33252">
        <ele>151</ele>
        <time>2013-12-07T10:45:08.000Z</time>
      </trkpt>
      <trkpt lat="43.78913" lon="7.33235">
        <ele>149.19999694824</ele>
        <time>2013-12-07T10:45:13.000Z</time>
      </trkpt>
      <trkpt lat="43.78916" lon="7.33221">
        <ele>148.60000610352</ele>
        <time>2013-12-07T10:45:17.000Z</time>
      </trkpt>
      <trkpt lat="43.78921" lon="7.33212">
        <ele>148.80000305176</ele>
        <time>2013-12-07T10:45:22.000Z</time>
      </trkpt>
      <trkpt lat="43.78923" lon="7.33207">
        <ele>149</ele>
        <time>2013-12-07T10:45:25.000Z</time>
      </trkpt>
      <trkpt lat="43.78925" lon="7.33205">
        <ele>149</ele>
        <time>2013-12-07T10:45:28.000Z</time>
      </trkpt>
      <trkpt lat="43.78925" lon="7.33205">
        <ele>149</ele>
        <time>2013-12-07T10:45:29.000Z</time>
      </trkpt>
      <trkpt lat="43.78931" lon="7.332">
        <ele>149.60000610352</ele>
        <time>2013-12-07T10:48:20.000Z</time>
      </trkpt>
      <trkpt lat="43.78936" lon="7.33198">
        <ele>150.19999694824</ele>
        <time>2013-12-07T10:48:42.000Z</time>
      </trkpt>
      <trkpt lat="43.78941" lon="7.33193">
        <ele>150.39999389648</ele>
        <time>2013-12-07T10:48:50.000Z</time>
      </trkpt>
      <trkpt lat="43.78941" lon="7.33186">
        <ele>150</ele>
        <time>2013-12-07T10:48:56.000Z</time>
      </trkpt>
      <trkpt lat="43.78934" lon="7.33182">
        <ele>148.80000305176</ele>
        <time>2013-12-07T10:49:00.000Z</time>
      </trkpt>
      <trkpt lat="43.78921" lon="7.33185">
        <ele>147.39999389648</ele>
        <time>2013-12-07T10:49:05.000Z</time>
      </trkpt>
      <trkpt lat="43.789" lon="7.33189">
        <ele>147</ele>
        <time>2013-12-07T10:49:12.000Z</time>
      </trkpt>
      <trkpt lat="43.78863" lon="7.33196">
        <ele>147</ele>
        <time>2013-12-07T10:49:22.000Z</time>
      </trkpt>
      <trkpt lat="43.78835" lon="7.33207">
        <ele>147.39999389648</ele>
        <time>2013-12-07T10:49:29.000Z</time>
      </trkpt>
      <trkpt lat="43.78797" lon="7.33228">
        <ele>146.60000610352</ele>
        <time>2013-12-07T10:49:37.000Z</time>
      </trkpt>
      <trkpt lat="43.78772" lon="7.33246">
        <ele>146</ele>
        <time>2013-12-07T10:49:43.000Z</time>
      </trkpt>
      <trkpt lat="43.78746" lon="7.33276">
        <ele>147.39999389648</ele>
        <time>2013-12-07T10:49:49.000Z</time>
      </trkpt>
      <trkpt lat="43.78717" lon="7.33311">
        <ele>148.19999694824</ele>
        <time>2013-12-07T10:49:56.000Z</time>
      </trkpt>
      <trkpt lat="43.78698" lon="7.3333">
        <ele>147.39999389648</ele>
        <time>2013-12-07T10:50:02.000Z</time>
      </trkpt>
      <trkpt lat="43.78672" lon="7.3335">
        <ele>146.60000610352</ele>
        <time>2013-12-07T10:50:08.000Z</time>
      </trkpt>
      <trkpt lat="43.78639" lon="7.33372">
        <ele>146.80000305176</ele>
        <time>2013-12-07T10:50:16.000Z</time>
      </trkpt>
      <trkpt lat="43.78611" lon="7.33395">
        <ele>148</ele>
        <time>2013-12-07T10:50:23.000Z</time>
      </trkpt>
      <trkpt lat="43.78586" lon="7.33417">
        <ele>149.19999694824</ele>
        <time>2013-12-07T10:50:29.000Z</time>
      </trkpt>
      <trkpt lat="43.78556" lon="7.33442">
        <ele>149</ele>
        <time>2013-12-07T10:50:36.000Z</time>
      </trkpt>
      <trkpt lat="43.78526" lon="7.33476">
        <ele>146.60000610352</ele>
        <time>2013-12-07T10:50:44.000Z</time>
      </trkpt>
      <trkpt lat="43.78502" lon="7.33514">
        <ele>144.60000610352</ele>
        <time>2013-12-07T10:50:51.000Z</time>
      </trkpt>
      <trkpt lat="43.78464" lon="7.3356">
        <ele>147.60000610352</ele>
        <time>2013-12-07T10:51:00.000Z</time>
      </trkpt>
      <trkpt lat="43.78442" lon="7.33568">
        <ele>146.39999389648</ele>
        <time>2013-12-07T10:51:04.000Z</time>
      </trkpt>
      <trkpt lat="43.78408" lon="7.33584">
        <ele>144</ele>
        <time>2013-12-07T10:51:11.000Z</time>
      </trkpt>
      <trkpt lat="43.78367" lon="7.33599">
        <ele>141</ele>
        <time>2013-12-07T10:51:19.000Z</time>
      </trkpt>
      <trkpt lat="43.78329" lon="7.33621">
        <ele>138.39999389648</ele>
        <time>2013-12-07T10:51:27.000Z</time>
      </trkpt>
      <trkpt lat="43.78293" lon="7.33641">
        <ele>137.80000305176</ele>
        <time>2013-12-07T10:51:34.000Z</time>
      </trkpt>
      <trkpt lat="43.78247" lon="7.33672">
        <ele>136</ele>
        <time>2013-12-07T10:51:43.000Z</time>
      </trkpt>
      <trkpt lat="43.78227" lon="7.33687">
        <ele>135.19999694824</ele>
        <time>2013-12-07T10:51:47.000Z</time>
      </trkpt>
      <trkpt lat="43.78214" lon="7.33702">
        <ele>134.60000610352</ele>
        <time>2013-12-07T10:51:50.000Z</time>
      </trkpt>
      <trkpt lat="43.78185" lon="7.33734">
        <ele>132.60000610352</ele>
        <time>2013-12-07T10:51:57.000Z</time>
      </trkpt>
      <trkpt lat="43.78172" lon="7.33746">
        <ele>131.39999389648</ele>
        <time>2013-12-07T10:52:00.000Z</time>
      </trkpt>
      <trkpt lat="43.78162" lon="7.33748">
        <ele>130.80000305176</ele>
        <time>2013-12-07T10:52:02.000Z</time>
      </trkpt>
      <trkpt lat="43.78149" lon="7.33743">
        <ele>130.39999389648</ele>
        <time>2013-12-07T10:52:05.000Z</time>
      </trkpt>
      <trkpt lat="43.78146" lon="7.33741">
        <ele>130.39999389648</ele>
        <time>2013-12-07T10:52:06.000Z</time>
      </trkpt>
      <trkpt lat="43.78143" lon="7.33741">
        <ele>130.19999694824</ele>
        <time>2013-12-07T10:52:07.000Z</time>
      </trkpt>
      <trkpt lat="43.78135" lon="7.33743">
        <ele>130</ele>
        <time>2013-12-07T10:52:10.000Z</time>
      </trkpt>
      <trkpt lat="43.7813" lon="7.33748">
        <ele>129.60000610352</ele>
        <time>2013-12-07T10:52:14.000Z</time>
      </trkpt>
      <trkpt lat="43.78122" lon="7.33759">
        <ele>130.39999389648</ele>
        <time>2013-12-07T10:52:20.000Z</time>
      </trkpt>
      <trkpt lat="43.78119" lon="7.3376">
        <ele>130.39999389648</ele>
        <time>2013-12-07T10:52:24.000Z</time>
      </trkpt>
      <trkpt lat="43.7812" lon="7.33761">
        <ele>130.60000610352</ele>
        <time>2013-12-07T10:52:43.000Z</time>
      </trkpt>
      <trkpt lat="43.78123" lon="7.33756">
        <ele>130</ele>
        <time>2013-12-07T10:52:50.000Z</time>
      </trkpt>
      <trkpt lat="43.7813" lon="7.33744">
        <ele>129.80000305176</ele>
        <time>2013-12-07T10:52:55.000Z</time>
      </trkpt>
      <trkpt lat="43.78135" lon="7.33721">
        <ele>130.39999389648</ele>
        <time>2013-12-07T10:53:00.000Z</time>
      </trkpt>
      <trkpt lat="43.78127" lon="7.33693">
        <ele>130.60000610352</ele>
        <time>2013-12-07T10:53:05.000Z</time>
      </trkpt>
      <trkpt lat="43.78121" lon="7.33691">
        <ele>130.39999389648</ele>
        <time>2013-12-07T10:53:06.000Z</time>
      </trkpt>
      <trkpt lat="43.78115" lon="7.33692">
        <ele>130.19999694824</ele>
        <time>2013-12-07T10:53:07.000Z</time>
      </trkpt>
      <trkpt lat="43.78093" lon="7.33702">
        <ele>129.39999389648</ele>
        <time>2013-12-07T10:53:11.000Z</time>
      </trkpt>
      <trkpt lat="43.78057" lon="7.33708">
        <ele>128.80000305176</ele>
        <time>2013-12-07T10:53:17.000Z</time>
      </trkpt>
      <trkpt lat="43.78035" lon="7.33705">
        <ele>128.80000305176</ele>
        <time>2013-12-07T10:53:21.000Z</time>
      </trkpt>
      <trkpt lat="43.78024" lon="7.33701">
        <ele>128.80000305176</ele>
        <time>2013-12-07T10:53:23.000Z</time>
      </trkpt>
      <trkpt lat="43.77995" lon="7.33696">
        <ele>128.60000610352</ele>
        <time>2013-12-07T10:53:29.000Z</time>
      </trkpt>
      <trkpt lat="43.77987" lon="7.33699">
        <ele>128.60000610352</ele>
        <time>2013-12-07T10:53:32.000Z</time>
      </trkpt>
      <trkpt lat="43.77985" lon="7.33702">
        <ele>128.60000610352</ele>
        <time>2013-12-07T10:53:33.000Z</time>
      </trkpt>
      <trkpt lat="43.77973" lon="7.33705">
        <ele>128.39999389648</ele>
        <time>2013-12-07T10:53:37.000Z</time>
      </trkpt>
      <trkpt lat="43.7797" lon="7.33704">
        <ele>128.39999389648</ele>
        <time>2013-12-07T10:53:38.000Z</time>
      </trkpt>
      <trkpt lat="43.7795" lon="7.33705">
        <ele>128.39999389648</ele>
        <time>2013-12-07T10:53:43.000Z</time>
      </trkpt>
      <trkpt lat="43.77913" lon="7.33707">
        <ele>128</ele>
        <time>2013-12-07T10:53:51.000Z</time>
      </trkpt>
      <trkpt lat="43.7787" lon="7.33709">
        <ele>126</ele>
        <time>2013-12-07T10:54:00.000Z</time>
      </trkpt>
      <trkpt lat="43.77824" lon="7.33709">
        <ele>124.59999847412</ele>
        <time>2013-12-07T10:54:09.000Z</time>
      </trkpt>
      <trkpt lat="43.77772" lon="7.33702">
        <ele>125.59999847412</ele>
        <time>2013-12-07T10:54:19.000Z</time>
      </trkpt>
      <trkpt lat="43.77736" lon="7.33693">
        <ele>126.19999694824</ele>
        <time>2013-12-07T10:54:26.000Z</time>
      </trkpt>
      <trkpt lat="43.77707" lon="7.33684">
        <ele>125.80000305176</ele>
        <time>2013-12-07T10:54:33.000Z</time>
      </trkpt>
      <trkpt lat="43.77705" lon="7.33682">
        <ele>125.80000305176</ele>
        <time>2013-12-07T10:54:34.000Z</time>
      </trkpt>
      <trkpt lat="43.777" lon="7.33676">
        <ele>126</ele>
        <time>2013-12-07T10:54:37.000Z</time>
      </trkpt>
      <trkpt lat="43.77689" lon="7.33673">
        <ele>125.59999847412</ele>
        <time>2013-12-07T10:54:39.000Z</time>
      </trkpt>
      <trkpt lat="43.77684" lon="7.33671">
        <ele>125.59999847412</ele>
        <time>2013-12-07T10:54:40.000Z</time>
      </trkpt>
      <trkpt lat="43.77643" lon="7.33654">
        <ele>126</ele>
        <time>2013-12-07T10:54:48.000Z</time>
      </trkpt>
      <trkpt lat="43.77606" lon="7.33633">
        <ele>126.19999694824</ele>
        <time>2013-12-07T10:54:56.000Z</time>
      </trkpt>
      <trkpt lat="43.77572" lon="7.33605">
        <ele>125.40000152588</ele>
        <time>2013-12-07T10:55:04.000Z</time>
      </trkpt>
      <trkpt lat="43.77549" lon="7.33587">
        <ele>124</ele>
        <time>2013-12-07T10:55:10.000Z</time>
      </trkpt>
      <trkpt lat="43.77539" lon="7.33579">
        <ele>123.40000152588</ele>
        <time>2013-12-07T10:55:12.000Z</time>
      </trkpt>
      <trkpt lat="43.77511" lon="7.33552">
        <ele>122.19999694824</ele>
        <time>2013-12-07T10:55:18.000Z</time>
      </trkpt>
      <trkpt lat="43.77475" lon="7.33513">
        <ele>121.59999847412</ele>
        <time>2013-12-07T10:55:26.000Z</time>
      </trkpt>
      <trkpt lat="43.77442" lon="7.33469">
        <ele>122.19999694824</ele>
        <time>2013-12-07T10:55:34.000Z</time>
      </trkpt>
      <trkpt lat="43.77439" lon="7.33464">
        <ele>122.40000152588</ele>
        <time>2013-12-07T10:55:35.000Z</time>
      </trkpt>
      <trkpt lat="43.77413" lon="7.33421">
        <ele>121.80000305176</ele>
        <time>2013-12-07T10:55:43.000Z</time>
      </trkpt>
      <trkpt lat="43.77412" lon="7.33416">
        <ele>122</ele>
        <time>2013-12-07T10:55:44.000Z</time>
      </trkpt>
      <trkpt lat="43.77406" lon="7.33409">
        <ele>122.80000305176</ele>
        <time>2013-12-07T10:55:46.000Z</time>
      </trkpt>
      <trkpt lat="43.77399" lon="7.33398">
        <ele>123.59999847412</ele>
        <time>2013-12-07T10:55:49.000Z</time>
      </trkpt>
      <trkpt lat="43.77393" lon="7.33389">
        <ele>124</ele>
        <time>2013-12-07T10:55:51.000Z</time>
      </trkpt>
      <trkpt lat="43.77379" lon="7.33358">
        <ele>124.59999847412</ele>
        <time>2013-12-07T10:55:56.000Z</time>
      </trkpt>
      <trkpt lat="43.77361" lon="7.33298">
        <ele>127.40000152588</ele>
        <time>2013-12-07T10:56:05.000Z</time>
      </trkpt>
      <trkpt lat="43.77353" lon="7.33267">
        <ele>129.19999694824</ele>
        <time>2013-12-07T10:56:11.000Z</time>
      </trkpt>
      <trkpt lat="43.77345" lon="7.33242">
        <ele>131.60000610352</ele>
        <time>2013-12-07T10:56:18.000Z</time>
      </trkpt>
      <trkpt lat="43.77332" lon="7.33213">
        <ele>137.80000305176</ele>
        <time>2013-12-07T10:56:27.000Z</time>
      </trkpt>
      <trkpt lat="43.77314" lon="7.33194">
        <ele>141.39999389648</ele>
        <time>2013-12-07T10:56:34.000Z</time>
      </trkpt>
      <trkpt lat="43.77303" lon="7.33183">
        <ele>142.39999389648</ele>
        <time>2013-12-07T10:56:39.000Z</time>
      </trkpt>
      <trkpt lat="43.77284" lon="7.33174">
        <ele>140.60000610352</ele>
        <time>2013-12-07T10:56:44.000Z</time>
      </trkpt>
      <trkpt lat="43.77253" lon="7.33168">
        <ele>134.39999389648</ele>
        <time>2013-12-07T10:56:50.000Z</time>
      </trkpt>
      <trkpt lat="43.77231" lon="7.33178">
        <ele>129.19999694824</ele>
        <time>2013-12-07T10:56:54.000Z</time>
      </trkpt>
      <trkpt lat="43.77222" lon="7.33186">
        <ele>126.80000305176</ele>
        <time>2013-12-07T10:56:56.000Z</time>
      </trkpt>
      <trkpt lat="43.77219" lon="7.33189">
        <ele>126</ele>
        <time>2013-12-07T10:56:57.000Z</time>
      </trkpt>
      <trkpt lat="43.77218" lon="7.33193">
        <ele>125.19999694824</ele>
        <time>2013-12-07T10:56:58.000Z</time>
      </trkpt>
      <trkpt lat="43.77216" lon="7.33207">
        <ele>123</ele>
        <time>2013-12-07T10:57:01.000Z</time>
      </trkpt>
      <trkpt lat="43.77215" lon="7.33212">
        <ele>122</ele>
        <time>2013-12-07T10:57:02.000Z</time>
      </trkpt>
      <trkpt lat="43.77211" lon="7.33244">
        <ele>117.19999694824</ele>
        <time>2013-12-07T10:57:07.000Z</time>
      </trkpt>
      <trkpt lat="43.77206" lon="7.33287">
        <ele>122.19999694824</ele>
        <time>2013-12-07T10:57:13.000Z</time>
      </trkpt>
      <trkpt lat="43.77203" lon="7.33297">
        <ele>124</ele>
        <time>2013-12-07T10:57:15.000Z</time>
      </trkpt>
      <trkpt lat="43.77197" lon="7.33301">
        <ele>125.19999694824</ele>
        <time>2013-12-07T10:57:17.000Z</time>
      </trkpt>
      <trkpt lat="43.77184" lon="7.33304">
        <ele>127</ele>
        <time>2013-12-07T10:57:20.000Z</time>
      </trkpt>
      <trkpt lat="43.77179" lon="7.33305">
        <ele>127.59999847412</ele>
        <time>2013-12-07T10:57:21.000Z</time>
      </trkpt>
      <trkpt lat="43.77149" lon="7.33307">
        <ele>131</ele>
        <time>2013-12-07T10:57:27.000Z</time>
      </trkpt>
      <trkpt lat="43.77116" lon="7.33302">
        <ele>132.60000610352</ele>
        <time>2013-12-07T10:57:33.000Z</time>
      </trkpt>
      <trkpt lat="43.77082" lon="7.33294">
        <ele>132.60000610352</ele>
        <time>2013-12-07T10:57:39.000Z</time>
      </trkpt>
      <trkpt lat="43.77048" lon="7.33277">
        <ele>129.60000610352</ele>
        <time>2013-12-07T10:57:45.000Z</time>
      </trkpt>
      <trkpt lat="43.7703" lon="7.33271">
        <ele>128.80000305176</ele>
        <time>2013-12-07T10:57:49.000Z</time>
      </trkpt>
      <trkpt lat="43.7702" lon="7.33267">
        <ele>128.39999389648</ele>
        <time>2013-12-07T10:57:51.000Z</time>
      </trkpt>
      <trkpt lat="43.76984" lon="7.3325">
        <ele>125.59999847412</ele>
        <time>2013-12-07T10:57:58.000Z</time>
      </trkpt>
      <trkpt lat="43.76936" lon="7.33231">
        <ele>126.40000152588</ele>
        <time>2013-12-07T10:58:07.000Z</time>
      </trkpt>
      <trkpt lat="43.769" lon="7.33206">
        <ele>121.80000305176</ele>
        <time>2013-12-07T10:58:14.000Z</time>
      </trkpt>
      <trkpt lat="43.76871" lon="7.33174">
        <ele>115.59999847412</ele>
        <time>2013-12-07T10:58:21.000Z</time>
      </trkpt>
      <trkpt lat="43.76855" lon="7.33155">
        <ele>114.19999694824</ele>
        <time>2013-12-07T10:58:25.000Z</time>
      </trkpt>
      <trkpt lat="43.76847" lon="7.33146">
        <ele>114</ele>
        <time>2013-12-07T10:58:27.000Z</time>
      </trkpt>
      <trkpt lat="43.76842" lon="7.33143">
        <ele>113.80000305176</ele>
        <time>2013-12-07T10:58:28.000Z</time>
      </trkpt>
      <trkpt lat="43.76823" lon="7.3314">
        <ele>113.40000152588</ele>
        <time>2013-12-07T10:58:32.000Z</time>
      </trkpt>
      <trkpt lat="43.76809" lon="7.33136">
        <ele>113</ele>
        <time>2013-12-07T10:58:35.000Z</time>
      </trkpt>
      <trkpt lat="43.76798" lon="7.33128">
        <ele>112.40000152588</ele>
        <time>2013-12-07T10:58:38.000Z</time>
      </trkpt>
      <trkpt lat="43.76761" lon="7.33097">
        <ele>110.59999847412</ele>
        <time>2013-12-07T10:58:48.000Z</time>
      </trkpt>
      <trkpt lat="43.76729" lon="7.33071">
        <ele>109.19999694824</ele>
        <time>2013-12-07T10:58:55.000Z</time>
      </trkpt>
      <trkpt lat="43.76678" lon="7.33031">
        <ele>108</ele>
        <time>2013-12-07T10:59:06.000Z</time>
      </trkpt>
      <trkpt lat="43.76644" lon="7.33005">
        <ele>108.40000152588</ele>
        <time>2013-12-07T10:59:12.000Z</time>
      </trkpt>
      <trkpt lat="43.766" lon="7.32969">
        <ele>107.80000305176</ele>
        <time>2013-12-07T10:59:19.000Z</time>
      </trkpt>
      <trkpt lat="43.76548" lon="7.32927">
        <ele>110</ele>
        <time>2013-12-07T10:59:26.000Z</time>
      </trkpt>
      <trkpt lat="43.76536" lon="7.32913">
        <ele>110.40000152588</ele>
        <time>2013-12-07T10:59:28.000Z</time>
      </trkpt>
      <trkpt lat="43.76527" lon="7.32894">
        <ele>110.19999694824</ele>
        <time>2013-12-07T10:59:30.000Z</time>
      </trkpt>
      <trkpt lat="43.76517" lon="7.32878">
        <ele>110</ele>
        <time>2013-12-07T10:59:32.000Z</time>
      </trkpt>
      <trkpt lat="43.76504" lon="7.32868">
        <ele>110.19999694824</ele>
        <time>2013-12-07T10:59:34.000Z</time>
      </trkpt>
      <trkpt lat="43.765" lon="7.32862">
        <ele>110.19999694824</ele>
        <time>2013-12-07T10:59:35.000Z</time>
      </trkpt>
      <trkpt lat="43.76494" lon="7.32847">
        <ele>111.59999847412</ele>
        <time>2013-12-07T10:59:37.000Z</time>
      </trkpt>
      <trkpt lat="43.76478" lon="7.32799">
        <ele>115</ele>
        <time>2013-12-07T10:59:43.000Z</time>
      </trkpt>
      <trkpt lat="43.76467" lon="7.32733">
        <ele>115.59999847412</ele>
        <time>2013-12-07T10:59:50.000Z</time>
      </trkpt>
      <trkpt lat="43.76462" lon="7.32706">
        <ele>115.40000152588</ele>
        <time>2013-12-07T10:59:53.000Z</time>
      </trkpt>
      <trkpt lat="43.76459" lon="7.32687">
        <ele>115.19999694824</ele>
        <time>2013-12-07T10:59:55.000Z</time>
      </trkpt>
      <trkpt lat="43.76454" lon="7.3264">
        <ele>113.80000305176</ele>
        <time>2013-12-07T11:00:01.000Z</time>
      </trkpt>
      <trkpt lat="43.76452" lon="7.32595">
        <ele>112.40000152588</ele>
        <time>2013-12-07T11:00:06.000Z</time>
      </trkpt>
      <trkpt lat="43.76453" lon="7.32557">
        <ele>111.59999847412</ele>
        <time>2013-12-07T11:00:11.000Z</time>
      </trkpt>
      <trkpt lat="43.76455" lon="7.32549">
        <ele>111.19999694824</ele>
        <time>2013-12-07T11:00:12.000Z</time>
      </trkpt>
      <trkpt lat="43.7646" lon="7.32535">
        <ele>110.40000152588</ele>
        <time>2013-12-07T11:00:14.000Z</time>
      </trkpt>
      <trkpt lat="43.76462" lon="7.32528">
        <ele>110.19999694824</ele>
        <time>2013-12-07T11:00:15.000Z</time>
      </trkpt>
      <trkpt lat="43.76463" lon="7.32507">
        <ele>109.80000305176</ele>
        <time>2013-12-07T11:00:18.000Z</time>
      </trkpt>
      <trkpt lat="43.76457" lon="7.32489">
        <ele>110.59999847412</ele>
        <time>2013-12-07T11:00:21.000Z</time>
      </trkpt>
      <trkpt lat="43.76456" lon="7.32482">
        <ele>110.59999847412</ele>
        <time>2013-12-07T11:00:22.000Z</time>
      </trkpt>
      <trkpt lat="43.76456" lon="7.3245">
        <ele>110.19999694824</ele>
        <time>2013-12-07T11:00:26.000Z</time>
      </trkpt>
      <trkpt lat="43.76458" lon="7.32393">
        <ele>109.59999847412</ele>
        <time>2013-12-07T11:00:33.000Z</time>
      </trkpt>
      <trkpt lat="43.76452" lon="7.32336">
        <ele>111</ele>
        <time>2013-12-07T11:00:40.000Z</time>
      </trkpt>
      <trkpt lat="43.76437" lon="7.32272">
        <ele>107.40000152588</ele>
        <time>2013-12-07T11:00:48.000Z</time>
      </trkpt>
      <trkpt lat="43.76427" lon="7.3225">
        <ele>105.59999847412</ele>
        <time>2013-12-07T11:00:51.000Z</time>
      </trkpt>
      <trkpt lat="43.76417" lon="7.32238">
        <ele>105.80000305176</ele>
        <time>2013-12-07T11:00:53.000Z</time>
      </trkpt>
      <trkpt lat="43.76389" lon="7.3222">
        <ele>109.40000152588</ele>
        <time>2013-12-07T11:00:58.000Z</time>
      </trkpt>
      <trkpt lat="43.76384" lon="7.32218">
        <ele>110</ele>
        <time>2013-12-07T11:00:59.000Z</time>
      </trkpt>
      <trkpt lat="43.76359" lon="7.32212">
        <ele>112</ele>
        <time>2013-12-07T11:01:03.000Z</time>
      </trkpt>
      <trkpt lat="43.76315" lon="7.32203">
        <ele>116</ele>
        <time>2013-12-07T11:01:10.000Z</time>
      </trkpt>
      <trkpt lat="43.76298" lon="7.32198">
        <ele>117.80000305176</ele>
        <time>2013-12-07T11:01:13.000Z</time>
      </trkpt>
      <trkpt lat="43.76288" lon="7.32194">
        <ele>118</ele>
        <time>2013-12-07T11:01:15.000Z</time>
      </trkpt>
      <trkpt lat="43.76284" lon="7.32193">
        <ele>118.19999694824</ele>
        <time>2013-12-07T11:01:16.000Z</time>
      </trkpt>
      <trkpt lat="43.76266" lon="7.32183">
        <ele>117.40000152588</ele>
        <time>2013-12-07T11:01:19.000Z</time>
      </trkpt>
      <trkpt lat="43.76225" lon="7.32157">
        <ele>117.40000152588</ele>
        <time>2013-12-07T11:01:26.000Z</time>
      </trkpt>
      <trkpt lat="43.76192" lon="7.32127">
        <ele>117.80000305176</ele>
        <time>2013-12-07T11:01:32.000Z</time>
      </trkpt>
      <trkpt lat="43.76158" lon="7.32084">
        <ele>108.19999694824</ele>
        <time>2013-12-07T11:01:39.000Z</time>
      </trkpt>
      <trkpt lat="43.76145" lon="7.32065">
        <ele>107</ele>
        <time>2013-12-07T11:01:42.000Z</time>
      </trkpt>
      <trkpt lat="43.76133" lon="7.32055">
        <ele>106.40000152588</ele>
        <time>2013-12-07T11:01:44.000Z</time>
      </trkpt>
      <trkpt lat="43.76116" lon="7.32037">
        <ele>104.59999847412</ele>
        <time>2013-12-07T11:01:47.000Z</time>
      </trkpt>
      <trkpt lat="43.76104" lon="7.32023">
        <ele>102.80000305176</ele>
        <time>2013-12-07T11:01:49.000Z</time>
      </trkpt>
      <trkpt lat="43.76066" lon="7.31982">
        <ele>98.800003051758</ele>
        <time>2013-12-07T11:01:56.000Z</time>
      </trkpt>
      <trkpt lat="43.7606" lon="7.31977">
        <ele>98.800003051758</ele>
        <time>2013-12-07T11:01:57.000Z</time>
      </trkpt>
      <trkpt lat="43.76038" lon="7.31973">
        <ele>99.199996948242</ele>
        <time>2013-12-07T11:02:00.000Z</time>
      </trkpt>
      <trkpt lat="43.76016" lon="7.31982">
        <ele>100.19999694824</ele>
        <time>2013-12-07T11:02:03.000Z</time>
      </trkpt>
      <trkpt lat="43.76008" lon="7.31985">
        <ele>100.80000305176</ele>
        <time>2013-12-07T11:02:04.000Z</time>
      </trkpt>
      <trkpt lat="43.75958" lon="7.32003">
        <ele>99</ele>
        <time>2013-12-07T11:02:11.000Z</time>
      </trkpt>
      <trkpt lat="43.75914" lon="7.32024">
        <ele>99.800003051758</ele>
        <time>2013-12-07T11:02:17.000Z</time>
      </trkpt>
      <trkpt lat="43.75901" lon="7.32031">
        <ele>100.19999694824</ele>
        <time>2013-12-07T11:02:19.000Z</time>
      </trkpt>
      <trkpt lat="43.75886" lon="7.32035">
        <ele>100</ele>
        <time>2013-12-07T11:02:21.000Z</time>
      </trkpt>
      <trkpt lat="43.75872" lon="7.3204">
        <ele>99.800003051758</ele>
        <time>2013-12-07T11:02:23.000Z</time>
      </trkpt>
      <trkpt lat="43.75858" lon="7.32044">
        <ele>99.199996948242</ele>
        <time>2013-12-07T11:02:25.000Z</time>
      </trkpt>
      <trkpt lat="43.75808" lon="7.32055">
        <ele>96.800003051758</ele>
        <time>2013-12-07T11:02:32.000Z</time>
      </trkpt>
      <trkpt lat="43.75768" lon="7.32058">
        <ele>94.800003051758</ele>
        <time>2013-12-07T11:02:38.000Z</time>
      </trkpt>
      <trkpt lat="43.75724" lon="7.32065">
        <ele>93.599998474121</ele>
        <time>2013-12-07T11:02:45.000Z</time>
      </trkpt>
      <trkpt lat="43.75682" lon="7.32063">
        <ele>92.800003051758</ele>
        <time>2013-12-07T11:02:52.000Z</time>
      </trkpt>
      <trkpt lat="43.7564" lon="7.3206">
        <ele>92.199996948242</ele>
        <time>2013-12-07T11:02:59.000Z</time>
      </trkpt>
      <trkpt lat="43.75594" lon="7.32055">
        <ele>91.400001525879</ele>
        <time>2013-12-07T11:03:06.000Z</time>
      </trkpt>
      <trkpt lat="43.75564" lon="7.3205">
        <ele>91.599998474121</ele>
        <time>2013-12-07T11:03:12.000Z</time>
      </trkpt>
      <trkpt lat="43.7556" lon="7.3205">
        <ele>91.599998474121</ele>
        <time>2013-12-07T11:03:13.000Z</time>
      </trkpt>
      <trkpt lat="43.75534" lon="7.32049">
        <ele>92.199996948242</ele>
        <time>2013-12-07T11:03:18.000Z</time>
      </trkpt>
      <trkpt lat="43.75507" lon="7.32041">
        <ele>92.400001525879</ele>
        <time>2013-12-07T11:03:23.000Z</time>
      </trkpt>
      <trkpt lat="43.75502" lon="7.32037">
        <ele>92.400001525879</ele>
        <time>2013-12-07T11:03:24.000Z</time>
      </trkpt>
      <trkpt lat="43.7549" lon="7.32032">
        <ele>92.199996948242</ele>
        <time>2013-12-07T11:03:26.000Z</time>
      </trkpt>
      <trkpt lat="43.75485" lon="7.32032">
        <ele>92.199996948242</ele>
        <time>2013-12-07T11:03:27.000Z</time>
      </trkpt>
      <trkpt lat="43.75456" lon="7.32032">
        <ele>92</ele>
        <time>2013-12-07T11:03:32.000Z</time>
      </trkpt>
      <trkpt lat="43.7545" lon="7.32033">
        <ele>92</ele>
        <time>2013-12-07T11:03:33.000Z</time>
      </trkpt>
      <trkpt lat="43.75428" lon="7.3204">
        <ele>92.400001525879</ele>
        <time>2013-12-07T11:03:37.000Z</time>
      </trkpt>
      <trkpt lat="43.75422" lon="7.32043">
        <ele>92.599998474121</ele>
        <time>2013-12-07T11:03:38.000Z</time>
      </trkpt>
      <trkpt lat="43.75411" lon="7.32048">
        <ele>92.599998474121</ele>
        <time>2013-12-07T11:03:40.000Z</time>
      </trkpt>
      <trkpt lat="43.754" lon="7.32055">
        <ele>92.199996948242</ele>
        <time>2013-12-07T11:03:42.000Z</time>
      </trkpt>
      <trkpt lat="43.75357" lon="7.32077">
        <ele>90.400001525879</ele>
        <time>2013-12-07T11:03:49.000Z</time>
      </trkpt>
      <trkpt lat="43.75319" lon="7.32093">
        <ele>88.599998474121</ele>
        <time>2013-12-07T11:03:55.000Z</time>
      </trkpt>
      <trkpt lat="43.75288" lon="7.32096">
        <ele>88</ele>
        <time>2013-12-07T11:04:00.000Z</time>
      </trkpt>
      <trkpt lat="43.75263" lon="7.32092">
        <ele>87.400001525879</ele>
        <time>2013-12-07T11:04:04.000Z</time>
      </trkpt>
      <trkpt lat="43.75251" lon="7.32089">
        <ele>87</ele>
        <time>2013-12-07T11:04:06.000Z</time>
      </trkpt>
      <trkpt lat="43.75245" lon="7.32086">
        <ele>87</ele>
        <time>2013-12-07T11:04:07.000Z</time>
      </trkpt>
      <trkpt lat="43.75221" lon="7.32074">
        <ele>87</ele>
        <time>2013-12-07T11:04:11.000Z</time>
      </trkpt>
      <trkpt lat="43.75183" lon="7.32053">
        <ele>86.800003051758</ele>
        <time>2013-12-07T11:04:18.000Z</time>
      </trkpt>
      <trkpt lat="43.75167" lon="7.32046">
        <ele>86.599998474121</ele>
        <time>2013-12-07T11:04:21.000Z</time>
      </trkpt>
      <trkpt lat="43.75151" lon="7.32037">
        <ele>87.599998474121</ele>
        <time>2013-12-07T11:04:24.000Z</time>
      </trkpt>
      <trkpt lat="43.7513" lon="7.32022">
        <ele>88.400001525879</ele>
        <time>2013-12-07T11:04:28.000Z</time>
      </trkpt>
      <trkpt lat="43.75121" lon="7.32012">
        <ele>88.199996948242</ele>
        <time>2013-12-07T11:04:30.000Z</time>
      </trkpt>
      <trkpt lat="43.75107" lon="7.31999">
        <ele>88</ele>
        <time>2013-12-07T11:04:33.000Z</time>
      </trkpt>
      <trkpt lat="43.75095" lon="7.31994">
        <ele>88.199996948242</ele>
        <time>2013-12-07T11:04:35.000Z</time>
      </trkpt>
      <trkpt lat="43.75082" lon="7.31992">
        <ele>88.400001525879</ele>
        <time>2013-12-07T11:04:37.000Z</time>
      </trkpt>
      <trkpt lat="43.75056" lon="7.3199">
        <ele>87.400001525879</ele>
        <time>2013-12-07T11:04:41.000Z</time>
      </trkpt>
      <trkpt lat="43.75013" lon="7.31991">
        <ele>86</ele>
        <time>2013-12-07T11:04:48.000Z</time>
      </trkpt>
      <trkpt lat="43.74973" lon="7.32008">
        <ele>86.800003051758</ele>
        <time>2013-12-07T11:04:55.000Z</time>
      </trkpt>
      <trkpt lat="43.74941" lon="7.32024">
        <ele>88.400001525879</ele>
        <time>2013-12-07T11:05:01.000Z</time>
      </trkpt>
      <trkpt lat="43.74898" lon="7.32047">
        <ele>90.400001525879</ele>
        <time>2013-12-07T11:05:09.000Z</time>
      </trkpt>
      <trkpt lat="43.74857" lon="7.32076">
        <ele>92.199996948242</ele>
        <time>2013-12-07T11:05:17.000Z</time>
      </trkpt>
      <trkpt lat="43.74834" lon="7.32094">
        <ele>94.199996948242</ele>
        <time>2013-12-07T11:05:22.000Z</time>
      </trkpt>
      <trkpt lat="43.74829" lon="7.32098">
        <ele>95.400001525879</ele>
        <time>2013-12-07T11:05:23.000Z</time>
      </trkpt>
      <trkpt lat="43.74819" lon="7.32105">
        <ele>97.800003051758</ele>
        <time>2013-12-07T11:05:25.000Z</time>
      </trkpt>
      <trkpt lat="43.74802" lon="7.32106">
        <ele>100.19999694824</ele>
        <time>2013-12-07T11:05:28.000Z</time>
      </trkpt>
      <trkpt lat="43.74781" lon="7.32096">
        <ele>100.40000152588</ele>
        <time>2013-12-07T11:05:32.000Z</time>
      </trkpt>
      <trkpt lat="43.74776" lon="7.32092">
        <ele>100.19999694824</ele>
        <time>2013-12-07T11:05:33.000Z</time>
      </trkpt>
      <trkpt lat="43.74754" lon="7.32067">
        <ele>97.199996948242</ele>
        <time>2013-12-07T11:05:38.000Z</time>
      </trkpt>
      <trkpt lat="43.74727" lon="7.32031">
        <ele>94</ele>
        <time>2013-12-07T11:05:45.000Z</time>
      </trkpt>
      <trkpt lat="43.74718" lon="7.32026">
        <ele>94</ele>
        <time>2013-12-07T11:05:47.000Z</time>
      </trkpt>
      <trkpt lat="43.74703" lon="7.32019">
        <ele>94.400001525879</ele>
        <time>2013-12-07T11:05:50.000Z</time>
      </trkpt>
      <trkpt lat="43.74665" lon="7.31999">
        <ele>94</ele>
        <time>2013-12-07T11:05:58.000Z</time>
      </trkpt>
      <trkpt lat="43.74639" lon="7.31983">
        <ele>95</ele>
        <time>2013-12-07T11:06:03.000Z</time>
      </trkpt>
      <trkpt lat="43.74634" lon="7.31979">
        <ele>95.199996948242</ele>
        <time>2013-12-07T11:06:04.000Z</time>
      </trkpt>
      <trkpt lat="43.74608" lon="7.31944">
        <ele>94.599998474121</ele>
        <time>2013-12-07T11:06:10.000Z</time>
      </trkpt>
      <trkpt lat="43.74594" lon="7.31908">
        <ele>93.400001525879</ele>
        <time>2013-12-07T11:06:15.000Z</time>
      </trkpt>
      <trkpt lat="43.74587" lon="7.31885">
        <ele>92.800003051758</ele>
        <time>2013-12-07T11:06:18.000Z</time>
      </trkpt>
      <trkpt lat="43.74585" lon="7.31868">
        <ele>91.599998474121</ele>
        <time>2013-12-07T11:06:20.000Z</time>
      </trkpt>
      <trkpt lat="43.74585" lon="7.3186">
        <ele>91</ele>
        <time>2013-12-07T11:06:21.000Z</time>
      </trkpt>
      <trkpt lat="43.74585" lon="7.31828">
        <ele>88.400001525879</ele>
        <time>2013-12-07T11:06:25.000Z</time>
      </trkpt>
      <trkpt lat="43.74582" lon="7.31812">
        <ele>87.599998474121</ele>
        <time>2013-12-07T11:06:27.000Z</time>
      </trkpt>
      <trkpt lat="43.74576" lon="7.31797">
        <ele>87.599998474121</ele>
        <time>2013-12-07T11:06:29.000Z</time>
      </trkpt>
      <trkpt lat="43.74568" lon="7.31784">
        <ele>88.199996948242</ele>
        <time>2013-12-07T11:06:31.000Z</time>
      </trkpt>
      <trkpt lat="43.74558" lon="7.31764">
        <ele>89.400001525879</ele>
        <time>2013-12-07T11:06:34.000Z</time>
      </trkpt>
      <trkpt lat="43.74555" lon="7.31756">
        <ele>89.599998474121</ele>
        <time>2013-12-07T11:06:35.000Z</time>
      </trkpt>
      <trkpt lat="43.74552" lon="7.3173">
        <ele>90.599998474121</ele>
        <time>2013-12-07T11:06:38.000Z</time>
      </trkpt>
      <trkpt lat="43.74552" lon="7.31722">
        <ele>90.800003051758</ele>
        <time>2013-12-07T11:06:39.000Z</time>
      </trkpt>
      <trkpt lat="43.7455" lon="7.31675">
        <ele>92.400001525879</ele>
        <time>2013-12-07T11:06:45.000Z</time>
      </trkpt>
      <trkpt lat="43.74551" lon="7.31643">
        <ele>90.599998474121</ele>
        <time>2013-12-07T11:06:49.000Z</time>
      </trkpt>
      <trkpt lat="43.74555" lon="7.31629">
        <ele>88.599998474121</ele>
        <time>2013-12-07T11:06:51.000Z</time>
      </trkpt>
      <trkpt lat="43.74558" lon="7.31608">
        <ele>86.599998474121</ele>
        <time>2013-12-07T11:06:54.000Z</time>
      </trkpt>
      <trkpt lat="43.74556" lon="7.31592">
        <ele>86.199996948242</ele>
        <time>2013-12-07T11:06:56.000Z</time>
      </trkpt>
      <trkpt lat="43.74542" lon="7.31555">
        <ele>85.400001525879</ele>
        <time>2013-12-07T11:07:01.000Z</time>
      </trkpt>
      <trkpt lat="43.74526" lon="7.31538">
        <ele>85.800003051758</ele>
        <time>2013-12-07T11:07:04.000Z</time>
      </trkpt>
      <trkpt lat="43.74521" lon="7.31533">
        <ele>85.800003051758</ele>
        <time>2013-12-07T11:07:05.000Z</time>
      </trkpt>
      <trkpt lat="43.74482" lon="7.31493">
        <ele>83.199996948242</ele>
        <time>2013-12-07T11:07:12.000Z</time>
      </trkpt>
      <trkpt lat="43.74463" lon="7.31462">
        <ele>81.800003051758</ele>
        <time>2013-12-07T11:07:16.000Z</time>
      </trkpt>
      <trkpt lat="43.74459" lon="7.31454">
        <ele>81.199996948242</ele>
        <time>2013-12-07T11:07:17.000Z</time>
      </trkpt>
      <trkpt lat="43.74441" lon="7.31446">
        <ele>81.800003051758</ele>
        <time>2013-12-07T11:07:20.000Z</time>
      </trkpt>
      <trkpt lat="43.74434" lon="7.31445">
        <ele>82.199996948242</ele>
        <time>2013-12-07T11:07:21.000Z</time>
      </trkpt>
      <trkpt lat="43.74426" lon="7.31442">
        <ele>82.400001525879</ele>
        <time>2013-12-07T11:07:22.000Z</time>
      </trkpt>
      <trkpt lat="43.74415" lon="7.31435">
        <ele>82.199996948242</ele>
        <time>2013-12-07T11:07:24.000Z</time>
      </trkpt>
      <trkpt lat="43.74397" lon="7.31434">
        <ele>82.199996948242</ele>
        <time>2013-12-07T11:07:27.000Z</time>
      </trkpt>
      <trkpt lat="43.7439" lon="7.31439">
        <ele>82.599998474121</ele>
        <time>2013-12-07T11:07:29.000Z</time>
      </trkpt>
      <trkpt lat="43.7439" lon="7.3145">
        <ele>83.800003051758</ele>
        <time>2013-12-07T11:07:30.000Z</time>
      </trkpt>
      <trkpt lat="43.74385" lon="7.31475">
        <ele>86.400001525879</ele>
        <time>2013-12-07T11:07:34.000Z</time>
      </trkpt>
      <trkpt lat="43.74384" lon="7.31486">
        <ele>87.400001525879</ele>
        <time>2013-12-07T11:07:36.000Z</time>
      </trkpt>
      <trkpt lat="43.74384" lon="7.31492">
        <ele>88</ele>
        <time>2013-12-07T11:07:37.000Z</time>
      </trkpt>
      <trkpt lat="43.74388" lon="7.31513">
        <ele>89.800003051758</ele>
        <time>2013-12-07T11:07:41.000Z</time>
      </trkpt>
      <trkpt lat="43.74396" lon="7.31549">
        <ele>92.400001525879</ele>
        <time>2013-12-07T11:07:48.000Z</time>
      </trkpt>
      <trkpt lat="43.74396" lon="7.31582">
        <ele>94.800003051758</ele>
        <time>2013-12-07T11:07:55.000Z</time>
      </trkpt>
      <trkpt lat="43.74393" lon="7.3161">
        <ele>95.199996948242</ele>
        <time>2013-12-07T11:08:02.000Z</time>
      </trkpt>
      <trkpt lat="43.74394" lon="7.31635">
        <ele>95.800003051758</ele>
        <time>2013-12-07T11:08:08.000Z</time>
      </trkpt>
      <trkpt lat="43.74393" lon="7.31673">
        <ele>96.400001525879</ele>
        <time>2013-12-07T11:08:14.000Z</time>
      </trkpt>
      <trkpt lat="43.74394" lon="7.31691">
        <ele>96</ele>
        <time>2013-12-07T11:08:17.000Z</time>
      </trkpt>
      <trkpt lat="43.74397" lon="7.31709">
        <ele>96</ele>
        <time>2013-12-07T11:08:20.000Z</time>
      </trkpt>
      <trkpt lat="43.74399" lon="7.3172">
        <ele>95.800003051758</ele>
        <time>2013-12-07T11:08:22.000Z</time>
      </trkpt>
      <trkpt lat="43.74403" lon="7.31743">
        <ele>95.400001525879</ele>
        <time>2013-12-07T11:08:26.000Z</time>
      </trkpt>
      <trkpt lat="43.74402" lon="7.31767">
        <ele>94</ele>
        <time>2013-12-07T11:08:31.000Z</time>
      </trkpt>
      <trkpt lat="43.74396" lon="7.31775">
        <ele>93.400001525879</ele>
        <time>2013-12-07T11:08:35.000Z</time>
      </trkpt>
      <trkpt lat="43.74395" lon="7.31775">
        <ele>93.199996948242</ele>
        <time>2013-12-07T11:08:42.000Z</time>
      </trkpt>
      <trkpt lat="43.74391" lon="7.31777">
        <ele>93</ele>
        <time>2013-12-07T11:08:49.000Z</time>
      </trkpt>
      <trkpt lat="43.74381" lon="7.3178">
        <ele>92.400001525879</ele>
        <time>2013-12-07T11:08:53.000Z</time>
      </trkpt>
      <trkpt lat="43.74371" lon="7.31774">
        <ele>92.199996948242</ele>
        <time>2013-12-07T11:08:57.000Z</time>
      </trkpt>
      <trkpt lat="43.74365" lon="7.3178">
        <ele>91.800003051758</ele>
        <time>2013-12-07T11:09:01.000Z</time>
      </trkpt>
      <trkpt lat="43.74369" lon="7.31789">
        <ele>91.599998474121</ele>
        <time>2013-12-07T11:09:03.000Z</time>
      </trkpt>
      <trkpt lat="43.74371" lon="7.31794">
        <ele>91.599998474121</ele>
        <time>2013-12-07T11:09:04.000Z</time>
      </trkpt>
      <trkpt lat="43.74378" lon="7.31814">
        <ele>90.800003051758</ele>
        <time>2013-12-07T11:09:10.000Z</time>
      </trkpt>
      <trkpt lat="43.74378" lon="7.31814">
        <ele>90.800003051758</ele>
        <time>2013-12-07T11:09:14.000Z</time>
      </trkpt>
      <trkpt lat="43.74375" lon="7.31814">
        <ele>90.800003051758</ele>
        <time>2013-12-07T11:16:45.000Z</time>
      </trkpt>
      <trkpt lat="43.74373" lon="7.31801">
        <ele>91.199996948242</ele>
        <time>2013-12-07T11:17:06.000Z</time>
      </trkpt>
      <trkpt lat="43.74363" lon="7.31776">
        <ele>92</ele>
        <time>2013-12-07T11:17:12.000Z</time>
      </trkpt>
      <trkpt lat="43.74363" lon="7.31776">
        <ele>91.800003051758</ele>
        <time>2013-12-07T11:17:15.000Z</time>
      </trkpt>
      <trkpt lat="43.74365" lon="7.31781">
        <ele>91.800003051758</ele>
        <time>2013-12-07T11:17:20.000Z</time>
      </trkpt>
      <trkpt lat="43.74365" lon="7.3178">
        <ele>91.800003051758</ele>
        <time>2013-12-07T11:17:21.000Z</time>
      </trkpt>
      <trkpt lat="43.7436" lon="7.31766">
        <ele>92.199996948242</ele>
        <time>2013-12-07T11:17:26.000Z</time>
      </trkpt>
      <trkpt lat="43.7436" lon="7.31755">
        <ele>92.400001525879</ele>
        <time>2013-12-07T11:17:28.000Z</time>
      </trkpt>
      <trkpt lat="43.74361" lon="7.3175">
        <ele>92.599998474121</ele>
        <time>2013-12-07T11:17:29.000Z</time>
      </trkpt>
      <trkpt lat="43.74354" lon="7.31734">
        <ele>92</ele>
        <time>2013-12-07T11:17:32.000Z</time>
      </trkpt>
      <trkpt lat="43.74342" lon="7.31707">
        <ele>90.400001525879</ele>
        <time>2013-12-07T11:17:36.000Z</time>
      </trkpt>
      <trkpt lat="43.7434" lon="7.31699">
        <ele>89.800003051758</ele>
        <time>2013-12-07T11:17:37.000Z</time>
      </trkpt>
      <trkpt lat="43.74319" lon="7.31644">
        <ele>87</ele>
        <time>2013-12-07T11:17:44.000Z</time>
      </trkpt>
      <trkpt lat="43.74301" lon="7.31603">
        <ele>85.599998474121</ele>
        <time>2013-12-07T11:17:50.000Z</time>
      </trkpt>
      <trkpt lat="43.74297" lon="7.31594">
        <ele>85.400001525879</ele>
        <time>2013-12-07T11:17:52.000Z</time>
      </trkpt>
      <trkpt lat="43.74295" lon="7.31587">
        <ele>85.199996948242</ele>
        <time>2013-12-07T11:17:54.000Z</time>
      </trkpt>
      <trkpt lat="43.74293" lon="7.3158">
        <ele>85</ele>
        <time>2013-12-07T11:17:56.000Z</time>
      </trkpt>
      <trkpt lat="43.74286" lon="7.31568">
        <ele>84.199996948242</ele>
        <time>2013-12-07T11:17:59.000Z</time>
      </trkpt>
      <trkpt lat="43.74271" lon="7.31559">
        <ele>83</ele>
        <time>2013-12-07T11:18:03.000Z</time>
      </trkpt>
      <trkpt lat="43.74263" lon="7.31538">
        <ele>82</ele>
        <time>2013-12-07T11:18:07.000Z</time>
      </trkpt>
      <trkpt lat="43.74248" lon="7.31498">
        <ele>80</ele>
        <time>2013-12-07T11:18:14.000Z</time>
      </trkpt>
      <trkpt lat="43.74245" lon="7.31486">
        <ele>79.599998474121</ele>
        <time>2013-12-07T11:18:18.000Z</time>
      </trkpt>
      <trkpt lat="43.74244" lon="7.31485">
        <ele>79.400001525879</ele>
        <time>2013-12-07T11:18:19.000Z</time>
      </trkpt>
      <trkpt lat="43.74241" lon="7.31489">
        <ele>79.400001525879</ele>
        <time>2013-12-07T11:18:22.000Z</time>
      </trkpt>
      <trkpt lat="43.7424" lon="7.3149">
        <ele>79.400001525879</ele>
        <time>2013-12-07T11:18:23.000Z</time>
      </trkpt>
      <trkpt lat="43.74233" lon="7.31491">
        <ele>79.199996948242</ele>
        <time>2013-12-07T11:18:27.000Z</time>
      </trkpt>
      <trkpt lat="43.74231" lon="7.31491">
        <ele>79.199996948242</ele>
        <time>2013-12-07T11:18:29.000Z</time>
      </trkpt>
      <trkpt lat="43.74226" lon="7.31494">
        <ele>79</ele>
        <time>2013-12-07T11:18:34.000Z</time>
      </trkpt>
      <trkpt lat="43.74221" lon="7.31493">
        <ele>78.800003051758</ele>
        <time>2013-12-07T11:18:43.000Z</time>
      </trkpt>
      <trkpt lat="43.74222" lon="7.31492">
        <ele>78.800003051758</ele>
        <time>2013-12-07T11:20:25.000Z</time>
      </trkpt>
      <trkpt lat="43.74223" lon="7.31495">
        <ele>79</ele>
        <time>2013-12-07T11:20:34.000Z</time>
      </trkpt>
      <trkpt lat="43.74217" lon="7.31496">
        <ele>78.800003051758</ele>
        <time>2013-12-07T11:42:12.000Z</time>
      </trkpt>
      <trkpt lat="43.74215" lon="7.31505">
        <ele>78.800003051758</ele>
        <time>2013-12-07T11:43:36.000Z</time>
      </trkpt>
      <trkpt lat="43.74218" lon="7.31512">
        <ele>79</ele>
        <time>2013-12-07T11:44:50.000Z</time>
      </trkpt>
    </trkseg>
  </trk>
</gpx>